<?xml version="1.0" encoding="UTF-8" standalone="no" ?>
<gpx xmlns="http://www.topografix.com/GPX/1/1" xmlns:xsi="http://www.w3.org/2001/XMLSchema-instance" xsi:schemaLocation="http://www.topografix.com/GPX/1/1 http://www.topografix.com/GPX/1/1/gpx.xsd" version="1.1" creator="VisuGPX - https://www.visugpx.com">
  <metadata>
    <name>La Montagnette par le vallon d\'Arizes (Vallée de Campan 65)</name>
    <desc><![CDATA[La Montagnette par le vallon d\'Arizes (Vallée de Campan 65)]]></desc>
  </metadata>
  <trk>
    <name><![CDATA[La Montagnette par le vallon d\'Arizes (Vallée de Campan 65)_1]]></name>
    <trkseg>
      <trkpt lat="42.92424" lon="0.1966">
        <ele>1467.9</ele>
        <time>2015-03-29T09:33:58Z</time>
      </trkpt>
      <trkpt lat="42.92426" lon="0.1966">
        <ele>1467.9</ele>
        <time>2015-03-29T09:34:01Z</time>
      </trkpt>
      <trkpt lat="42.92433" lon="0.19674">
        <ele>1461.5742117013</ele>
        <time>2015-03-29T09:34:07Z</time>
      </trkpt>
      <trkpt lat="42.92442" lon="0.1968">
        <ele>1460.6256275177</ele>
        <time>2015-03-29T09:34:12Z</time>
      </trkpt>
      <trkpt lat="42.92454" lon="0.19694">
        <ele>1462.4166129354</ele>
        <time>2015-03-29T09:34:17Z</time>
      </trkpt>
      <trkpt lat="42.92457" lon="0.19697">
        <ele>1462.4166129354</ele>
        <time>2015-03-29T09:34:22Z</time>
      </trkpt>
      <trkpt lat="42.92524" lon="0.19767">
        <ele>1444.0385981731</ele>
        <time>2015-03-29T09:34:27Z</time>
      </trkpt>
      <trkpt lat="42.92525" lon="0.1977">
        <ele>1444.0385981731</ele>
        <time>2015-03-29T09:34:32Z</time>
      </trkpt>
      <trkpt lat="42.92533" lon="0.19776">
        <ele>1437.5962717041</ele>
        <time>2015-03-29T09:35:17Z</time>
      </trkpt>
      <trkpt lat="42.92526" lon="0.19767">
        <ele>1433.8360474885</ele>
        <time>2015-03-29T09:35:37Z</time>
      </trkpt>
      <trkpt lat="42.92523" lon="0.19763">
        <ele>1433.8360474885</ele>
        <time>2015-03-29T09:35:42Z</time>
      </trkpt>
      <trkpt lat="42.92521" lon="0.19763">
        <ele>1433.8360474885</ele>
        <time>2015-03-29T09:35:47Z</time>
      </trkpt>
      <trkpt lat="42.92519" lon="0.19761">
        <ele>1433.8360474885</ele>
        <time>2015-03-29T09:35:52Z</time>
      </trkpt>
      <trkpt lat="42.92518" lon="0.19761">
        <ele>1430.0149183766</ele>
        <time>2015-03-29T09:35:57Z</time>
      </trkpt>
      <trkpt lat="42.9251" lon="0.19756">
        <ele>1425.6810468579</ele>
        <time>2015-03-29T09:36:12Z</time>
      </trkpt>
      <trkpt lat="42.92507" lon="0.19753">
        <ele>1425.6810468579</ele>
        <time>2015-03-29T09:36:17Z</time>
      </trkpt>
      <trkpt lat="42.92504" lon="0.19751">
        <ele>1425.6810468579</ele>
        <time>2015-03-29T09:36:22Z</time>
      </trkpt>
      <trkpt lat="42.92502" lon="0.1975">
        <ele>1420.834951929</ele>
        <time>2015-03-29T09:36:27Z</time>
      </trkpt>
      <trkpt lat="42.925" lon="0.19751">
        <ele>1420.834951929</ele>
        <time>2015-03-29T09:36:32Z</time>
      </trkpt>
      <trkpt lat="42.92498" lon="0.19737">
        <ele>1415.204171105</ele>
        <time>2015-03-29T09:36:47Z</time>
      </trkpt>
      <trkpt lat="42.92501" lon="0.19733">
        <ele>1415.204171105</ele>
        <time>2015-03-29T09:36:51Z</time>
      </trkpt>
      <trkpt lat="42.92507" lon="0.19726">
        <ele>1408.6019646579</ele>
        <time>2015-03-29T09:36:58Z</time>
      </trkpt>
      <trkpt lat="42.92513" lon="0.19724">
        <ele>1408.6019646579</ele>
        <time>2015-03-29T09:37:01Z</time>
      </trkpt>
      <trkpt lat="42.92517" lon="0.19719">
        <ele>1401.7314053678</ele>
        <time>2015-03-29T09:37:07Z</time>
      </trkpt>
      <trkpt lat="42.92518" lon="0.19718">
        <ele>1401.7314053678</ele>
        <time>2015-03-29T09:37:11Z</time>
      </trkpt>
      <trkpt lat="42.92519" lon="0.19718">
        <ele>1401.7314053678</ele>
        <time>2015-03-29T09:37:17Z</time>
      </trkpt>
      <trkpt lat="42.9251" lon="0.19715">
        <ele>1394.9156808232</ele>
        <time>2015-03-29T09:37:37Z</time>
      </trkpt>
      <trkpt lat="42.92507" lon="0.19713">
        <ele>1394.9156808232</ele>
        <time>2015-03-29T09:37:42Z</time>
      </trkpt>
      <trkpt lat="42.92501" lon="0.19719">
        <ele>1388.3881625133</ele>
        <time>2015-03-29T09:38:06Z</time>
      </trkpt>
      <trkpt lat="42.92502" lon="0.19704">
        <ele>1381.6575623858</ele>
        <time>2015-03-29T09:38:22Z</time>
      </trkpt>
      <trkpt lat="42.92504" lon="0.19701">
        <ele>1381.6575623858</ele>
        <time>2015-03-29T09:38:25Z</time>
      </trkpt>
      <trkpt lat="42.92505" lon="0.19698">
        <ele>1381.6575623858</ele>
        <time>2015-03-29T09:38:31Z</time>
      </trkpt>
      <trkpt lat="42.92504" lon="0.19698">
        <ele>1381.6575623858</ele>
        <time>2015-03-29T09:38:38Z</time>
      </trkpt>
      <trkpt lat="42.92507" lon="0.19693">
        <ele>1375.3915742001</ele>
        <time>2015-03-29T09:39:06Z</time>
      </trkpt>
      <trkpt lat="42.92509" lon="0.19692">
        <ele>1375.3915742001</ele>
        <time>2015-03-29T09:39:13Z</time>
      </trkpt>
      <trkpt lat="42.92502" lon="0.19689">
        <ele>1375.3915742001</ele>
        <time>2015-03-29T09:39:27Z</time>
      </trkpt>
      <trkpt lat="42.92505" lon="0.19686">
        <ele>1369.8547778445</ele>
        <time>2015-03-29T09:39:32Z</time>
      </trkpt>
      <trkpt lat="42.92507" lon="0.19684">
        <ele>1369.8547778445</ele>
        <time>2015-03-29T09:39:37Z</time>
      </trkpt>
      <trkpt lat="42.92509" lon="0.1968">
        <ele>1369.8547778445</ele>
        <time>2015-03-29T09:39:42Z</time>
      </trkpt>
      <trkpt lat="42.9251" lon="0.19677">
        <ele>1369.8547778445</ele>
        <time>2015-03-29T09:39:46Z</time>
      </trkpt>
      <trkpt lat="42.92506" lon="0.19673">
        <ele>1365.1272920736</ele>
        <time>2015-03-29T09:39:52Z</time>
      </trkpt>
      <trkpt lat="42.92499" lon="0.1967">
        <ele>1365.1272920736</ele>
        <time>2015-03-29T09:39:56Z</time>
      </trkpt>
      <trkpt lat="42.92494" lon="0.19667">
        <ele>1360.9389811002</ele>
        <time>2015-03-29T09:40:03Z</time>
      </trkpt>
      <trkpt lat="42.92488" lon="0.19669">
        <ele>1360.9389811002</ele>
        <time>2015-03-29T09:40:11Z</time>
      </trkpt>
      <trkpt lat="42.92484" lon="0.19674">
        <ele>1357.1639056968</ele>
        <time>2015-03-29T09:40:18Z</time>
      </trkpt>
      <trkpt lat="42.92482" lon="0.19677">
        <ele>1357.1639056968</ele>
        <time>2015-03-29T09:40:22Z</time>
      </trkpt>
      <trkpt lat="42.9248" lon="0.1968">
        <ele>1357.1639056968</ele>
        <time>2015-03-29T09:40:26Z</time>
      </trkpt>
      <trkpt lat="42.9248" lon="0.1968">
        <ele>1357.1639056968</ele>
        <time>2015-03-29T09:40:32Z</time>
      </trkpt>
      <trkpt lat="42.92482" lon="0.19678">
        <ele>1357.1639056968</ele>
        <time>2015-03-29T09:40:37Z</time>
      </trkpt>
      <trkpt lat="42.92487" lon="0.19672">
        <ele>1353.8363610077</ele>
        <time>2015-03-29T09:40:42Z</time>
      </trkpt>
      <trkpt lat="42.9249" lon="0.19669">
        <ele>1353.8363610077</ele>
        <time>2015-03-29T09:40:47Z</time>
      </trkpt>
      <trkpt lat="42.92491" lon="0.19665">
        <ele>1353.8363610077</ele>
        <time>2015-03-29T09:40:51Z</time>
      </trkpt>
      <trkpt lat="42.92494" lon="0.19658">
        <ele>1351.1609820635</ele>
        <time>2015-03-29T09:41:01Z</time>
      </trkpt>
      <trkpt lat="42.92493" lon="0.19654">
        <ele>1351.1609820635</ele>
        <time>2015-03-29T09:41:07Z</time>
      </trkpt>
      <trkpt lat="42.92488" lon="0.19652">
        <ele>1351.1609820635</ele>
        <time>2015-03-29T09:41:11Z</time>
      </trkpt>
      <trkpt lat="42.92484" lon="0.19652">
        <ele>1348.8154638028</ele>
        <time>2015-03-29T09:41:16Z</time>
      </trkpt>
      <trkpt lat="42.92483" lon="0.19653">
        <ele>1348.8154638028</ele>
        <time>2015-03-29T09:41:21Z</time>
      </trkpt>
      <trkpt lat="42.92479" lon="0.19653">
        <ele>1348.8154638028</ele>
        <time>2015-03-29T09:41:32Z</time>
      </trkpt>
      <trkpt lat="42.92479" lon="0.19654">
        <ele>1348.8154638028</ele>
        <time>2015-03-29T09:41:36Z</time>
      </trkpt>
      <trkpt lat="42.92477" lon="0.19653">
        <ele>1348.8154638028</ele>
        <time>2015-03-29T09:41:43Z</time>
      </trkpt>
      <trkpt lat="42.92475" lon="0.19644">
        <ele>1347.297712185</ele>
        <time>2015-03-29T09:42:01Z</time>
      </trkpt>
      <trkpt lat="42.92475" lon="0.19643">
        <ele>1347.297712185</ele>
        <time>2015-03-29T09:42:07Z</time>
      </trkpt>
      <trkpt lat="42.9248" lon="0.1964">
        <ele>1347.297712185</ele>
        <time>2015-03-29T09:42:11Z</time>
      </trkpt>
      <trkpt lat="42.92487" lon="0.19636">
        <ele>1345.9492156104</ele>
        <time>2015-03-29T09:42:17Z</time>
      </trkpt>
      <trkpt lat="42.92486" lon="0.19631">
        <ele>1345.9492156104</ele>
        <time>2015-03-29T09:42:21Z</time>
      </trkpt>
      <trkpt lat="42.92486" lon="0.19627">
        <ele>1345.9492156104</ele>
        <time>2015-03-29T09:42:26Z</time>
      </trkpt>
      <trkpt lat="42.92488" lon="0.19622">
        <ele>1344.8658233446</ele>
        <time>2015-03-29T09:42:32Z</time>
      </trkpt>
      <trkpt lat="42.92491" lon="0.19619">
        <ele>1344.8658233446</ele>
        <time>2015-03-29T09:42:37Z</time>
      </trkpt>
      <trkpt lat="42.92491" lon="0.19618">
        <ele>1344.8658233446</ele>
        <time>2015-03-29T09:42:42Z</time>
      </trkpt>
      <trkpt lat="42.92487" lon="0.19618">
        <ele>1344.8658233446</ele>
        <time>2015-03-29T09:42:47Z</time>
      </trkpt>
      <trkpt lat="42.92481" lon="0.19615">
        <ele>1344.1749206778</ele>
        <time>2015-03-29T09:42:52Z</time>
      </trkpt>
      <trkpt lat="42.92479" lon="0.19612">
        <ele>1344.1749206778</ele>
        <time>2015-03-29T09:42:56Z</time>
      </trkpt>
      <trkpt lat="42.9248" lon="0.19612">
        <ele>1344.1749206778</ele>
        <time>2015-03-29T09:43:01Z</time>
      </trkpt>
      <trkpt lat="42.92481" lon="0.19609">
        <ele>1344.1749206778</ele>
        <time>2015-03-29T09:43:07Z</time>
      </trkpt>
      <trkpt lat="42.92481" lon="0.19601">
        <ele>1343.8354485617</ele>
        <time>2015-03-29T09:43:22Z</time>
      </trkpt>
      <trkpt lat="42.9248" lon="0.196">
        <ele>1343.8354485617</ele>
        <time>2015-03-29T09:43:27Z</time>
      </trkpt>
      <trkpt lat="42.9248" lon="0.19598">
        <ele>1343.8354485617</ele>
        <time>2015-03-29T09:43:31Z</time>
      </trkpt>
      <trkpt lat="42.92477" lon="0.19597">
        <ele>1343.8354485617</ele>
        <time>2015-03-29T09:43:38Z</time>
      </trkpt>
      <trkpt lat="42.92471" lon="0.19587">
        <ele>1343.7976183571</ele>
        <time>2015-03-29T09:43:52Z</time>
      </trkpt>
      <trkpt lat="42.92472" lon="0.19584">
        <ele>1343.7976183571</ele>
        <time>2015-03-29T09:43:57Z</time>
      </trkpt>
      <trkpt lat="42.92471" lon="0.19581">
        <ele>1343.7976183571</ele>
        <time>2015-03-29T09:44:01Z</time>
      </trkpt>
      <trkpt lat="42.92473" lon="0.19579">
        <ele>1343.7976183571</ele>
        <time>2015-03-29T09:44:05Z</time>
      </trkpt>
      <trkpt lat="42.92471" lon="0.19573">
        <ele>1343.8781039787</ele>
        <time>2015-03-29T09:44:12Z</time>
      </trkpt>
      <trkpt lat="42.92475" lon="0.19569">
        <ele>1343.8781039787</ele>
        <time>2015-03-29T09:44:17Z</time>
      </trkpt>
      <trkpt lat="42.92475" lon="0.19566">
        <ele>1343.8781039787</ele>
        <time>2015-03-29T09:44:24Z</time>
      </trkpt>
      <trkpt lat="42.92477" lon="0.19563">
        <ele>1344.1466345925</ele>
        <time>2015-03-29T09:44:27Z</time>
      </trkpt>
      <trkpt lat="42.92477" lon="0.19562">
        <ele>1344.1466345925</ele>
        <time>2015-03-29T09:44:30Z</time>
      </trkpt>
      <trkpt lat="42.92487" lon="0.19551">
        <ele>1344.5150920953</ele>
        <time>2015-03-29T09:44:36Z</time>
      </trkpt>
      <trkpt lat="42.92489" lon="0.19551">
        <ele>1344.5150920953</ele>
        <time>2015-03-29T09:44:43Z</time>
      </trkpt>
      <trkpt lat="42.92489" lon="0.19546">
        <ele>1344.5150920953</ele>
        <time>2015-03-29T09:44:47Z</time>
      </trkpt>
      <trkpt lat="42.92487" lon="0.1954">
        <ele>1344.9578524801</ele>
        <time>2015-03-29T09:44:52Z</time>
      </trkpt>
      <trkpt lat="42.92486" lon="0.1954">
        <ele>1344.9578524801</ele>
        <time>2015-03-29T09:44:57Z</time>
      </trkpt>
      <trkpt lat="42.92487" lon="0.1954">
        <ele>1344.9578524801</ele>
        <time>2015-03-29T09:45:02Z</time>
      </trkpt>
      <trkpt lat="42.9249" lon="0.19538">
        <ele>1344.9578524801</ele>
        <time>2015-03-29T09:45:06Z</time>
      </trkpt>
      <trkpt lat="42.92492" lon="0.19533">
        <ele>1344.9578524801</ele>
        <time>2015-03-29T09:45:11Z</time>
      </trkpt>
      <trkpt lat="42.92493" lon="0.19532">
        <ele>1345.6736590606</ele>
        <time>2015-03-29T09:45:16Z</time>
      </trkpt>
      <trkpt lat="42.92493" lon="0.19528">
        <ele>1345.6736590606</ele>
        <time>2015-03-29T09:45:21Z</time>
      </trkpt>
      <trkpt lat="42.92493" lon="0.19527">
        <ele>1345.6736590606</ele>
        <time>2015-03-29T09:45:27Z</time>
      </trkpt>
      <trkpt lat="42.92495" lon="0.19523">
        <ele>1345.6736590606</ele>
        <time>2015-03-29T09:45:32Z</time>
      </trkpt>
      <trkpt lat="42.92497" lon="0.19516">
        <ele>1346.6255718117</ele>
        <time>2015-03-29T09:45:46Z</time>
      </trkpt>
      <trkpt lat="42.92498" lon="0.19518">
        <ele>1346.6255718117</ele>
        <time>2015-03-29T09:45:52Z</time>
      </trkpt>
      <trkpt lat="42.925" lon="0.19515">
        <ele>1346.6255718117</ele>
        <time>2015-03-29T09:46:02Z</time>
      </trkpt>
      <trkpt lat="42.92498" lon="0.19516">
        <ele>1346.6255718117</ele>
        <time>2015-03-29T09:46:07Z</time>
      </trkpt>
      <trkpt lat="42.92496" lon="0.19516">
        <ele>1346.6255718117</ele>
        <time>2015-03-29T09:46:12Z</time>
      </trkpt>
      <trkpt lat="42.92496" lon="0.19512">
        <ele>1347.7931532466</ele>
        <time>2015-03-29T09:46:16Z</time>
      </trkpt>
      <trkpt lat="42.92499" lon="0.19508">
        <ele>1347.7931532466</ele>
        <time>2015-03-29T09:46:21Z</time>
      </trkpt>
      <trkpt lat="42.92501" lon="0.19507">
        <ele>1347.7931532466</ele>
        <time>2015-03-29T09:46:27Z</time>
      </trkpt>
      <trkpt lat="42.92498" lon="0.19506">
        <ele>1347.7931532466</ele>
        <time>2015-03-29T09:46:37Z</time>
      </trkpt>
      <trkpt lat="42.92501" lon="0.19505">
        <ele>1349.3684569806</ele>
        <time>2015-03-29T09:46:42Z</time>
      </trkpt>
      <trkpt lat="42.92503" lon="0.19503">
        <ele>1349.3684569806</ele>
        <time>2015-03-29T09:46:47Z</time>
      </trkpt>
      <trkpt lat="42.92504" lon="0.19495">
        <ele>1349.3684569806</ele>
        <time>2015-03-29T09:46:52Z</time>
      </trkpt>
      <trkpt lat="42.92506" lon="0.19495">
        <ele>1350.9798805047</ele>
        <time>2015-03-29T09:46:57Z</time>
      </trkpt>
      <trkpt lat="42.92506" lon="0.19496">
        <ele>1350.9798805047</ele>
        <time>2015-03-29T09:47:02Z</time>
      </trkpt>
      <trkpt lat="42.92504" lon="0.19491">
        <ele>1350.9798805047</ele>
        <time>2015-03-29T09:47:09Z</time>
      </trkpt>
      <trkpt lat="42.92505" lon="0.19487">
        <ele>1350.9798805047</ele>
        <time>2015-03-29T09:47:12Z</time>
      </trkpt>
      <trkpt lat="42.92509" lon="0.19488">
        <ele>1352.6314901512</ele>
        <time>2015-03-29T09:47:17Z</time>
      </trkpt>
      <trkpt lat="42.92509" lon="0.19489">
        <ele>1352.6314901512</ele>
        <time>2015-03-29T09:47:22Z</time>
      </trkpt>
      <trkpt lat="42.92504" lon="0.19484">
        <ele>1352.6314901512</ele>
        <time>2015-03-29T09:47:26Z</time>
      </trkpt>
      <trkpt lat="42.92502" lon="0.19484">
        <ele>1352.6314901512</ele>
        <time>2015-03-29T09:47:32Z</time>
      </trkpt>
      <trkpt lat="42.925" lon="0.19483">
        <ele>1354.5137866308</ele>
        <time>2015-03-29T09:47:37Z</time>
      </trkpt>
      <trkpt lat="42.9251" lon="0.19482">
        <ele>1356.4018498469</ele>
        <time>2015-03-29T09:47:42Z</time>
      </trkpt>
      <trkpt lat="42.92512" lon="0.19482">
        <ele>1356.4018498469</ele>
        <time>2015-03-29T09:47:47Z</time>
      </trkpt>
      <trkpt lat="42.9251" lon="0.19479">
        <ele>1356.4018498469</ele>
        <time>2015-03-29T09:47:51Z</time>
      </trkpt>
      <trkpt lat="42.92512" lon="0.19474">
        <ele>1358.3735036123</ele>
        <time>2015-03-29T09:47:57Z</time>
      </trkpt>
      <trkpt lat="42.92512" lon="0.19476">
        <ele>1358.3735036123</ele>
        <time>2015-03-29T09:48:02Z</time>
      </trkpt>
      <trkpt lat="42.92511" lon="0.19473">
        <ele>1358.3735036123</ele>
        <time>2015-03-29T09:48:07Z</time>
      </trkpt>
      <trkpt lat="42.92513" lon="0.19471">
        <ele>1358.3735036123</ele>
        <time>2015-03-29T09:48:12Z</time>
      </trkpt>
      <trkpt lat="42.92513" lon="0.19468">
        <ele>1358.3735036123</ele>
        <time>2015-03-29T09:48:17Z</time>
      </trkpt>
      <trkpt lat="42.92511" lon="0.19467">
        <ele>1360.7957682843</ele>
        <time>2015-03-29T09:48:22Z</time>
      </trkpt>
      <trkpt lat="42.92511" lon="0.19463">
        <ele>1360.7957682843</ele>
        <time>2015-03-29T09:48:26Z</time>
      </trkpt>
      <trkpt lat="42.92515" lon="0.19463">
        <ele>1360.7957682843</ele>
        <time>2015-03-29T09:48:32Z</time>
      </trkpt>
      <trkpt lat="42.92511" lon="0.19463">
        <ele>1363.4390792484</ele>
        <time>2015-03-29T09:48:37Z</time>
      </trkpt>
      <trkpt lat="42.92508" lon="0.19459">
        <ele>1363.4390792484</ele>
        <time>2015-03-29T09:48:42Z</time>
      </trkpt>
      <trkpt lat="42.92508" lon="0.19462">
        <ele>1363.4390792484</ele>
        <time>2015-03-29T09:48:47Z</time>
      </trkpt>
      <trkpt lat="42.9251" lon="0.19465">
        <ele>1366.0706715557</ele>
        <time>2015-03-29T09:48:52Z</time>
      </trkpt>
      <trkpt lat="42.92508" lon="0.19466">
        <ele>1366.0706715557</ele>
        <time>2015-03-29T09:48:57Z</time>
      </trkpt>
      <trkpt lat="42.92508" lon="0.19468">
        <ele>1366.0706715557</ele>
        <time>2015-03-29T09:49:01Z</time>
      </trkpt>
      <trkpt lat="42.92505" lon="0.19466">
        <ele>1366.0706715557</ele>
        <time>2015-03-29T09:49:07Z</time>
      </trkpt>
      <trkpt lat="42.92505" lon="0.19464">
        <ele>1366.0706715557</ele>
        <time>2015-03-29T09:49:11Z</time>
      </trkpt>
      <trkpt lat="42.92505" lon="0.19464">
        <ele>1366.0706715557</ele>
        <time>2015-03-29T09:49:17Z</time>
      </trkpt>
      <trkpt lat="42.92504" lon="0.1946">
        <ele>1369.3208417403</ele>
        <time>2015-03-29T09:49:22Z</time>
      </trkpt>
      <trkpt lat="42.92504" lon="0.19458">
        <ele>1369.3208417403</ele>
        <time>2015-03-29T09:49:27Z</time>
      </trkpt>
      <trkpt lat="42.92499" lon="0.19455">
        <ele>1369.3208417403</ele>
        <time>2015-03-29T09:49:32Z</time>
      </trkpt>
      <trkpt lat="42.92501" lon="0.19453">
        <ele>1369.3208417403</ele>
        <time>2015-03-29T09:49:36Z</time>
      </trkpt>
      <trkpt lat="42.92505" lon="0.19452">
        <ele>1372.4480027324</ele>
        <time>2015-03-29T09:49:42Z</time>
      </trkpt>
      <trkpt lat="42.92508" lon="0.19448">
        <ele>1372.4480027324</ele>
        <time>2015-03-29T09:49:47Z</time>
      </trkpt>
      <trkpt lat="42.92511" lon="0.19443">
        <ele>1375.2232621012</ele>
        <time>2015-03-29T09:49:52Z</time>
      </trkpt>
      <trkpt lat="42.92513" lon="0.19442">
        <ele>1375.2232621012</ele>
        <time>2015-03-29T09:49:57Z</time>
      </trkpt>
      <trkpt lat="42.92514" lon="0.19441">
        <ele>1375.2232621012</ele>
        <time>2015-03-29T09:50:02Z</time>
      </trkpt>
      <trkpt lat="42.92511" lon="0.19437">
        <ele>1375.2232621012</ele>
        <time>2015-03-29T09:50:07Z</time>
      </trkpt>
      <trkpt lat="42.92509" lon="0.19431">
        <ele>1377.9470861415</ele>
        <time>2015-03-29T09:50:12Z</time>
      </trkpt>
      <trkpt lat="42.92511" lon="0.19429">
        <ele>1377.9470861415</ele>
        <time>2015-03-29T09:50:16Z</time>
      </trkpt>
      <trkpt lat="42.92512" lon="0.19425">
        <ele>1377.9470861415</ele>
        <time>2015-03-29T09:50:22Z</time>
      </trkpt>
      <trkpt lat="42.92512" lon="0.19421">
        <ele>1377.9470861415</ele>
        <time>2015-03-29T09:50:26Z</time>
      </trkpt>
      <trkpt lat="42.92511" lon="0.19418">
        <ele>1380.539030772</ele>
        <time>2015-03-29T09:50:31Z</time>
      </trkpt>
      <trkpt lat="42.92513" lon="0.19408">
        <ele>1380.539030772</ele>
        <time>2015-03-29T09:50:37Z</time>
      </trkpt>
      <trkpt lat="42.92515" lon="0.19402">
        <ele>1383.0011807312</ele>
        <time>2015-03-29T09:50:42Z</time>
      </trkpt>
      <trkpt lat="42.92518" lon="0.19397">
        <ele>1383.0011807312</ele>
        <time>2015-03-29T09:50:47Z</time>
      </trkpt>
      <trkpt lat="42.9252" lon="0.1939">
        <ele>1385.3670010341</ele>
        <time>2015-03-29T09:50:52Z</time>
      </trkpt>
      <trkpt lat="42.92522" lon="0.19384">
        <ele>1385.3670010341</ele>
        <time>2015-03-29T09:50:57Z</time>
      </trkpt>
      <trkpt lat="42.9252" lon="0.19377">
        <ele>1387.6986842516</ele>
        <time>2015-03-29T09:51:02Z</time>
      </trkpt>
      <trkpt lat="42.92519" lon="0.19376">
        <ele>1387.6986842516</ele>
        <time>2015-03-29T09:51:08Z</time>
      </trkpt>
      <trkpt lat="42.92517" lon="0.19371">
        <ele>1387.6986842516</ele>
        <time>2015-03-29T09:51:11Z</time>
      </trkpt>
      <trkpt lat="42.92518" lon="0.19366">
        <ele>1389.9335517267</ele>
        <time>2015-03-29T09:51:17Z</time>
      </trkpt>
      <trkpt lat="42.9252" lon="0.19361">
        <ele>1389.9335517267</ele>
        <time>2015-03-29T09:51:21Z</time>
      </trkpt>
      <trkpt lat="42.9252" lon="0.19358">
        <ele>1389.9335517267</ele>
        <time>2015-03-29T09:51:27Z</time>
      </trkpt>
      <trkpt lat="42.9252" lon="0.19354">
        <ele>1392.2106276822</ele>
        <time>2015-03-29T09:51:32Z</time>
      </trkpt>
      <trkpt lat="42.92515" lon="0.19347">
        <ele>1392.2106276822</ele>
        <time>2015-03-29T09:51:37Z</time>
      </trkpt>
      <trkpt lat="42.92516" lon="0.19344">
        <ele>1394.3418317435</ele>
        <time>2015-03-29T09:51:42Z</time>
      </trkpt>
      <trkpt lat="42.92514" lon="0.19337">
        <ele>1394.3418317435</ele>
        <time>2015-03-29T09:51:47Z</time>
      </trkpt>
      <trkpt lat="42.92508" lon="0.19329">
        <ele>1396.2303761762</ele>
        <time>2015-03-29T09:51:52Z</time>
      </trkpt>
      <trkpt lat="42.92502" lon="0.19321">
        <ele>1396.2303761762</ele>
        <time>2015-03-29T09:51:56Z</time>
      </trkpt>
      <trkpt lat="42.92498" lon="0.19315">
        <ele>1397.9535984433</ele>
        <time>2015-03-29T09:52:01Z</time>
      </trkpt>
      <trkpt lat="42.92496" lon="0.1931">
        <ele>1397.9535984433</ele>
        <time>2015-03-29T09:52:07Z</time>
      </trkpt>
      <trkpt lat="42.92494" lon="0.19303">
        <ele>1399.5233390319</ele>
        <time>2015-03-29T09:52:12Z</time>
      </trkpt>
      <trkpt lat="42.92491" lon="0.19296">
        <ele>1399.5233390319</ele>
        <time>2015-03-29T09:52:17Z</time>
      </trkpt>
      <trkpt lat="42.92482" lon="0.19288">
        <ele>1400.9660300918</ele>
        <time>2015-03-29T09:52:21Z</time>
      </trkpt>
      <trkpt lat="42.92479" lon="0.19284">
        <ele>1400.9660300918</ele>
        <time>2015-03-29T09:52:27Z</time>
      </trkpt>
      <trkpt lat="42.92477" lon="0.19276">
        <ele>1402.3361701678</ele>
        <time>2015-03-29T09:52:32Z</time>
      </trkpt>
      <trkpt lat="42.9248" lon="0.19271">
        <ele>1402.3361701678</ele>
        <time>2015-03-29T09:52:37Z</time>
      </trkpt>
      <trkpt lat="42.92485" lon="0.19266">
        <ele>1403.5651005629</ele>
        <time>2015-03-29T09:52:42Z</time>
      </trkpt>
      <trkpt lat="42.92486" lon="0.1926">
        <ele>1403.5651005629</ele>
        <time>2015-03-29T09:52:47Z</time>
      </trkpt>
      <trkpt lat="42.92488" lon="0.19256">
        <ele>1403.5651005629</ele>
        <time>2015-03-29T09:52:52Z</time>
      </trkpt>
      <trkpt lat="42.92491" lon="0.19251">
        <ele>1404.7534210429</ele>
        <time>2015-03-29T09:52:57Z</time>
      </trkpt>
      <trkpt lat="42.92495" lon="0.19248">
        <ele>1404.7534210429</ele>
        <time>2015-03-29T09:53:02Z</time>
      </trkpt>
      <trkpt lat="42.92498" lon="0.19243">
        <ele>1405.9195119253</ele>
        <time>2015-03-29T09:53:06Z</time>
      </trkpt>
      <trkpt lat="42.925" lon="0.19237">
        <ele>1405.9195119253</ele>
        <time>2015-03-29T09:53:12Z</time>
      </trkpt>
      <trkpt lat="42.92505" lon="0.19232">
        <ele>1406.9623431101</ele>
        <time>2015-03-29T09:53:17Z</time>
      </trkpt>
      <trkpt lat="42.92509" lon="0.19229">
        <ele>1406.9623431101</ele>
        <time>2015-03-29T09:53:22Z</time>
      </trkpt>
      <trkpt lat="42.92515" lon="0.19227">
        <ele>1407.6278531012</ele>
        <time>2015-03-29T09:53:27Z</time>
      </trkpt>
      <trkpt lat="42.9252" lon="0.19226">
        <ele>1407.6278531012</ele>
        <time>2015-03-29T09:53:32Z</time>
      </trkpt>
      <trkpt lat="42.92523" lon="0.19226">
        <ele>1407.6278531012</ele>
        <time>2015-03-29T09:53:37Z</time>
      </trkpt>
      <trkpt lat="42.9253" lon="0.19226">
        <ele>1408.2418330512</ele>
        <time>2015-03-29T09:53:42Z</time>
      </trkpt>
      <trkpt lat="42.92532" lon="0.19228">
        <ele>1408.2418330512</ele>
        <time>2015-03-29T09:53:46Z</time>
      </trkpt>
      <trkpt lat="42.92537" lon="0.19232">
        <ele>1408.2418330512</ele>
        <time>2015-03-29T09:53:52Z</time>
      </trkpt>
      <trkpt lat="42.92542" lon="0.19236">
        <ele>1408.8396616136</ele>
        <time>2015-03-29T09:53:57Z</time>
      </trkpt>
      <trkpt lat="42.92545" lon="0.1924">
        <ele>1408.8396616136</ele>
        <time>2015-03-29T09:54:02Z</time>
      </trkpt>
      <trkpt lat="42.92547" lon="0.19245">
        <ele>1408.8396616136</ele>
        <time>2015-03-29T09:54:07Z</time>
      </trkpt>
      <trkpt lat="42.92551" lon="0.19244">
        <ele>1409.7462557475</ele>
        <time>2015-03-29T09:54:12Z</time>
      </trkpt>
      <trkpt lat="42.92553" lon="0.19241">
        <ele>1409.7462557475</ele>
        <time>2015-03-29T09:54:17Z</time>
      </trkpt>
      <trkpt lat="42.92553" lon="0.19239">
        <ele>1409.7462557475</ele>
        <time>2015-03-29T09:54:22Z</time>
      </trkpt>
      <trkpt lat="42.92552" lon="0.19231">
        <ele>1410.6466452721</ele>
        <time>2015-03-29T09:54:27Z</time>
      </trkpt>
      <trkpt lat="42.92548" lon="0.19229">
        <ele>1410.6466452721</ele>
        <time>2015-03-29T09:54:32Z</time>
      </trkpt>
      <trkpt lat="42.92548" lon="0.19219">
        <ele>1411.5427270586</ele>
        <time>2015-03-29T09:54:37Z</time>
      </trkpt>
      <trkpt lat="42.92548" lon="0.19214">
        <ele>1411.5427270586</ele>
        <time>2015-03-29T09:54:41Z</time>
      </trkpt>
      <trkpt lat="42.92548" lon="0.19208">
        <ele>1411.5427270586</ele>
        <time>2015-03-29T09:54:47Z</time>
      </trkpt>
      <trkpt lat="42.92551" lon="0.19205">
        <ele>1412.4654035544</ele>
        <time>2015-03-29T09:54:52Z</time>
      </trkpt>
      <trkpt lat="42.9255" lon="0.192">
        <ele>1412.4654035544</ele>
        <time>2015-03-29T09:54:56Z</time>
      </trkpt>
      <trkpt lat="42.92551" lon="0.1919">
        <ele>1413.3850356856</ele>
        <time>2015-03-29T09:55:01Z</time>
      </trkpt>
      <trkpt lat="42.9255" lon="0.19184">
        <ele>1413.3850356856</ele>
        <time>2015-03-29T09:55:07Z</time>
      </trkpt>
      <trkpt lat="42.9255" lon="0.19179">
        <ele>1413.3850356856</ele>
        <time>2015-03-29T09:55:12Z</time>
      </trkpt>
      <trkpt lat="42.92549" lon="0.19174">
        <ele>1414.3759181173</ele>
        <time>2015-03-29T09:55:16Z</time>
      </trkpt>
      <trkpt lat="42.92547" lon="0.19168">
        <ele>1414.3759181173</ele>
        <time>2015-03-29T09:55:22Z</time>
      </trkpt>
      <trkpt lat="42.92549" lon="0.19163">
        <ele>1414.3759181173</ele>
        <time>2015-03-29T09:55:27Z</time>
      </trkpt>
      <trkpt lat="42.92555" lon="0.19162">
        <ele>1415.4195015442</ele>
        <time>2015-03-29T09:55:32Z</time>
      </trkpt>
      <trkpt lat="42.9256" lon="0.19161">
        <ele>1415.4195015442</ele>
        <time>2015-03-29T09:55:37Z</time>
      </trkpt>
      <trkpt lat="42.92559" lon="0.19157">
        <ele>1415.4195015442</ele>
        <time>2015-03-29T09:55:42Z</time>
      </trkpt>
      <trkpt lat="42.92562" lon="0.19152">
        <ele>1416.5420374738</ele>
        <time>2015-03-29T09:55:47Z</time>
      </trkpt>
      <trkpt lat="42.92564" lon="0.1915">
        <ele>1416.5420374738</ele>
        <time>2015-03-29T09:55:52Z</time>
      </trkpt>
      <trkpt lat="42.92565" lon="0.19144">
        <ele>1416.5420374738</ele>
        <time>2015-03-29T09:55:57Z</time>
      </trkpt>
      <trkpt lat="42.92568" lon="0.19138">
        <ele>1417.7242370134</ele>
        <time>2015-03-29T09:56:02Z</time>
      </trkpt>
      <trkpt lat="42.9257" lon="0.19133">
        <ele>1417.7242370134</ele>
        <time>2015-03-29T09:56:07Z</time>
      </trkpt>
      <trkpt lat="42.92569" lon="0.19127">
        <ele>1418.8036821687</ele>
        <time>2015-03-29T09:56:12Z</time>
      </trkpt>
      <trkpt lat="42.92568" lon="0.1912">
        <ele>1418.8036821687</ele>
        <time>2015-03-29T09:56:17Z</time>
      </trkpt>
      <trkpt lat="42.92568" lon="0.19119">
        <ele>1418.8036821687</ele>
        <time>2015-03-29T09:56:22Z</time>
      </trkpt>
      <trkpt lat="42.92571" lon="0.19119">
        <ele>1418.8036821687</ele>
        <time>2015-03-29T09:56:29Z</time>
      </trkpt>
      <trkpt lat="42.92574" lon="0.19123">
        <ele>1419.7316927347</ele>
        <time>2015-03-29T09:56:31Z</time>
      </trkpt>
      <trkpt lat="42.92573" lon="0.19119">
        <ele>1419.7316927347</ele>
        <time>2015-03-29T09:56:57Z</time>
      </trkpt>
      <trkpt lat="42.92573" lon="0.19114">
        <ele>1419.7316927347</ele>
        <time>2015-03-29T09:57:01Z</time>
      </trkpt>
      <trkpt lat="42.92574" lon="0.19107">
        <ele>1421.0122093693</ele>
        <time>2015-03-29T09:57:07Z</time>
      </trkpt>
      <trkpt lat="42.92573" lon="0.191">
        <ele>1421.0122093693</ele>
        <time>2015-03-29T09:57:12Z</time>
      </trkpt>
      <trkpt lat="42.92577" lon="0.19094">
        <ele>1422.1435754442</ele>
        <time>2015-03-29T09:57:16Z</time>
      </trkpt>
      <trkpt lat="42.92579" lon="0.19087">
        <ele>1422.1435754442</ele>
        <time>2015-03-29T09:57:22Z</time>
      </trkpt>
      <trkpt lat="42.9258" lon="0.19081">
        <ele>1423.1670184986</ele>
        <time>2015-03-29T09:57:26Z</time>
      </trkpt>
      <trkpt lat="42.9258" lon="0.19076">
        <ele>1423.1670184986</ele>
        <time>2015-03-29T09:57:32Z</time>
      </trkpt>
      <trkpt lat="42.92582" lon="0.19072">
        <ele>1423.1670184986</ele>
        <time>2015-03-29T09:57:36Z</time>
      </trkpt>
      <trkpt lat="42.92578" lon="0.1907">
        <ele>1424.1353828108</ele>
        <time>2015-03-29T09:57:42Z</time>
      </trkpt>
      <trkpt lat="42.92579" lon="0.19064">
        <ele>1424.1353828108</ele>
        <time>2015-03-29T09:57:47Z</time>
      </trkpt>
      <trkpt lat="42.92579" lon="0.19063">
        <ele>1424.1353828108</ele>
        <time>2015-03-29T09:57:52Z</time>
      </trkpt>
      <trkpt lat="42.92581" lon="0.19056">
        <ele>1425.040043788</ele>
        <time>2015-03-29T09:58:22Z</time>
      </trkpt>
      <trkpt lat="42.92583" lon="0.19052">
        <ele>1425.040043788</ele>
        <time>2015-03-29T09:58:27Z</time>
      </trkpt>
      <trkpt lat="42.92583" lon="0.19052">
        <ele>1425.040043788</ele>
        <time>2015-03-29T09:58:31Z</time>
      </trkpt>
      <trkpt lat="42.92577" lon="0.19041">
        <ele>1425.9020152013</ele>
        <time>2015-03-29T09:58:57Z</time>
      </trkpt>
      <trkpt lat="42.92572" lon="0.1904">
        <ele>1425.9020152013</ele>
        <time>2015-03-29T09:59:02Z</time>
      </trkpt>
      <trkpt lat="42.92573" lon="0.19043">
        <ele>1425.9020152013</ele>
        <time>2015-03-29T09:59:07Z</time>
      </trkpt>
      <trkpt lat="42.92584" lon="0.1904">
        <ele>1426.7552799039</ele>
        <time>2015-03-29T09:59:42Z</time>
      </trkpt>
      <trkpt lat="42.92585" lon="0.1904">
        <ele>1426.7552799039</ele>
        <time>2015-03-29T09:59:47Z</time>
      </trkpt>
      <trkpt lat="42.92581" lon="0.19044">
        <ele>1426.7552799039</ele>
        <time>2015-03-29T10:01:37Z</time>
      </trkpt>
      <trkpt lat="42.92584" lon="0.1904">
        <ele>1426.7552799039</ele>
        <time>2015-03-29T10:01:41Z</time>
      </trkpt>
      <trkpt lat="42.92586" lon="0.19035">
        <ele>1428.0638524933</ele>
        <time>2015-03-29T10:01:48Z</time>
      </trkpt>
      <trkpt lat="42.92589" lon="0.19032">
        <ele>1428.0638524933</ele>
        <time>2015-03-29T10:01:51Z</time>
      </trkpt>
      <trkpt lat="42.92592" lon="0.19028">
        <ele>1428.0638524933</ele>
        <time>2015-03-29T10:01:57Z</time>
      </trkpt>
      <trkpt lat="42.92592" lon="0.19022">
        <ele>1429.1317794222</ele>
        <time>2015-03-29T10:02:02Z</time>
      </trkpt>
      <trkpt lat="42.92591" lon="0.19016">
        <ele>1429.1317794222</ele>
        <time>2015-03-29T10:02:07Z</time>
      </trkpt>
      <trkpt lat="42.92591" lon="0.19008">
        <ele>1430.0502052529</ele>
        <time>2015-03-29T10:02:12Z</time>
      </trkpt>
      <trkpt lat="42.92593" lon="0.19004">
        <ele>1430.0502052529</ele>
        <time>2015-03-29T10:02:17Z</time>
      </trkpt>
      <trkpt lat="42.92594" lon="0.18999">
        <ele>1430.0502052529</ele>
        <time>2015-03-29T10:02:21Z</time>
      </trkpt>
      <trkpt lat="42.92595" lon="0.18992">
        <ele>1430.8174507978</ele>
        <time>2015-03-29T10:02:28Z</time>
      </trkpt>
      <trkpt lat="42.92596" lon="0.18987">
        <ele>1430.8174507978</ele>
        <time>2015-03-29T10:02:31Z</time>
      </trkpt>
      <trkpt lat="42.92597" lon="0.18983">
        <ele>1430.8174507978</ele>
        <time>2015-03-29T10:02:38Z</time>
      </trkpt>
      <trkpt lat="42.92597" lon="0.18981">
        <ele>1430.8174507978</ele>
        <time>2015-03-29T10:02:42Z</time>
      </trkpt>
      <trkpt lat="42.926" lon="0.18977">
        <ele>1431.4611857502</ele>
        <time>2015-03-29T10:02:46Z</time>
      </trkpt>
      <trkpt lat="42.92601" lon="0.18972">
        <ele>1431.4611857502</ele>
        <time>2015-03-29T10:02:52Z</time>
      </trkpt>
      <trkpt lat="42.92601" lon="0.18969">
        <ele>1431.4611857502</ele>
        <time>2015-03-29T10:02:57Z</time>
      </trkpt>
      <trkpt lat="42.926" lon="0.18963">
        <ele>1432.0938816071</ele>
        <time>2015-03-29T10:03:01Z</time>
      </trkpt>
      <trkpt lat="42.92601" lon="0.18955">
        <ele>1432.0938816071</ele>
        <time>2015-03-29T10:03:07Z</time>
      </trkpt>
      <trkpt lat="42.92602" lon="0.18952">
        <ele>1432.0938816071</ele>
        <time>2015-03-29T10:03:12Z</time>
      </trkpt>
      <trkpt lat="42.92603" lon="0.18948">
        <ele>1432.6611233625</ele>
        <time>2015-03-29T10:03:17Z</time>
      </trkpt>
      <trkpt lat="42.92605" lon="0.18946">
        <ele>1432.6611233625</ele>
        <time>2015-03-29T10:03:22Z</time>
      </trkpt>
      <trkpt lat="42.92607" lon="0.18942">
        <ele>1432.6611233625</ele>
        <time>2015-03-29T10:03:27Z</time>
      </trkpt>
      <trkpt lat="42.92607" lon="0.18939">
        <ele>1432.6611233625</ele>
        <time>2015-03-29T10:03:32Z</time>
      </trkpt>
      <trkpt lat="42.92608" lon="0.18935">
        <ele>1433.2424217934</ele>
        <time>2015-03-29T10:03:36Z</time>
      </trkpt>
      <trkpt lat="42.92608" lon="0.1893">
        <ele>1433.2424217934</ele>
        <time>2015-03-29T10:03:42Z</time>
      </trkpt>
      <trkpt lat="42.92608" lon="0.18923">
        <ele>1433.7959867857</ele>
        <time>2015-03-29T10:03:47Z</time>
      </trkpt>
      <trkpt lat="42.92609" lon="0.18918">
        <ele>1433.7959867857</ele>
        <time>2015-03-29T10:03:52Z</time>
      </trkpt>
      <trkpt lat="42.9261" lon="0.18915">
        <ele>1433.7959867857</ele>
        <time>2015-03-29T10:03:57Z</time>
      </trkpt>
      <trkpt lat="42.92608" lon="0.18909">
        <ele>1434.2975401658</ele>
        <time>2015-03-29T10:04:02Z</time>
      </trkpt>
      <trkpt lat="42.92607" lon="0.18901">
        <ele>1434.2975401658</ele>
        <time>2015-03-29T10:04:07Z</time>
      </trkpt>
      <trkpt lat="42.92606" lon="0.18893">
        <ele>1434.7535211698</ele>
        <time>2015-03-29T10:04:12Z</time>
      </trkpt>
      <trkpt lat="42.92605" lon="0.18889">
        <ele>1434.7535211698</ele>
        <time>2015-03-29T10:04:17Z</time>
      </trkpt>
      <trkpt lat="42.92604" lon="0.18884">
        <ele>1434.7535211698</ele>
        <time>2015-03-29T10:04:22Z</time>
      </trkpt>
      <trkpt lat="42.926" lon="0.18877">
        <ele>1435.2132353121</ele>
        <time>2015-03-29T10:04:27Z</time>
      </trkpt>
      <trkpt lat="42.92596" lon="0.18873">
        <ele>1435.2132353121</ele>
        <time>2015-03-29T10:04:32Z</time>
      </trkpt>
      <trkpt lat="42.92594" lon="0.18867">
        <ele>1435.6068954051</ele>
        <time>2015-03-29T10:04:37Z</time>
      </trkpt>
      <trkpt lat="42.92594" lon="0.18861">
        <ele>1435.6068954051</ele>
        <time>2015-03-29T10:04:41Z</time>
      </trkpt>
      <trkpt lat="42.92592" lon="0.18857">
        <ele>1435.6068954051</ele>
        <time>2015-03-29T10:04:47Z</time>
      </trkpt>
      <trkpt lat="42.92589" lon="0.1885">
        <ele>1435.9420812734</ele>
        <time>2015-03-29T10:04:52Z</time>
      </trkpt>
      <trkpt lat="42.92588" lon="0.18848">
        <ele>1435.9420812734</ele>
        <time>2015-03-29T10:04:57Z</time>
      </trkpt>
      <trkpt lat="42.92585" lon="0.18842">
        <ele>1435.9420812734</ele>
        <time>2015-03-29T10:05:02Z</time>
      </trkpt>
      <trkpt lat="42.92583" lon="0.18839">
        <ele>1436.2403331396</ele>
        <time>2015-03-29T10:05:07Z</time>
      </trkpt>
      <trkpt lat="42.92582" lon="0.18834">
        <ele>1436.2403331396</ele>
        <time>2015-03-29T10:05:12Z</time>
      </trkpt>
      <trkpt lat="42.92583" lon="0.1883">
        <ele>1436.2403331396</ele>
        <time>2015-03-29T10:05:17Z</time>
      </trkpt>
      <trkpt lat="42.92582" lon="0.18828">
        <ele>1436.2403331396</ele>
        <time>2015-03-29T10:05:22Z</time>
      </trkpt>
      <trkpt lat="42.92583" lon="0.18827">
        <ele>1436.6370293488</ele>
        <time>2015-03-29T10:05:25Z</time>
      </trkpt>
      <trkpt lat="42.92584" lon="0.18826">
        <ele>1436.6370293488</ele>
        <time>2015-03-29T10:05:32Z</time>
      </trkpt>
      <trkpt lat="42.92587" lon="0.18814">
        <ele>1437.5312845306</ele>
        <time>2015-03-29T10:05:42Z</time>
      </trkpt>
      <trkpt lat="42.92589" lon="0.18809">
        <ele>1437.5312845306</ele>
        <time>2015-03-29T10:05:57Z</time>
      </trkpt>
      <trkpt lat="42.92589" lon="0.18808">
        <ele>1437.5312845306</ele>
        <time>2015-03-29T10:06:02Z</time>
      </trkpt>
      <trkpt lat="42.9259" lon="0.18805">
        <ele>1437.5312845306</ele>
        <time>2015-03-29T10:06:07Z</time>
      </trkpt>
      <trkpt lat="42.92591" lon="0.18803">
        <ele>1437.5312845306</ele>
        <time>2015-03-29T10:06:12Z</time>
      </trkpt>
      <trkpt lat="42.92591" lon="0.18803">
        <ele>1438.4547919952</ele>
        <time>2015-03-29T10:06:17Z</time>
      </trkpt>
      <trkpt lat="42.92593" lon="0.18797">
        <ele>1438.4547919952</ele>
        <time>2015-03-29T10:06:32Z</time>
      </trkpt>
      <trkpt lat="42.92594" lon="0.18781">
        <ele>1439.4495176733</ele>
        <time>2015-03-29T10:06:52Z</time>
      </trkpt>
      <trkpt lat="42.92596" lon="0.18777">
        <ele>1439.4495176733</ele>
        <time>2015-03-29T10:06:57Z</time>
      </trkpt>
      <trkpt lat="42.92599" lon="0.18776">
        <ele>1439.4495176733</ele>
        <time>2015-03-29T10:07:01Z</time>
      </trkpt>
      <trkpt lat="42.92601" lon="0.1877">
        <ele>1440.4098404087</ele>
        <time>2015-03-29T10:07:07Z</time>
      </trkpt>
      <trkpt lat="42.92599" lon="0.18764">
        <ele>1440.4098404087</ele>
        <time>2015-03-29T10:07:12Z</time>
      </trkpt>
      <trkpt lat="42.92598" lon="0.18763">
        <ele>1440.4098404087</ele>
        <time>2015-03-29T10:07:17Z</time>
      </trkpt>
      <trkpt lat="42.926" lon="0.18752">
        <ele>1441.6273335884</ele>
        <time>2015-03-29T10:08:02Z</time>
      </trkpt>
      <trkpt lat="42.92602" lon="0.18747">
        <ele>1441.6273335884</ele>
        <time>2015-03-29T10:08:07Z</time>
      </trkpt>
      <trkpt lat="42.92602" lon="0.18745">
        <ele>1441.6273335884</ele>
        <time>2015-03-29T10:08:12Z</time>
      </trkpt>
      <trkpt lat="42.92603" lon="0.1874">
        <ele>1441.6273335884</ele>
        <time>2015-03-29T10:08:17Z</time>
      </trkpt>
      <trkpt lat="42.92604" lon="0.18728">
        <ele>1442.9675152823</ele>
        <time>2015-03-29T10:08:36Z</time>
      </trkpt>
      <trkpt lat="42.92603" lon="0.18725">
        <ele>1442.9675152823</ele>
        <time>2015-03-29T10:08:42Z</time>
      </trkpt>
      <trkpt lat="42.92603" lon="0.18715">
        <ele>1444.2621467581</ele>
        <time>2015-03-29T10:08:52Z</time>
      </trkpt>
      <trkpt lat="42.92603" lon="0.1871">
        <ele>1444.2621467581</ele>
        <time>2015-03-29T10:08:57Z</time>
      </trkpt>
      <trkpt lat="42.92603" lon="0.18705">
        <ele>1444.2621467581</ele>
        <time>2015-03-29T10:09:02Z</time>
      </trkpt>
      <trkpt lat="42.92607" lon="0.18694">
        <ele>1445.4852360517</ele>
        <time>2015-03-29T10:09:07Z</time>
      </trkpt>
      <trkpt lat="42.9261" lon="0.1869">
        <ele>1445.4852360517</ele>
        <time>2015-03-29T10:09:12Z</time>
      </trkpt>
      <trkpt lat="42.92613" lon="0.18686">
        <ele>1445.4852360517</ele>
        <time>2015-03-29T10:09:17Z</time>
      </trkpt>
      <trkpt lat="42.92614" lon="0.18681">
        <ele>1446.6705349216</ele>
        <time>2015-03-29T10:09:22Z</time>
      </trkpt>
      <trkpt lat="42.92613" lon="0.18676">
        <ele>1446.6705349216</ele>
        <time>2015-03-29T10:09:27Z</time>
      </trkpt>
      <trkpt lat="42.92612" lon="0.18673">
        <ele>1446.6705349216</ele>
        <time>2015-03-29T10:09:31Z</time>
      </trkpt>
      <trkpt lat="42.92614" lon="0.18669">
        <ele>1447.878207826</ele>
        <time>2015-03-29T10:09:36Z</time>
      </trkpt>
      <trkpt lat="42.92616" lon="0.18665">
        <ele>1447.878207826</ele>
        <time>2015-03-29T10:09:42Z</time>
      </trkpt>
      <trkpt lat="42.92619" lon="0.18662">
        <ele>1447.878207826</ele>
        <time>2015-03-29T10:09:47Z</time>
      </trkpt>
      <trkpt lat="42.92619" lon="0.18658">
        <ele>1449.1206337738</ele>
        <time>2015-03-29T10:09:52Z</time>
      </trkpt>
      <trkpt lat="42.9262" lon="0.18654">
        <ele>1449.1206337738</ele>
        <time>2015-03-29T10:09:57Z</time>
      </trkpt>
      <trkpt lat="42.92621" lon="0.18651">
        <ele>1449.1206337738</ele>
        <time>2015-03-29T10:10:02Z</time>
      </trkpt>
      <trkpt lat="42.92623" lon="0.18649">
        <ele>1449.1206337738</ele>
        <time>2015-03-29T10:10:07Z</time>
      </trkpt>
      <trkpt lat="42.92621" lon="0.18643">
        <ele>1450.3947318152</ele>
        <time>2015-03-29T10:10:12Z</time>
      </trkpt>
      <trkpt lat="42.9262" lon="0.18637">
        <ele>1450.3947318152</ele>
        <time>2015-03-29T10:10:17Z</time>
      </trkpt>
      <trkpt lat="42.92622" lon="0.18632">
        <ele>1451.5677852006</ele>
        <time>2015-03-29T10:10:21Z</time>
      </trkpt>
      <trkpt lat="42.92622" lon="0.18626">
        <ele>1451.5677852006</ele>
        <time>2015-03-29T10:10:27Z</time>
      </trkpt>
      <trkpt lat="42.92622" lon="0.1862">
        <ele>1451.5677852006</ele>
        <time>2015-03-29T10:10:31Z</time>
      </trkpt>
      <trkpt lat="42.92622" lon="0.18616">
        <ele>1452.7045062581</ele>
        <time>2015-03-29T10:10:37Z</time>
      </trkpt>
      <trkpt lat="42.92623" lon="0.18613">
        <ele>1452.7045062581</ele>
        <time>2015-03-29T10:10:42Z</time>
      </trkpt>
      <trkpt lat="42.92623" lon="0.1861">
        <ele>1452.7045062581</ele>
        <time>2015-03-29T10:10:47Z</time>
      </trkpt>
      <trkpt lat="42.92625" lon="0.1861">
        <ele>1452.7045062581</ele>
        <time>2015-03-29T10:10:52Z</time>
      </trkpt>
      <trkpt lat="42.92629" lon="0.18608">
        <ele>1453.9946536926</ele>
        <time>2015-03-29T10:10:57Z</time>
      </trkpt>
      <trkpt lat="42.92631" lon="0.18604">
        <ele>1453.9946536926</ele>
        <time>2015-03-29T10:11:02Z</time>
      </trkpt>
      <trkpt lat="42.92631" lon="0.18594">
        <ele>1455.2964549408</ele>
        <time>2015-03-29T10:11:07Z</time>
      </trkpt>
      <trkpt lat="42.92632" lon="0.18589">
        <ele>1455.2964549408</ele>
        <time>2015-03-29T10:11:12Z</time>
      </trkpt>
      <trkpt lat="42.92634" lon="0.18585">
        <ele>1455.2964549408</ele>
        <time>2015-03-29T10:11:17Z</time>
      </trkpt>
      <trkpt lat="42.92636" lon="0.18579">
        <ele>1456.5938337767</ele>
        <time>2015-03-29T10:11:22Z</time>
      </trkpt>
      <trkpt lat="42.92638" lon="0.18573">
        <ele>1456.5938337767</ele>
        <time>2015-03-29T10:11:27Z</time>
      </trkpt>
      <trkpt lat="42.9264" lon="0.18568">
        <ele>1456.5938337767</ele>
        <time>2015-03-29T10:11:32Z</time>
      </trkpt>
      <trkpt lat="42.92642" lon="0.18565">
        <ele>1457.7710027404</ele>
        <time>2015-03-29T10:11:36Z</time>
      </trkpt>
      <trkpt lat="42.92643" lon="0.18562">
        <ele>1457.7710027404</ele>
        <time>2015-03-29T10:11:42Z</time>
      </trkpt>
      <trkpt lat="42.92645" lon="0.18558">
        <ele>1457.7710027404</ele>
        <time>2015-03-29T10:11:47Z</time>
      </trkpt>
      <trkpt lat="42.92647" lon="0.18555">
        <ele>1457.7710027404</ele>
        <time>2015-03-29T10:11:52Z</time>
      </trkpt>
      <trkpt lat="42.92652" lon="0.18552">
        <ele>1459.0669294468</ele>
        <time>2015-03-29T10:11:57Z</time>
      </trkpt>
      <trkpt lat="42.92654" lon="0.18552">
        <ele>1459.0669294468</ele>
        <time>2015-03-29T10:12:02Z</time>
      </trkpt>
      <trkpt lat="42.92656" lon="0.1855">
        <ele>1459.0669294468</ele>
        <time>2015-03-29T10:12:07Z</time>
      </trkpt>
      <trkpt lat="42.92658" lon="0.18549">
        <ele>1459.0669294468</ele>
        <time>2015-03-29T10:12:12Z</time>
      </trkpt>
      <trkpt lat="42.92662" lon="0.18549">
        <ele>1460.4720622014</ele>
        <time>2015-03-29T10:12:16Z</time>
      </trkpt>
      <trkpt lat="42.92666" lon="0.18547">
        <ele>1460.4720622014</ele>
        <time>2015-03-29T10:12:22Z</time>
      </trkpt>
      <trkpt lat="42.92668" lon="0.18544">
        <ele>1460.4720622014</ele>
        <time>2015-03-29T10:12:27Z</time>
      </trkpt>
      <trkpt lat="42.92668" lon="0.18539">
        <ele>1461.8907693796</ele>
        <time>2015-03-29T10:12:32Z</time>
      </trkpt>
      <trkpt lat="42.92672" lon="0.18537">
        <ele>1461.8907693796</ele>
        <time>2015-03-29T10:12:37Z</time>
      </trkpt>
      <trkpt lat="42.92675" lon="0.18537">
        <ele>1461.8907693796</ele>
        <time>2015-03-29T10:12:42Z</time>
      </trkpt>
      <trkpt lat="42.92677" lon="0.18533">
        <ele>1463.407358099</ele>
        <time>2015-03-29T10:12:47Z</time>
      </trkpt>
      <trkpt lat="42.92678" lon="0.18518">
        <ele>1464.9267242339</ele>
        <time>2015-03-29T10:12:52Z</time>
      </trkpt>
      <trkpt lat="42.92679" lon="0.18509">
        <ele>1464.9267242339</ele>
        <time>2015-03-29T10:12:57Z</time>
      </trkpt>
      <trkpt lat="42.92679" lon="0.18503">
        <ele>1466.5913413239</ele>
        <time>2015-03-29T10:13:01Z</time>
      </trkpt>
      <trkpt lat="42.9268" lon="0.18497">
        <ele>1466.5913413239</ele>
        <time>2015-03-29T10:13:07Z</time>
      </trkpt>
      <trkpt lat="42.92683" lon="0.18494">
        <ele>1466.5913413239</ele>
        <time>2015-03-29T10:13:12Z</time>
      </trkpt>
      <trkpt lat="42.92688" lon="0.18491">
        <ele>1468.4319350654</ele>
        <time>2015-03-29T10:13:17Z</time>
      </trkpt>
      <trkpt lat="42.92689" lon="0.18489">
        <ele>1468.4319350654</ele>
        <time>2015-03-29T10:13:22Z</time>
      </trkpt>
      <trkpt lat="42.92695" lon="0.18487">
        <ele>1468.4319350654</ele>
        <time>2015-03-29T10:13:27Z</time>
      </trkpt>
      <trkpt lat="42.92702" lon="0.18486">
        <ele>1470.4188515254</ele>
        <time>2015-03-29T10:13:32Z</time>
      </trkpt>
      <trkpt lat="42.92705" lon="0.18485">
        <ele>1470.4188515254</ele>
        <time>2015-03-29T10:13:37Z</time>
      </trkpt>
      <trkpt lat="42.92706" lon="0.18474">
        <ele>1472.4665830161</ele>
        <time>2015-03-29T10:13:42Z</time>
      </trkpt>
      <trkpt lat="42.92708" lon="0.18472">
        <ele>1472.4665830161</ele>
        <time>2015-03-29T10:13:47Z</time>
      </trkpt>
      <trkpt lat="42.92714" lon="0.18472">
        <ele>1474.5245850955</ele>
        <time>2015-03-29T10:13:52Z</time>
      </trkpt>
      <trkpt lat="42.9272" lon="0.18471">
        <ele>1474.5245850955</ele>
        <time>2015-03-29T10:13:57Z</time>
      </trkpt>
      <trkpt lat="42.92721" lon="0.18468">
        <ele>1474.5245850955</ele>
        <time>2015-03-29T10:14:02Z</time>
      </trkpt>
      <trkpt lat="42.92727" lon="0.18459">
        <ele>1476.6469110502</ele>
        <time>2015-03-29T10:14:07Z</time>
      </trkpt>
      <trkpt lat="42.92728" lon="0.18455">
        <ele>1476.6469110502</ele>
        <time>2015-03-29T10:14:11Z</time>
      </trkpt>
      <trkpt lat="42.92729" lon="0.18453">
        <ele>1476.6469110502</ele>
        <time>2015-03-29T10:14:16Z</time>
      </trkpt>
      <trkpt lat="42.92732" lon="0.1845">
        <ele>1476.6469110502</ele>
        <time>2015-03-29T10:14:22Z</time>
      </trkpt>
      <trkpt lat="42.92733" lon="0.18451">
        <ele>1478.9987931743</ele>
        <time>2015-03-29T10:14:27Z</time>
      </trkpt>
      <trkpt lat="42.92735" lon="0.18449">
        <ele>1478.9987931743</ele>
        <time>2015-03-29T10:14:31Z</time>
      </trkpt>
      <trkpt lat="42.92736" lon="0.18445">
        <ele>1478.9987931743</ele>
        <time>2015-03-29T10:14:37Z</time>
      </trkpt>
      <trkpt lat="42.92737" lon="0.18443">
        <ele>1478.9987931743</ele>
        <time>2015-03-29T10:14:42Z</time>
      </trkpt>
      <trkpt lat="42.92739" lon="0.18442">
        <ele>1478.9987931743</ele>
        <time>2015-03-29T10:14:47Z</time>
      </trkpt>
      <trkpt lat="42.92742" lon="0.1844">
        <ele>1481.6606729775</ele>
        <time>2015-03-29T10:14:51Z</time>
      </trkpt>
      <trkpt lat="42.92745" lon="0.18439">
        <ele>1481.6606729775</ele>
        <time>2015-03-29T10:14:57Z</time>
      </trkpt>
      <trkpt lat="42.92749" lon="0.18436">
        <ele>1481.6606729775</ele>
        <time>2015-03-29T10:15:02Z</time>
      </trkpt>
      <trkpt lat="42.92753" lon="0.18434">
        <ele>1484.3603983969</ele>
        <time>2015-03-29T10:15:07Z</time>
      </trkpt>
      <trkpt lat="42.92757" lon="0.18431">
        <ele>1484.3603983969</ele>
        <time>2015-03-29T10:15:12Z</time>
      </trkpt>
      <trkpt lat="42.92757" lon="0.18429">
        <ele>1484.3603983969</ele>
        <time>2015-03-29T10:15:17Z</time>
      </trkpt>
      <trkpt lat="42.92762" lon="0.18424">
        <ele>1487.1628140266</ele>
        <time>2015-03-29T10:15:21Z</time>
      </trkpt>
      <trkpt lat="42.92765" lon="0.18418">
        <ele>1487.1628140266</ele>
        <time>2015-03-29T10:15:27Z</time>
      </trkpt>
      <trkpt lat="42.92767" lon="0.18415">
        <ele>1487.1628140266</ele>
        <time>2015-03-29T10:15:32Z</time>
      </trkpt>
      <trkpt lat="42.92771" lon="0.18413">
        <ele>1490.0124940801</ele>
        <time>2015-03-29T10:15:37Z</time>
      </trkpt>
      <trkpt lat="42.92773" lon="0.18411">
        <ele>1490.0124940801</ele>
        <time>2015-03-29T10:15:42Z</time>
      </trkpt>
      <trkpt lat="42.92778" lon="0.18408">
        <ele>1490.0124940801</ele>
        <time>2015-03-29T10:15:46Z</time>
      </trkpt>
      <trkpt lat="42.9278" lon="0.18404">
        <ele>1492.8724425329</ele>
        <time>2015-03-29T10:15:52Z</time>
      </trkpt>
      <trkpt lat="42.92779" lon="0.18401">
        <ele>1492.8724425329</ele>
        <time>2015-03-29T10:15:57Z</time>
      </trkpt>
      <trkpt lat="42.92779" lon="0.18399">
        <ele>1492.8724425329</ele>
        <time>2015-03-29T10:16:01Z</time>
      </trkpt>
      <trkpt lat="42.92784" lon="0.18393">
        <ele>1495.7228510239</ele>
        <time>2015-03-29T10:16:08Z</time>
      </trkpt>
      <trkpt lat="42.92788" lon="0.18391">
        <ele>1495.7228510239</ele>
        <time>2015-03-29T10:16:12Z</time>
      </trkpt>
      <trkpt lat="42.92791" lon="0.18387">
        <ele>1495.7228510239</ele>
        <time>2015-03-29T10:16:17Z</time>
      </trkpt>
      <trkpt lat="42.92793" lon="0.18388">
        <ele>1498.4157852323</ele>
        <time>2015-03-29T10:16:23Z</time>
      </trkpt>
      <trkpt lat="42.92793" lon="0.18383">
        <ele>1498.4157852323</ele>
        <time>2015-03-29T10:16:26Z</time>
      </trkpt>
      <trkpt lat="42.92794" lon="0.18375">
        <ele>1500.9444220929</ele>
        <time>2015-03-29T10:16:32Z</time>
      </trkpt>
      <trkpt lat="42.92797" lon="0.18371">
        <ele>1500.9444220929</ele>
        <time>2015-03-29T10:16:37Z</time>
      </trkpt>
      <trkpt lat="42.92798" lon="0.18367">
        <ele>1500.9444220929</ele>
        <time>2015-03-29T10:16:42Z</time>
      </trkpt>
      <trkpt lat="42.92799" lon="0.18363">
        <ele>1503.4038854626</ele>
        <time>2015-03-29T10:16:47Z</time>
      </trkpt>
      <trkpt lat="42.92799" lon="0.18358">
        <ele>1503.4038854626</ele>
        <time>2015-03-29T10:16:51Z</time>
      </trkpt>
      <trkpt lat="42.928" lon="0.18353">
        <ele>1503.4038854626</ele>
        <time>2015-03-29T10:16:57Z</time>
      </trkpt>
      <trkpt lat="42.92802" lon="0.18346">
        <ele>1505.9114366131</ele>
        <time>2015-03-29T10:17:02Z</time>
      </trkpt>
      <trkpt lat="42.92801" lon="0.18343">
        <ele>1505.9114366131</ele>
        <time>2015-03-29T10:17:06Z</time>
      </trkpt>
      <trkpt lat="42.92799" lon="0.18333">
        <ele>1508.3883488856</ele>
        <time>2015-03-29T10:17:13Z</time>
      </trkpt>
      <trkpt lat="42.92799" lon="0.1833">
        <ele>1508.3883488856</ele>
        <time>2015-03-29T10:17:17Z</time>
      </trkpt>
      <trkpt lat="42.92799" lon="0.18325">
        <ele>1508.3883488856</ele>
        <time>2015-03-29T10:17:22Z</time>
      </trkpt>
      <trkpt lat="42.928" lon="0.18319">
        <ele>1510.8627554474</ele>
        <time>2015-03-29T10:17:27Z</time>
      </trkpt>
      <trkpt lat="42.92799" lon="0.18313">
        <ele>1510.8627554474</ele>
        <time>2015-03-29T10:17:32Z</time>
      </trkpt>
      <trkpt lat="42.928" lon="0.1831">
        <ele>1510.8627554474</ele>
        <time>2015-03-29T10:17:37Z</time>
      </trkpt>
      <trkpt lat="42.92801" lon="0.18307">
        <ele>1513.332017953</ele>
        <time>2015-03-29T10:17:42Z</time>
      </trkpt>
      <trkpt lat="42.92804" lon="0.18302">
        <ele>1513.332017953</ele>
        <time>2015-03-29T10:17:47Z</time>
      </trkpt>
      <trkpt lat="42.92809" lon="0.18298">
        <ele>1515.7794059118</ele>
        <time>2015-03-29T10:17:52Z</time>
      </trkpt>
      <trkpt lat="42.92812" lon="0.18294">
        <ele>1515.7794059118</ele>
        <time>2015-03-29T10:17:57Z</time>
      </trkpt>
      <trkpt lat="42.92814" lon="0.18292">
        <ele>1515.7794059118</ele>
        <time>2015-03-29T10:18:01Z</time>
      </trkpt>
      <trkpt lat="42.92815" lon="0.18287">
        <ele>1518.3048819878</ele>
        <time>2015-03-29T10:18:07Z</time>
      </trkpt>
      <trkpt lat="42.92817" lon="0.18281">
        <ele>1518.3048819878</ele>
        <time>2015-03-29T10:18:12Z</time>
      </trkpt>
      <trkpt lat="42.92819" lon="0.18275">
        <ele>1520.81360743</ele>
        <time>2015-03-29T10:18:17Z</time>
      </trkpt>
      <trkpt lat="42.9282" lon="0.18271">
        <ele>1520.81360743</ele>
        <time>2015-03-29T10:18:21Z</time>
      </trkpt>
      <trkpt lat="42.92822" lon="0.18268">
        <ele>1520.81360743</ele>
        <time>2015-03-29T10:18:26Z</time>
      </trkpt>
      <trkpt lat="42.92824" lon="0.18262">
        <ele>1523.8519729142</ele>
        <time>2015-03-29T10:18:32Z</time>
      </trkpt>
      <trkpt lat="42.92826" lon="0.1826">
        <ele>1523.8519729142</ele>
        <time>2015-03-29T10:18:36Z</time>
      </trkpt>
      <trkpt lat="42.92833" lon="0.18266">
        <ele>1526.9592866676</ele>
        <time>2015-03-29T10:18:43Z</time>
      </trkpt>
      <trkpt lat="42.92835" lon="0.18263">
        <ele>1526.9592866676</ele>
        <time>2015-03-29T10:18:49Z</time>
      </trkpt>
      <trkpt lat="42.92838" lon="0.18256">
        <ele>1529.7950885836</ele>
        <time>2015-03-29T10:18:51Z</time>
      </trkpt>
      <trkpt lat="42.9284" lon="0.18248">
        <ele>1529.7950885836</ele>
        <time>2015-03-29T10:18:57Z</time>
      </trkpt>
      <trkpt lat="42.92842" lon="0.18246">
        <ele>1529.7950885836</ele>
        <time>2015-03-29T10:19:01Z</time>
      </trkpt>
      <trkpt lat="42.92843" lon="0.18237">
        <ele>1532.4771488422</ele>
        <time>2015-03-29T10:19:06Z</time>
      </trkpt>
      <trkpt lat="42.92846" lon="0.18227">
        <ele>1532.4771488422</ele>
        <time>2015-03-29T10:19:12Z</time>
      </trkpt>
      <trkpt lat="42.92847" lon="0.18226">
        <ele>1535.0574858815</ele>
        <time>2015-03-29T10:19:17Z</time>
      </trkpt>
      <trkpt lat="42.92846" lon="0.18218">
        <ele>1535.0574858815</ele>
        <time>2015-03-29T10:19:22Z</time>
      </trkpt>
      <trkpt lat="42.92844" lon="0.18217">
        <ele>1535.0574858815</ele>
        <time>2015-03-29T10:19:27Z</time>
      </trkpt>
      <trkpt lat="42.92848" lon="0.18212">
        <ele>1537.7864557881</ele>
        <time>2015-03-29T10:19:32Z</time>
      </trkpt>
      <trkpt lat="42.92853" lon="0.18207">
        <ele>1537.7864557881</ele>
        <time>2015-03-29T10:19:36Z</time>
      </trkpt>
      <trkpt lat="42.92858" lon="0.18203">
        <ele>1540.1607369218</ele>
        <time>2015-03-29T10:19:42Z</time>
      </trkpt>
      <trkpt lat="42.92859" lon="0.182">
        <ele>1540.1607369218</ele>
        <time>2015-03-29T10:19:47Z</time>
      </trkpt>
      <trkpt lat="42.92861" lon="0.18197">
        <ele>1540.1607369218</ele>
        <time>2015-03-29T10:19:51Z</time>
      </trkpt>
      <trkpt lat="42.92864" lon="0.18191">
        <ele>1542.2627202014</ele>
        <time>2015-03-29T10:19:57Z</time>
      </trkpt>
      <trkpt lat="42.92868" lon="0.18187">
        <ele>1542.2627202014</ele>
        <time>2015-03-29T10:20:02Z</time>
      </trkpt>
      <trkpt lat="42.92869" lon="0.18188">
        <ele>1542.2627202014</ele>
        <time>2015-03-29T10:20:06Z</time>
      </trkpt>
      <trkpt lat="42.92868" lon="0.18184">
        <ele>1544.0543211143</ele>
        <time>2015-03-29T10:20:11Z</time>
      </trkpt>
      <trkpt lat="42.9287" lon="0.1818">
        <ele>1544.0543211143</ele>
        <time>2015-03-29T10:20:17Z</time>
      </trkpt>
      <trkpt lat="42.92871" lon="0.18175">
        <ele>1544.0543211143</ele>
        <time>2015-03-29T10:20:22Z</time>
      </trkpt>
      <trkpt lat="42.92873" lon="0.18173">
        <ele>1545.9047389216</ele>
        <time>2015-03-29T10:20:27Z</time>
      </trkpt>
      <trkpt lat="42.92877" lon="0.18171">
        <ele>1545.9047389216</ele>
        <time>2015-03-29T10:20:32Z</time>
      </trkpt>
      <trkpt lat="42.9288" lon="0.1817">
        <ele>1545.9047389216</ele>
        <time>2015-03-29T10:20:37Z</time>
      </trkpt>
      <trkpt lat="42.92883" lon="0.18166">
        <ele>1547.3921756848</ele>
        <time>2015-03-29T10:20:41Z</time>
      </trkpt>
      <trkpt lat="42.92884" lon="0.18162">
        <ele>1547.3921756848</ele>
        <time>2015-03-29T10:20:47Z</time>
      </trkpt>
      <trkpt lat="42.92889" lon="0.18162">
        <ele>1547.3921756848</ele>
        <time>2015-03-29T10:20:52Z</time>
      </trkpt>
      <trkpt lat="42.92891" lon="0.18161">
        <ele>1548.6313144643</ele>
        <time>2015-03-29T10:20:57Z</time>
      </trkpt>
      <trkpt lat="42.92892" lon="0.18159">
        <ele>1548.6313144643</ele>
        <time>2015-03-29T10:21:02Z</time>
      </trkpt>
      <trkpt lat="42.92894" lon="0.18153">
        <ele>1548.6313144643</ele>
        <time>2015-03-29T10:21:07Z</time>
      </trkpt>
      <trkpt lat="42.92898" lon="0.18148">
        <ele>1549.6283004158</ele>
        <time>2015-03-29T10:21:13Z</time>
      </trkpt>
      <trkpt lat="42.929" lon="0.18145">
        <ele>1549.6283004158</ele>
        <time>2015-03-29T10:21:17Z</time>
      </trkpt>
      <trkpt lat="42.92902" lon="0.18143">
        <ele>1549.6283004158</ele>
        <time>2015-03-29T10:21:23Z</time>
      </trkpt>
      <trkpt lat="42.92904" lon="0.18138">
        <ele>1550.1589836556</ele>
        <time>2015-03-29T10:21:27Z</time>
      </trkpt>
      <trkpt lat="42.92906" lon="0.18137">
        <ele>1550.1589836556</ele>
        <time>2015-03-29T10:21:32Z</time>
      </trkpt>
      <trkpt lat="42.92907" lon="0.18133">
        <ele>1550.1589836556</ele>
        <time>2015-03-29T10:21:36Z</time>
      </trkpt>
      <trkpt lat="42.92909" lon="0.18132">
        <ele>1550.1589836556</ele>
        <time>2015-03-29T10:21:42Z</time>
      </trkpt>
      <trkpt lat="42.92911" lon="0.18131">
        <ele>1550.3629013846</ele>
        <time>2015-03-29T10:21:47Z</time>
      </trkpt>
      <trkpt lat="42.92912" lon="0.18131">
        <ele>1550.3629013846</ele>
        <time>2015-03-29T10:21:52Z</time>
      </trkpt>
      <trkpt lat="42.92913" lon="0.18121">
        <ele>1550.3629013846</ele>
        <time>2015-03-29T10:22:03Z</time>
      </trkpt>
      <trkpt lat="42.92914" lon="0.18112">
        <ele>1550.4423391931</ele>
        <time>2015-03-29T10:22:06Z</time>
      </trkpt>
      <trkpt lat="42.92914" lon="0.1811">
        <ele>1550.4423391931</ele>
        <time>2015-03-29T10:22:12Z</time>
      </trkpt>
      <trkpt lat="42.92916" lon="0.18106">
        <ele>1550.4423391931</ele>
        <time>2015-03-29T10:22:17Z</time>
      </trkpt>
      <trkpt lat="42.92918" lon="0.18102">
        <ele>1550.9741841995</ele>
        <time>2015-03-29T10:22:22Z</time>
      </trkpt>
      <trkpt lat="42.92919" lon="0.18099">
        <ele>1550.9741841995</ele>
        <time>2015-03-29T10:22:27Z</time>
      </trkpt>
      <trkpt lat="42.92921" lon="0.18095">
        <ele>1550.9741841995</ele>
        <time>2015-03-29T10:22:32Z</time>
      </trkpt>
      <trkpt lat="42.92924" lon="0.18089">
        <ele>1551.3387743303</ele>
        <time>2015-03-29T10:22:37Z</time>
      </trkpt>
      <trkpt lat="42.92928" lon="0.18085">
        <ele>1551.3387743303</ele>
        <time>2015-03-29T10:22:42Z</time>
      </trkpt>
      <trkpt lat="42.92932" lon="0.1808">
        <ele>1551.6397435779</ele>
        <time>2015-03-29T10:22:47Z</time>
      </trkpt>
      <trkpt lat="42.92936" lon="0.18074">
        <ele>1551.6397435779</ele>
        <time>2015-03-29T10:22:52Z</time>
      </trkpt>
      <trkpt lat="42.9294" lon="0.18066">
        <ele>1551.7138559857</ele>
        <time>2015-03-29T10:22:56Z</time>
      </trkpt>
      <trkpt lat="42.92945" lon="0.18056">
        <ele>1551.5113340816</ele>
        <time>2015-03-29T10:23:01Z</time>
      </trkpt>
      <trkpt lat="42.92948" lon="0.1805">
        <ele>1551.5113340816</ele>
        <time>2015-03-29T10:23:07Z</time>
      </trkpt>
      <trkpt lat="42.92951" lon="0.18048">
        <ele>1551.5113340816</ele>
        <time>2015-03-29T10:23:12Z</time>
      </trkpt>
      <trkpt lat="42.92955" lon="0.18042">
        <ele>1551.1020609588</ele>
        <time>2015-03-29T10:23:17Z</time>
      </trkpt>
      <trkpt lat="42.92956" lon="0.1804">
        <ele>1551.1020609588</ele>
        <time>2015-03-29T10:23:22Z</time>
      </trkpt>
      <trkpt lat="42.92956" lon="0.18035">
        <ele>1551.1020609588</ele>
        <time>2015-03-29T10:23:27Z</time>
      </trkpt>
      <trkpt lat="42.92957" lon="0.18033">
        <ele>1551.1020609588</ele>
        <time>2015-03-29T10:23:31Z</time>
      </trkpt>
      <trkpt lat="42.92957" lon="0.1803">
        <ele>1550.7242245055</ele>
        <time>2015-03-29T10:23:37Z</time>
      </trkpt>
      <trkpt lat="42.92958" lon="0.18027">
        <ele>1550.7242245055</ele>
        <time>2015-03-29T10:23:42Z</time>
      </trkpt>
      <trkpt lat="42.92959" lon="0.18021">
        <ele>1550.7242245055</ele>
        <time>2015-03-29T10:23:46Z</time>
      </trkpt>
      <trkpt lat="42.9296" lon="0.18014">
        <ele>1550.1948259502</ele>
        <time>2015-03-29T10:23:53Z</time>
      </trkpt>
      <trkpt lat="42.92959" lon="0.18009">
        <ele>1550.1948259502</ele>
        <time>2015-03-29T10:23:57Z</time>
      </trkpt>
      <trkpt lat="42.92961" lon="0.18001">
        <ele>1549.5607989018</ele>
        <time>2015-03-29T10:24:02Z</time>
      </trkpt>
      <trkpt lat="42.92964" lon="0.17993">
        <ele>1549.5607989018</ele>
        <time>2015-03-29T10:24:07Z</time>
      </trkpt>
      <trkpt lat="42.92971" lon="0.17984">
        <ele>1548.8369841957</ele>
        <time>2015-03-29T10:24:12Z</time>
      </trkpt>
      <trkpt lat="42.92977" lon="0.17978">
        <ele>1548.8369841957</ele>
        <time>2015-03-29T10:24:17Z</time>
      </trkpt>
      <trkpt lat="42.92978" lon="0.1797">
        <ele>1547.864321641</ele>
        <time>2015-03-29T10:24:22Z</time>
      </trkpt>
      <trkpt lat="42.92978" lon="0.17965">
        <ele>1547.864321641</ele>
        <time>2015-03-29T10:24:27Z</time>
      </trkpt>
      <trkpt lat="42.92977" lon="0.17962">
        <ele>1547.864321641</ele>
        <time>2015-03-29T10:24:32Z</time>
      </trkpt>
      <trkpt lat="42.92977" lon="0.17959">
        <ele>1547.864321641</ele>
        <time>2015-03-29T10:24:36Z</time>
      </trkpt>
      <trkpt lat="42.92979" lon="0.1795">
        <ele>1546.8418588598</ele>
        <time>2015-03-29T10:24:42Z</time>
      </trkpt>
      <trkpt lat="42.92981" lon="0.17944">
        <ele>1546.8418588598</ele>
        <time>2015-03-29T10:24:47Z</time>
      </trkpt>
      <trkpt lat="42.92983" lon="0.1794">
        <ele>1546.8418588598</ele>
        <time>2015-03-29T10:24:52Z</time>
      </trkpt>
      <trkpt lat="42.92984" lon="0.17939">
        <ele>1545.9251852314</ele>
        <time>2015-03-29T10:24:57Z</time>
      </trkpt>
      <trkpt lat="42.92985" lon="0.17939">
        <ele>1545.9251852314</ele>
        <time>2015-03-29T10:25:01Z</time>
      </trkpt>
      <trkpt lat="42.92987" lon="0.17936">
        <ele>1545.9251852314</ele>
        <time>2015-03-29T10:25:07Z</time>
      </trkpt>
      <trkpt lat="42.92989" lon="0.17936">
        <ele>1545.9251852314</ele>
        <time>2015-03-29T10:25:12Z</time>
      </trkpt>
      <trkpt lat="42.92993" lon="0.1793">
        <ele>1545.0562434267</ele>
        <time>2015-03-29T10:25:16Z</time>
      </trkpt>
      <trkpt lat="42.92996" lon="0.17925">
        <ele>1545.0562434267</ele>
        <time>2015-03-29T10:25:22Z</time>
      </trkpt>
      <trkpt lat="42.93001" lon="0.17919">
        <ele>1544.1521102351</ele>
        <time>2015-03-29T10:25:27Z</time>
      </trkpt>
      <trkpt lat="42.93005" lon="0.17917">
        <ele>1544.1521102351</ele>
        <time>2015-03-29T10:25:32Z</time>
      </trkpt>
      <trkpt lat="42.93006" lon="0.1791">
        <ele>1543.2079251474</ele>
        <time>2015-03-29T10:25:37Z</time>
      </trkpt>
      <trkpt lat="42.93007" lon="0.17907">
        <ele>1543.2079251474</ele>
        <time>2015-03-29T10:25:42Z</time>
      </trkpt>
      <trkpt lat="42.93011" lon="0.17899">
        <ele>1542.1758732341</ele>
        <time>2015-03-29T10:25:47Z</time>
      </trkpt>
      <trkpt lat="42.93015" lon="0.17894">
        <ele>1542.1758732341</ele>
        <time>2015-03-29T10:25:52Z</time>
      </trkpt>
      <trkpt lat="42.93018" lon="0.1789">
        <ele>1541.11257943</ele>
        <time>2015-03-29T10:25:56Z</time>
      </trkpt>
      <trkpt lat="42.93022" lon="0.17888">
        <ele>1541.11257943</ele>
        <time>2015-03-29T10:26:02Z</time>
      </trkpt>
      <trkpt lat="42.93024" lon="0.17884">
        <ele>1541.11257943</ele>
        <time>2015-03-29T10:26:06Z</time>
      </trkpt>
      <trkpt lat="42.93027" lon="0.17887">
        <ele>1540.0992163581</ele>
        <time>2015-03-29T10:26:12Z</time>
      </trkpt>
      <trkpt lat="42.93028" lon="0.17884">
        <ele>1540.0992163581</ele>
        <time>2015-03-29T10:26:17Z</time>
      </trkpt>
      <trkpt lat="42.93029" lon="0.17878">
        <ele>1540.0992163581</ele>
        <time>2015-03-29T10:26:22Z</time>
      </trkpt>
      <trkpt lat="42.93032" lon="0.1787">
        <ele>1539.0665350418</ele>
        <time>2015-03-29T10:26:27Z</time>
      </trkpt>
      <trkpt lat="42.93033" lon="0.17862">
        <ele>1539.0665350418</ele>
        <time>2015-03-29T10:26:32Z</time>
      </trkpt>
      <trkpt lat="42.93034" lon="0.17859">
        <ele>1539.0665350418</ele>
        <time>2015-03-29T10:26:37Z</time>
      </trkpt>
      <trkpt lat="42.93032" lon="0.1784">
        <ele>1538.3969617387</ele>
        <time>2015-03-29T10:26:41Z</time>
      </trkpt>
      <trkpt lat="42.93033" lon="0.17834">
        <ele>1538.3969617387</ele>
        <time>2015-03-29T10:26:46Z</time>
      </trkpt>
      <trkpt lat="42.9304" lon="0.17825">
        <ele>1537.8095093301</ele>
        <time>2015-03-29T10:26:53Z</time>
      </trkpt>
      <trkpt lat="42.93042" lon="0.1782">
        <ele>1537.8095093301</ele>
        <time>2015-03-29T10:26:56Z</time>
      </trkpt>
      <trkpt lat="42.93044" lon="0.17816">
        <ele>1537.8095093301</ele>
        <time>2015-03-29T10:27:02Z</time>
      </trkpt>
      <trkpt lat="42.93047" lon="0.17811">
        <ele>1537.1730887978</ele>
        <time>2015-03-29T10:27:07Z</time>
      </trkpt>
      <trkpt lat="42.93047" lon="0.17807">
        <ele>1537.1730887978</ele>
        <time>2015-03-29T10:27:12Z</time>
      </trkpt>
      <trkpt lat="42.93049" lon="0.17803">
        <ele>1537.1730887978</ele>
        <time>2015-03-29T10:27:17Z</time>
      </trkpt>
      <trkpt lat="42.93051" lon="0.17798">
        <ele>1536.6255670987</ele>
        <time>2015-03-29T10:27:22Z</time>
      </trkpt>
      <trkpt lat="42.93054" lon="0.17793">
        <ele>1536.6255670987</ele>
        <time>2015-03-29T10:27:27Z</time>
      </trkpt>
      <trkpt lat="42.93055" lon="0.17789">
        <ele>1536.6255670987</ele>
        <time>2015-03-29T10:27:32Z</time>
      </trkpt>
      <trkpt lat="42.93058" lon="0.17785">
        <ele>1536.0924697182</ele>
        <time>2015-03-29T10:27:36Z</time>
      </trkpt>
      <trkpt lat="42.93059" lon="0.17781">
        <ele>1536.0924697182</ele>
        <time>2015-03-29T10:27:42Z</time>
      </trkpt>
      <trkpt lat="42.93061" lon="0.17775">
        <ele>1536.0924697182</ele>
        <time>2015-03-29T10:27:47Z</time>
      </trkpt>
      <trkpt lat="42.93062" lon="0.17772">
        <ele>1535.5045470021</ele>
        <time>2015-03-29T10:27:52Z</time>
      </trkpt>
      <trkpt lat="42.93065" lon="0.17762">
        <ele>1535.5045470021</ele>
        <time>2015-03-29T10:27:56Z</time>
      </trkpt>
      <trkpt lat="42.93067" lon="0.17758">
        <ele>1534.9849330059</ele>
        <time>2015-03-29T10:28:01Z</time>
      </trkpt>
      <trkpt lat="42.93069" lon="0.17751">
        <ele>1534.9849330059</ele>
        <time>2015-03-29T10:28:07Z</time>
      </trkpt>
      <trkpt lat="42.9307" lon="0.1775">
        <ele>1534.9849330059</ele>
        <time>2015-03-29T10:28:12Z</time>
      </trkpt>
      <trkpt lat="42.93071" lon="0.17751">
        <ele>1534.9849330059</ele>
        <time>2015-03-29T10:28:17Z</time>
      </trkpt>
      <trkpt lat="42.93074" lon="0.17748">
        <ele>1534.6185052578</ele>
        <time>2015-03-29T10:28:22Z</time>
      </trkpt>
      <trkpt lat="42.93077" lon="0.17742">
        <ele>1534.6185052578</ele>
        <time>2015-03-29T10:28:26Z</time>
      </trkpt>
      <trkpt lat="42.93079" lon="0.17739">
        <ele>1534.6185052578</ele>
        <time>2015-03-29T10:28:31Z</time>
      </trkpt>
      <trkpt lat="42.93081" lon="0.17736">
        <ele>1534.2238838621</ele>
        <time>2015-03-29T10:28:36Z</time>
      </trkpt>
      <trkpt lat="42.93084" lon="0.1773">
        <ele>1534.2238838621</ele>
        <time>2015-03-29T10:28:41Z</time>
      </trkpt>
      <trkpt lat="42.93085" lon="0.17726">
        <ele>1534.2238838621</ele>
        <time>2015-03-29T10:28:47Z</time>
      </trkpt>
      <trkpt lat="42.93086" lon="0.17723">
        <ele>1533.8923055897</ele>
        <time>2015-03-29T10:28:52Z</time>
      </trkpt>
      <trkpt lat="42.93089" lon="0.17716">
        <ele>1533.8923055897</ele>
        <time>2015-03-29T10:28:57Z</time>
      </trkpt>
      <trkpt lat="42.93092" lon="0.17708">
        <ele>1533.5061916785</ele>
        <time>2015-03-29T10:29:02Z</time>
      </trkpt>
      <trkpt lat="42.93093" lon="0.177">
        <ele>1533.5061916785</ele>
        <time>2015-03-29T10:29:07Z</time>
      </trkpt>
      <trkpt lat="42.93094" lon="0.1769">
        <ele>1533.1583351107</ele>
        <time>2015-03-29T10:29:12Z</time>
      </trkpt>
      <trkpt lat="42.93096" lon="0.17688">
        <ele>1533.1583351107</ele>
        <time>2015-03-29T10:29:16Z</time>
      </trkpt>
      <trkpt lat="42.93099" lon="0.17682">
        <ele>1533.1583351107</ele>
        <time>2015-03-29T10:29:22Z</time>
      </trkpt>
      <trkpt lat="42.93103" lon="0.17676">
        <ele>1532.8479705279</ele>
        <time>2015-03-29T10:29:26Z</time>
      </trkpt>
      <trkpt lat="42.93105" lon="0.17669">
        <ele>1532.8479705279</ele>
        <time>2015-03-29T10:29:32Z</time>
      </trkpt>
      <trkpt lat="42.93109" lon="0.17664">
        <ele>1532.5020668564</ele>
        <time>2015-03-29T10:29:37Z</time>
      </trkpt>
      <trkpt lat="42.93111" lon="0.17661">
        <ele>1532.5020668564</ele>
        <time>2015-03-29T10:29:42Z</time>
      </trkpt>
      <trkpt lat="42.93114" lon="0.17656">
        <ele>1532.5020668564</ele>
        <time>2015-03-29T10:29:47Z</time>
      </trkpt>
      <trkpt lat="42.93114" lon="0.17652">
        <ele>1532.3267147044</ele>
        <time>2015-03-29T10:29:52Z</time>
      </trkpt>
      <trkpt lat="42.93115" lon="0.17647">
        <ele>1532.3267147044</ele>
        <time>2015-03-29T10:29:57Z</time>
      </trkpt>
      <trkpt lat="42.93118" lon="0.17643">
        <ele>1532.3267147044</ele>
        <time>2015-03-29T10:30:02Z</time>
      </trkpt>
      <trkpt lat="42.93119" lon="0.17639">
        <ele>1532.2096063091</ele>
        <time>2015-03-29T10:30:07Z</time>
      </trkpt>
      <trkpt lat="42.9312" lon="0.17635">
        <ele>1532.2096063091</ele>
        <time>2015-03-29T10:30:11Z</time>
      </trkpt>
      <trkpt lat="42.93125" lon="0.17628">
        <ele>1532.0752033697</ele>
        <time>2015-03-29T10:30:16Z</time>
      </trkpt>
      <trkpt lat="42.93132" lon="0.17624">
        <ele>1532.0752033697</ele>
        <time>2015-03-29T10:30:22Z</time>
      </trkpt>
      <trkpt lat="42.93133" lon="0.1762">
        <ele>1531.9543112739</ele>
        <time>2015-03-29T10:30:27Z</time>
      </trkpt>
      <trkpt lat="42.93135" lon="0.17616">
        <ele>1531.9543112739</ele>
        <time>2015-03-29T10:30:32Z</time>
      </trkpt>
      <trkpt lat="42.93136" lon="0.17616">
        <ele>1531.9543112739</ele>
        <time>2015-03-29T10:30:37Z</time>
      </trkpt>
      <trkpt lat="42.93139" lon="0.17614">
        <ele>1531.9543112739</ele>
        <time>2015-03-29T10:30:42Z</time>
      </trkpt>
      <trkpt lat="42.93138" lon="0.17609">
        <ele>1531.9473665734</ele>
        <time>2015-03-29T10:30:46Z</time>
      </trkpt>
      <trkpt lat="42.9314" lon="0.176">
        <ele>1531.9473665734</ele>
        <time>2015-03-29T10:30:52Z</time>
      </trkpt>
      <trkpt lat="42.93144" lon="0.17596">
        <ele>1532.0172926572</ele>
        <time>2015-03-29T10:30:57Z</time>
      </trkpt>
      <trkpt lat="42.93147" lon="0.17591">
        <ele>1532.0172926572</ele>
        <time>2015-03-29T10:31:01Z</time>
      </trkpt>
      <trkpt lat="42.93146" lon="0.17584">
        <ele>1532.1582361729</ele>
        <time>2015-03-29T10:31:07Z</time>
      </trkpt>
      <trkpt lat="42.93148" lon="0.17581">
        <ele>1532.1582361729</ele>
        <time>2015-03-29T10:31:11Z</time>
      </trkpt>
      <trkpt lat="42.9315" lon="0.1758">
        <ele>1532.1582361729</ele>
        <time>2015-03-29T10:31:17Z</time>
      </trkpt>
      <trkpt lat="42.93153" lon="0.17578">
        <ele>1532.1582361729</ele>
        <time>2015-03-29T10:31:22Z</time>
      </trkpt>
      <trkpt lat="42.93152" lon="0.17565">
        <ele>1532.9120998202</ele>
        <time>2015-03-29T10:31:26Z</time>
      </trkpt>
      <trkpt lat="42.93156" lon="0.17557">
        <ele>1532.9120998202</ele>
        <time>2015-03-29T10:31:32Z</time>
      </trkpt>
      <trkpt lat="42.93157" lon="0.17551">
        <ele>1533.8856830068</ele>
        <time>2015-03-29T10:31:36Z</time>
      </trkpt>
      <trkpt lat="42.9316" lon="0.17549">
        <ele>1533.8856830068</ele>
        <time>2015-03-29T10:31:42Z</time>
      </trkpt>
      <trkpt lat="42.93163" lon="0.17543">
        <ele>1535.27601318</ele>
        <time>2015-03-29T10:31:47Z</time>
      </trkpt>
      <trkpt lat="42.93163" lon="0.17541">
        <ele>1535.27601318</ele>
        <time>2015-03-29T10:31:52Z</time>
      </trkpt>
      <trkpt lat="42.93166" lon="0.17539">
        <ele>1535.27601318</ele>
        <time>2015-03-29T10:31:57Z</time>
      </trkpt>
      <trkpt lat="42.93168" lon="0.17536">
        <ele>1535.27601318</ele>
        <time>2015-03-29T10:32:02Z</time>
      </trkpt>
      <trkpt lat="42.93172" lon="0.17535">
        <ele>1537.7255736072</ele>
        <time>2015-03-29T10:32:07Z</time>
      </trkpt>
      <trkpt lat="42.93176" lon="0.17536">
        <ele>1537.7255736072</ele>
        <time>2015-03-29T10:32:12Z</time>
      </trkpt>
      <trkpt lat="42.93181" lon="0.17534">
        <ele>1540.5440519561</ele>
        <time>2015-03-29T10:32:17Z</time>
      </trkpt>
      <trkpt lat="42.93186" lon="0.17533">
        <ele>1540.5440519561</ele>
        <time>2015-03-29T10:32:22Z</time>
      </trkpt>
      <trkpt lat="42.9319" lon="0.17532">
        <ele>1543.5231286531</ele>
        <time>2015-03-29T10:32:27Z</time>
      </trkpt>
      <trkpt lat="42.93191" lon="0.17531">
        <ele>1543.5231286531</ele>
        <time>2015-03-29T10:32:31Z</time>
      </trkpt>
      <trkpt lat="42.9319" lon="0.17529">
        <ele>1543.5231286531</ele>
        <time>2015-03-29T10:32:37Z</time>
      </trkpt>
      <trkpt lat="42.93188" lon="0.1752">
        <ele>1546.6711008058</ele>
        <time>2015-03-29T10:32:42Z</time>
      </trkpt>
      <trkpt lat="42.93189" lon="0.17516">
        <ele>1546.6711008058</ele>
        <time>2015-03-29T10:32:47Z</time>
      </trkpt>
      <trkpt lat="42.93191" lon="0.17513">
        <ele>1546.6711008058</ele>
        <time>2015-03-29T10:32:52Z</time>
      </trkpt>
      <trkpt lat="42.93193" lon="0.1751">
        <ele>1550.0096274022</ele>
        <time>2015-03-29T10:32:56Z</time>
      </trkpt>
      <trkpt lat="42.93194" lon="0.17503">
        <ele>1550.0096274022</ele>
        <time>2015-03-29T10:33:02Z</time>
      </trkpt>
      <trkpt lat="42.93197" lon="0.17497">
        <ele>1553.198022611</ele>
        <time>2015-03-29T10:33:07Z</time>
      </trkpt>
      <trkpt lat="42.932" lon="0.17491">
        <ele>1553.198022611</ele>
        <time>2015-03-29T10:33:12Z</time>
      </trkpt>
      <trkpt lat="42.932" lon="0.17489">
        <ele>1553.198022611</ele>
        <time>2015-03-29T10:33:16Z</time>
      </trkpt>
      <trkpt lat="42.932" lon="0.17489">
        <ele>1553.198022611</ele>
        <time>2015-03-29T10:33:22Z</time>
      </trkpt>
      <trkpt lat="42.93199" lon="0.17481">
        <ele>1556.7137425379</ele>
        <time>2015-03-29T10:33:27Z</time>
      </trkpt>
      <trkpt lat="42.93204" lon="0.17477">
        <ele>1556.7137425379</ele>
        <time>2015-03-29T10:33:32Z</time>
      </trkpt>
      <trkpt lat="42.93207" lon="0.17478">
        <ele>1560.2345674441</ele>
        <time>2015-03-29T10:33:37Z</time>
      </trkpt>
      <trkpt lat="42.93213" lon="0.17475">
        <ele>1560.2345674441</ele>
        <time>2015-03-29T10:33:42Z</time>
      </trkpt>
      <trkpt lat="42.93218" lon="0.17472">
        <ele>1563.7214599283</ele>
        <time>2015-03-29T10:33:47Z</time>
      </trkpt>
      <trkpt lat="42.9322" lon="0.17467">
        <ele>1563.7214599283</ele>
        <time>2015-03-29T10:33:52Z</time>
      </trkpt>
      <trkpt lat="42.9322" lon="0.17461">
        <ele>1566.9511464983</ele>
        <time>2015-03-29T10:33:57Z</time>
      </trkpt>
      <trkpt lat="42.93224" lon="0.17458">
        <ele>1566.9511464983</ele>
        <time>2015-03-29T10:34:02Z</time>
      </trkpt>
      <trkpt lat="42.93228" lon="0.17452">
        <ele>1570.0346839084</ele>
        <time>2015-03-29T10:34:07Z</time>
      </trkpt>
      <trkpt lat="42.93228" lon="0.17449">
        <ele>1570.0346839084</ele>
        <time>2015-03-29T10:34:11Z</time>
      </trkpt>
      <trkpt lat="42.93228" lon="0.17444">
        <ele>1570.0346839084</ele>
        <time>2015-03-29T10:34:17Z</time>
      </trkpt>
      <trkpt lat="42.93225" lon="0.17437">
        <ele>1572.8593905502</ele>
        <time>2015-03-29T10:34:22Z</time>
      </trkpt>
      <trkpt lat="42.93222" lon="0.17429">
        <ele>1572.8593905502</ele>
        <time>2015-03-29T10:34:27Z</time>
      </trkpt>
      <trkpt lat="42.9322" lon="0.17419">
        <ele>1575.4514758325</ele>
        <time>2015-03-29T10:34:32Z</time>
      </trkpt>
      <trkpt lat="42.93224" lon="0.17414">
        <ele>1575.4514758325</ele>
        <time>2015-03-29T10:34:37Z</time>
      </trkpt>
      <trkpt lat="42.93225" lon="0.17408">
        <ele>1577.9081269956</ele>
        <time>2015-03-29T10:34:41Z</time>
      </trkpt>
      <trkpt lat="42.93226" lon="0.174">
        <ele>1577.9081269956</ele>
        <time>2015-03-29T10:34:47Z</time>
      </trkpt>
      <trkpt lat="42.93229" lon="0.17397">
        <ele>1580.175860516</ele>
        <time>2015-03-29T10:34:52Z</time>
      </trkpt>
      <trkpt lat="42.9323" lon="0.17392">
        <ele>1580.175860516</ele>
        <time>2015-03-29T10:34:57Z</time>
      </trkpt>
      <trkpt lat="42.9323" lon="0.17387">
        <ele>1580.175860516</ele>
        <time>2015-03-29T10:35:02Z</time>
      </trkpt>
      <trkpt lat="42.93234" lon="0.17383">
        <ele>1582.1482089877</ele>
        <time>2015-03-29T10:35:07Z</time>
      </trkpt>
      <trkpt lat="42.93232" lon="0.17371">
        <ele>1584.1743009636</ele>
        <time>2015-03-29T10:35:12Z</time>
      </trkpt>
      <trkpt lat="42.93232" lon="0.17366">
        <ele>1584.1743009636</ele>
        <time>2015-03-29T10:35:18Z</time>
      </trkpt>
      <trkpt lat="42.93232" lon="0.17359">
        <ele>1584.1743009636</ele>
        <time>2015-03-29T10:35:21Z</time>
      </trkpt>
      <trkpt lat="42.93227" lon="0.17351">
        <ele>1586.1021003095</ele>
        <time>2015-03-29T10:35:26Z</time>
      </trkpt>
      <trkpt lat="42.93228" lon="0.17349">
        <ele>1586.1021003095</ele>
        <time>2015-03-29T10:35:31Z</time>
      </trkpt>
      <trkpt lat="42.93234" lon="0.17347">
        <ele>1586.1021003095</ele>
        <time>2015-03-29T10:35:37Z</time>
      </trkpt>
      <trkpt lat="42.93229" lon="0.17346">
        <ele>1588.1947231088</ele>
        <time>2015-03-29T10:35:52Z</time>
      </trkpt>
      <trkpt lat="42.9323" lon="0.1734">
        <ele>1588.1947231088</ele>
        <time>2015-03-29T10:35:57Z</time>
      </trkpt>
      <trkpt lat="42.93234" lon="0.17336">
        <ele>1590.2345319773</ele>
        <time>2015-03-29T10:36:02Z</time>
      </trkpt>
      <trkpt lat="42.93239" lon="0.17334">
        <ele>1590.2345319773</ele>
        <time>2015-03-29T10:36:07Z</time>
      </trkpt>
      <trkpt lat="42.93247" lon="0.17329">
        <ele>1592.250792153</ele>
        <time>2015-03-29T10:36:11Z</time>
      </trkpt>
      <trkpt lat="42.93254" lon="0.17328">
        <ele>1592.250792153</ele>
        <time>2015-03-29T10:36:17Z</time>
      </trkpt>
      <trkpt lat="42.9326" lon="0.17326">
        <ele>1594.2564589364</ele>
        <time>2015-03-29T10:36:22Z</time>
      </trkpt>
      <trkpt lat="42.93261" lon="0.1732">
        <ele>1594.2564589364</ele>
        <time>2015-03-29T10:36:27Z</time>
      </trkpt>
      <trkpt lat="42.93262" lon="0.17314">
        <ele>1594.2564589364</ele>
        <time>2015-03-29T10:36:32Z</time>
      </trkpt>
      <trkpt lat="42.93259" lon="0.1731">
        <ele>1596.1916905329</ele>
        <time>2015-03-29T10:36:37Z</time>
      </trkpt>
      <trkpt lat="42.93259" lon="0.17305">
        <ele>1596.1916905329</ele>
        <time>2015-03-29T10:36:42Z</time>
      </trkpt>
      <trkpt lat="42.9326" lon="0.173">
        <ele>1596.1916905329</ele>
        <time>2015-03-29T10:36:47Z</time>
      </trkpt>
      <trkpt lat="42.93263" lon="0.17295">
        <ele>1597.900536025</ele>
        <time>2015-03-29T10:36:52Z</time>
      </trkpt>
      <trkpt lat="42.93265" lon="0.17286">
        <ele>1597.900536025</ele>
        <time>2015-03-29T10:36:57Z</time>
      </trkpt>
      <trkpt lat="42.9326" lon="0.17275">
        <ele>1599.5707604913</ele>
        <time>2015-03-29T10:37:01Z</time>
      </trkpt>
      <trkpt lat="42.93267" lon="0.17273">
        <ele>1599.5707604913</ele>
        <time>2015-03-29T10:37:07Z</time>
      </trkpt>
      <trkpt lat="42.93275" lon="0.17269">
        <ele>1601.1604397941</ele>
        <time>2015-03-29T10:37:12Z</time>
      </trkpt>
      <trkpt lat="42.93276" lon="0.17263">
        <ele>1601.1604397941</ele>
        <time>2015-03-29T10:37:17Z</time>
      </trkpt>
      <trkpt lat="42.93279" lon="0.17258">
        <ele>1602.6455211476</ele>
        <time>2015-03-29T10:37:22Z</time>
      </trkpt>
      <trkpt lat="42.93278" lon="0.17253">
        <ele>1602.6455211476</ele>
        <time>2015-03-29T10:37:27Z</time>
      </trkpt>
      <trkpt lat="42.93278" lon="0.17245">
        <ele>1603.9609246973</ele>
        <time>2015-03-29T10:37:32Z</time>
      </trkpt>
      <trkpt lat="42.93278" lon="0.17237">
        <ele>1603.9609246973</ele>
        <time>2015-03-29T10:37:37Z</time>
      </trkpt>
      <trkpt lat="42.93277" lon="0.1723">
        <ele>1605.1622529516</ele>
        <time>2015-03-29T10:37:42Z</time>
      </trkpt>
      <trkpt lat="42.93272" lon="0.17224">
        <ele>1605.1622529516</ele>
        <time>2015-03-29T10:37:47Z</time>
      </trkpt>
      <trkpt lat="42.9327" lon="0.1722">
        <ele>1606.2438261568</ele>
        <time>2015-03-29T10:37:52Z</time>
      </trkpt>
      <trkpt lat="42.9327" lon="0.17215">
        <ele>1606.2438261568</ele>
        <time>2015-03-29T10:37:57Z</time>
      </trkpt>
      <trkpt lat="42.93275" lon="0.17212">
        <ele>1606.2438261568</ele>
        <time>2015-03-29T10:38:01Z</time>
      </trkpt>
      <trkpt lat="42.93276" lon="0.17207">
        <ele>1607.2440671845</ele>
        <time>2015-03-29T10:38:06Z</time>
      </trkpt>
      <trkpt lat="42.93274" lon="0.17201">
        <ele>1607.2440671845</ele>
        <time>2015-03-29T10:38:12Z</time>
      </trkpt>
      <trkpt lat="42.93274" lon="0.17197">
        <ele>1607.2440671845</ele>
        <time>2015-03-29T10:38:17Z</time>
      </trkpt>
      <trkpt lat="42.93271" lon="0.17189">
        <ele>1608.098031589</ele>
        <time>2015-03-29T10:38:21Z</time>
      </trkpt>
      <trkpt lat="42.93272" lon="0.17184">
        <ele>1608.098031589</ele>
        <time>2015-03-29T10:38:27Z</time>
      </trkpt>
      <trkpt lat="42.93272" lon="0.17181">
        <ele>1608.098031589</ele>
        <time>2015-03-29T10:38:32Z</time>
      </trkpt>
      <trkpt lat="42.93272" lon="0.17178">
        <ele>1608.098031589</ele>
        <time>2015-03-29T10:38:37Z</time>
      </trkpt>
      <trkpt lat="42.93274" lon="0.17174">
        <ele>1609.0054496631</ele>
        <time>2015-03-29T10:38:42Z</time>
      </trkpt>
      <trkpt lat="42.93277" lon="0.17171">
        <ele>1609.0054496631</ele>
        <time>2015-03-29T10:38:47Z</time>
      </trkpt>
      <trkpt lat="42.93278" lon="0.17166">
        <ele>1609.0054496631</ele>
        <time>2015-03-29T10:38:51Z</time>
      </trkpt>
      <trkpt lat="42.93279" lon="0.17165">
        <ele>1609.819856001</ele>
        <time>2015-03-29T10:38:56Z</time>
      </trkpt>
      <trkpt lat="42.93279" lon="0.1716">
        <ele>1609.819856001</ele>
        <time>2015-03-29T10:39:02Z</time>
      </trkpt>
      <trkpt lat="42.93281" lon="0.17157">
        <ele>1609.819856001</ele>
        <time>2015-03-29T10:39:07Z</time>
      </trkpt>
      <trkpt lat="42.9328" lon="0.17155">
        <ele>1609.819856001</ele>
        <time>2015-03-29T10:39:12Z</time>
      </trkpt>
      <trkpt lat="42.93277" lon="0.1715">
        <ele>1610.506753716</ele>
        <time>2015-03-29T10:39:17Z</time>
      </trkpt>
      <trkpt lat="42.93275" lon="0.17144">
        <ele>1610.506753716</ele>
        <time>2015-03-29T10:39:22Z</time>
      </trkpt>
      <trkpt lat="42.93276" lon="0.17142">
        <ele>1610.506753716</ele>
        <time>2015-03-29T10:39:27Z</time>
      </trkpt>
      <trkpt lat="42.93277" lon="0.1714">
        <ele>1610.506753716</ele>
        <time>2015-03-29T10:39:32Z</time>
      </trkpt>
      <trkpt lat="42.93279" lon="0.17138">
        <ele>1611.1498858217</ele>
        <time>2015-03-29T10:39:36Z</time>
      </trkpt>
      <trkpt lat="42.93285" lon="0.17135">
        <ele>1611.1498858217</ele>
        <time>2015-03-29T10:39:42Z</time>
      </trkpt>
      <trkpt lat="42.93285" lon="0.17131">
        <ele>1611.7405476325</ele>
        <time>2015-03-29T10:39:47Z</time>
      </trkpt>
      <trkpt lat="42.93286" lon="0.17127">
        <ele>1611.7405476325</ele>
        <time>2015-03-29T10:39:52Z</time>
      </trkpt>
      <trkpt lat="42.93293" lon="0.17124">
        <ele>1612.2564467542</ele>
        <time>2015-03-29T10:39:57Z</time>
      </trkpt>
      <trkpt lat="42.93288" lon="0.17125">
        <ele>1612.2564467542</ele>
        <time>2015-03-29T10:40:01Z</time>
      </trkpt>
      <trkpt lat="42.93288" lon="0.17123">
        <ele>1612.2564467542</ele>
        <time>2015-03-29T10:40:07Z</time>
      </trkpt>
      <trkpt lat="42.93289" lon="0.17117">
        <ele>1612.7492195316</ele>
        <time>2015-03-29T10:40:12Z</time>
      </trkpt>
      <trkpt lat="42.93288" lon="0.17113">
        <ele>1612.7492195316</ele>
        <time>2015-03-29T10:40:17Z</time>
      </trkpt>
      <trkpt lat="42.93291" lon="0.17107">
        <ele>1612.7492195316</ele>
        <time>2015-03-29T10:40:22Z</time>
      </trkpt>
      <trkpt lat="42.9329" lon="0.17101">
        <ele>1613.1515002264</ele>
        <time>2015-03-29T10:40:28Z</time>
      </trkpt>
      <trkpt lat="42.93291" lon="0.17099">
        <ele>1613.1515002264</ele>
        <time>2015-03-29T10:40:31Z</time>
      </trkpt>
      <trkpt lat="42.93295" lon="0.17094">
        <ele>1613.1515002264</ele>
        <time>2015-03-29T10:40:37Z</time>
      </trkpt>
      <trkpt lat="42.93294" lon="0.17089">
        <ele>1613.545241603</ele>
        <time>2015-03-29T10:40:42Z</time>
      </trkpt>
      <trkpt lat="42.93291" lon="0.17085">
        <ele>1613.545241603</ele>
        <time>2015-03-29T10:40:47Z</time>
      </trkpt>
      <trkpt lat="42.93292" lon="0.17083">
        <ele>1613.545241603</ele>
        <time>2015-03-29T10:40:52Z</time>
      </trkpt>
      <trkpt lat="42.93291" lon="0.17083">
        <ele>1613.545241603</ele>
        <time>2015-03-29T10:40:58Z</time>
      </trkpt>
      <trkpt lat="42.93292" lon="0.17075">
        <ele>1614.0640397997</ele>
        <time>2015-03-29T10:41:06Z</time>
      </trkpt>
      <trkpt lat="42.93289" lon="0.17071">
        <ele>1614.0640397997</ele>
        <time>2015-03-29T10:41:12Z</time>
      </trkpt>
      <trkpt lat="42.93288" lon="0.17066">
        <ele>1614.0640397997</ele>
        <time>2015-03-29T10:41:17Z</time>
      </trkpt>
      <trkpt lat="42.93289" lon="0.17064">
        <ele>1614.5430900016</ele>
        <time>2015-03-29T10:41:21Z</time>
      </trkpt>
      <trkpt lat="42.93283" lon="0.17057">
        <ele>1614.5430900016</ele>
        <time>2015-03-29T10:41:28Z</time>
      </trkpt>
      <trkpt lat="42.9328" lon="0.17052">
        <ele>1614.9450720048</ele>
        <time>2015-03-29T10:41:32Z</time>
      </trkpt>
      <trkpt lat="42.93279" lon="0.17049">
        <ele>1614.9450720048</ele>
        <time>2015-03-29T10:41:36Z</time>
      </trkpt>
      <trkpt lat="42.93282" lon="0.17045">
        <ele>1614.9450720048</ele>
        <time>2015-03-29T10:41:41Z</time>
      </trkpt>
      <trkpt lat="42.93284" lon="0.17041">
        <ele>1615.3508823399</ele>
        <time>2015-03-29T10:41:46Z</time>
      </trkpt>
      <trkpt lat="42.93284" lon="0.17036">
        <ele>1615.3508823399</ele>
        <time>2015-03-29T10:41:52Z</time>
      </trkpt>
      <trkpt lat="42.93283" lon="0.17031">
        <ele>1615.3508823399</ele>
        <time>2015-03-29T10:41:57Z</time>
      </trkpt>
      <trkpt lat="42.93281" lon="0.1703">
        <ele>1615.7345493942</ele>
        <time>2015-03-29T10:42:02Z</time>
      </trkpt>
      <trkpt lat="42.93281" lon="0.1703">
        <ele>1615.7345493942</ele>
        <time>2015-03-29T10:42:07Z</time>
      </trkpt>
      <trkpt lat="42.93284" lon="0.17025">
        <ele>1615.7345493942</ele>
        <time>2015-03-29T10:42:12Z</time>
      </trkpt>
      <trkpt lat="42.93282" lon="0.1702">
        <ele>1615.9999721354</ele>
        <time>2015-03-29T10:42:17Z</time>
      </trkpt>
      <trkpt lat="42.93281" lon="0.17017">
        <ele>1615.9999721354</ele>
        <time>2015-03-29T10:42:22Z</time>
      </trkpt>
      <trkpt lat="42.93287" lon="0.17014">
        <ele>1615.9999721354</ele>
        <time>2015-03-29T10:42:26Z</time>
      </trkpt>
      <trkpt lat="42.93289" lon="0.17008">
        <ele>1616.3033795156</ele>
        <time>2015-03-29T10:42:32Z</time>
      </trkpt>
      <trkpt lat="42.93294" lon="0.17001">
        <ele>1616.3033795156</ele>
        <time>2015-03-29T10:42:37Z</time>
      </trkpt>
      <trkpt lat="42.93301" lon="0.16993">
        <ele>1616.7461280879</ele>
        <time>2015-03-29T10:42:42Z</time>
      </trkpt>
      <trkpt lat="42.93303" lon="0.16984">
        <ele>1616.7461280879</ele>
        <time>2015-03-29T10:42:46Z</time>
      </trkpt>
      <trkpt lat="42.93297" lon="0.16983">
        <ele>1617.3496214513</ele>
        <time>2015-03-29T10:42:51Z</time>
      </trkpt>
      <trkpt lat="42.93303" lon="0.16983">
        <ele>1617.3496214513</ele>
        <time>2015-03-29T10:42:57Z</time>
      </trkpt>
      <trkpt lat="42.93303" lon="0.16977">
        <ele>1618.3493426214</ele>
        <time>2015-03-29T10:43:13Z</time>
      </trkpt>
      <trkpt lat="42.93303" lon="0.16973">
        <ele>1618.3493426214</ele>
        <time>2015-03-29T10:43:17Z</time>
      </trkpt>
      <trkpt lat="42.93305" lon="0.1697">
        <ele>1618.3493426214</ele>
        <time>2015-03-29T10:43:22Z</time>
      </trkpt>
      <trkpt lat="42.93307" lon="0.16969">
        <ele>1618.3493426214</ele>
        <time>2015-03-29T10:43:29Z</time>
      </trkpt>
      <trkpt lat="42.93308" lon="0.16967">
        <ele>1619.7028994599</ele>
        <time>2015-03-29T10:43:31Z</time>
      </trkpt>
      <trkpt lat="42.93303" lon="0.16964">
        <ele>1619.7028994599</ele>
        <time>2015-03-29T10:43:37Z</time>
      </trkpt>
      <trkpt lat="42.93303" lon="0.16962">
        <ele>1619.7028994599</ele>
        <time>2015-03-29T10:43:42Z</time>
      </trkpt>
      <trkpt lat="42.93303" lon="0.16959">
        <ele>1619.7028994599</ele>
        <time>2015-03-29T10:43:47Z</time>
      </trkpt>
      <trkpt lat="42.93303" lon="0.16958">
        <ele>1621.110557337</ele>
        <time>2015-03-29T10:43:52Z</time>
      </trkpt>
      <trkpt lat="42.93303" lon="0.16948">
        <ele>1621.110557337</ele>
        <time>2015-03-29T10:43:57Z</time>
      </trkpt>
      <trkpt lat="42.93303" lon="0.16942">
        <ele>1622.5105541448</ele>
        <time>2015-03-29T10:44:01Z</time>
      </trkpt>
      <trkpt lat="42.93308" lon="0.1694">
        <ele>1622.5105541448</ele>
        <time>2015-03-29T10:44:06Z</time>
      </trkpt>
      <trkpt lat="42.93304" lon="0.16934">
        <ele>1623.874452041</ele>
        <time>2015-03-29T10:44:12Z</time>
      </trkpt>
      <trkpt lat="42.93301" lon="0.1693">
        <ele>1623.874452041</ele>
        <time>2015-03-29T10:44:16Z</time>
      </trkpt>
      <trkpt lat="42.93298" lon="0.16926">
        <ele>1623.874452041</ele>
        <time>2015-03-29T10:44:22Z</time>
      </trkpt>
      <trkpt lat="42.93297" lon="0.16919">
        <ele>1625.2768295808</ele>
        <time>2015-03-29T10:44:27Z</time>
      </trkpt>
      <trkpt lat="42.93295" lon="0.16916">
        <ele>1625.2768295808</ele>
        <time>2015-03-29T10:44:32Z</time>
      </trkpt>
      <trkpt lat="42.93294" lon="0.16914">
        <ele>1625.2768295808</ele>
        <time>2015-03-29T10:44:37Z</time>
      </trkpt>
      <trkpt lat="42.93295" lon="0.16909">
        <ele>1625.2768295808</ele>
        <time>2015-03-29T10:44:41Z</time>
      </trkpt>
      <trkpt lat="42.93291" lon="0.16904">
        <ele>1626.9307433488</ele>
        <time>2015-03-29T10:44:47Z</time>
      </trkpt>
      <trkpt lat="42.93291" lon="0.16899">
        <ele>1626.9307433488</ele>
        <time>2015-03-29T10:45:07Z</time>
      </trkpt>
      <trkpt lat="42.93291" lon="0.16894">
        <ele>1626.9307433488</ele>
        <time>2015-03-29T10:45:12Z</time>
      </trkpt>
      <trkpt lat="42.93291" lon="0.16889">
        <ele>1628.8455076411</ele>
        <time>2015-03-29T10:45:17Z</time>
      </trkpt>
      <trkpt lat="42.93294" lon="0.16884">
        <ele>1628.8455076411</ele>
        <time>2015-03-29T10:45:22Z</time>
      </trkpt>
      <trkpt lat="42.93295" lon="0.16879">
        <ele>1630.6398854444</ele>
        <time>2015-03-29T10:45:27Z</time>
      </trkpt>
      <trkpt lat="42.93299" lon="0.16875">
        <ele>1630.6398854444</ele>
        <time>2015-03-29T10:45:32Z</time>
      </trkpt>
      <trkpt lat="42.93302" lon="0.1687">
        <ele>1632.3212319917</ele>
        <time>2015-03-29T10:45:36Z</time>
      </trkpt>
      <trkpt lat="42.93301" lon="0.16865">
        <ele>1632.3212319917</ele>
        <time>2015-03-29T10:45:42Z</time>
      </trkpt>
      <trkpt lat="42.93312" lon="0.16862">
        <ele>1633.9543012402</ele>
        <time>2015-03-29T10:45:47Z</time>
      </trkpt>
      <trkpt lat="42.93319" lon="0.16862">
        <ele>1633.9543012402</ele>
        <time>2015-03-29T10:45:52Z</time>
      </trkpt>
      <trkpt lat="42.93315" lon="0.1686">
        <ele>1635.714498152</ele>
        <time>2015-03-29T10:45:57Z</time>
      </trkpt>
      <trkpt lat="42.93313" lon="0.16858">
        <ele>1635.714498152</ele>
        <time>2015-03-29T10:46:02Z</time>
      </trkpt>
      <trkpt lat="42.93309" lon="0.16855">
        <ele>1635.714498152</ele>
        <time>2015-03-29T10:46:07Z</time>
      </trkpt>
      <trkpt lat="42.93308" lon="0.1685">
        <ele>1638.2827761679</ele>
        <time>2015-03-29T10:46:11Z</time>
      </trkpt>
      <trkpt lat="42.93306" lon="0.16844">
        <ele>1638.2827761679</ele>
        <time>2015-03-29T10:46:17Z</time>
      </trkpt>
      <trkpt lat="42.93307" lon="0.1684">
        <ele>1638.2827761679</ele>
        <time>2015-03-29T10:46:22Z</time>
      </trkpt>
      <trkpt lat="42.93311" lon="0.16835">
        <ele>1640.9763852906</ele>
        <time>2015-03-29T10:46:27Z</time>
      </trkpt>
      <trkpt lat="42.93313" lon="0.16827">
        <ele>1640.9763852906</ele>
        <time>2015-03-29T10:46:32Z</time>
      </trkpt>
      <trkpt lat="42.9331" lon="0.16821">
        <ele>1643.5947181595</ele>
        <time>2015-03-29T10:46:37Z</time>
      </trkpt>
      <trkpt lat="42.93313" lon="0.16816">
        <ele>1643.5947181595</ele>
        <time>2015-03-29T10:46:42Z</time>
      </trkpt>
      <trkpt lat="42.93316" lon="0.16812">
        <ele>1643.5947181595</ele>
        <time>2015-03-29T10:46:47Z</time>
      </trkpt>
      <trkpt lat="42.93316" lon="0.16806">
        <ele>1646.2547649658</ele>
        <time>2015-03-29T10:46:51Z</time>
      </trkpt>
      <trkpt lat="42.93318" lon="0.16803">
        <ele>1646.2547649658</ele>
        <time>2015-03-29T10:46:57Z</time>
      </trkpt>
      <trkpt lat="42.9332" lon="0.16797">
        <ele>1646.2547649658</ele>
        <time>2015-03-29T10:47:02Z</time>
      </trkpt>
      <trkpt lat="42.93325" lon="0.16793">
        <ele>1648.747786967</ele>
        <time>2015-03-29T10:47:07Z</time>
      </trkpt>
      <trkpt lat="42.93329" lon="0.16789">
        <ele>1648.747786967</ele>
        <time>2015-03-29T10:47:12Z</time>
      </trkpt>
      <trkpt lat="42.93336" lon="0.16781">
        <ele>1651.1835171063</ele>
        <time>2015-03-29T10:47:16Z</time>
      </trkpt>
      <trkpt lat="42.93337" lon="0.16775">
        <ele>1651.1835171063</ele>
        <time>2015-03-29T10:47:22Z</time>
      </trkpt>
      <trkpt lat="42.93337" lon="0.1677">
        <ele>1651.1835171063</ele>
        <time>2015-03-29T10:47:26Z</time>
      </trkpt>
      <trkpt lat="42.93338" lon="0.16764">
        <ele>1653.5053094298</ele>
        <time>2015-03-29T10:47:31Z</time>
      </trkpt>
      <trkpt lat="42.93342" lon="0.1676">
        <ele>1653.5053094298</ele>
        <time>2015-03-29T10:47:37Z</time>
      </trkpt>
      <trkpt lat="42.93343" lon="0.16755">
        <ele>1653.5053094298</ele>
        <time>2015-03-29T10:47:42Z</time>
      </trkpt>
      <trkpt lat="42.93344" lon="0.1675">
        <ele>1655.5889928367</ele>
        <time>2015-03-29T10:47:47Z</time>
      </trkpt>
      <trkpt lat="42.93343" lon="0.16745">
        <ele>1655.5889928367</ele>
        <time>2015-03-29T10:47:51Z</time>
      </trkpt>
      <trkpt lat="42.93344" lon="0.1674">
        <ele>1655.5889928367</ele>
        <time>2015-03-29T10:47:57Z</time>
      </trkpt>
      <trkpt lat="42.93347" lon="0.16739">
        <ele>1657.4211172742</ele>
        <time>2015-03-29T10:48:02Z</time>
      </trkpt>
      <trkpt lat="42.93349" lon="0.16736">
        <ele>1657.4211172742</ele>
        <time>2015-03-29T10:48:07Z</time>
      </trkpt>
      <trkpt lat="42.93351" lon="0.1673">
        <ele>1657.4211172742</ele>
        <time>2015-03-29T10:48:12Z</time>
      </trkpt>
      <trkpt lat="42.93354" lon="0.16726">
        <ele>1659.0620378945</ele>
        <time>2015-03-29T10:48:17Z</time>
      </trkpt>
      <trkpt lat="42.93357" lon="0.1672">
        <ele>1659.0620378945</ele>
        <time>2015-03-29T10:48:21Z</time>
      </trkpt>
      <trkpt lat="42.93358" lon="0.16713">
        <ele>1660.4818018095</ele>
        <time>2015-03-29T10:48:27Z</time>
      </trkpt>
      <trkpt lat="42.93357" lon="0.16707">
        <ele>1660.4818018095</ele>
        <time>2015-03-29T10:48:32Z</time>
      </trkpt>
      <trkpt lat="42.93362" lon="0.16701">
        <ele>1661.7686198476</ele>
        <time>2015-03-29T10:48:37Z</time>
      </trkpt>
      <trkpt lat="42.93372" lon="0.16698">
        <ele>1663.1631691413</ele>
        <time>2015-03-29T10:48:42Z</time>
      </trkpt>
      <trkpt lat="42.93373" lon="0.16695">
        <ele>1663.1631691413</ele>
        <time>2015-03-29T10:48:46Z</time>
      </trkpt>
      <trkpt lat="42.93374" lon="0.1669">
        <ele>1663.1631691413</ele>
        <time>2015-03-29T10:48:52Z</time>
      </trkpt>
      <trkpt lat="42.93374" lon="0.16686">
        <ele>1664.4702692348</ele>
        <time>2015-03-29T10:48:57Z</time>
      </trkpt>
      <trkpt lat="42.93372" lon="0.16677">
        <ele>1664.4702692348</ele>
        <time>2015-03-29T10:49:02Z</time>
      </trkpt>
      <trkpt lat="42.93371" lon="0.16675">
        <ele>1664.4702692348</ele>
        <time>2015-03-29T10:49:07Z</time>
      </trkpt>
      <trkpt lat="42.93375" lon="0.16667">
        <ele>1665.6390653873</ele>
        <time>2015-03-29T10:49:12Z</time>
      </trkpt>
      <trkpt lat="42.93378" lon="0.16667">
        <ele>1665.6390653873</ele>
        <time>2015-03-29T10:49:17Z</time>
      </trkpt>
      <trkpt lat="42.93383" lon="0.16667">
        <ele>1665.6390653873</ele>
        <time>2015-03-29T10:49:21Z</time>
      </trkpt>
      <trkpt lat="42.93385" lon="0.16662">
        <ele>1666.7813867136</ele>
        <time>2015-03-29T10:49:27Z</time>
      </trkpt>
      <trkpt lat="42.93389" lon="0.16657">
        <ele>1666.7813867136</ele>
        <time>2015-03-29T10:49:32Z</time>
      </trkpt>
      <trkpt lat="42.93391" lon="0.16654">
        <ele>1666.7813867136</ele>
        <time>2015-03-29T10:49:37Z</time>
      </trkpt>
      <trkpt lat="42.93389" lon="0.1665">
        <ele>1668.5485782667</ele>
        <time>2015-03-29T10:49:47Z</time>
      </trkpt>
      <trkpt lat="42.93389" lon="0.1665">
        <ele>1668.5485782667</ele>
        <time>2015-03-29T10:49:52Z</time>
      </trkpt>
      <trkpt lat="42.93392" lon="0.16648">
        <ele>1668.5485782667</ele>
        <time>2015-03-29T10:50:06Z</time>
      </trkpt>
      <trkpt lat="42.93398" lon="0.16648">
        <ele>1670.519226812</ele>
        <time>2015-03-29T10:50:12Z</time>
      </trkpt>
      <trkpt lat="42.93398" lon="0.16649">
        <ele>1670.519226812</ele>
        <time>2015-03-29T10:50:22Z</time>
      </trkpt>
      <trkpt lat="42.93394" lon="0.16649">
        <ele>1670.519226812</ele>
        <time>2015-03-29T10:50:27Z</time>
      </trkpt>
      <trkpt lat="42.93393" lon="0.16647">
        <ele>1670.519226812</ele>
        <time>2015-03-29T10:50:32Z</time>
      </trkpt>
      <trkpt lat="42.93392" lon="0.16649">
        <ele>1670.519226812</ele>
        <time>2015-03-29T10:50:37Z</time>
      </trkpt>
      <trkpt lat="42.93389" lon="0.16649">
        <ele>1672.2158679784</ele>
        <time>2015-03-29T10:50:42Z</time>
      </trkpt>
      <trkpt lat="42.93387" lon="0.16648">
        <ele>1672.2158679784</ele>
        <time>2015-03-29T10:50:47Z</time>
      </trkpt>
      <trkpt lat="42.93387" lon="0.16649">
        <ele>1672.2158679784</ele>
        <time>2015-03-29T10:50:52Z</time>
      </trkpt>
      <trkpt lat="42.93397" lon="0.16655">
        <ele>1673.3698418223</ele>
        <time>2015-03-29T10:51:26Z</time>
      </trkpt>
      <trkpt lat="42.93397" lon="0.1665">
        <ele>1673.3698418223</ele>
        <time>2015-03-29T10:51:36Z</time>
      </trkpt>
      <trkpt lat="42.93395" lon="0.1665">
        <ele>1673.3698418223</ele>
        <time>2015-03-29T10:51:42Z</time>
      </trkpt>
      <trkpt lat="42.93395" lon="0.16648">
        <ele>1673.3698418223</ele>
        <time>2015-03-29T10:52:12Z</time>
      </trkpt>
      <trkpt lat="42.93393" lon="0.16649">
        <ele>1673.3698418223</ele>
        <time>2015-03-29T10:52:17Z</time>
      </trkpt>
      <trkpt lat="42.93402" lon="0.16651">
        <ele>1675.2037080692</ele>
        <time>2015-03-29T10:52:47Z</time>
      </trkpt>
      <trkpt lat="42.93402" lon="0.16652">
        <ele>1675.2037080692</ele>
        <time>2015-03-29T10:52:52Z</time>
      </trkpt>
      <trkpt lat="42.93406" lon="0.16652">
        <ele>1675.2037080692</ele>
        <time>2015-03-29T10:53:07Z</time>
      </trkpt>
      <trkpt lat="42.93406" lon="0.16652">
        <ele>1675.2037080692</ele>
        <time>2015-03-29T10:53:12Z</time>
      </trkpt>
      <trkpt lat="42.93407" lon="0.16645">
        <ele>1676.585791538</ele>
        <time>2015-03-29T10:53:17Z</time>
      </trkpt>
      <trkpt lat="42.93407" lon="0.16642">
        <ele>1676.585791538</ele>
        <time>2015-03-29T10:53:22Z</time>
      </trkpt>
      <trkpt lat="42.93409" lon="0.16639">
        <ele>1676.585791538</ele>
        <time>2015-03-29T10:53:27Z</time>
      </trkpt>
      <trkpt lat="42.93409" lon="0.16636">
        <ele>1676.585791538</ele>
        <time>2015-03-29T10:53:32Z</time>
      </trkpt>
      <trkpt lat="42.93407" lon="0.16631">
        <ele>1677.8955410562</ele>
        <time>2015-03-29T10:53:37Z</time>
      </trkpt>
      <trkpt lat="42.93407" lon="0.16629">
        <ele>1677.8955410562</ele>
        <time>2015-03-29T10:53:41Z</time>
      </trkpt>
      <trkpt lat="42.93409" lon="0.16626">
        <ele>1677.8955410562</ele>
        <time>2015-03-29T10:53:46Z</time>
      </trkpt>
      <trkpt lat="42.93411" lon="0.16623">
        <ele>1677.8955410562</ele>
        <time>2015-03-29T10:53:52Z</time>
      </trkpt>
      <trkpt lat="42.9341" lon="0.16617">
        <ele>1679.1388886012</ele>
        <time>2015-03-29T10:53:57Z</time>
      </trkpt>
      <trkpt lat="42.93411" lon="0.16613">
        <ele>1679.1388886012</ele>
        <time>2015-03-29T10:54:02Z</time>
      </trkpt>
      <trkpt lat="42.93413" lon="0.16614">
        <ele>1679.1388886012</ele>
        <time>2015-03-29T10:54:07Z</time>
      </trkpt>
      <trkpt lat="42.93416" lon="0.16615">
        <ele>1679.1388886012</ele>
        <time>2015-03-29T10:54:12Z</time>
      </trkpt>
      <trkpt lat="42.93421" lon="0.16614">
        <ele>1680.2783014271</ele>
        <time>2015-03-29T10:54:17Z</time>
      </trkpt>
      <trkpt lat="42.9342" lon="0.1661">
        <ele>1680.2783014271</ele>
        <time>2015-03-29T10:54:21Z</time>
      </trkpt>
      <trkpt lat="42.9342" lon="0.16606">
        <ele>1680.2783014271</ele>
        <time>2015-03-29T10:54:27Z</time>
      </trkpt>
      <trkpt lat="42.93422" lon="0.16602">
        <ele>1681.3225429123</ele>
        <time>2015-03-29T10:54:32Z</time>
      </trkpt>
      <trkpt lat="42.93424" lon="0.166">
        <ele>1681.3225429123</ele>
        <time>2015-03-29T10:54:37Z</time>
      </trkpt>
      <trkpt lat="42.93425" lon="0.16597">
        <ele>1681.3225429123</ele>
        <time>2015-03-29T10:54:42Z</time>
      </trkpt>
      <trkpt lat="42.93424" lon="0.16595">
        <ele>1681.3225429123</ele>
        <time>2015-03-29T10:54:47Z</time>
      </trkpt>
      <trkpt lat="42.93423" lon="0.16594">
        <ele>1681.3225429123</ele>
        <time>2015-03-29T10:54:51Z</time>
      </trkpt>
      <trkpt lat="42.93428" lon="0.16591">
        <ele>1682.3232426716</ele>
        <time>2015-03-29T10:55:13Z</time>
      </trkpt>
      <trkpt lat="42.93431" lon="0.16588">
        <ele>1682.3232426716</ele>
        <time>2015-03-29T10:55:17Z</time>
      </trkpt>
      <trkpt lat="42.93436" lon="0.16585">
        <ele>1682.3232426716</ele>
        <time>2015-03-29T10:55:21Z</time>
      </trkpt>
      <trkpt lat="42.93439" lon="0.16582">
        <ele>1683.1554310861</ele>
        <time>2015-03-29T10:55:27Z</time>
      </trkpt>
      <trkpt lat="42.93442" lon="0.1658">
        <ele>1683.1554310861</ele>
        <time>2015-03-29T10:55:31Z</time>
      </trkpt>
      <trkpt lat="42.93445" lon="0.16578">
        <ele>1683.1554310861</ele>
        <time>2015-03-29T10:55:37Z</time>
      </trkpt>
      <trkpt lat="42.93446" lon="0.16574">
        <ele>1683.8623129833</ele>
        <time>2015-03-29T10:55:42Z</time>
      </trkpt>
      <trkpt lat="42.93451" lon="0.16575">
        <ele>1683.8623129833</ele>
        <time>2015-03-29T10:55:47Z</time>
      </trkpt>
      <trkpt lat="42.93453" lon="0.16575">
        <ele>1683.8623129833</ele>
        <time>2015-03-29T10:55:51Z</time>
      </trkpt>
      <trkpt lat="42.93454" lon="0.16574">
        <ele>1683.8623129833</ele>
        <time>2015-03-29T10:55:57Z</time>
      </trkpt>
      <trkpt lat="42.93454" lon="0.16569">
        <ele>1684.5419088064</ele>
        <time>2015-03-29T10:56:02Z</time>
      </trkpt>
      <trkpt lat="42.93451" lon="0.16561">
        <ele>1684.5419088064</ele>
        <time>2015-03-29T10:56:07Z</time>
      </trkpt>
      <trkpt lat="42.93453" lon="0.16558">
        <ele>1685.1409910997</ele>
        <time>2015-03-29T10:56:12Z</time>
      </trkpt>
      <trkpt lat="42.93454" lon="0.16559">
        <ele>1685.1409910997</ele>
        <time>2015-03-29T10:56:17Z</time>
      </trkpt>
      <trkpt lat="42.93453" lon="0.16557">
        <ele>1685.1409910997</ele>
        <time>2015-03-29T10:56:47Z</time>
      </trkpt>
      <trkpt lat="42.93456" lon="0.16557">
        <ele>1685.1409910997</ele>
        <time>2015-03-29T10:56:52Z</time>
      </trkpt>
      <trkpt lat="42.93457" lon="0.16558">
        <ele>1685.1409910997</ele>
        <time>2015-03-29T10:56:57Z</time>
      </trkpt>
      <trkpt lat="42.93466" lon="0.16565">
        <ele>1685.5095710438</ele>
        <time>2015-03-29T10:57:02Z</time>
      </trkpt>
      <trkpt lat="42.93474" lon="0.16568">
        <ele>1685.5095710438</ele>
        <time>2015-03-29T10:57:12Z</time>
      </trkpt>
      <trkpt lat="42.93474" lon="0.16565">
        <ele>1685.7686981333</ele>
        <time>2015-03-29T10:57:17Z</time>
      </trkpt>
      <trkpt lat="42.93471" lon="0.1656">
        <ele>1685.7686981333</ele>
        <time>2015-03-29T10:57:22Z</time>
      </trkpt>
      <trkpt lat="42.93474" lon="0.16559">
        <ele>1685.7686981333</ele>
        <time>2015-03-29T10:57:27Z</time>
      </trkpt>
      <trkpt lat="42.93474" lon="0.16555">
        <ele>1686.074036376</ele>
        <time>2015-03-29T10:57:31Z</time>
      </trkpt>
      <trkpt lat="42.93477" lon="0.16552">
        <ele>1686.074036376</ele>
        <time>2015-03-29T10:57:36Z</time>
      </trkpt>
      <trkpt lat="42.93482" lon="0.16546">
        <ele>1686.439944313</ele>
        <time>2015-03-29T10:57:42Z</time>
      </trkpt>
      <trkpt lat="42.93484" lon="0.16543">
        <ele>1686.439944313</ele>
        <time>2015-03-29T10:57:47Z</time>
      </trkpt>
      <trkpt lat="42.93481" lon="0.16537">
        <ele>1686.439944313</ele>
        <time>2015-03-29T10:57:52Z</time>
      </trkpt>
      <trkpt lat="42.9349" lon="0.1654">
        <ele>1686.9371528771</ele>
        <time>2015-03-29T10:57:57Z</time>
      </trkpt>
      <trkpt lat="42.93497" lon="0.16541">
        <ele>1686.9371528771</ele>
        <time>2015-03-29T10:58:01Z</time>
      </trkpt>
      <trkpt lat="42.93488" lon="0.16538">
        <ele>1687.400197793</ele>
        <time>2015-03-29T10:58:17Z</time>
      </trkpt>
      <trkpt lat="42.93486" lon="0.16536">
        <ele>1687.400197793</ele>
        <time>2015-03-29T10:58:21Z</time>
      </trkpt>
      <trkpt lat="42.93486" lon="0.16535">
        <ele>1687.400197793</ele>
        <time>2015-03-29T10:58:27Z</time>
      </trkpt>
      <trkpt lat="42.9349" lon="0.16533">
        <ele>1687.400197793</ele>
        <time>2015-03-29T10:58:32Z</time>
      </trkpt>
      <trkpt lat="42.93494" lon="0.16532">
        <ele>1687.8487409998</ele>
        <time>2015-03-29T10:58:36Z</time>
      </trkpt>
      <trkpt lat="42.93508" lon="0.16538">
        <ele>1688.0271671591</ele>
        <time>2015-03-29T10:58:41Z</time>
      </trkpt>
      <trkpt lat="42.93513" lon="0.16539">
        <ele>1688.0271671591</ele>
        <time>2015-03-29T10:58:47Z</time>
      </trkpt>
      <trkpt lat="42.93516" lon="0.16538">
        <ele>1688.0271671591</ele>
        <time>2015-03-29T10:58:52Z</time>
      </trkpt>
      <trkpt lat="42.93518" lon="0.16534">
        <ele>1688.4775302171</ele>
        <time>2015-03-29T10:58:57Z</time>
      </trkpt>
      <trkpt lat="42.93517" lon="0.16532">
        <ele>1688.4775302171</ele>
        <time>2015-03-29T10:59:02Z</time>
      </trkpt>
      <trkpt lat="42.93516" lon="0.16528">
        <ele>1688.4775302171</ele>
        <time>2015-03-29T10:59:07Z</time>
      </trkpt>
      <trkpt lat="42.93515" lon="0.16528">
        <ele>1688.4775302171</ele>
        <time>2015-03-29T10:59:12Z</time>
      </trkpt>
      <trkpt lat="42.93512" lon="0.16523">
        <ele>1689.1536106097</ele>
        <time>2015-03-29T10:59:16Z</time>
      </trkpt>
      <trkpt lat="42.93514" lon="0.16516">
        <ele>1689.1536106097</ele>
        <time>2015-03-29T10:59:27Z</time>
      </trkpt>
      <trkpt lat="42.93515" lon="0.16512">
        <ele>1689.1536106097</ele>
        <time>2015-03-29T10:59:32Z</time>
      </trkpt>
      <trkpt lat="42.93516" lon="0.16514">
        <ele>1690.1127575164</ele>
        <time>2015-03-29T10:59:37Z</time>
      </trkpt>
      <trkpt lat="42.93516" lon="0.16516">
        <ele>1690.1127575164</ele>
        <time>2015-03-29T10:59:47Z</time>
      </trkpt>
      <trkpt lat="42.93511" lon="0.16515">
        <ele>1690.1127575164</ele>
        <time>2015-03-29T11:00:12Z</time>
      </trkpt>
      <trkpt lat="42.93507" lon="0.1651">
        <ele>1691.6234092689</ele>
        <time>2015-03-29T11:00:16Z</time>
      </trkpt>
      <trkpt lat="42.9351" lon="0.16509">
        <ele>1691.6234092689</ele>
        <time>2015-03-29T11:00:22Z</time>
      </trkpt>
      <trkpt lat="42.93514" lon="0.16509">
        <ele>1691.6234092689</ele>
        <time>2015-03-29T11:00:27Z</time>
      </trkpt>
      <trkpt lat="42.93521" lon="0.16506">
        <ele>1693.0968250138</ele>
        <time>2015-03-29T11:00:32Z</time>
      </trkpt>
      <trkpt lat="42.9353" lon="0.16504">
        <ele>1693.0968250138</ele>
        <time>2015-03-29T11:00:37Z</time>
      </trkpt>
      <trkpt lat="42.93529" lon="0.16498">
        <ele>1694.5351759872</ele>
        <time>2015-03-29T11:00:42Z</time>
      </trkpt>
      <trkpt lat="42.93531" lon="0.16495">
        <ele>1694.5351759872</ele>
        <time>2015-03-29T11:00:46Z</time>
      </trkpt>
      <trkpt lat="42.93534" lon="0.16493">
        <ele>1694.5351759872</ele>
        <time>2015-03-29T11:00:51Z</time>
      </trkpt>
      <trkpt lat="42.93537" lon="0.16489">
        <ele>1696.0558038182</ele>
        <time>2015-03-29T11:00:56Z</time>
      </trkpt>
      <trkpt lat="42.93539" lon="0.16487">
        <ele>1696.0558038182</ele>
        <time>2015-03-29T11:01:01Z</time>
      </trkpt>
      <trkpt lat="42.93544" lon="0.16485">
        <ele>1696.0558038182</ele>
        <time>2015-03-29T11:01:09Z</time>
      </trkpt>
      <trkpt lat="42.93547" lon="0.16485">
        <ele>1697.7383264991</ele>
        <time>2015-03-29T11:01:12Z</time>
      </trkpt>
      <trkpt lat="42.93553" lon="0.16484">
        <ele>1697.7383264991</ele>
        <time>2015-03-29T11:01:17Z</time>
      </trkpt>
      <trkpt lat="42.93556" lon="0.1648">
        <ele>1699.5407262738</ele>
        <time>2015-03-29T11:01:22Z</time>
      </trkpt>
      <trkpt lat="42.93557" lon="0.16476">
        <ele>1699.5407262738</ele>
        <time>2015-03-29T11:01:26Z</time>
      </trkpt>
      <trkpt lat="42.93555" lon="0.16475">
        <ele>1699.5407262738</ele>
        <time>2015-03-29T11:01:32Z</time>
      </trkpt>
      <trkpt lat="42.93545" lon="0.16464">
        <ele>1701.322820891</ele>
        <time>2015-03-29T11:01:37Z</time>
      </trkpt>
      <trkpt lat="42.93546" lon="0.16463">
        <ele>1701.322820891</ele>
        <time>2015-03-29T11:01:42Z</time>
      </trkpt>
      <trkpt lat="42.9355" lon="0.16463">
        <ele>1701.322820891</ele>
        <time>2015-03-29T11:01:47Z</time>
      </trkpt>
      <trkpt lat="42.9355" lon="0.16459">
        <ele>1701.322820891</ele>
        <time>2015-03-29T11:01:51Z</time>
      </trkpt>
      <trkpt lat="42.93552" lon="0.16453">
        <ele>1703.1853309943</ele>
        <time>2015-03-29T11:01:57Z</time>
      </trkpt>
      <trkpt lat="42.93553" lon="0.16449">
        <ele>1703.1853309943</ele>
        <time>2015-03-29T11:02:01Z</time>
      </trkpt>
      <trkpt lat="42.93555" lon="0.16446">
        <ele>1703.1853309943</ele>
        <time>2015-03-29T11:02:07Z</time>
      </trkpt>
      <trkpt lat="42.93559" lon="0.16441">
        <ele>1705.0916305485</ele>
        <time>2015-03-29T11:02:12Z</time>
      </trkpt>
      <trkpt lat="42.93561" lon="0.16439">
        <ele>1705.0916305485</ele>
        <time>2015-03-29T11:02:18Z</time>
      </trkpt>
      <trkpt lat="42.93561" lon="0.16437">
        <ele>1705.0916305485</ele>
        <time>2015-03-29T11:02:21Z</time>
      </trkpt>
      <trkpt lat="42.93562" lon="0.16425">
        <ele>1706.8779461059</ele>
        <time>2015-03-29T11:02:26Z</time>
      </trkpt>
      <trkpt lat="42.93563" lon="0.16417">
        <ele>1706.8779461059</ele>
        <time>2015-03-29T11:02:32Z</time>
      </trkpt>
      <trkpt lat="42.93564" lon="0.16411">
        <ele>1708.5513852288</ele>
        <time>2015-03-29T11:02:37Z</time>
      </trkpt>
      <trkpt lat="42.93565" lon="0.16408">
        <ele>1708.5513852288</ele>
        <time>2015-03-29T11:02:41Z</time>
      </trkpt>
      <trkpt lat="42.93568" lon="0.1641">
        <ele>1708.5513852288</ele>
        <time>2015-03-29T11:02:48Z</time>
      </trkpt>
      <trkpt lat="42.93568" lon="0.16413">
        <ele>1708.5513852288</ele>
        <time>2015-03-29T11:02:51Z</time>
      </trkpt>
      <trkpt lat="42.9357" lon="0.16414">
        <ele>1710.2629584931</ele>
        <time>2015-03-29T11:02:57Z</time>
      </trkpt>
      <trkpt lat="42.93564" lon="0.1641">
        <ele>1710.2629584931</ele>
        <time>2015-03-29T11:03:07Z</time>
      </trkpt>
      <trkpt lat="42.93562" lon="0.16409">
        <ele>1710.2629584931</ele>
        <time>2015-03-29T11:03:12Z</time>
      </trkpt>
      <trkpt lat="42.93563" lon="0.16404">
        <ele>1712.2677681831</ele>
        <time>2015-03-29T11:03:16Z</time>
      </trkpt>
      <trkpt lat="42.93563" lon="0.16398">
        <ele>1712.2677681831</ele>
        <time>2015-03-29T11:03:22Z</time>
      </trkpt>
      <trkpt lat="42.93566" lon="0.16396">
        <ele>1712.2677681831</ele>
        <time>2015-03-29T11:03:26Z</time>
      </trkpt>
      <trkpt lat="42.93572" lon="0.16392">
        <ele>1714.1816842669</ele>
        <time>2015-03-29T11:03:31Z</time>
      </trkpt>
      <trkpt lat="42.93578" lon="0.16392">
        <ele>1714.1816842669</ele>
        <time>2015-03-29T11:03:37Z</time>
      </trkpt>
      <trkpt lat="42.93582" lon="0.16387">
        <ele>1715.9805181948</ele>
        <time>2015-03-29T11:03:42Z</time>
      </trkpt>
      <trkpt lat="42.9359" lon="0.16383">
        <ele>1715.9805181948</ele>
        <time>2015-03-29T11:03:47Z</time>
      </trkpt>
      <trkpt lat="42.93592" lon="0.1638">
        <ele>1717.8151322003</ele>
        <time>2015-03-29T11:03:52Z</time>
      </trkpt>
      <trkpt lat="42.93594" lon="0.16378">
        <ele>1717.8151322003</ele>
        <time>2015-03-29T11:03:57Z</time>
      </trkpt>
      <trkpt lat="42.93591" lon="0.16376">
        <ele>1717.8151322003</ele>
        <time>2015-03-29T11:04:07Z</time>
      </trkpt>
      <trkpt lat="42.93589" lon="0.16375">
        <ele>1717.8151322003</ele>
        <time>2015-03-29T11:04:11Z</time>
      </trkpt>
      <trkpt lat="42.93597" lon="0.16375">
        <ele>1719.7387614392</ele>
        <time>2015-03-29T11:04:17Z</time>
      </trkpt>
      <trkpt lat="42.93601" lon="0.16372">
        <ele>1719.7387614392</ele>
        <time>2015-03-29T11:04:22Z</time>
      </trkpt>
      <trkpt lat="42.93607" lon="0.16371">
        <ele>1721.5987512369</ele>
        <time>2015-03-29T11:04:27Z</time>
      </trkpt>
      <trkpt lat="42.93614" lon="0.16368">
        <ele>1721.5987512369</ele>
        <time>2015-03-29T11:04:32Z</time>
      </trkpt>
      <trkpt lat="42.93617" lon="0.16367">
        <ele>1723.4700358084</ele>
        <time>2015-03-29T11:04:37Z</time>
      </trkpt>
      <trkpt lat="42.93621" lon="0.16366">
        <ele>1723.4700358084</ele>
        <time>2015-03-29T11:04:41Z</time>
      </trkpt>
      <trkpt lat="42.9362" lon="0.16365">
        <ele>1723.4700358084</ele>
        <time>2015-03-29T11:04:46Z</time>
      </trkpt>
      <trkpt lat="42.93615" lon="0.16364">
        <ele>1725.508513039</ele>
        <time>2015-03-29T11:04:53Z</time>
      </trkpt>
      <trkpt lat="42.93615" lon="0.16362">
        <ele>1725.508513039</ele>
        <time>2015-03-29T11:04:57Z</time>
      </trkpt>
      <trkpt lat="42.93621" lon="0.16359">
        <ele>1725.508513039</ele>
        <time>2015-03-29T11:05:02Z</time>
      </trkpt>
      <trkpt lat="42.93629" lon="0.16357">
        <ele>1727.6852631991</ele>
        <time>2015-03-29T11:05:07Z</time>
      </trkpt>
      <trkpt lat="42.93639" lon="0.16358">
        <ele>1729.684921194</ele>
        <time>2015-03-29T11:05:12Z</time>
      </trkpt>
      <trkpt lat="42.93641" lon="0.16356">
        <ele>1729.684921194</ele>
        <time>2015-03-29T11:05:17Z</time>
      </trkpt>
      <trkpt lat="42.93642" lon="0.16354">
        <ele>1729.684921194</ele>
        <time>2015-03-29T11:05:21Z</time>
      </trkpt>
      <trkpt lat="42.9364" lon="0.16352">
        <ele>1729.684921194</ele>
        <time>2015-03-29T11:05:26Z</time>
      </trkpt>
      <trkpt lat="42.93652" lon="0.16351">
        <ele>1732.4695976811</ele>
        <time>2015-03-29T11:05:32Z</time>
      </trkpt>
      <trkpt lat="42.93654" lon="0.16349">
        <ele>1732.4695976811</ele>
        <time>2015-03-29T11:05:36Z</time>
      </trkpt>
      <trkpt lat="42.93658" lon="0.16343">
        <ele>1732.4695976811</ele>
        <time>2015-03-29T11:05:42Z</time>
      </trkpt>
      <trkpt lat="42.93657" lon="0.1634">
        <ele>1735.5018757021</ele>
        <time>2015-03-29T11:05:47Z</time>
      </trkpt>
      <trkpt lat="42.93658" lon="0.16335">
        <ele>1735.5018757021</ele>
        <time>2015-03-29T11:05:52Z</time>
      </trkpt>
      <trkpt lat="42.93661" lon="0.16331">
        <ele>1735.5018757021</ele>
        <time>2015-03-29T11:05:57Z</time>
      </trkpt>
      <trkpt lat="42.93664" lon="0.16327">
        <ele>1738.4705247931</ele>
        <time>2015-03-29T11:06:02Z</time>
      </trkpt>
      <trkpt lat="42.93666" lon="0.16322">
        <ele>1738.4705247931</ele>
        <time>2015-03-29T11:06:06Z</time>
      </trkpt>
      <trkpt lat="42.93664" lon="0.16321">
        <ele>1738.4705247931</ele>
        <time>2015-03-29T11:06:12Z</time>
      </trkpt>
      <trkpt lat="42.93661" lon="0.1632">
        <ele>1741.3612331659</ele>
        <time>2015-03-29T11:06:16Z</time>
      </trkpt>
      <trkpt lat="42.93657" lon="0.16316">
        <ele>1741.3612331659</ele>
        <time>2015-03-29T11:06:22Z</time>
      </trkpt>
      <trkpt lat="42.93661" lon="0.16314">
        <ele>1741.3612331659</ele>
        <time>2015-03-29T11:06:27Z</time>
      </trkpt>
      <trkpt lat="42.93665" lon="0.16314">
        <ele>1744.117800023</ele>
        <time>2015-03-29T11:06:32Z</time>
      </trkpt>
      <trkpt lat="42.93674" lon="0.16315">
        <ele>1744.117800023</ele>
        <time>2015-03-29T11:06:36Z</time>
      </trkpt>
      <trkpt lat="42.93679" lon="0.16313">
        <ele>1746.6309660413</ele>
        <time>2015-03-29T11:06:43Z</time>
      </trkpt>
      <trkpt lat="42.93681" lon="0.16312">
        <ele>1746.6309660413</ele>
        <time>2015-03-29T11:06:46Z</time>
      </trkpt>
      <trkpt lat="42.9369" lon="0.16308">
        <ele>1748.9876114263</ele>
        <time>2015-03-29T11:07:02Z</time>
      </trkpt>
      <trkpt lat="42.93689" lon="0.16306">
        <ele>1748.9876114263</ele>
        <time>2015-03-29T11:07:07Z</time>
      </trkpt>
      <trkpt lat="42.93688" lon="0.16305">
        <ele>1748.9876114263</ele>
        <time>2015-03-29T11:07:12Z</time>
      </trkpt>
      <trkpt lat="42.93688" lon="0.16307">
        <ele>1748.9876114263</ele>
        <time>2015-03-29T11:07:27Z</time>
      </trkpt>
      <trkpt lat="42.93689" lon="0.16308">
        <ele>1748.9876114263</ele>
        <time>2015-03-29T11:07:33Z</time>
      </trkpt>
      <trkpt lat="42.93693" lon="0.16311">
        <ele>1751.1102398849</ele>
        <time>2015-03-29T11:07:37Z</time>
      </trkpt>
      <trkpt lat="42.93695" lon="0.16311">
        <ele>1751.1102398849</ele>
        <time>2015-03-29T11:07:41Z</time>
      </trkpt>
      <trkpt lat="42.93687" lon="0.16307">
        <ele>1753.0430829196</ele>
        <time>2015-03-29T11:09:02Z</time>
      </trkpt>
      <trkpt lat="42.93687" lon="0.16306">
        <ele>1753.0430829196</ele>
        <time>2015-03-29T11:09:07Z</time>
      </trkpt>
      <trkpt lat="42.93692" lon="0.16301">
        <ele>1753.0430829196</ele>
        <time>2015-03-29T11:09:50Z</time>
      </trkpt>
      <trkpt lat="42.93689" lon="0.16302">
        <ele>1754.9142103289</ele>
        <time>2015-03-29T11:09:55Z</time>
      </trkpt>
      <trkpt lat="42.93699" lon="0.16306">
        <ele>1757.2172328399</ele>
        <time>2015-03-29T11:13:11Z</time>
      </trkpt>
      <trkpt lat="42.93701" lon="0.16303">
        <ele>1757.2172328399</ele>
        <time>2015-03-29T11:13:40Z</time>
      </trkpt>
      <trkpt lat="42.93699" lon="0.16296">
        <ele>1757.2172328399</ele>
        <time>2015-03-29T11:13:45Z</time>
      </trkpt>
      <trkpt lat="42.93696" lon="0.16292">
        <ele>1759.3275397561</ele>
        <time>2015-03-29T11:13:50Z</time>
      </trkpt>
      <trkpt lat="42.93695" lon="0.163">
        <ele>1759.3275397561</ele>
        <time>2015-03-29T11:13:55Z</time>
      </trkpt>
      <trkpt lat="42.93688" lon="0.16302">
        <ele>1761.0561260522</ele>
        <time>2015-03-29T11:14:20Z</time>
      </trkpt>
      <trkpt lat="42.93689" lon="0.16302">
        <ele>1761.0561260522</ele>
        <time>2015-03-29T11:14:25Z</time>
      </trkpt>
      <trkpt lat="42.93693" lon="0.16305">
        <ele>1761.0561260522</ele>
        <time>2015-03-29T11:18:17Z</time>
      </trkpt>
      <trkpt lat="42.93697" lon="0.16304">
        <ele>1762.2146079295</ele>
        <time>2015-03-29T11:18:22Z</time>
      </trkpt>
      <trkpt lat="42.93699" lon="0.16304">
        <ele>1762.2146079295</ele>
        <time>2015-03-29T11:18:27Z</time>
      </trkpt>
      <trkpt lat="42.93702" lon="0.16302">
        <ele>1762.2146079295</ele>
        <time>2015-03-29T11:18:31Z</time>
      </trkpt>
      <trkpt lat="42.93706" lon="0.163">
        <ele>1763.1345001082</ele>
        <time>2015-03-29T11:18:36Z</time>
      </trkpt>
      <trkpt lat="42.93708" lon="0.163">
        <ele>1763.1345001082</ele>
        <time>2015-03-29T11:18:42Z</time>
      </trkpt>
      <trkpt lat="42.93707" lon="0.16303">
        <ele>1763.1345001082</ele>
        <time>2015-03-29T11:18:46Z</time>
      </trkpt>
      <trkpt lat="42.93708" lon="0.16301">
        <ele>1763.1345001082</ele>
        <time>2015-03-29T11:18:51Z</time>
      </trkpt>
      <trkpt lat="42.93706" lon="0.16302">
        <ele>1763.1345001082</ele>
        <time>2015-03-29T11:18:57Z</time>
      </trkpt>
      <trkpt lat="42.93706" lon="0.16303">
        <ele>1763.9651748332</ele>
        <time>2015-03-29T11:19:02Z</time>
      </trkpt>
      <trkpt lat="42.93707" lon="0.16305">
        <ele>1763.9651748332</ele>
        <time>2015-03-29T11:19:07Z</time>
      </trkpt>
      <trkpt lat="42.93707" lon="0.16306">
        <ele>1763.9651748332</ele>
        <time>2015-03-29T11:19:11Z</time>
      </trkpt>
      <trkpt lat="42.93709" lon="0.16305">
        <ele>1763.9651748332</ele>
        <time>2015-03-29T11:19:17Z</time>
      </trkpt>
      <trkpt lat="42.9371" lon="0.16306">
        <ele>1763.9651748332</ele>
        <time>2015-03-29T11:19:22Z</time>
      </trkpt>
      <trkpt lat="42.93712" lon="0.16306">
        <ele>1763.9651748332</ele>
        <time>2015-03-29T11:19:27Z</time>
      </trkpt>
      <trkpt lat="42.93714" lon="0.16303">
        <ele>1764.7156349871</ele>
        <time>2015-03-29T11:19:31Z</time>
      </trkpt>
      <trkpt lat="42.93714" lon="0.16301">
        <ele>1764.7156349871</ele>
        <time>2015-03-29T11:19:36Z</time>
      </trkpt>
      <trkpt lat="42.93717" lon="0.16296">
        <ele>1764.7156349871</ele>
        <time>2015-03-29T11:19:42Z</time>
      </trkpt>
      <trkpt lat="42.9372" lon="0.1629">
        <ele>1765.3368445527</ele>
        <time>2015-03-29T11:19:47Z</time>
      </trkpt>
      <trkpt lat="42.93722" lon="0.16286">
        <ele>1765.3368445527</ele>
        <time>2015-03-29T11:19:51Z</time>
      </trkpt>
      <trkpt lat="42.93727" lon="0.16284">
        <ele>1765.870229269</ele>
        <time>2015-03-29T11:19:59Z</time>
      </trkpt>
      <trkpt lat="42.93726" lon="0.16287">
        <ele>1765.870229269</ele>
        <time>2015-03-29T11:20:01Z</time>
      </trkpt>
      <trkpt lat="42.93718" lon="0.16296">
        <ele>1766.2967923528</ele>
        <time>2015-03-29T11:20:07Z</time>
      </trkpt>
      <trkpt lat="42.9372" lon="0.16295">
        <ele>1766.2967923528</ele>
        <time>2015-03-29T11:20:11Z</time>
      </trkpt>
      <trkpt lat="42.93727" lon="0.16293">
        <ele>1766.6424725752</ele>
        <time>2015-03-29T11:20:17Z</time>
      </trkpt>
      <trkpt lat="42.9373" lon="0.16292">
        <ele>1766.6424725752</ele>
        <time>2015-03-29T11:20:22Z</time>
      </trkpt>
      <trkpt lat="42.93733" lon="0.1629">
        <ele>1766.6424725752</ele>
        <time>2015-03-29T11:20:27Z</time>
      </trkpt>
      <trkpt lat="42.93737" lon="0.16288">
        <ele>1766.9027033776</ele>
        <time>2015-03-29T11:20:31Z</time>
      </trkpt>
      <trkpt lat="42.93746" lon="0.16286">
        <ele>1767.0590662108</ele>
        <time>2015-03-29T11:20:36Z</time>
      </trkpt>
      <trkpt lat="42.93753" lon="0.16283">
        <ele>1767.0590662108</ele>
        <time>2015-03-29T11:20:41Z</time>
      </trkpt>
      <trkpt lat="42.93754" lon="0.16281">
        <ele>1767.0590662108</ele>
        <time>2015-03-29T11:20:47Z</time>
      </trkpt>
      <trkpt lat="42.93754" lon="0.16281">
        <ele>1767.1668151901</ele>
        <time>2015-03-29T11:20:50Z</time>
      </trkpt>
      <trkpt lat="42.9376" lon="0.16271">
        <ele>1767.118721114</ele>
        <time>2015-03-29T11:21:22Z</time>
      </trkpt>
      <trkpt lat="42.93763" lon="0.16272">
        <ele>1767.118721114</ele>
        <time>2015-03-29T11:21:27Z</time>
      </trkpt>
      <trkpt lat="42.93765" lon="0.16272">
        <ele>1767.118721114</ele>
        <time>2015-03-29T11:21:31Z</time>
      </trkpt>
      <trkpt lat="42.93769" lon="0.16272">
        <ele>1767.0752197681</ele>
        <time>2015-03-29T11:21:38Z</time>
      </trkpt>
      <trkpt lat="42.93771" lon="0.16272">
        <ele>1767.0752197681</ele>
        <time>2015-03-29T11:21:42Z</time>
      </trkpt>
      <trkpt lat="42.93772" lon="0.16274">
        <ele>1767.0752197681</ele>
        <time>2015-03-29T11:21:47Z</time>
      </trkpt>
      <trkpt lat="42.93775" lon="0.16274">
        <ele>1767.0752197681</ele>
        <time>2015-03-29T11:21:51Z</time>
      </trkpt>
      <trkpt lat="42.93778" lon="0.16276">
        <ele>1767.1560668296</ele>
        <time>2015-03-29T11:21:57Z</time>
      </trkpt>
      <trkpt lat="42.93781" lon="0.16281">
        <ele>1767.1560668296</ele>
        <time>2015-03-29T11:22:02Z</time>
      </trkpt>
      <trkpt lat="42.93783" lon="0.16278">
        <ele>1767.1560668296</ele>
        <time>2015-03-29T11:22:07Z</time>
      </trkpt>
      <trkpt lat="42.93788" lon="0.16277">
        <ele>1767.3565143389</ele>
        <time>2015-03-29T11:22:11Z</time>
      </trkpt>
      <trkpt lat="42.93789" lon="0.16275">
        <ele>1767.3565143389</ele>
        <time>2015-03-29T11:22:16Z</time>
      </trkpt>
      <trkpt lat="42.93801" lon="0.16273">
        <ele>1767.7726290159</ele>
        <time>2015-03-29T11:22:22Z</time>
      </trkpt>
      <trkpt lat="42.9381" lon="0.16271">
        <ele>1768.3197998817</ele>
        <time>2015-03-29T11:22:29Z</time>
      </trkpt>
      <trkpt lat="42.93814" lon="0.16271">
        <ele>1768.3197998817</ele>
        <time>2015-03-29T11:22:31Z</time>
      </trkpt>
      <trkpt lat="42.93823" lon="0.16277">
        <ele>1768.760654871</ele>
        <time>2015-03-29T11:22:47Z</time>
      </trkpt>
      <trkpt lat="42.93824" lon="0.16277">
        <ele>1768.760654871</ele>
        <time>2015-03-29T11:22:51Z</time>
      </trkpt>
      <trkpt lat="42.93828" lon="0.16274">
        <ele>1768.760654871</ele>
        <time>2015-03-29T11:23:02Z</time>
      </trkpt>
      <trkpt lat="42.93831" lon="0.16271">
        <ele>1769.1781011348</ele>
        <time>2015-03-29T11:23:07Z</time>
      </trkpt>
      <trkpt lat="42.9383" lon="0.1627">
        <ele>1769.1781011348</ele>
        <time>2015-03-29T11:23:11Z</time>
      </trkpt>
      <trkpt lat="42.9383" lon="0.16267">
        <ele>1769.1781011348</ele>
        <time>2015-03-29T11:23:17Z</time>
      </trkpt>
      <trkpt lat="42.93826" lon="0.16268">
        <ele>1769.1781011348</ele>
        <time>2015-03-29T11:23:22Z</time>
      </trkpt>
      <trkpt lat="42.93824" lon="0.16269">
        <ele>1769.1781011348</ele>
        <time>2015-03-29T11:23:27Z</time>
      </trkpt>
      <trkpt lat="42.93823" lon="0.16264">
        <ele>1770.0524412907</ele>
        <time>2015-03-29T11:23:36Z</time>
      </trkpt>
      <trkpt lat="42.93823" lon="0.16261">
        <ele>1770.0524412907</ele>
        <time>2015-03-29T11:23:42Z</time>
      </trkpt>
      <trkpt lat="42.93822" lon="0.16261">
        <ele>1770.0524412907</ele>
        <time>2015-03-29T11:23:47Z</time>
      </trkpt>
      <trkpt lat="42.93826" lon="0.16258">
        <ele>1770.0524412907</ele>
        <time>2015-03-29T11:23:51Z</time>
      </trkpt>
      <trkpt lat="42.9383" lon="0.16256">
        <ele>1771.0202994122</ele>
        <time>2015-03-29T11:23:58Z</time>
      </trkpt>
      <trkpt lat="42.93831" lon="0.16256">
        <ele>1771.0202994122</ele>
        <time>2015-03-29T11:24:02Z</time>
      </trkpt>
      <trkpt lat="42.93839" lon="0.16249">
        <ele>1771.9031620006</ele>
        <time>2015-03-29T11:24:12Z</time>
      </trkpt>
      <trkpt lat="42.9384" lon="0.16248">
        <ele>1771.9031620006</ele>
        <time>2015-03-29T11:24:16Z</time>
      </trkpt>
      <trkpt lat="42.93843" lon="0.16248">
        <ele>1771.9031620006</ele>
        <time>2015-03-29T11:24:22Z</time>
      </trkpt>
      <trkpt lat="42.93843" lon="0.16247">
        <ele>1771.9031620006</ele>
        <time>2015-03-29T11:24:26Z</time>
      </trkpt>
      <trkpt lat="42.93846" lon="0.16248">
        <ele>1771.9031620006</ele>
        <time>2015-03-29T11:24:32Z</time>
      </trkpt>
      <trkpt lat="42.93849" lon="0.16246">
        <ele>1772.7663562639</ele>
        <time>2015-03-29T11:24:37Z</time>
      </trkpt>
      <trkpt lat="42.93851" lon="0.16246">
        <ele>1772.7663562639</ele>
        <time>2015-03-29T11:24:42Z</time>
      </trkpt>
      <trkpt lat="42.93853" lon="0.16249">
        <ele>1772.7663562639</ele>
        <time>2015-03-29T11:24:47Z</time>
      </trkpt>
      <trkpt lat="42.93855" lon="0.16247">
        <ele>1772.7663562639</ele>
        <time>2015-03-29T11:24:51Z</time>
      </trkpt>
      <trkpt lat="42.93859" lon="0.16243">
        <ele>1773.6703792004</ele>
        <time>2015-03-29T11:24:57Z</time>
      </trkpt>
      <trkpt lat="42.93863" lon="0.16238">
        <ele>1773.6703792004</ele>
        <time>2015-03-29T11:25:02Z</time>
      </trkpt>
      <trkpt lat="42.93865" lon="0.16237">
        <ele>1773.6703792004</ele>
        <time>2015-03-29T11:25:07Z</time>
      </trkpt>
      <trkpt lat="42.93867" lon="0.16238">
        <ele>1774.5846186712</ele>
        <time>2015-03-29T11:25:12Z</time>
      </trkpt>
      <trkpt lat="42.93859" lon="0.16243">
        <ele>1774.5846186712</ele>
        <time>2015-03-29T11:25:17Z</time>
      </trkpt>
      <trkpt lat="42.93847" lon="0.16246">
        <ele>1775.768824256</ele>
        <time>2015-03-29T11:25:42Z</time>
      </trkpt>
      <trkpt lat="42.93851" lon="0.1624">
        <ele>1775.768824256</ele>
        <time>2015-03-29T11:25:47Z</time>
      </trkpt>
      <trkpt lat="42.93861" lon="0.16233">
        <ele>1776.8719740882</ele>
        <time>2015-03-29T11:25:52Z</time>
      </trkpt>
      <trkpt lat="42.93868" lon="0.16233">
        <ele>1776.8719740882</ele>
        <time>2015-03-29T11:25:57Z</time>
      </trkpt>
      <trkpt lat="42.93876" lon="0.16231">
        <ele>1777.9004417433</ele>
        <time>2015-03-29T11:26:02Z</time>
      </trkpt>
      <trkpt lat="42.93879" lon="0.16233">
        <ele>1777.9004417433</ele>
        <time>2015-03-29T11:26:07Z</time>
      </trkpt>
      <trkpt lat="42.9388" lon="0.16232">
        <ele>1777.9004417433</ele>
        <time>2015-03-29T11:26:12Z</time>
      </trkpt>
      <trkpt lat="42.93889" lon="0.16231">
        <ele>1779.018795066</ele>
        <time>2015-03-29T11:26:17Z</time>
      </trkpt>
      <trkpt lat="42.93895" lon="0.16228">
        <ele>1779.018795066</ele>
        <time>2015-03-29T11:26:21Z</time>
      </trkpt>
      <trkpt lat="42.93901" lon="0.16226">
        <ele>1780.278318027</ele>
        <time>2015-03-29T11:26:27Z</time>
      </trkpt>
      <trkpt lat="42.93905" lon="0.16225">
        <ele>1780.278318027</ele>
        <time>2015-03-29T11:26:32Z</time>
      </trkpt>
      <trkpt lat="42.93909" lon="0.16223">
        <ele>1780.278318027</ele>
        <time>2015-03-29T11:26:36Z</time>
      </trkpt>
      <trkpt lat="42.93914" lon="0.16218">
        <ele>1781.7693046381</ele>
        <time>2015-03-29T11:26:43Z</time>
      </trkpt>
      <trkpt lat="42.93917" lon="0.16216">
        <ele>1781.7693046381</ele>
        <time>2015-03-29T11:26:47Z</time>
      </trkpt>
      <trkpt lat="42.93917" lon="0.16217">
        <ele>1781.7693046381</ele>
        <time>2015-03-29T11:26:52Z</time>
      </trkpt>
      <trkpt lat="42.93918" lon="0.1622">
        <ele>1781.7693046381</ele>
        <time>2015-03-29T11:26:56Z</time>
      </trkpt>
      <trkpt lat="42.93927" lon="0.16215">
        <ele>1783.7188239487</ele>
        <time>2015-03-29T11:27:16Z</time>
      </trkpt>
      <trkpt lat="42.93931" lon="0.16211">
        <ele>1783.7188239487</ele>
        <time>2015-03-29T11:27:23Z</time>
      </trkpt>
      <trkpt lat="42.93933" lon="0.16211">
        <ele>1783.7188239487</ele>
        <time>2015-03-29T11:27:26Z</time>
      </trkpt>
      <trkpt lat="42.93938" lon="0.1621">
        <ele>1785.7883095717</ele>
        <time>2015-03-29T11:27:32Z</time>
      </trkpt>
      <trkpt lat="42.93939" lon="0.16211">
        <ele>1785.7883095717</ele>
        <time>2015-03-29T11:27:36Z</time>
      </trkpt>
      <trkpt lat="42.9394" lon="0.16208">
        <ele>1785.7883095717</ele>
        <time>2015-03-29T11:27:42Z</time>
      </trkpt>
      <trkpt lat="42.93943" lon="0.16206">
        <ele>1785.7883095717</ele>
        <time>2015-03-29T11:27:47Z</time>
      </trkpt>
      <trkpt lat="42.9395" lon="0.16204">
        <ele>1788.2833707555</ele>
        <time>2015-03-29T11:27:52Z</time>
      </trkpt>
      <trkpt lat="42.93952" lon="0.16203">
        <ele>1788.2833707555</ele>
        <time>2015-03-29T11:27:57Z</time>
      </trkpt>
      <trkpt lat="42.93964" lon="0.16206">
        <ele>1790.765391448</ele>
        <time>2015-03-29T11:28:02Z</time>
      </trkpt>
      <trkpt lat="42.93965" lon="0.16206">
        <ele>1790.765391448</ele>
        <time>2015-03-29T11:28:08Z</time>
      </trkpt>
      <trkpt lat="42.93969" lon="0.16202">
        <ele>1790.765391448</ele>
        <time>2015-03-29T11:28:12Z</time>
      </trkpt>
      <trkpt lat="42.9397" lon="0.16202">
        <ele>1790.765391448</ele>
        <time>2015-03-29T11:28:16Z</time>
      </trkpt>
      <trkpt lat="42.93969" lon="0.16202">
        <ele>1790.765391448</ele>
        <time>2015-03-29T11:28:22Z</time>
      </trkpt>
      <trkpt lat="42.93968" lon="0.16202">
        <ele>1793.6061998126</ele>
        <time>2015-03-29T11:28:27Z</time>
      </trkpt>
      <trkpt lat="42.93968" lon="0.16203">
        <ele>1793.6061998126</ele>
        <time>2015-03-29T11:28:31Z</time>
      </trkpt>
      <trkpt lat="42.93969" lon="0.16202">
        <ele>1793.6061998126</ele>
        <time>2015-03-29T11:28:36Z</time>
      </trkpt>
      <trkpt lat="42.9397" lon="0.162">
        <ele>1793.6061998126</ele>
        <time>2015-03-29T11:28:42Z</time>
      </trkpt>
      <trkpt lat="42.9397" lon="0.16201">
        <ele>1793.6061998126</ele>
        <time>2015-03-29T11:28:49Z</time>
      </trkpt>
      <trkpt lat="42.93969" lon="0.16201">
        <ele>1793.6061998126</ele>
        <time>2015-03-29T11:28:51Z</time>
      </trkpt>
      <trkpt lat="42.93976" lon="0.1621">
        <ele>1796.8754927435</ele>
        <time>2015-03-29T11:29:33Z</time>
      </trkpt>
      <trkpt lat="42.93979" lon="0.16208">
        <ele>1796.8754927435</ele>
        <time>2015-03-29T11:29:36Z</time>
      </trkpt>
      <trkpt lat="42.93982" lon="0.16207">
        <ele>1796.8754927435</ele>
        <time>2015-03-29T11:29:42Z</time>
      </trkpt>
      <trkpt lat="42.93983" lon="0.16205">
        <ele>1796.8754927435</ele>
        <time>2015-03-29T11:29:46Z</time>
      </trkpt>
      <trkpt lat="42.93988" lon="0.162">
        <ele>1799.9449266798</ele>
        <time>2015-03-29T11:29:52Z</time>
      </trkpt>
      <trkpt lat="42.9399" lon="0.16199">
        <ele>1799.9449266798</ele>
        <time>2015-03-29T11:29:56Z</time>
      </trkpt>
      <trkpt lat="42.93993" lon="0.16196">
        <ele>1799.9449266798</ele>
        <time>2015-03-29T11:30:02Z</time>
      </trkpt>
      <trkpt lat="42.93994" lon="0.16195">
        <ele>1799.9449266798</ele>
        <time>2015-03-29T11:30:07Z</time>
      </trkpt>
      <trkpt lat="42.93999" lon="0.16185">
        <ele>1803.227273459</ele>
        <time>2015-03-29T11:30:43Z</time>
      </trkpt>
      <trkpt lat="42.94002" lon="0.16184">
        <ele>1803.227273459</ele>
        <time>2015-03-29T11:30:49Z</time>
      </trkpt>
      <trkpt lat="42.94003" lon="0.16182">
        <ele>1803.227273459</ele>
        <time>2015-03-29T11:30:52Z</time>
      </trkpt>
      <trkpt lat="42.94005" lon="0.16182">
        <ele>1803.227273459</ele>
        <time>2015-03-29T11:30:56Z</time>
      </trkpt>
      <trkpt lat="42.9401" lon="0.16177">
        <ele>1806.4847524023</ele>
        <time>2015-03-29T11:31:02Z</time>
      </trkpt>
      <trkpt lat="42.94013" lon="0.16174">
        <ele>1806.4847524023</ele>
        <time>2015-03-29T11:31:07Z</time>
      </trkpt>
      <trkpt lat="42.94014" lon="0.16171">
        <ele>1806.4847524023</ele>
        <time>2015-03-29T11:31:12Z</time>
      </trkpt>
      <trkpt lat="42.94016" lon="0.1617">
        <ele>1806.4847524023</ele>
        <time>2015-03-29T11:31:16Z</time>
      </trkpt>
      <trkpt lat="42.94016" lon="0.16176">
        <ele>1810.4771359361</ele>
        <time>2015-03-29T11:31:42Z</time>
      </trkpt>
      <trkpt lat="42.9402" lon="0.16174">
        <ele>1810.4771359361</ele>
        <time>2015-03-29T11:31:47Z</time>
      </trkpt>
      <trkpt lat="42.94022" lon="0.16175">
        <ele>1810.4771359361</ele>
        <time>2015-03-29T11:31:52Z</time>
      </trkpt>
      <trkpt lat="42.94025" lon="0.16175">
        <ele>1810.4771359361</ele>
        <time>2015-03-29T11:31:56Z</time>
      </trkpt>
      <trkpt lat="42.94025" lon="0.16176">
        <ele>1814.2491189634</ele>
        <time>2015-03-29T11:32:03Z</time>
      </trkpt>
      <trkpt lat="42.94023" lon="0.16189">
        <ele>1817.8962363652</ele>
        <time>2015-03-29T11:32:16Z</time>
      </trkpt>
      <trkpt lat="42.94022" lon="0.16192">
        <ele>1817.8962363652</ele>
        <time>2015-03-29T11:32:22Z</time>
      </trkpt>
      <trkpt lat="42.94035" lon="0.16186">
        <ele>1821.6803926922</ele>
        <time>2015-03-29T11:32:52Z</time>
      </trkpt>
      <trkpt lat="42.94036" lon="0.16185">
        <ele>1821.6803926922</ele>
        <time>2015-03-29T11:32:56Z</time>
      </trkpt>
      <trkpt lat="42.94044" lon="0.16181">
        <ele>1825.1954853047</ele>
        <time>2015-03-29T11:33:03Z</time>
      </trkpt>
      <trkpt lat="42.94039" lon="0.16189">
        <ele>1825.1954853047</ele>
        <time>2015-03-29T11:33:32Z</time>
      </trkpt>
      <trkpt lat="42.94038" lon="0.16189">
        <ele>1825.1954853047</ele>
        <time>2015-03-29T11:33:36Z</time>
      </trkpt>
      <trkpt lat="42.9403" lon="0.16204">
        <ele>1829.132549601</ele>
        <time>2015-03-29T11:33:47Z</time>
      </trkpt>
      <trkpt lat="42.94024" lon="0.16213">
        <ele>1829.132549601</ele>
        <time>2015-03-29T11:33:52Z</time>
      </trkpt>
      <trkpt lat="42.94024" lon="0.16213">
        <ele>1829.132549601</ele>
        <time>2015-03-29T11:33:56Z</time>
      </trkpt>
      <trkpt lat="42.94027" lon="0.16218">
        <ele>1832.8914568995</ele>
        <time>2015-03-29T11:34:07Z</time>
      </trkpt>
      <trkpt lat="42.94036" lon="0.16213">
        <ele>1836.2482664456</ele>
        <time>2015-03-29T11:34:12Z</time>
      </trkpt>
      <trkpt lat="42.94037" lon="0.16214">
        <ele>1836.2482664456</ele>
        <time>2015-03-29T11:34:16Z</time>
      </trkpt>
      <trkpt lat="42.94041" lon="0.16214">
        <ele>1836.2482664456</ele>
        <time>2015-03-29T11:34:22Z</time>
      </trkpt>
      <trkpt lat="42.94045" lon="0.16215">
        <ele>1839.270581108</ele>
        <time>2015-03-29T11:34:27Z</time>
      </trkpt>
      <trkpt lat="42.94051" lon="0.16214">
        <ele>1839.270581108</ele>
        <time>2015-03-29T11:34:32Z</time>
      </trkpt>
      <trkpt lat="42.94056" lon="0.16213">
        <ele>1842.0509561734</ele>
        <time>2015-03-29T11:34:36Z</time>
      </trkpt>
      <trkpt lat="42.94062" lon="0.16212">
        <ele>1842.0509561734</ele>
        <time>2015-03-29T11:34:42Z</time>
      </trkpt>
      <trkpt lat="42.94066" lon="0.16214">
        <ele>1844.575107422</ele>
        <time>2015-03-29T11:34:47Z</time>
      </trkpt>
      <trkpt lat="42.94068" lon="0.16215">
        <ele>1844.575107422</ele>
        <time>2015-03-29T11:34:52Z</time>
      </trkpt>
      <trkpt lat="42.9407" lon="0.16215">
        <ele>1844.575107422</ele>
        <time>2015-03-29T11:34:56Z</time>
      </trkpt>
      <trkpt lat="42.94071" lon="0.16219">
        <ele>1844.575107422</ele>
        <time>2015-03-29T11:35:01Z</time>
      </trkpt>
      <trkpt lat="42.94075" lon="0.16221">
        <ele>1846.989197641</ele>
        <time>2015-03-29T11:35:06Z</time>
      </trkpt>
      <trkpt lat="42.94077" lon="0.16221">
        <ele>1846.989197641</ele>
        <time>2015-03-29T11:35:11Z</time>
      </trkpt>
      <trkpt lat="42.94086" lon="0.16219">
        <ele>1849.1841246495</ele>
        <time>2015-03-29T11:35:16Z</time>
      </trkpt>
      <trkpt lat="42.94095" lon="0.16213">
        <ele>1851.102795003</ele>
        <time>2015-03-29T11:35:23Z</time>
      </trkpt>
      <trkpt lat="42.94099" lon="0.16211">
        <ele>1851.102795003</ele>
        <time>2015-03-29T11:35:27Z</time>
      </trkpt>
      <trkpt lat="42.94099" lon="0.16216">
        <ele>1851.102795003</ele>
        <time>2015-03-29T11:35:31Z</time>
      </trkpt>
      <trkpt lat="42.94104" lon="0.16216">
        <ele>1853.0823228747</ele>
        <time>2015-03-29T11:35:36Z</time>
      </trkpt>
      <trkpt lat="42.94109" lon="0.16216">
        <ele>1853.0823228747</ele>
        <time>2015-03-29T11:35:42Z</time>
      </trkpt>
      <trkpt lat="42.94109" lon="0.16219">
        <ele>1853.0823228747</ele>
        <time>2015-03-29T11:35:47Z</time>
      </trkpt>
      <trkpt lat="42.94116" lon="0.1622">
        <ele>1855.3629624146</ele>
        <time>2015-03-29T11:36:03Z</time>
      </trkpt>
      <trkpt lat="42.94117" lon="0.16221">
        <ele>1855.3629624146</ele>
        <time>2015-03-29T11:36:06Z</time>
      </trkpt>
      <trkpt lat="42.94121" lon="0.16223">
        <ele>1855.3629624146</ele>
        <time>2015-03-29T11:36:12Z</time>
      </trkpt>
      <trkpt lat="42.94125" lon="0.16222">
        <ele>1857.4892738263</ele>
        <time>2015-03-29T11:36:16Z</time>
      </trkpt>
      <trkpt lat="42.94134" lon="0.16219">
        <ele>1859.3568649808</ele>
        <time>2015-03-29T11:36:23Z</time>
      </trkpt>
      <trkpt lat="42.9414" lon="0.16217">
        <ele>1859.3568649808</ele>
        <time>2015-03-29T11:36:27Z</time>
      </trkpt>
      <trkpt lat="42.94145" lon="0.16218">
        <ele>1861.100421559</ele>
        <time>2015-03-29T11:36:32Z</time>
      </trkpt>
      <trkpt lat="42.94147" lon="0.16217">
        <ele>1861.100421559</ele>
        <time>2015-03-29T11:36:36Z</time>
      </trkpt>
      <trkpt lat="42.94156" lon="0.16217">
        <ele>1862.7010688827</ele>
        <time>2015-03-29T11:36:42Z</time>
      </trkpt>
      <trkpt lat="42.94161" lon="0.16216">
        <ele>1862.7010688827</ele>
        <time>2015-03-29T11:36:47Z</time>
      </trkpt>
      <trkpt lat="42.94165" lon="0.16217">
        <ele>1864.1994511892</ele>
        <time>2015-03-29T11:36:52Z</time>
      </trkpt>
      <trkpt lat="42.94168" lon="0.16217">
        <ele>1864.1994511892</ele>
        <time>2015-03-29T11:36:56Z</time>
      </trkpt>
      <trkpt lat="42.94167" lon="0.16215">
        <ele>1864.1994511892</ele>
        <time>2015-03-29T11:37:02Z</time>
      </trkpt>
      <trkpt lat="42.94168" lon="0.16215">
        <ele>1864.1994511892</ele>
        <time>2015-03-29T11:37:07Z</time>
      </trkpt>
      <trkpt lat="42.94176" lon="0.16218">
        <ele>1866.109158176</ele>
        <time>2015-03-29T11:37:27Z</time>
      </trkpt>
      <trkpt lat="42.94178" lon="0.1622">
        <ele>1866.109158176</ele>
        <time>2015-03-29T11:37:31Z</time>
      </trkpt>
      <trkpt lat="42.94179" lon="0.16221">
        <ele>1866.109158176</ele>
        <time>2015-03-29T11:37:36Z</time>
      </trkpt>
      <trkpt lat="42.94179" lon="0.16222">
        <ele>1866.109158176</ele>
        <time>2015-03-29T11:37:42Z</time>
      </trkpt>
      <trkpt lat="42.94182" lon="0.16221">
        <ele>1866.109158176</ele>
        <time>2015-03-29T11:37:47Z</time>
      </trkpt>
      <trkpt lat="42.94184" lon="0.1622">
        <ele>1867.968243205</ele>
        <time>2015-03-29T11:37:51Z</time>
      </trkpt>
      <trkpt lat="42.94187" lon="0.1622">
        <ele>1867.968243205</ele>
        <time>2015-03-29T11:37:56Z</time>
      </trkpt>
      <trkpt lat="42.94189" lon="0.16219">
        <ele>1867.968243205</ele>
        <time>2015-03-29T11:38:01Z</time>
      </trkpt>
      <trkpt lat="42.94191" lon="0.16223">
        <ele>1867.968243205</ele>
        <time>2015-03-29T11:38:07Z</time>
      </trkpt>
      <trkpt lat="42.94193" lon="0.16226">
        <ele>1869.8388736793</ele>
        <time>2015-03-29T11:38:12Z</time>
      </trkpt>
      <trkpt lat="42.94194" lon="0.16226">
        <ele>1869.8388736793</ele>
        <time>2015-03-29T11:38:16Z</time>
      </trkpt>
      <trkpt lat="42.94195" lon="0.16224">
        <ele>1869.8388736793</ele>
        <time>2015-03-29T11:38:22Z</time>
      </trkpt>
      <trkpt lat="42.94206" lon="0.16221">
        <ele>1872.0380708986</ele>
        <time>2015-03-29T11:38:47Z</time>
      </trkpt>
      <trkpt lat="42.94207" lon="0.1622">
        <ele>1872.0380708986</ele>
        <time>2015-03-29T11:38:51Z</time>
      </trkpt>
      <trkpt lat="42.94213" lon="0.16219">
        <ele>1872.0380708986</ele>
        <time>2015-03-29T11:38:56Z</time>
      </trkpt>
      <trkpt lat="42.94216" lon="0.16218">
        <ele>1874.1381377054</ele>
        <time>2015-03-29T11:39:02Z</time>
      </trkpt>
      <trkpt lat="42.94218" lon="0.16217">
        <ele>1874.1381377054</ele>
        <time>2015-03-29T11:39:07Z</time>
      </trkpt>
      <trkpt lat="42.94223" lon="0.16213">
        <ele>1874.1381377054</ele>
        <time>2015-03-29T11:39:12Z</time>
      </trkpt>
      <trkpt lat="42.94224" lon="0.16211">
        <ele>1875.9881043837</ele>
        <time>2015-03-29T11:39:16Z</time>
      </trkpt>
      <trkpt lat="42.94226" lon="0.16208">
        <ele>1875.9881043837</ele>
        <time>2015-03-29T11:39:23Z</time>
      </trkpt>
      <trkpt lat="42.94226" lon="0.16208">
        <ele>1875.9881043837</ele>
        <time>2015-03-29T11:39:27Z</time>
      </trkpt>
      <trkpt lat="42.94233" lon="0.16203">
        <ele>1877.9388081919</ele>
        <time>2015-03-29T11:39:56Z</time>
      </trkpt>
      <trkpt lat="42.94238" lon="0.16203">
        <ele>1877.9388081919</ele>
        <time>2015-03-29T11:40:02Z</time>
      </trkpt>
      <trkpt lat="42.94239" lon="0.16204">
        <ele>1877.9388081919</ele>
        <time>2015-03-29T11:40:07Z</time>
      </trkpt>
      <trkpt lat="42.94242" lon="0.16205">
        <ele>1879.7962637757</ele>
        <time>2015-03-29T11:40:12Z</time>
      </trkpt>
      <trkpt lat="42.94245" lon="0.16206">
        <ele>1879.7962637757</ele>
        <time>2015-03-29T11:40:16Z</time>
      </trkpt>
      <trkpt lat="42.94248" lon="0.16208">
        <ele>1879.7962637757</ele>
        <time>2015-03-29T11:40:22Z</time>
      </trkpt>
      <trkpt lat="42.94252" lon="0.16209">
        <ele>1881.4674912185</ele>
        <time>2015-03-29T11:40:27Z</time>
      </trkpt>
      <trkpt lat="42.94253" lon="0.16208">
        <ele>1881.4674912185</ele>
        <time>2015-03-29T11:40:32Z</time>
      </trkpt>
      <trkpt lat="42.94256" lon="0.16207">
        <ele>1881.4674912185</ele>
        <time>2015-03-29T11:40:36Z</time>
      </trkpt>
      <trkpt lat="42.94257" lon="0.16207">
        <ele>1881.4674912185</ele>
        <time>2015-03-29T11:40:42Z</time>
      </trkpt>
      <trkpt lat="42.94262" lon="0.16203">
        <ele>1883.2271628123</ele>
        <time>2015-03-29T11:40:47Z</time>
      </trkpt>
      <trkpt lat="42.94265" lon="0.16202">
        <ele>1883.2271628123</ele>
        <time>2015-03-29T11:40:52Z</time>
      </trkpt>
      <trkpt lat="42.94267" lon="0.162">
        <ele>1883.2271628123</ele>
        <time>2015-03-29T11:40:56Z</time>
      </trkpt>
      <trkpt lat="42.94274" lon="0.16201">
        <ele>1884.7819188576</ele>
        <time>2015-03-29T11:41:02Z</time>
      </trkpt>
      <trkpt lat="42.94275" lon="0.16201">
        <ele>1884.7819188576</ele>
        <time>2015-03-29T11:41:07Z</time>
      </trkpt>
      <trkpt lat="42.94278" lon="0.16202">
        <ele>1884.7819188576</ele>
        <time>2015-03-29T11:41:12Z</time>
      </trkpt>
      <trkpt lat="42.94281" lon="0.16205">
        <ele>1884.7819188576</ele>
        <time>2015-03-29T11:41:16Z</time>
      </trkpt>
      <trkpt lat="42.9428" lon="0.16205">
        <ele>1884.7819188576</ele>
        <time>2015-03-29T11:41:22Z</time>
      </trkpt>
      <trkpt lat="42.94279" lon="0.16211">
        <ele>1886.9557802993</ele>
        <time>2015-03-29T11:41:43Z</time>
      </trkpt>
      <trkpt lat="42.94281" lon="0.16215">
        <ele>1886.9557802993</ele>
        <time>2015-03-29T11:41:47Z</time>
      </trkpt>
      <trkpt lat="42.94283" lon="0.16217">
        <ele>1886.9557802993</ele>
        <time>2015-03-29T11:41:52Z</time>
      </trkpt>
      <trkpt lat="42.94287" lon="0.1622">
        <ele>1889.0693940993</ele>
        <time>2015-03-29T11:41:56Z</time>
      </trkpt>
      <trkpt lat="42.94292" lon="0.16221">
        <ele>1889.0693940993</ele>
        <time>2015-03-29T11:42:02Z</time>
      </trkpt>
      <trkpt lat="42.94297" lon="0.16221">
        <ele>1890.9978732847</ele>
        <time>2015-03-29T11:42:07Z</time>
      </trkpt>
      <trkpt lat="42.94295" lon="0.16218">
        <ele>1890.9978732847</ele>
        <time>2015-03-29T11:42:12Z</time>
      </trkpt>
      <trkpt lat="42.94294" lon="0.16218">
        <ele>1890.9978732847</ele>
        <time>2015-03-29T11:42:16Z</time>
      </trkpt>
      <trkpt lat="42.943" lon="0.16218">
        <ele>1890.9978732847</ele>
        <time>2015-03-29T11:42:22Z</time>
      </trkpt>
      <trkpt lat="42.94304" lon="0.16217">
        <ele>1892.7701357355</ele>
        <time>2015-03-29T11:42:26Z</time>
      </trkpt>
      <trkpt lat="42.94308" lon="0.16215">
        <ele>1892.7701357355</ele>
        <time>2015-03-29T11:42:32Z</time>
      </trkpt>
      <trkpt lat="42.9431" lon="0.16214">
        <ele>1892.7701357355</ele>
        <time>2015-03-29T11:42:36Z</time>
      </trkpt>
      <trkpt lat="42.94315" lon="0.16212">
        <ele>1894.3989995762</ele>
        <time>2015-03-29T11:42:42Z</time>
      </trkpt>
      <trkpt lat="42.94321" lon="0.16207">
        <ele>1894.3989995762</ele>
        <time>2015-03-29T11:42:47Z</time>
      </trkpt>
      <trkpt lat="42.94323" lon="0.16204">
        <ele>1895.8967372522</ele>
        <time>2015-03-29T11:42:51Z</time>
      </trkpt>
      <trkpt lat="42.94326" lon="0.16202">
        <ele>1895.8967372522</ele>
        <time>2015-03-29T11:42:56Z</time>
      </trkpt>
      <trkpt lat="42.9433" lon="0.162">
        <ele>1895.8967372522</ele>
        <time>2015-03-29T11:43:03Z</time>
      </trkpt>
      <trkpt lat="42.94328" lon="0.16201">
        <ele>1897.8226998757</ele>
        <time>2015-03-29T11:44:30Z</time>
      </trkpt>
      <trkpt lat="42.94328" lon="0.16201">
        <ele>1897.8226998757</ele>
        <time>2015-03-29T11:44:35Z</time>
      </trkpt>
      <trkpt lat="42.94329" lon="0.16201">
        <ele>1897.8226998757</ele>
        <time>2015-03-29T11:45:30Z</time>
      </trkpt>
      <trkpt lat="42.94329" lon="0.16202">
        <ele>1897.8226998757</ele>
        <time>2015-03-29T11:45:35Z</time>
      </trkpt>
      <trkpt lat="42.94331" lon="0.16202">
        <ele>1897.8226998757</ele>
        <time>2015-03-29T11:45:40Z</time>
      </trkpt>
      <trkpt lat="42.94332" lon="0.16204">
        <ele>1897.8226998757</ele>
        <time>2015-03-29T11:45:47Z</time>
      </trkpt>
      <trkpt lat="42.94334" lon="0.16199">
        <ele>1899.786033666</ele>
        <time>2015-03-29T11:46:02Z</time>
      </trkpt>
      <trkpt lat="42.94337" lon="0.16198">
        <ele>1899.786033666</ele>
        <time>2015-03-29T11:46:07Z</time>
      </trkpt>
      <trkpt lat="42.94344" lon="0.16196">
        <ele>1901.5685863351</ele>
        <time>2015-03-29T11:46:12Z</time>
      </trkpt>
      <trkpt lat="42.94351" lon="0.16195">
        <ele>1901.5685863351</ele>
        <time>2015-03-29T11:46:16Z</time>
      </trkpt>
      <trkpt lat="42.94354" lon="0.16195">
        <ele>1903.0984186754</ele>
        <time>2015-03-29T11:46:21Z</time>
      </trkpt>
      <trkpt lat="42.94359" lon="0.16194">
        <ele>1903.0984186754</ele>
        <time>2015-03-29T11:46:27Z</time>
      </trkpt>
      <trkpt lat="42.9436" lon="0.16192">
        <ele>1903.0984186754</ele>
        <time>2015-03-29T11:46:32Z</time>
      </trkpt>
      <trkpt lat="42.94364" lon="0.1619">
        <ele>1904.3960293747</ele>
        <time>2015-03-29T11:46:36Z</time>
      </trkpt>
      <trkpt lat="42.94367" lon="0.16188">
        <ele>1904.3960293747</ele>
        <time>2015-03-29T11:46:41Z</time>
      </trkpt>
      <trkpt lat="42.94372" lon="0.16184">
        <ele>1904.3960293747</ele>
        <time>2015-03-29T11:46:48Z</time>
      </trkpt>
      <trkpt lat="42.94372" lon="0.16183">
        <ele>1905.4666250976</ele>
        <time>2015-03-29T11:46:51Z</time>
      </trkpt>
      <trkpt lat="42.94372" lon="0.16178">
        <ele>1905.4666250976</ele>
        <time>2015-03-29T11:46:56Z</time>
      </trkpt>
      <trkpt lat="42.94377" lon="0.16175">
        <ele>1905.4666250976</ele>
        <time>2015-03-29T11:47:02Z</time>
      </trkpt>
      <trkpt lat="42.94381" lon="0.16171">
        <ele>1906.3156346554</ele>
        <time>2015-03-29T11:47:07Z</time>
      </trkpt>
      <trkpt lat="42.94384" lon="0.16168">
        <ele>1906.3156346554</ele>
        <time>2015-03-29T11:47:12Z</time>
      </trkpt>
      <trkpt lat="42.94386" lon="0.16167">
        <ele>1906.3156346554</ele>
        <time>2015-03-29T11:47:16Z</time>
      </trkpt>
      <trkpt lat="42.94391" lon="0.16161">
        <ele>1906.934259218</ele>
        <time>2015-03-29T11:47:22Z</time>
      </trkpt>
      <trkpt lat="42.94396" lon="0.16158">
        <ele>1906.934259218</ele>
        <time>2015-03-29T11:47:27Z</time>
      </trkpt>
      <trkpt lat="42.94398" lon="0.16156">
        <ele>1906.934259218</ele>
        <time>2015-03-29T11:47:32Z</time>
      </trkpt>
      <trkpt lat="42.94401" lon="0.16155">
        <ele>1907.4302339939</ele>
        <time>2015-03-29T11:47:36Z</time>
      </trkpt>
      <trkpt lat="42.94403" lon="0.1615">
        <ele>1907.4302339939</ele>
        <time>2015-03-29T11:47:42Z</time>
      </trkpt>
      <trkpt lat="42.94406" lon="0.16149">
        <ele>1907.4302339939</ele>
        <time>2015-03-29T11:47:47Z</time>
      </trkpt>
      <trkpt lat="42.94411" lon="0.16147">
        <ele>1907.9036676802</ele>
        <time>2015-03-29T11:47:52Z</time>
      </trkpt>
      <trkpt lat="42.94413" lon="0.16147">
        <ele>1907.9036676802</ele>
        <time>2015-03-29T11:47:56Z</time>
      </trkpt>
      <trkpt lat="42.94416" lon="0.16146">
        <ele>1907.9036676802</ele>
        <time>2015-03-29T11:48:02Z</time>
      </trkpt>
      <trkpt lat="42.94418" lon="0.16145">
        <ele>1907.9036676802</ele>
        <time>2015-03-29T11:48:07Z</time>
      </trkpt>
      <trkpt lat="42.94421" lon="0.16145">
        <ele>1908.3320237948</ele>
        <time>2015-03-29T11:48:11Z</time>
      </trkpt>
      <trkpt lat="42.94424" lon="0.16145">
        <ele>1908.3320237948</ele>
        <time>2015-03-29T11:48:16Z</time>
      </trkpt>
      <trkpt lat="42.94427" lon="0.16144">
        <ele>1908.3320237948</ele>
        <time>2015-03-29T11:48:22Z</time>
      </trkpt>
      <trkpt lat="42.94432" lon="0.16143">
        <ele>1908.8241735252</ele>
        <time>2015-03-29T11:48:27Z</time>
      </trkpt>
      <trkpt lat="42.94435" lon="0.16143">
        <ele>1908.8241735252</ele>
        <time>2015-03-29T11:48:32Z</time>
      </trkpt>
      <trkpt lat="42.94435" lon="0.16143">
        <ele>1908.8241735252</ele>
        <time>2015-03-29T11:48:35Z</time>
      </trkpt>
      <trkpt lat="42.94436" lon="0.16143">
        <ele>1908.8241735252</ele>
        <time>2015-03-29T11:48:42Z</time>
      </trkpt>
      <trkpt lat="42.94441" lon="0.16142">
        <ele>1909.4230847314</ele>
        <time>2015-03-29T11:48:47Z</time>
      </trkpt>
      <trkpt lat="42.94443" lon="0.16142">
        <ele>1909.4230847314</ele>
        <time>2015-03-29T11:48:51Z</time>
      </trkpt>
      <trkpt lat="42.94444" lon="0.1614">
        <ele>1909.4230847314</ele>
        <time>2015-03-29T11:48:57Z</time>
      </trkpt>
      <trkpt lat="42.94453" lon="0.16137">
        <ele>1910.1537692797</ele>
        <time>2015-03-29T11:49:08Z</time>
      </trkpt>
      <trkpt lat="42.94456" lon="0.16137">
        <ele>1910.1537692797</ele>
        <time>2015-03-29T11:49:12Z</time>
      </trkpt>
      <trkpt lat="42.94458" lon="0.16137">
        <ele>1910.1537692797</ele>
        <time>2015-03-29T11:49:16Z</time>
      </trkpt>
      <trkpt lat="42.94458" lon="0.16137">
        <ele>1910.1537692797</ele>
        <time>2015-03-29T11:49:21Z</time>
      </trkpt>
      <trkpt lat="42.94461" lon="0.16136">
        <ele>1910.1537692797</ele>
        <time>2015-03-29T11:49:26Z</time>
      </trkpt>
      <trkpt lat="42.94464" lon="0.16136">
        <ele>1911.038937844</ele>
        <time>2015-03-29T11:49:32Z</time>
      </trkpt>
      <trkpt lat="42.94466" lon="0.16136">
        <ele>1911.038937844</ele>
        <time>2015-03-29T11:49:36Z</time>
      </trkpt>
      <trkpt lat="42.9447" lon="0.16138">
        <ele>1911.038937844</ele>
        <time>2015-03-29T11:49:42Z</time>
      </trkpt>
      <trkpt lat="42.94473" lon="0.1614">
        <ele>1911.9117569732</ele>
        <time>2015-03-29T11:49:46Z</time>
      </trkpt>
      <trkpt lat="42.94475" lon="0.16143">
        <ele>1911.9117569732</ele>
        <time>2015-03-29T11:49:52Z</time>
      </trkpt>
      <trkpt lat="42.94477" lon="0.16146">
        <ele>1911.9117569732</ele>
        <time>2015-03-29T11:49:56Z</time>
      </trkpt>
      <trkpt lat="42.94477" lon="0.16148">
        <ele>1911.9117569732</ele>
        <time>2015-03-29T11:50:01Z</time>
      </trkpt>
      <trkpt lat="42.9448" lon="0.16152">
        <ele>1913.1796172021</ele>
        <time>2015-03-29T11:50:07Z</time>
      </trkpt>
      <trkpt lat="42.9448" lon="0.16154">
        <ele>1913.1796172021</ele>
        <time>2015-03-29T11:50:12Z</time>
      </trkpt>
      <trkpt lat="42.94484" lon="0.16157">
        <ele>1913.1796172021</ele>
        <time>2015-03-29T11:50:16Z</time>
      </trkpt>
      <trkpt lat="42.94484" lon="0.16156">
        <ele>1913.1796172021</ele>
        <time>2015-03-29T11:50:22Z</time>
      </trkpt>
      <trkpt lat="42.94489" lon="0.16157">
        <ele>1914.7720300993</ele>
        <time>2015-03-29T11:50:32Z</time>
      </trkpt>
      <trkpt lat="42.94491" lon="0.1616">
        <ele>1914.7720300993</ele>
        <time>2015-03-29T11:50:36Z</time>
      </trkpt>
      <trkpt lat="42.94494" lon="0.16161">
        <ele>1914.7720300993</ele>
        <time>2015-03-29T11:50:42Z</time>
      </trkpt>
      <trkpt lat="42.94501" lon="0.1616">
        <ele>1916.6370888614</ele>
        <time>2015-03-29T11:51:27Z</time>
      </trkpt>
      <trkpt lat="42.94498" lon="0.16167">
        <ele>1916.6370888614</ele>
        <time>2015-03-29T11:51:37Z</time>
      </trkpt>
      <trkpt lat="42.945" lon="0.1617">
        <ele>1916.6370888614</ele>
        <time>2015-03-29T11:51:41Z</time>
      </trkpt>
      <trkpt lat="42.94506" lon="0.16173">
        <ele>1918.4376196956</ele>
        <time>2015-03-29T11:51:50Z</time>
      </trkpt>
      <trkpt lat="42.94511" lon="0.16179">
        <ele>1918.4376196956</ele>
        <time>2015-03-29T11:51:57Z</time>
      </trkpt>
      <trkpt lat="42.94513" lon="0.16182">
        <ele>1920.2071781473</ele>
        <time>2015-03-29T11:52:01Z</time>
      </trkpt>
      <trkpt lat="42.94515" lon="0.16185">
        <ele>1920.2071781473</ele>
        <time>2015-03-29T11:52:08Z</time>
      </trkpt>
      <trkpt lat="42.94515" lon="0.16185">
        <ele>1920.2071781473</ele>
        <time>2015-03-29T11:52:11Z</time>
      </trkpt>
      <trkpt lat="42.94518" lon="0.16179">
        <ele>1920.2071781473</ele>
        <time>2015-03-29T11:52:17Z</time>
      </trkpt>
      <trkpt lat="42.94518" lon="0.16176">
        <ele>1921.8471607438</ele>
        <time>2015-03-29T11:52:21Z</time>
      </trkpt>
      <trkpt lat="42.94519" lon="0.16171">
        <ele>1921.8471607438</ele>
        <time>2015-03-29T11:52:28Z</time>
      </trkpt>
      <trkpt lat="42.94519" lon="0.16169">
        <ele>1921.8471607438</ele>
        <time>2015-03-29T11:52:32Z</time>
      </trkpt>
      <trkpt lat="42.9452" lon="0.16172">
        <ele>1921.8471607438</ele>
        <time>2015-03-29T11:52:52Z</time>
      </trkpt>
      <trkpt lat="42.9452" lon="0.16177">
        <ele>1923.5691295346</ele>
        <time>2015-03-29T11:52:56Z</time>
      </trkpt>
      <trkpt lat="42.94523" lon="0.1618">
        <ele>1923.5691295346</ele>
        <time>2015-03-29T11:53:02Z</time>
      </trkpt>
      <trkpt lat="42.94525" lon="0.16183">
        <ele>1923.5691295346</ele>
        <time>2015-03-29T11:53:07Z</time>
      </trkpt>
      <trkpt lat="42.94526" lon="0.16187">
        <ele>1925.4391063382</ele>
        <time>2015-03-29T11:53:12Z</time>
      </trkpt>
      <trkpt lat="42.94526" lon="0.16191">
        <ele>1925.4391063382</ele>
        <time>2015-03-29T11:53:17Z</time>
      </trkpt>
      <trkpt lat="42.94527" lon="0.16192">
        <ele>1925.4391063382</ele>
        <time>2015-03-29T11:53:22Z</time>
      </trkpt>
      <trkpt lat="42.94527" lon="0.16193">
        <ele>1925.4391063382</ele>
        <time>2015-03-29T11:53:27Z</time>
      </trkpt>
      <trkpt lat="42.94527" lon="0.16186">
        <ele>1927.3448511931</ele>
        <time>2015-03-29T11:53:48Z</time>
      </trkpt>
      <trkpt lat="42.94527" lon="0.16183">
        <ele>1927.3448511931</ele>
        <time>2015-03-29T11:53:52Z</time>
      </trkpt>
      <trkpt lat="42.94529" lon="0.16179">
        <ele>1927.3448511931</ele>
        <time>2015-03-29T11:53:56Z</time>
      </trkpt>
      <trkpt lat="42.9453" lon="0.16176">
        <ele>1927.3448511931</ele>
        <time>2015-03-29T11:54:02Z</time>
      </trkpt>
      <trkpt lat="42.94531" lon="0.16172">
        <ele>1929.2110336007</ele>
        <time>2015-03-29T11:54:06Z</time>
      </trkpt>
      <trkpt lat="42.94531" lon="0.16169">
        <ele>1929.2110336007</ele>
        <time>2015-03-29T11:54:11Z</time>
      </trkpt>
      <trkpt lat="42.94532" lon="0.16174">
        <ele>1929.2110336007</ele>
        <time>2015-03-29T11:54:32Z</time>
      </trkpt>
      <trkpt lat="42.94533" lon="0.16177">
        <ele>1929.2110336007</ele>
        <time>2015-03-29T11:54:37Z</time>
      </trkpt>
      <trkpt lat="42.94534" lon="0.16181">
        <ele>1931.2561388154</ele>
        <time>2015-03-29T11:54:41Z</time>
      </trkpt>
      <trkpt lat="42.94536" lon="0.16183">
        <ele>1931.2561388154</ele>
        <time>2015-03-29T11:54:48Z</time>
      </trkpt>
      <trkpt lat="42.94539" lon="0.16177">
        <ele>1931.2561388154</ele>
        <time>2015-03-29T11:55:11Z</time>
      </trkpt>
      <trkpt lat="42.94538" lon="0.16173">
        <ele>1933.3794220748</ele>
        <time>2015-03-29T11:55:16Z</time>
      </trkpt>
      <trkpt lat="42.94538" lon="0.16172">
        <ele>1933.3794220748</ele>
        <time>2015-03-29T11:55:22Z</time>
      </trkpt>
      <trkpt lat="42.9454" lon="0.16175">
        <ele>1933.3794220748</ele>
        <time>2015-03-29T11:55:42Z</time>
      </trkpt>
      <trkpt lat="42.94543" lon="0.16176">
        <ele>1933.3794220748</ele>
        <time>2015-03-29T11:55:47Z</time>
      </trkpt>
      <trkpt lat="42.94547" lon="0.16181">
        <ele>1935.6746264801</ele>
        <time>2015-03-29T11:55:52Z</time>
      </trkpt>
      <trkpt lat="42.94549" lon="0.16181">
        <ele>1935.6746264801</ele>
        <time>2015-03-29T11:55:57Z</time>
      </trkpt>
      <trkpt lat="42.94548" lon="0.16186">
        <ele>1935.6746264801</ele>
        <time>2015-03-29T11:56:02Z</time>
      </trkpt>
      <trkpt lat="42.94548" lon="0.16187">
        <ele>1935.6746264801</ele>
        <time>2015-03-29T11:56:07Z</time>
      </trkpt>
      <trkpt lat="42.94552" lon="0.16195">
        <ele>1938.4298521047</ele>
        <time>2015-03-29T11:56:48Z</time>
      </trkpt>
      <trkpt lat="42.94551" lon="0.16198">
        <ele>1938.4298521047</ele>
        <time>2015-03-29T11:56:52Z</time>
      </trkpt>
      <trkpt lat="42.94553" lon="0.16202">
        <ele>1938.4298521047</ele>
        <time>2015-03-29T11:56:57Z</time>
      </trkpt>
      <trkpt lat="42.94555" lon="0.16204">
        <ele>1938.4298521047</ele>
        <time>2015-03-29T11:57:01Z</time>
      </trkpt>
      <trkpt lat="42.94557" lon="0.16206">
        <ele>1941.1469343465</ele>
        <time>2015-03-29T11:57:08Z</time>
      </trkpt>
      <trkpt lat="42.94559" lon="0.16209">
        <ele>1941.1469343465</ele>
        <time>2015-03-29T11:57:11Z</time>
      </trkpt>
      <trkpt lat="42.94559" lon="0.16212">
        <ele>1941.1469343465</ele>
        <time>2015-03-29T11:57:16Z</time>
      </trkpt>
      <trkpt lat="42.94558" lon="0.16213">
        <ele>1941.1469343465</ele>
        <time>2015-03-29T11:57:21Z</time>
      </trkpt>
      <trkpt lat="42.94563" lon="0.16208">
        <ele>1943.8543765658</ele>
        <time>2015-03-29T11:57:48Z</time>
      </trkpt>
      <trkpt lat="42.94564" lon="0.16205">
        <ele>1943.8543765658</ele>
        <time>2015-03-29T11:57:51Z</time>
      </trkpt>
      <trkpt lat="42.94566" lon="0.162">
        <ele>1943.8543765658</ele>
        <time>2015-03-29T11:57:57Z</time>
      </trkpt>
      <trkpt lat="42.94567" lon="0.162">
        <ele>1943.8543765658</ele>
        <time>2015-03-29T11:58:00Z</time>
      </trkpt>
      <trkpt lat="42.94568" lon="0.16198">
        <ele>1946.4345018754</ele>
        <time>2015-03-29T11:58:06Z</time>
      </trkpt>
      <trkpt lat="42.94568" lon="0.16198">
        <ele>1946.4345018754</ele>
        <time>2015-03-29T11:58:13Z</time>
      </trkpt>
      <trkpt lat="42.94572" lon="0.16204">
        <ele>1946.4345018754</ele>
        <time>2015-03-29T11:58:41Z</time>
      </trkpt>
      <trkpt lat="42.94573" lon="0.16208">
        <ele>1949.1533312506</ele>
        <time>2015-03-29T11:58:47Z</time>
      </trkpt>
      <trkpt lat="42.94574" lon="0.16211">
        <ele>1949.1533312506</ele>
        <time>2015-03-29T11:58:51Z</time>
      </trkpt>
      <trkpt lat="42.94575" lon="0.16214">
        <ele>1949.1533312506</ele>
        <time>2015-03-29T11:58:56Z</time>
      </trkpt>
      <trkpt lat="42.94578" lon="0.16218">
        <ele>1951.752581304</ele>
        <time>2015-03-29T11:59:01Z</time>
      </trkpt>
      <trkpt lat="42.9458" lon="0.16219">
        <ele>1951.752581304</ele>
        <time>2015-03-29T11:59:07Z</time>
      </trkpt>
      <trkpt lat="42.94585" lon="0.1622">
        <ele>1951.752581304</ele>
        <time>2015-03-29T11:59:12Z</time>
      </trkpt>
      <trkpt lat="42.94585" lon="0.1622">
        <ele>1951.752581304</ele>
        <time>2015-03-29T11:59:17Z</time>
      </trkpt>
      <trkpt lat="42.94585" lon="0.1622">
        <ele>1951.752581304</ele>
        <time>2015-03-29T11:59:21Z</time>
      </trkpt>
      <trkpt lat="42.94593" lon="0.16219">
        <ele>1954.8579684484</ele>
        <time>2015-03-29T12:00:21Z</time>
      </trkpt>
      <trkpt lat="42.94597" lon="0.1622">
        <ele>1954.8579684484</ele>
        <time>2015-03-29T12:00:28Z</time>
      </trkpt>
      <trkpt lat="42.94599" lon="0.16221">
        <ele>1954.8579684484</ele>
        <time>2015-03-29T12:00:32Z</time>
      </trkpt>
      <trkpt lat="42.94604" lon="0.1622">
        <ele>1957.7940892806</ele>
        <time>2015-03-29T12:00:37Z</time>
      </trkpt>
      <trkpt lat="42.94609" lon="0.1622">
        <ele>1957.7940892806</ele>
        <time>2015-03-29T12:00:41Z</time>
      </trkpt>
      <trkpt lat="42.94615" lon="0.16218">
        <ele>1960.7138702208</ele>
        <time>2015-03-29T12:00:47Z</time>
      </trkpt>
      <trkpt lat="42.94615" lon="0.16218">
        <ele>1960.7138702208</ele>
        <time>2015-03-29T12:00:52Z</time>
      </trkpt>
      <trkpt lat="42.94617" lon="0.16216">
        <ele>1960.7138702208</ele>
        <time>2015-03-29T12:01:21Z</time>
      </trkpt>
      <trkpt lat="42.94622" lon="0.16214">
        <ele>1960.7138702208</ele>
        <time>2015-03-29T12:01:27Z</time>
      </trkpt>
      <trkpt lat="42.9463" lon="0.16215">
        <ele>1963.8167421078</ele>
        <time>2015-03-29T12:01:32Z</time>
      </trkpt>
      <trkpt lat="42.94633" lon="0.16215">
        <ele>1963.8167421078</ele>
        <time>2015-03-29T12:01:36Z</time>
      </trkpt>
      <trkpt lat="42.94636" lon="0.16212">
        <ele>1963.8167421078</ele>
        <time>2015-03-29T12:01:41Z</time>
      </trkpt>
      <trkpt lat="42.94639" lon="0.16211">
        <ele>1966.638527201</ele>
        <time>2015-03-29T12:01:47Z</time>
      </trkpt>
      <trkpt lat="42.94642" lon="0.16209">
        <ele>1966.638527201</ele>
        <time>2015-03-29T12:01:54Z</time>
      </trkpt>
      <trkpt lat="42.9465" lon="0.16203">
        <ele>1969.2543849814</ele>
        <time>2015-03-29T12:01:56Z</time>
      </trkpt>
      <trkpt lat="42.94658" lon="0.16199">
        <ele>1969.2543849814</ele>
        <time>2015-03-29T12:02:01Z</time>
      </trkpt>
      <trkpt lat="42.94664" lon="0.16199">
        <ele>1971.5904860369</ele>
        <time>2015-03-29T12:02:07Z</time>
      </trkpt>
      <trkpt lat="42.94671" lon="0.16197">
        <ele>1971.5904860369</ele>
        <time>2015-03-29T12:02:11Z</time>
      </trkpt>
      <trkpt lat="42.94674" lon="0.16195">
        <ele>1973.665743956</ele>
        <time>2015-03-29T12:02:17Z</time>
      </trkpt>
      <trkpt lat="42.94675" lon="0.16195">
        <ele>1973.665743956</ele>
        <time>2015-03-29T12:02:22Z</time>
      </trkpt>
      <trkpt lat="42.94674" lon="0.16196">
        <ele>1973.665743956</ele>
        <time>2015-03-29T12:02:26Z</time>
      </trkpt>
      <trkpt lat="42.94677" lon="0.16192">
        <ele>1973.665743956</ele>
        <time>2015-03-29T12:02:57Z</time>
      </trkpt>
      <trkpt lat="42.94679" lon="0.16191">
        <ele>1975.6425938997</ele>
        <time>2015-03-29T12:03:01Z</time>
      </trkpt>
      <trkpt lat="42.94685" lon="0.16189">
        <ele>1975.6425938997</ele>
        <time>2015-03-29T12:03:08Z</time>
      </trkpt>
      <trkpt lat="42.94688" lon="0.16188">
        <ele>1975.6425938997</ele>
        <time>2015-03-29T12:03:12Z</time>
      </trkpt>
      <trkpt lat="42.94691" lon="0.16187">
        <ele>1977.498947433</ele>
        <time>2015-03-29T12:03:17Z</time>
      </trkpt>
      <trkpt lat="42.94695" lon="0.16183">
        <ele>1977.498947433</ele>
        <time>2015-03-29T12:03:21Z</time>
      </trkpt>
      <trkpt lat="42.94698" lon="0.1618">
        <ele>1977.498947433</ele>
        <time>2015-03-29T12:03:26Z</time>
      </trkpt>
      <trkpt lat="42.94702" lon="0.16179">
        <ele>1979.3876731091</ele>
        <time>2015-03-29T12:03:32Z</time>
      </trkpt>
      <trkpt lat="42.94705" lon="0.16179">
        <ele>1979.3876731091</ele>
        <time>2015-03-29T12:03:36Z</time>
      </trkpt>
      <trkpt lat="42.94703" lon="0.16179">
        <ele>1979.3876731091</ele>
        <time>2015-03-29T12:03:41Z</time>
      </trkpt>
      <trkpt lat="42.94708" lon="0.16178">
        <ele>1981.6233121153</ele>
        <time>2015-03-29T12:04:01Z</time>
      </trkpt>
      <trkpt lat="42.94712" lon="0.16175">
        <ele>1981.6233121153</ele>
        <time>2015-03-29T12:04:07Z</time>
      </trkpt>
      <trkpt lat="42.94715" lon="0.16174">
        <ele>1981.6233121153</ele>
        <time>2015-03-29T12:04:12Z</time>
      </trkpt>
      <trkpt lat="42.94719" lon="0.16174">
        <ele>1983.819060516</ele>
        <time>2015-03-29T12:04:17Z</time>
      </trkpt>
      <trkpt lat="42.94721" lon="0.16174">
        <ele>1983.819060516</ele>
        <time>2015-03-29T12:04:21Z</time>
      </trkpt>
      <trkpt lat="42.94726" lon="0.16174">
        <ele>1983.819060516</ele>
        <time>2015-03-29T12:04:27Z</time>
      </trkpt>
      <trkpt lat="42.94728" lon="0.16174">
        <ele>1985.9625614539</ele>
        <time>2015-03-29T12:04:32Z</time>
      </trkpt>
      <trkpt lat="42.94728" lon="0.16173">
        <ele>1985.9625614539</ele>
        <time>2015-03-29T12:04:37Z</time>
      </trkpt>
      <trkpt lat="42.94729" lon="0.16173">
        <ele>1985.9625614539</ele>
        <time>2015-03-29T12:04:41Z</time>
      </trkpt>
      <trkpt lat="42.94738" lon="0.16171">
        <ele>1988.6045988052</ele>
        <time>2015-03-29T12:05:27Z</time>
      </trkpt>
      <trkpt lat="42.9474" lon="0.1617">
        <ele>1988.6045988052</ele>
        <time>2015-03-29T12:05:31Z</time>
      </trkpt>
      <trkpt lat="42.94741" lon="0.16167">
        <ele>1988.6045988052</ele>
        <time>2015-03-29T12:05:37Z</time>
      </trkpt>
      <trkpt lat="42.94743" lon="0.16166">
        <ele>1988.6045988052</ele>
        <time>2015-03-29T12:05:41Z</time>
      </trkpt>
      <trkpt lat="42.94746" lon="0.16163">
        <ele>1991.2886055687</ele>
        <time>2015-03-29T12:05:47Z</time>
      </trkpt>
      <trkpt lat="42.94746" lon="0.16159">
        <ele>1991.2886055687</ele>
        <time>2015-03-29T12:05:52Z</time>
      </trkpt>
      <trkpt lat="42.94747" lon="0.16158">
        <ele>1991.2886055687</ele>
        <time>2015-03-29T12:05:57Z</time>
      </trkpt>
      <trkpt lat="42.94747" lon="0.16158">
        <ele>1991.2886055687</ele>
        <time>2015-03-29T12:06:01Z</time>
      </trkpt>
      <trkpt lat="42.94748" lon="0.16153">
        <ele>1991.2886055687</ele>
        <time>2015-03-29T12:06:37Z</time>
      </trkpt>
      <trkpt lat="42.94751" lon="0.16152">
        <ele>1994.0094119647</ele>
        <time>2015-03-29T12:06:41Z</time>
      </trkpt>
      <trkpt lat="42.94753" lon="0.1615">
        <ele>1994.0094119647</ele>
        <time>2015-03-29T12:06:47Z</time>
      </trkpt>
      <trkpt lat="42.94756" lon="0.16146">
        <ele>1994.0094119647</ele>
        <time>2015-03-29T12:06:52Z</time>
      </trkpt>
      <trkpt lat="42.9476" lon="0.16143">
        <ele>1996.6468906382</ele>
        <time>2015-03-29T12:06:57Z</time>
      </trkpt>
      <trkpt lat="42.94761" lon="0.1614">
        <ele>1996.6468906382</ele>
        <time>2015-03-29T12:07:01Z</time>
      </trkpt>
      <trkpt lat="42.94764" lon="0.16135">
        <ele>1996.6468906382</ele>
        <time>2015-03-29T12:07:07Z</time>
      </trkpt>
      <trkpt lat="42.94764" lon="0.16133">
        <ele>1996.6468906382</ele>
        <time>2015-03-29T12:07:12Z</time>
      </trkpt>
      <trkpt lat="42.94765" lon="0.16129">
        <ele>1999.1909067983</ele>
        <time>2015-03-29T12:07:17Z</time>
      </trkpt>
      <trkpt lat="42.94763" lon="0.16126">
        <ele>1999.1909067983</ele>
        <time>2015-03-29T12:07:21Z</time>
      </trkpt>
      <trkpt lat="42.94763" lon="0.16125">
        <ele>1999.1909067983</ele>
        <time>2015-03-29T12:07:26Z</time>
      </trkpt>
      <trkpt lat="42.94766" lon="0.16119">
        <ele>2001.7620901569</ele>
        <time>2015-03-29T12:08:12Z</time>
      </trkpt>
      <trkpt lat="42.94768" lon="0.16117">
        <ele>2001.7620901569</ele>
        <time>2015-03-29T12:08:17Z</time>
      </trkpt>
      <trkpt lat="42.9477" lon="0.16114">
        <ele>2001.7620901569</ele>
        <time>2015-03-29T12:08:21Z</time>
      </trkpt>
      <trkpt lat="42.94774" lon="0.1611">
        <ele>2004.0686795869</ele>
        <time>2015-03-29T12:08:27Z</time>
      </trkpt>
      <trkpt lat="42.94779" lon="0.16109">
        <ele>2004.0686795869</ele>
        <time>2015-03-29T12:08:32Z</time>
      </trkpt>
      <trkpt lat="42.94782" lon="0.16108">
        <ele>2004.0686795869</ele>
        <time>2015-03-29T12:08:37Z</time>
      </trkpt>
      <trkpt lat="42.94783" lon="0.16106">
        <ele>2006.2014239325</ele>
        <time>2015-03-29T12:08:41Z</time>
      </trkpt>
      <trkpt lat="42.94784" lon="0.16102">
        <ele>2006.2014239325</ele>
        <time>2015-03-29T12:08:47Z</time>
      </trkpt>
      <trkpt lat="42.94785" lon="0.16101">
        <ele>2006.2014239325</ele>
        <time>2015-03-29T12:08:52Z</time>
      </trkpt>
      <trkpt lat="42.94785" lon="0.16102">
        <ele>2006.2014239325</ele>
        <time>2015-03-29T12:08:57Z</time>
      </trkpt>
      <trkpt lat="42.94793" lon="0.16095">
        <ele>2008.8646277009</ele>
        <time>2015-03-29T12:09:52Z</time>
      </trkpt>
      <trkpt lat="42.94796" lon="0.16092">
        <ele>2008.8646277009</ele>
        <time>2015-03-29T12:09:57Z</time>
      </trkpt>
      <trkpt lat="42.94801" lon="0.16089">
        <ele>2011.3115460202</ele>
        <time>2015-03-29T12:10:01Z</time>
      </trkpt>
      <trkpt lat="42.94802" lon="0.16087">
        <ele>2011.3115460202</ele>
        <time>2015-03-29T12:10:07Z</time>
      </trkpt>
      <trkpt lat="42.94802" lon="0.16087">
        <ele>2011.3115460202</ele>
        <time>2015-03-29T12:10:12Z</time>
      </trkpt>
      <trkpt lat="42.94806" lon="0.16089">
        <ele>2011.3115460202</ele>
        <time>2015-03-29T12:10:17Z</time>
      </trkpt>
      <trkpt lat="42.94808" lon="0.1609">
        <ele>2011.3115460202</ele>
        <time>2015-03-29T12:10:21Z</time>
      </trkpt>
      <trkpt lat="42.94813" lon="0.1609">
        <ele>2013.8741390651</ele>
        <time>2015-03-29T12:10:32Z</time>
      </trkpt>
      <trkpt lat="42.94816" lon="0.16091">
        <ele>2013.8741390651</ele>
        <time>2015-03-29T12:10:37Z</time>
      </trkpt>
      <trkpt lat="42.9482" lon="0.1609">
        <ele>2013.8741390651</ele>
        <time>2015-03-29T12:11:11Z</time>
      </trkpt>
      <trkpt lat="42.94822" lon="0.16086">
        <ele>2016.9029438681</ele>
        <time>2015-03-29T12:11:17Z</time>
      </trkpt>
      <trkpt lat="42.94825" lon="0.16086">
        <ele>2016.9029438681</ele>
        <time>2015-03-29T12:11:21Z</time>
      </trkpt>
      <trkpt lat="42.94828" lon="0.16084">
        <ele>2016.9029438681</ele>
        <time>2015-03-29T12:11:27Z</time>
      </trkpt>
      <trkpt lat="42.94832" lon="0.16085">
        <ele>2019.9144714202</ele>
        <time>2015-03-29T12:11:32Z</time>
      </trkpt>
      <trkpt lat="42.94831" lon="0.16084">
        <ele>2019.9144714202</ele>
        <time>2015-03-29T12:11:37Z</time>
      </trkpt>
      <trkpt lat="42.94831" lon="0.16084">
        <ele>2019.9144714202</ele>
        <time>2015-03-29T12:11:41Z</time>
      </trkpt>
      <trkpt lat="42.94821" lon="0.16082">
        <ele>2022.9652433652</ele>
        <time>2015-03-29T12:11:57Z</time>
      </trkpt>
      <trkpt lat="42.94821" lon="0.16082">
        <ele>2022.9652433652</ele>
        <time>2015-03-29T12:12:01Z</time>
      </trkpt>
      <trkpt lat="42.94827" lon="0.16083">
        <ele>2022.9652433652</ele>
        <time>2015-03-29T12:12:12Z</time>
      </trkpt>
      <trkpt lat="42.94829" lon="0.16084">
        <ele>2025.7905330264</ele>
        <time>2015-03-29T12:12:16Z</time>
      </trkpt>
      <trkpt lat="42.94837" lon="0.16086">
        <ele>2025.7905330264</ele>
        <time>2015-03-29T12:12:22Z</time>
      </trkpt>
      <trkpt lat="42.94842" lon="0.16088">
        <ele>2028.4483866204</ele>
        <time>2015-03-29T12:12:28Z</time>
      </trkpt>
      <trkpt lat="42.94847" lon="0.16088">
        <ele>2028.4483866204</ele>
        <time>2015-03-29T12:12:31Z</time>
      </trkpt>
      <trkpt lat="42.94857" lon="0.16085">
        <ele>2030.9931169602</ele>
        <time>2015-03-29T12:12:37Z</time>
      </trkpt>
      <trkpt lat="42.9486" lon="0.16085">
        <ele>2030.9931169602</ele>
        <time>2015-03-29T12:12:41Z</time>
      </trkpt>
      <trkpt lat="42.94864" lon="0.16085">
        <ele>2030.9931169602</ele>
        <time>2015-03-29T12:12:47Z</time>
      </trkpt>
      <trkpt lat="42.94854" lon="0.16087">
        <ele>2033.6339473605</ele>
        <time>2015-03-29T12:13:01Z</time>
      </trkpt>
      <trkpt lat="42.94853" lon="0.16088">
        <ele>2033.6339473605</ele>
        <time>2015-03-29T12:13:06Z</time>
      </trkpt>
      <trkpt lat="42.94851" lon="0.16094">
        <ele>2033.6339473605</ele>
        <time>2015-03-29T12:13:21Z</time>
      </trkpt>
      <trkpt lat="42.94856" lon="0.16092">
        <ele>2036.3915884169</ele>
        <time>2015-03-29T12:13:27Z</time>
      </trkpt>
      <trkpt lat="42.9486" lon="0.16092">
        <ele>2036.3915884169</ele>
        <time>2015-03-29T12:13:32Z</time>
      </trkpt>
      <trkpt lat="42.94862" lon="0.16091">
        <ele>2036.3915884169</ele>
        <time>2015-03-29T12:13:37Z</time>
      </trkpt>
      <trkpt lat="42.94865" lon="0.16091">
        <ele>2036.3915884169</ele>
        <time>2015-03-29T12:13:41Z</time>
      </trkpt>
      <trkpt lat="42.94868" lon="0.1609">
        <ele>2039.0543821318</ele>
        <time>2015-03-29T12:13:47Z</time>
      </trkpt>
      <trkpt lat="42.94871" lon="0.16092">
        <ele>2039.0543821318</ele>
        <time>2015-03-29T12:13:52Z</time>
      </trkpt>
      <trkpt lat="42.94876" lon="0.16094">
        <ele>2039.0543821318</ele>
        <time>2015-03-29T12:13:57Z</time>
      </trkpt>
      <trkpt lat="42.9488" lon="0.16096">
        <ele>2041.5994751353</ele>
        <time>2015-03-29T12:14:01Z</time>
      </trkpt>
      <trkpt lat="42.94884" lon="0.16099">
        <ele>2041.5994751353</ele>
        <time>2015-03-29T12:14:08Z</time>
      </trkpt>
      <trkpt lat="42.94886" lon="0.16098">
        <ele>2041.5994751353</ele>
        <time>2015-03-29T12:14:12Z</time>
      </trkpt>
      <trkpt lat="42.94887" lon="0.16094">
        <ele>2043.9916670174</ele>
        <time>2015-03-29T12:14:17Z</time>
      </trkpt>
      <trkpt lat="42.94887" lon="0.16094">
        <ele>2043.9916670174</ele>
        <time>2015-03-29T12:14:21Z</time>
      </trkpt>
      <trkpt lat="42.94884" lon="0.16101">
        <ele>2043.9916670174</ele>
        <time>2015-03-29T12:14:38Z</time>
      </trkpt>
      <trkpt lat="42.94885" lon="0.16103">
        <ele>2043.9916670174</ele>
        <time>2015-03-29T12:14:41Z</time>
      </trkpt>
      <trkpt lat="42.94884" lon="0.16111">
        <ele>2046.1700023004</ele>
        <time>2015-03-29T12:14:46Z</time>
      </trkpt>
      <trkpt lat="42.94886" lon="0.16115">
        <ele>2046.1700023004</ele>
        <time>2015-03-29T12:14:53Z</time>
      </trkpt>
      <trkpt lat="42.94887" lon="0.16119">
        <ele>2046.1700023004</ele>
        <time>2015-03-29T12:14:56Z</time>
      </trkpt>
      <trkpt lat="42.94887" lon="0.16122">
        <ele>2046.1700023004</ele>
        <time>2015-03-29T12:15:02Z</time>
      </trkpt>
      <trkpt lat="42.94888" lon="0.16122">
        <ele>2048.0786515679</ele>
        <time>2015-03-29T12:15:06Z</time>
      </trkpt>
      <trkpt lat="42.94892" lon="0.16136">
        <ele>2049.8828529364</ele>
        <time>2015-03-29T12:15:42Z</time>
      </trkpt>
      <trkpt lat="42.94895" lon="0.16136">
        <ele>2049.8828529364</ele>
        <time>2015-03-29T12:15:46Z</time>
      </trkpt>
      <trkpt lat="42.94903" lon="0.16133">
        <ele>2051.5198688403</ele>
        <time>2015-03-29T12:15:53Z</time>
      </trkpt>
      <trkpt lat="42.94908" lon="0.16132">
        <ele>2051.5198688403</ele>
        <time>2015-03-29T12:15:56Z</time>
      </trkpt>
      <trkpt lat="42.9491" lon="0.1613">
        <ele>2051.5198688403</ele>
        <time>2015-03-29T12:16:02Z</time>
      </trkpt>
      <trkpt lat="42.94912" lon="0.16125">
        <ele>2053.0473569318</ele>
        <time>2015-03-29T12:16:07Z</time>
      </trkpt>
      <trkpt lat="42.94916" lon="0.16123">
        <ele>2053.0473569318</ele>
        <time>2015-03-29T12:16:12Z</time>
      </trkpt>
      <trkpt lat="42.94919" lon="0.16117">
        <ele>2054.4758334147</ele>
        <time>2015-03-29T12:16:17Z</time>
      </trkpt>
      <trkpt lat="42.94917" lon="0.16113">
        <ele>2054.4758334147</ele>
        <time>2015-03-29T12:16:21Z</time>
      </trkpt>
      <trkpt lat="42.94916" lon="0.16113">
        <ele>2054.4758334147</ele>
        <time>2015-03-29T12:16:26Z</time>
      </trkpt>
      <trkpt lat="42.94909" lon="0.16116">
        <ele>2055.9306201331</ele>
        <time>2015-03-29T12:16:41Z</time>
      </trkpt>
      <trkpt lat="42.94907" lon="0.1612">
        <ele>2055.9306201331</ele>
        <time>2015-03-29T12:16:47Z</time>
      </trkpt>
      <trkpt lat="42.94904" lon="0.16126">
        <ele>2057.2251281267</ele>
        <time>2015-03-29T12:16:52Z</time>
      </trkpt>
      <trkpt lat="42.94904" lon="0.16132">
        <ele>2057.2251281267</ele>
        <time>2015-03-29T12:16:57Z</time>
      </trkpt>
      <trkpt lat="42.94904" lon="0.16137">
        <ele>2057.2251281267</ele>
        <time>2015-03-29T12:17:02Z</time>
      </trkpt>
      <trkpt lat="42.94902" lon="0.16142">
        <ele>2058.4174962156</ele>
        <time>2015-03-29T12:17:07Z</time>
      </trkpt>
      <trkpt lat="42.94902" lon="0.16142">
        <ele>2058.4174962156</ele>
        <time>2015-03-29T12:17:12Z</time>
      </trkpt>
      <trkpt lat="42.94908" lon="0.16154">
        <ele>2059.76361958</ele>
        <time>2015-03-29T12:17:32Z</time>
      </trkpt>
      <trkpt lat="42.94917" lon="0.16148">
        <ele>2061.1686854949</ele>
        <time>2015-03-29T12:18:02Z</time>
      </trkpt>
      <trkpt lat="42.94921" lon="0.16147">
        <ele>2061.1686854949</ele>
        <time>2015-03-29T12:18:06Z</time>
      </trkpt>
      <trkpt lat="42.94923" lon="0.16144">
        <ele>2061.1686854949</ele>
        <time>2015-03-29T12:18:12Z</time>
      </trkpt>
      <trkpt lat="42.94925" lon="0.16141">
        <ele>2062.5590615132</ele>
        <time>2015-03-29T12:18:17Z</time>
      </trkpt>
      <trkpt lat="42.94928" lon="0.16138">
        <ele>2062.5590615132</ele>
        <time>2015-03-29T12:18:21Z</time>
      </trkpt>
      <trkpt lat="42.94933" lon="0.1613">
        <ele>2063.8377061241</ele>
        <time>2015-03-29T12:18:27Z</time>
      </trkpt>
      <trkpt lat="42.94934" lon="0.16126">
        <ele>2063.8377061241</ele>
        <time>2015-03-29T12:18:32Z</time>
      </trkpt>
      <trkpt lat="42.94934" lon="0.16127">
        <ele>2063.8377061241</ele>
        <time>2015-03-29T12:18:37Z</time>
      </trkpt>
      <trkpt lat="42.94936" lon="0.16127">
        <ele>2063.8377061241</ele>
        <time>2015-03-29T12:18:57Z</time>
      </trkpt>
      <trkpt lat="42.94941" lon="0.16125">
        <ele>2065.419366548</ele>
        <time>2015-03-29T12:19:02Z</time>
      </trkpt>
      <trkpt lat="42.94943" lon="0.16121">
        <ele>2065.419366548</ele>
        <time>2015-03-29T12:19:07Z</time>
      </trkpt>
      <trkpt lat="42.94947" lon="0.16123">
        <ele>2065.419366548</ele>
        <time>2015-03-29T12:19:12Z</time>
      </trkpt>
      <trkpt lat="42.9495" lon="0.16122">
        <ele>2067.0389256798</ele>
        <time>2015-03-29T12:19:17Z</time>
      </trkpt>
      <trkpt lat="42.94952" lon="0.16119">
        <ele>2067.0389256798</ele>
        <time>2015-03-29T12:19:21Z</time>
      </trkpt>
      <trkpt lat="42.94952" lon="0.16118">
        <ele>2067.0389256798</ele>
        <time>2015-03-29T12:19:27Z</time>
      </trkpt>
      <trkpt lat="42.94951" lon="0.16119">
        <ele>2067.0389256798</ele>
        <time>2015-03-29T12:19:52Z</time>
      </trkpt>
      <trkpt lat="42.94951" lon="0.16118">
        <ele>2067.0389256798</ele>
        <time>2015-03-29T12:19:57Z</time>
      </trkpt>
      <trkpt lat="42.94952" lon="0.16116">
        <ele>2067.0389256798</ele>
        <time>2015-03-29T12:20:02Z</time>
      </trkpt>
      <trkpt lat="42.94955" lon="0.16116">
        <ele>2069.3584864525</ele>
        <time>2015-03-29T12:20:08Z</time>
      </trkpt>
      <trkpt lat="42.94955" lon="0.16117">
        <ele>2069.3584864525</ele>
        <time>2015-03-29T12:20:12Z</time>
      </trkpt>
      <trkpt lat="42.94955" lon="0.16118">
        <ele>2069.3584864525</ele>
        <time>2015-03-29T12:20:17Z</time>
      </trkpt>
      <trkpt lat="42.94955" lon="0.16124">
        <ele>2069.3584864525</ele>
        <time>2015-03-29T12:20:42Z</time>
      </trkpt>
      <trkpt lat="42.94961" lon="0.16122">
        <ele>2072.42746821</ele>
        <time>2015-03-29T12:20:46Z</time>
      </trkpt>
      <trkpt lat="42.94966" lon="0.16121">
        <ele>2072.42746821</ele>
        <time>2015-03-29T12:20:52Z</time>
      </trkpt>
      <trkpt lat="42.9497" lon="0.16119">
        <ele>2075.5401347381</ele>
        <time>2015-03-29T12:20:57Z</time>
      </trkpt>
      <trkpt lat="42.94971" lon="0.16119">
        <ele>2075.5401347381</ele>
        <time>2015-03-29T12:21:01Z</time>
      </trkpt>
      <trkpt lat="42.94973" lon="0.16118">
        <ele>2075.5401347381</ele>
        <time>2015-03-29T12:21:22Z</time>
      </trkpt>
      <trkpt lat="42.94976" lon="0.16119">
        <ele>2075.5401347381</ele>
        <time>2015-03-29T12:21:26Z</time>
      </trkpt>
      <trkpt lat="42.94978" lon="0.16119">
        <ele>2075.5401347381</ele>
        <time>2015-03-29T12:21:32Z</time>
      </trkpt>
      <trkpt lat="42.94982" lon="0.16123">
        <ele>2078.9359218356</ele>
        <time>2015-03-29T12:21:37Z</time>
      </trkpt>
      <trkpt lat="42.94989" lon="0.16125">
        <ele>2078.9359218356</ele>
        <time>2015-03-29T12:21:42Z</time>
      </trkpt>
      <trkpt lat="42.94992" lon="0.16123">
        <ele>2082.1152980762</ele>
        <time>2015-03-29T12:21:46Z</time>
      </trkpt>
      <trkpt lat="42.94998" lon="0.16125">
        <ele>2082.1152980762</ele>
        <time>2015-03-29T12:21:52Z</time>
      </trkpt>
      <trkpt lat="42.94999" lon="0.16125">
        <ele>2082.1152980762</ele>
        <time>2015-03-29T12:21:57Z</time>
      </trkpt>
      <trkpt lat="42.95" lon="0.16127">
        <ele>2082.1152980762</ele>
        <time>2015-03-29T12:22:02Z</time>
      </trkpt>
      <trkpt lat="42.95" lon="0.16127">
        <ele>2085.2356940546</ele>
        <time>2015-03-29T12:22:06Z</time>
      </trkpt>
      <trkpt lat="42.94998" lon="0.16129">
        <ele>2085.2356940546</ele>
        <time>2015-03-29T12:23:17Z</time>
      </trkpt>
      <trkpt lat="42.95001" lon="0.16132">
        <ele>2085.2356940546</ele>
        <time>2015-03-29T12:23:21Z</time>
      </trkpt>
      <trkpt lat="42.95004" lon="0.16134">
        <ele>2088.6737104683</ele>
        <time>2015-03-29T12:23:26Z</time>
      </trkpt>
      <trkpt lat="42.95011" lon="0.16135">
        <ele>2088.6737104683</ele>
        <time>2015-03-29T12:23:32Z</time>
      </trkpt>
      <trkpt lat="42.95015" lon="0.16136">
        <ele>2091.7830254889</ele>
        <time>2015-03-29T12:23:37Z</time>
      </trkpt>
      <trkpt lat="42.95018" lon="0.16138">
        <ele>2091.7830254889</ele>
        <time>2015-03-29T12:23:42Z</time>
      </trkpt>
      <trkpt lat="42.9502" lon="0.1614">
        <ele>2091.7830254889</ele>
        <time>2015-03-29T12:23:46Z</time>
      </trkpt>
      <trkpt lat="42.95023" lon="0.16145">
        <ele>2094.729515115</ele>
        <time>2015-03-29T12:23:52Z</time>
      </trkpt>
      <trkpt lat="42.95023" lon="0.16147">
        <ele>2094.729515115</ele>
        <time>2015-03-29T12:23:56Z</time>
      </trkpt>
      <trkpt lat="42.95021" lon="0.16153">
        <ele>2094.729515115</ele>
        <time>2015-03-29T12:24:22Z</time>
      </trkpt>
      <trkpt lat="42.9502" lon="0.16156">
        <ele>2094.729515115</ele>
        <time>2015-03-29T12:24:26Z</time>
      </trkpt>
      <trkpt lat="42.95018" lon="0.16162">
        <ele>2097.8690978087</ele>
        <time>2015-03-29T12:24:33Z</time>
      </trkpt>
      <trkpt lat="42.95019" lon="0.16169">
        <ele>2097.8690978087</ele>
        <time>2015-03-29T12:24:42Z</time>
      </trkpt>
      <trkpt lat="42.95019" lon="0.16175">
        <ele>2100.8104700264</ele>
        <time>2015-03-29T12:25:02Z</time>
      </trkpt>
      <trkpt lat="42.95019" lon="0.16181">
        <ele>2100.8104700264</ele>
        <time>2015-03-29T12:25:06Z</time>
      </trkpt>
      <trkpt lat="42.9502" lon="0.16187">
        <ele>2100.8104700264</ele>
        <time>2015-03-29T12:25:12Z</time>
      </trkpt>
      <trkpt lat="42.95022" lon="0.16191">
        <ele>2103.5807548253</ele>
        <time>2015-03-29T12:25:17Z</time>
      </trkpt>
      <trkpt lat="42.95024" lon="0.16195">
        <ele>2103.5807548253</ele>
        <time>2015-03-29T12:25:22Z</time>
      </trkpt>
      <trkpt lat="42.95026" lon="0.16195">
        <ele>2103.5807548253</ele>
        <time>2015-03-29T12:25:26Z</time>
      </trkpt>
      <trkpt lat="42.95025" lon="0.16193">
        <ele>2103.5807548253</ele>
        <time>2015-03-29T12:25:33Z</time>
      </trkpt>
      <trkpt lat="42.95027" lon="0.16194">
        <ele>2103.5807548253</ele>
        <time>2015-03-29T12:25:46Z</time>
      </trkpt>
      <trkpt lat="42.95029" lon="0.16198">
        <ele>2106.1335358179</ele>
        <time>2015-03-29T12:25:52Z</time>
      </trkpt>
      <trkpt lat="42.95031" lon="0.16201">
        <ele>2106.1335358179</ele>
        <time>2015-03-29T12:25:57Z</time>
      </trkpt>
      <trkpt lat="42.95034" lon="0.16202">
        <ele>2106.1335358179</ele>
        <time>2015-03-29T12:26:02Z</time>
      </trkpt>
      <trkpt lat="42.95029" lon="0.16211">
        <ele>2108.5849692817</ele>
        <time>2015-03-29T12:26:06Z</time>
      </trkpt>
      <trkpt lat="42.95034" lon="0.16209">
        <ele>2108.5849692817</ele>
        <time>2015-03-29T12:26:32Z</time>
      </trkpt>
      <trkpt lat="42.95036" lon="0.16214">
        <ele>2110.8844714244</ele>
        <time>2015-03-29T12:26:37Z</time>
      </trkpt>
      <trkpt lat="42.95041" lon="0.16212">
        <ele>2110.8844714244</ele>
        <time>2015-03-29T12:26:42Z</time>
      </trkpt>
      <trkpt lat="42.95044" lon="0.16211">
        <ele>2110.8844714244</ele>
        <time>2015-03-29T12:26:46Z</time>
      </trkpt>
      <trkpt lat="42.95055" lon="0.1621">
        <ele>2113.1153301175</ele>
        <time>2015-03-29T12:26:53Z</time>
      </trkpt>
      <trkpt lat="42.95056" lon="0.1621">
        <ele>2113.1153301175</ele>
        <time>2015-03-29T12:26:56Z</time>
      </trkpt>
      <trkpt lat="42.95054" lon="0.1621">
        <ele>2113.1153301175</ele>
        <time>2015-03-29T12:27:02Z</time>
      </trkpt>
      <trkpt lat="42.9506" lon="0.16212">
        <ele>2113.1153301175</ele>
        <time>2015-03-29T12:27:17Z</time>
      </trkpt>
      <trkpt lat="42.95063" lon="0.16211">
        <ele>2115.182001347</ele>
        <time>2015-03-29T12:27:21Z</time>
      </trkpt>
      <trkpt lat="42.95067" lon="0.16213">
        <ele>2115.182001347</ele>
        <time>2015-03-29T12:27:26Z</time>
      </trkpt>
      <trkpt lat="42.95071" lon="0.16212">
        <ele>2115.182001347</ele>
        <time>2015-03-29T12:27:31Z</time>
      </trkpt>
      <trkpt lat="42.95072" lon="0.16211">
        <ele>2117.6737677219</ele>
        <time>2015-03-29T12:27:37Z</time>
      </trkpt>
      <trkpt lat="42.9507" lon="0.16218">
        <ele>2117.6737677219</ele>
        <time>2015-03-29T12:27:46Z</time>
      </trkpt>
      <trkpt lat="42.95073" lon="0.16215">
        <ele>2120.9048770389</ele>
        <time>2015-03-29T12:28:12Z</time>
      </trkpt>
      <trkpt lat="42.95075" lon="0.16215">
        <ele>2120.9048770389</ele>
        <time>2015-03-29T12:28:17Z</time>
      </trkpt>
      <trkpt lat="42.95075" lon="0.16215">
        <ele>2120.9048770389</ele>
        <time>2015-03-29T12:28:22Z</time>
      </trkpt>
      <trkpt lat="42.95064" lon="0.16214">
        <ele>2123.8386196739</ele>
        <time>2015-03-29T12:29:22Z</time>
      </trkpt>
      <trkpt lat="42.95072" lon="0.16211">
        <ele>2123.8386196739</ele>
        <time>2015-03-29T12:29:53Z</time>
      </trkpt>
      <trkpt lat="42.95076" lon="0.16207">
        <ele>2126.5673128878</ele>
        <time>2015-03-29T12:30:23Z</time>
      </trkpt>
      <trkpt lat="42.95079" lon="0.16207">
        <ele>2126.5673128878</ele>
        <time>2015-03-29T12:30:26Z</time>
      </trkpt>
      <trkpt lat="42.95084" lon="0.16204">
        <ele>2126.5673128878</ele>
        <time>2015-03-29T12:30:32Z</time>
      </trkpt>
      <trkpt lat="42.95087" lon="0.16206">
        <ele>2128.9465164458</ele>
        <time>2015-03-29T12:30:37Z</time>
      </trkpt>
      <trkpt lat="42.95092" lon="0.16203">
        <ele>2128.9465164458</ele>
        <time>2015-03-29T12:30:42Z</time>
      </trkpt>
      <trkpt lat="42.95096" lon="0.16202">
        <ele>2131.1028084046</ele>
        <time>2015-03-29T12:30:46Z</time>
      </trkpt>
      <trkpt lat="42.95102" lon="0.16198">
        <ele>2131.1028084046</ele>
        <time>2015-03-29T12:30:52Z</time>
      </trkpt>
      <trkpt lat="42.951" lon="0.16196">
        <ele>2133.0676526491</ele>
        <time>2015-03-29T12:30:57Z</time>
      </trkpt>
      <trkpt lat="42.95101" lon="0.16192">
        <ele>2133.0676526491</ele>
        <time>2015-03-29T12:31:02Z</time>
      </trkpt>
      <trkpt lat="42.95104" lon="0.16189">
        <ele>2133.0676526491</ele>
        <time>2015-03-29T12:31:06Z</time>
      </trkpt>
      <trkpt lat="42.95107" lon="0.16188">
        <ele>2134.7842938598</ele>
        <time>2015-03-29T12:31:13Z</time>
      </trkpt>
      <trkpt lat="42.95109" lon="0.16187">
        <ele>2134.7842938598</ele>
        <time>2015-03-29T12:31:16Z</time>
      </trkpt>
      <trkpt lat="42.95113" lon="0.16185">
        <ele>2134.7842938598</ele>
        <time>2015-03-29T12:31:22Z</time>
      </trkpt>
      <trkpt lat="42.95114" lon="0.16183">
        <ele>2134.7842938598</ele>
        <time>2015-03-29T12:31:26Z</time>
      </trkpt>
      <trkpt lat="42.95117" lon="0.1618">
        <ele>2136.2873250664</ele>
        <time>2015-03-29T12:31:32Z</time>
      </trkpt>
      <trkpt lat="42.95115" lon="0.16181">
        <ele>2136.2873250664</ele>
        <time>2015-03-29T12:31:37Z</time>
      </trkpt>
      <trkpt lat="42.95115" lon="0.16182">
        <ele>2136.2873250664</ele>
        <time>2015-03-29T12:31:46Z</time>
      </trkpt>
      <trkpt lat="42.95117" lon="0.16179">
        <ele>2136.2873250664</ele>
        <time>2015-03-29T12:31:51Z</time>
      </trkpt>
      <trkpt lat="42.95122" lon="0.16176">
        <ele>2137.6670510648</ele>
        <time>2015-03-29T12:31:57Z</time>
      </trkpt>
      <trkpt lat="42.95124" lon="0.16175">
        <ele>2137.6670510648</ele>
        <time>2015-03-29T12:32:02Z</time>
      </trkpt>
      <trkpt lat="42.95127" lon="0.16175">
        <ele>2137.6670510648</ele>
        <time>2015-03-29T12:32:06Z</time>
      </trkpt>
      <trkpt lat="42.95131" lon="0.16173">
        <ele>2138.9066122337</ele>
        <time>2015-03-29T12:32:12Z</time>
      </trkpt>
      <trkpt lat="42.95134" lon="0.16171">
        <ele>2138.9066122337</ele>
        <time>2015-03-29T12:32:17Z</time>
      </trkpt>
      <trkpt lat="42.95133" lon="0.16167">
        <ele>2138.9066122337</ele>
        <time>2015-03-29T12:32:21Z</time>
      </trkpt>
      <trkpt lat="42.95132" lon="0.16163">
        <ele>2140.0484175671</ele>
        <time>2015-03-29T12:32:26Z</time>
      </trkpt>
      <trkpt lat="42.95129" lon="0.16166">
        <ele>2140.0484175671</ele>
        <time>2015-03-29T12:32:32Z</time>
      </trkpt>
      <trkpt lat="42.95126" lon="0.16166">
        <ele>2140.0484175671</ele>
        <time>2015-03-29T12:32:37Z</time>
      </trkpt>
      <trkpt lat="42.95123" lon="0.16169">
        <ele>2141.2040739623</ele>
        <time>2015-03-29T12:32:42Z</time>
      </trkpt>
      <trkpt lat="42.95123" lon="0.16174">
        <ele>2141.2040739623</ele>
        <time>2015-03-29T12:32:46Z</time>
      </trkpt>
      <trkpt lat="42.95122" lon="0.16178">
        <ele>2141.2040739623</ele>
        <time>2015-03-29T12:32:52Z</time>
      </trkpt>
      <trkpt lat="42.95119" lon="0.16181">
        <ele>2142.3616364673</ele>
        <time>2015-03-29T12:32:56Z</time>
      </trkpt>
      <trkpt lat="42.95119" lon="0.16184">
        <ele>2142.3616364673</ele>
        <time>2015-03-29T12:33:02Z</time>
      </trkpt>
      <trkpt lat="42.95119" lon="0.16184">
        <ele>2142.3616364673</ele>
        <time>2015-03-29T12:33:06Z</time>
      </trkpt>
      <trkpt lat="42.95119" lon="0.16189">
        <ele>2142.3616364673</ele>
        <time>2015-03-29T12:33:12Z</time>
      </trkpt>
      <trkpt lat="42.95122" lon="0.16187">
        <ele>2142.3616364673</ele>
        <time>2015-03-29T12:33:17Z</time>
      </trkpt>
      <trkpt lat="42.95121" lon="0.16187">
        <ele>2143.4379425375</ele>
        <time>2015-03-29T12:33:22Z</time>
      </trkpt>
      <trkpt lat="42.95113" lon="0.16192">
        <ele>2143.4379425375</ele>
        <time>2015-03-29T12:33:37Z</time>
      </trkpt>
      <trkpt lat="42.95115" lon="0.16193">
        <ele>2144.4858244224</ele>
        <time>2015-03-29T12:33:42Z</time>
      </trkpt>
      <trkpt lat="42.95116" lon="0.16196">
        <ele>2144.4858244224</ele>
        <time>2015-03-29T12:33:46Z</time>
      </trkpt>
      <trkpt lat="42.95116" lon="0.16199">
        <ele>2144.4858244224</ele>
        <time>2015-03-29T12:33:52Z</time>
      </trkpt>
      <trkpt lat="42.95116" lon="0.162">
        <ele>2144.4858244224</ele>
        <time>2015-03-29T12:33:57Z</time>
      </trkpt>
      <trkpt lat="42.95115" lon="0.16201">
        <ele>2144.4858244224</ele>
        <time>2015-03-29T12:34:02Z</time>
      </trkpt>
      <trkpt lat="42.95116" lon="0.16204">
        <ele>2144.4858244224</ele>
        <time>2015-03-29T12:34:06Z</time>
      </trkpt>
      <trkpt lat="42.95119" lon="0.16207">
        <ele>2145.8280749568</ele>
        <time>2015-03-29T12:34:11Z</time>
      </trkpt>
      <trkpt lat="42.95117" lon="0.16206">
        <ele>2145.8280749568</ele>
        <time>2015-03-29T12:34:32Z</time>
      </trkpt>
      <trkpt lat="42.95118" lon="0.16211">
        <ele>2145.8280749568</ele>
        <time>2015-03-29T12:34:37Z</time>
      </trkpt>
      <trkpt lat="42.9512" lon="0.16215">
        <ele>2147.0855708385</ele>
        <time>2015-03-29T12:34:42Z</time>
      </trkpt>
      <trkpt lat="42.9512" lon="0.16219">
        <ele>2147.0855708385</ele>
        <time>2015-03-29T12:34:46Z</time>
      </trkpt>
      <trkpt lat="42.95121" lon="0.16224">
        <ele>2147.0855708385</ele>
        <time>2015-03-29T12:34:52Z</time>
      </trkpt>
      <trkpt lat="42.95121" lon="0.16233">
        <ele>2148.4692494075</ele>
        <time>2015-03-29T12:34:57Z</time>
      </trkpt>
      <trkpt lat="42.95121" lon="0.16239">
        <ele>2148.4692494075</ele>
        <time>2015-03-29T12:35:02Z</time>
      </trkpt>
      <trkpt lat="42.95121" lon="0.16244">
        <ele>2148.4692494075</ele>
        <time>2015-03-29T12:35:06Z</time>
      </trkpt>
      <trkpt lat="42.95122" lon="0.16249">
        <ele>2149.9867895313</ele>
        <time>2015-03-29T12:35:12Z</time>
      </trkpt>
      <trkpt lat="42.95123" lon="0.16251">
        <ele>2149.9867895313</ele>
        <time>2015-03-29T12:35:16Z</time>
      </trkpt>
      <trkpt lat="42.95123" lon="0.16251">
        <ele>2149.9867895313</ele>
        <time>2015-03-29T12:35:22Z</time>
      </trkpt>
      <trkpt lat="42.95122" lon="0.16262">
        <ele>2151.3998740197</ele>
        <time>2015-03-29T12:35:52Z</time>
      </trkpt>
      <trkpt lat="42.95122" lon="0.16264">
        <ele>2151.3998740197</ele>
        <time>2015-03-29T12:35:57Z</time>
      </trkpt>
      <trkpt lat="42.95119" lon="0.16266">
        <ele>2151.3998740197</ele>
        <time>2015-03-29T12:36:02Z</time>
      </trkpt>
      <trkpt lat="42.95119" lon="0.1627">
        <ele>2151.3998740197</ele>
        <time>2015-03-29T12:36:06Z</time>
      </trkpt>
      <trkpt lat="42.95119" lon="0.16275">
        <ele>2152.6608488847</ele>
        <time>2015-03-29T12:36:12Z</time>
      </trkpt>
      <trkpt lat="42.9512" lon="0.16281">
        <ele>2152.6608488847</ele>
        <time>2015-03-29T12:36:17Z</time>
      </trkpt>
      <trkpt lat="42.95118" lon="0.16284">
        <ele>2152.6608488847</ele>
        <time>2015-03-29T12:36:22Z</time>
      </trkpt>
      <trkpt lat="42.95118" lon="0.16287">
        <ele>2153.9132601339</ele>
        <time>2015-03-29T12:36:26Z</time>
      </trkpt>
      <trkpt lat="42.9512" lon="0.16285">
        <ele>2153.9132601339</ele>
        <time>2015-03-29T12:36:32Z</time>
      </trkpt>
      <trkpt lat="42.95121" lon="0.16285">
        <ele>2153.9132601339</ele>
        <time>2015-03-29T12:36:37Z</time>
      </trkpt>
      <trkpt lat="42.95119" lon="0.1629">
        <ele>2153.9132601339</ele>
        <time>2015-03-29T12:36:42Z</time>
      </trkpt>
      <trkpt lat="42.95118" lon="0.16292">
        <ele>2153.9132601339</ele>
        <time>2015-03-29T12:36:46Z</time>
      </trkpt>
      <trkpt lat="42.95119" lon="0.16292">
        <ele>2155.1027145194</ele>
        <time>2015-03-29T12:36:51Z</time>
      </trkpt>
      <trkpt lat="42.95121" lon="0.16294">
        <ele>2155.1027145194</ele>
        <time>2015-03-29T12:37:12Z</time>
      </trkpt>
      <trkpt lat="42.95126" lon="0.163">
        <ele>2156.3950818191</ele>
        <time>2015-03-29T12:37:31Z</time>
      </trkpt>
      <trkpt lat="42.95128" lon="0.16295">
        <ele>2156.3950818191</ele>
        <time>2015-03-29T12:37:37Z</time>
      </trkpt>
      <trkpt lat="42.95128" lon="0.1629">
        <ele>2156.3950818191</ele>
        <time>2015-03-29T12:37:42Z</time>
      </trkpt>
      <trkpt lat="42.95131" lon="0.16288">
        <ele>2157.4825243899</ele>
        <time>2015-03-29T12:37:46Z</time>
      </trkpt>
      <trkpt lat="42.95134" lon="0.16287">
        <ele>2157.4825243899</ele>
        <time>2015-03-29T12:37:52Z</time>
      </trkpt>
      <trkpt lat="42.95137" lon="0.16287">
        <ele>2157.4825243899</ele>
        <time>2015-03-29T12:37:57Z</time>
      </trkpt>
      <trkpt lat="42.95141" lon="0.16285">
        <ele>2158.6999909369</ele>
        <time>2015-03-29T12:38:02Z</time>
      </trkpt>
      <trkpt lat="42.95144" lon="0.16281">
        <ele>2158.6999909369</ele>
        <time>2015-03-29T12:38:06Z</time>
      </trkpt>
      <trkpt lat="42.95145" lon="0.1628">
        <ele>2158.6999909369</ele>
        <time>2015-03-29T12:38:12Z</time>
      </trkpt>
      <trkpt lat="42.95144" lon="0.16275">
        <ele>2158.6999909369</ele>
        <time>2015-03-29T12:38:16Z</time>
      </trkpt>
      <trkpt lat="42.95142" lon="0.16275">
        <ele>2160.0835676634</ele>
        <time>2015-03-29T12:38:22Z</time>
      </trkpt>
      <trkpt lat="42.95141" lon="0.16275">
        <ele>2160.0835676634</ele>
        <time>2015-03-29T12:38:26Z</time>
      </trkpt>
      <trkpt lat="42.9514" lon="0.16275">
        <ele>2160.0835676634</ele>
        <time>2015-03-29T12:38:32Z</time>
      </trkpt>
      <trkpt lat="42.95143" lon="0.16274">
        <ele>2160.0835676634</ele>
        <time>2015-03-29T12:38:57Z</time>
      </trkpt>
      <trkpt lat="42.95148" lon="0.16272">
        <ele>2161.7670201409</ele>
        <time>2015-03-29T12:39:02Z</time>
      </trkpt>
      <trkpt lat="42.95151" lon="0.1627">
        <ele>2161.7670201409</ele>
        <time>2015-03-29T12:39:06Z</time>
      </trkpt>
      <trkpt lat="42.95154" lon="0.16267">
        <ele>2161.7670201409</ele>
        <time>2015-03-29T12:39:11Z</time>
      </trkpt>
      <trkpt lat="42.95158" lon="0.16262">
        <ele>2163.5130877578</ele>
        <time>2015-03-29T12:39:17Z</time>
      </trkpt>
      <trkpt lat="42.9516" lon="0.16256">
        <ele>2163.5130877578</ele>
        <time>2015-03-29T12:39:22Z</time>
      </trkpt>
      <trkpt lat="42.95163" lon="0.16252">
        <ele>2163.5130877578</ele>
        <time>2015-03-29T12:39:26Z</time>
      </trkpt>
      <trkpt lat="42.95167" lon="0.16248">
        <ele>2165.274618299</ele>
        <time>2015-03-29T12:39:32Z</time>
      </trkpt>
      <trkpt lat="42.95175" lon="0.16248">
        <ele>2165.274618299</ele>
        <time>2015-03-29T12:39:37Z</time>
      </trkpt>
      <trkpt lat="42.95173" lon="0.16246">
        <ele>2167.2527942772</ele>
        <time>2015-03-29T12:39:42Z</time>
      </trkpt>
      <trkpt lat="42.95166" lon="0.16253">
        <ele>2167.2527942772</ele>
        <time>2015-03-29T12:40:02Z</time>
      </trkpt>
      <trkpt lat="42.95166" lon="0.16255">
        <ele>2169.100130027</ele>
        <time>2015-03-29T12:40:06Z</time>
      </trkpt>
      <trkpt lat="42.95165" lon="0.16258">
        <ele>2169.100130027</ele>
        <time>2015-03-29T12:40:12Z</time>
      </trkpt>
      <trkpt lat="42.95167" lon="0.16261">
        <ele>2169.100130027</ele>
        <time>2015-03-29T12:40:17Z</time>
      </trkpt>
      <trkpt lat="42.95165" lon="0.16266">
        <ele>2170.6679001399</ele>
        <time>2015-03-29T12:40:21Z</time>
      </trkpt>
      <trkpt lat="42.95164" lon="0.16272">
        <ele>2170.6679001399</ele>
        <time>2015-03-29T12:40:26Z</time>
      </trkpt>
      <trkpt lat="42.95164" lon="0.16271">
        <ele>2170.6679001399</ele>
        <time>2015-03-29T12:40:32Z</time>
      </trkpt>
      <trkpt lat="42.95164" lon="0.16272">
        <ele>2170.6679001399</ele>
        <time>2015-03-29T12:40:46Z</time>
      </trkpt>
      <trkpt lat="42.95162" lon="0.16274">
        <ele>2170.6679001399</ele>
        <time>2015-03-29T12:40:52Z</time>
      </trkpt>
      <trkpt lat="42.95163" lon="0.1628">
        <ele>2172.0351926488</ele>
        <time>2015-03-29T12:40:57Z</time>
      </trkpt>
      <trkpt lat="42.95164" lon="0.16286">
        <ele>2172.0351926488</ele>
        <time>2015-03-29T12:41:02Z</time>
      </trkpt>
      <trkpt lat="42.95165" lon="0.16291">
        <ele>2172.0351926488</ele>
        <time>2015-03-29T12:41:06Z</time>
      </trkpt>
      <trkpt lat="42.95165" lon="0.16296">
        <ele>2173.304609981</ele>
        <time>2015-03-29T12:41:12Z</time>
      </trkpt>
      <trkpt lat="42.95167" lon="0.163">
        <ele>2173.304609981</ele>
        <time>2015-03-29T12:41:17Z</time>
      </trkpt>
      <trkpt lat="42.95166" lon="0.16303">
        <ele>2173.304609981</ele>
        <time>2015-03-29T12:41:21Z</time>
      </trkpt>
      <trkpt lat="42.95166" lon="0.16303">
        <ele>2173.304609981</ele>
        <time>2015-03-29T12:41:26Z</time>
      </trkpt>
      <trkpt lat="42.95172" lon="0.16295">
        <ele>2175.3208120034</ele>
        <time>2015-03-29T12:42:27Z</time>
      </trkpt>
      <trkpt lat="42.95177" lon="0.16292">
        <ele>2175.3208120034</ele>
        <time>2015-03-29T12:42:32Z</time>
      </trkpt>
      <trkpt lat="42.95181" lon="0.16289">
        <ele>2177.1205142541</ele>
        <time>2015-03-29T12:42:37Z</time>
      </trkpt>
      <trkpt lat="42.95184" lon="0.16287">
        <ele>2177.1205142541</ele>
        <time>2015-03-29T12:42:41Z</time>
      </trkpt>
      <trkpt lat="42.95189" lon="0.16284">
        <ele>2177.1205142541</ele>
        <time>2015-03-29T12:42:46Z</time>
      </trkpt>
      <trkpt lat="42.95191" lon="0.16281">
        <ele>2178.7196487092</ele>
        <time>2015-03-29T12:42:52Z</time>
      </trkpt>
      <trkpt lat="42.95191" lon="0.1628">
        <ele>2178.7196487092</ele>
        <time>2015-03-29T12:42:57Z</time>
      </trkpt>
      <trkpt lat="42.95191" lon="0.1628">
        <ele>2178.7196487092</ele>
        <time>2015-03-29T12:43:02Z</time>
      </trkpt>
      <trkpt lat="42.95197" lon="0.16279">
        <ele>2178.7196487092</ele>
        <time>2015-03-29T12:43:22Z</time>
      </trkpt>
      <trkpt lat="42.95197" lon="0.16278">
        <ele>2178.7196487092</ele>
        <time>2015-03-29T12:43:26Z</time>
      </trkpt>
      <trkpt lat="42.95199" lon="0.16274">
        <ele>2180.4217116816</ele>
        <time>2015-03-29T12:43:32Z</time>
      </trkpt>
      <trkpt lat="42.95201" lon="0.16272">
        <ele>2180.4217116816</ele>
        <time>2015-03-29T12:43:37Z</time>
      </trkpt>
      <trkpt lat="42.95202" lon="0.16271">
        <ele>2180.4217116816</ele>
        <time>2015-03-29T12:43:42Z</time>
      </trkpt>
      <trkpt lat="42.95204" lon="0.16264">
        <ele>2181.7870128492</ele>
        <time>2015-03-29T12:43:47Z</time>
      </trkpt>
      <trkpt lat="42.95206" lon="0.16258">
        <ele>2181.7870128492</ele>
        <time>2015-03-29T12:43:51Z</time>
      </trkpt>
      <trkpt lat="42.95208" lon="0.16252">
        <ele>2183.0143271477</ele>
        <time>2015-03-29T12:43:57Z</time>
      </trkpt>
      <trkpt lat="42.95211" lon="0.16249">
        <ele>2183.0143271477</ele>
        <time>2015-03-29T12:44:01Z</time>
      </trkpt>
      <trkpt lat="42.9521" lon="0.16246">
        <ele>2183.0143271477</ele>
        <time>2015-03-29T12:44:07Z</time>
      </trkpt>
      <trkpt lat="42.9521" lon="0.16244">
        <ele>2183.0143271477</ele>
        <time>2015-03-29T12:44:11Z</time>
      </trkpt>
      <trkpt lat="42.9521" lon="0.16242">
        <ele>2183.0143271477</ele>
        <time>2015-03-29T12:44:27Z</time>
      </trkpt>
      <trkpt lat="42.95216" lon="0.1624">
        <ele>2184.4899257447</ele>
        <time>2015-03-29T12:44:31Z</time>
      </trkpt>
      <trkpt lat="42.95218" lon="0.16236">
        <ele>2184.4899257447</ele>
        <time>2015-03-29T12:44:37Z</time>
      </trkpt>
      <trkpt lat="42.9522" lon="0.16236">
        <ele>2184.4899257447</ele>
        <time>2015-03-29T12:44:41Z</time>
      </trkpt>
      <trkpt lat="42.95221" lon="0.16236">
        <ele>2184.4899257447</ele>
        <time>2015-03-29T12:44:46Z</time>
      </trkpt>
      <trkpt lat="42.95222" lon="0.16236">
        <ele>2184.4899257447</ele>
        <time>2015-03-29T12:44:51Z</time>
      </trkpt>
      <trkpt lat="42.95224" lon="0.1624">
        <ele>2186.8591880375</ele>
        <time>2015-03-29T12:45:17Z</time>
      </trkpt>
      <trkpt lat="42.95226" lon="0.16243">
        <ele>2186.8591880375</ele>
        <time>2015-03-29T12:45:22Z</time>
      </trkpt>
      <trkpt lat="42.95229" lon="0.16245">
        <ele>2186.8591880375</ele>
        <time>2015-03-29T12:45:27Z</time>
      </trkpt>
      <trkpt lat="42.95232" lon="0.16246">
        <ele>2186.8591880375</ele>
        <time>2015-03-29T12:45:31Z</time>
      </trkpt>
      <trkpt lat="42.95233" lon="0.16247">
        <ele>2189.031437109</ele>
        <time>2015-03-29T12:45:38Z</time>
      </trkpt>
      <trkpt lat="42.95236" lon="0.16249">
        <ele>2189.031437109</ele>
        <time>2015-03-29T12:45:57Z</time>
      </trkpt>
      <trkpt lat="42.95238" lon="0.16253">
        <ele>2189.031437109</ele>
        <time>2015-03-29T12:46:02Z</time>
      </trkpt>
      <trkpt lat="42.95241" lon="0.16261">
        <ele>2191.1639347401</ele>
        <time>2015-03-29T12:46:06Z</time>
      </trkpt>
      <trkpt lat="42.95242" lon="0.16262">
        <ele>2191.1639347401</ele>
        <time>2015-03-29T12:46:11Z</time>
      </trkpt>
      <trkpt lat="42.95242" lon="0.16263">
        <ele>2191.1639347401</ele>
        <time>2015-03-29T12:46:16Z</time>
      </trkpt>
      <trkpt lat="42.95242" lon="0.16266">
        <ele>2191.1639347401</ele>
        <time>2015-03-29T12:47:38Z</time>
      </trkpt>
      <trkpt lat="42.95244" lon="0.16264">
        <ele>2191.1639347401</ele>
        <time>2015-03-29T12:47:42Z</time>
      </trkpt>
      <trkpt lat="42.95247" lon="0.1626">
        <ele>2193.5321733994</ele>
        <time>2015-03-29T12:47:47Z</time>
      </trkpt>
      <trkpt lat="42.95251" lon="0.16258">
        <ele>2193.5321733994</ele>
        <time>2015-03-29T12:47:51Z</time>
      </trkpt>
      <trkpt lat="42.95254" lon="0.16258">
        <ele>2193.5321733994</ele>
        <time>2015-03-29T12:47:58Z</time>
      </trkpt>
      <trkpt lat="42.95255" lon="0.16262">
        <ele>2195.9007472833</ele>
        <time>2015-03-29T12:48:01Z</time>
      </trkpt>
      <trkpt lat="42.95256" lon="0.16264">
        <ele>2195.9007472833</ele>
        <time>2015-03-29T12:48:07Z</time>
      </trkpt>
      <trkpt lat="42.95256" lon="0.16264">
        <ele>2195.9007472833</ele>
        <time>2015-03-29T12:48:11Z</time>
      </trkpt>
      <trkpt lat="42.95259" lon="0.16267">
        <ele>2195.9007472833</ele>
        <time>2015-03-29T12:48:27Z</time>
      </trkpt>
      <trkpt lat="42.9526" lon="0.16271">
        <ele>2195.9007472833</ele>
        <time>2015-03-29T12:48:32Z</time>
      </trkpt>
      <trkpt lat="42.95261" lon="0.16275">
        <ele>2198.3109278411</ele>
        <time>2015-03-29T12:48:36Z</time>
      </trkpt>
      <trkpt lat="42.95263" lon="0.1628">
        <ele>2198.3109278411</ele>
        <time>2015-03-29T12:48:42Z</time>
      </trkpt>
      <trkpt lat="42.95265" lon="0.16283">
        <ele>2198.3109278411</ele>
        <time>2015-03-29T12:48:46Z</time>
      </trkpt>
      <trkpt lat="42.95262" lon="0.16291">
        <ele>2200.6567188587</ele>
        <time>2015-03-29T12:48:57Z</time>
      </trkpt>
      <trkpt lat="42.95262" lon="0.16294">
        <ele>2200.6567188587</ele>
        <time>2015-03-29T12:49:02Z</time>
      </trkpt>
      <trkpt lat="42.95263" lon="0.16296">
        <ele>2200.6567188587</ele>
        <time>2015-03-29T12:49:06Z</time>
      </trkpt>
      <trkpt lat="42.95263" lon="0.16296">
        <ele>2200.6567188587</ele>
        <time>2015-03-29T12:49:11Z</time>
      </trkpt>
      <trkpt lat="42.95269" lon="0.16293">
        <ele>2202.8400894009</ele>
        <time>2015-03-29T12:49:22Z</time>
      </trkpt>
      <trkpt lat="42.95271" lon="0.16291">
        <ele>2202.8400894009</ele>
        <time>2015-03-29T12:49:26Z</time>
      </trkpt>
      <trkpt lat="42.9527" lon="0.16291">
        <ele>2202.8400894009</ele>
        <time>2015-03-29T12:49:32Z</time>
      </trkpt>
      <trkpt lat="42.95272" lon="0.16292">
        <ele>2202.8400894009</ele>
        <time>2015-03-29T12:49:58Z</time>
      </trkpt>
      <trkpt lat="42.95275" lon="0.1629">
        <ele>2202.8400894009</ele>
        <time>2015-03-29T12:50:01Z</time>
      </trkpt>
      <trkpt lat="42.95279" lon="0.1629">
        <ele>2205.8659155159</ele>
        <time>2015-03-29T12:50:07Z</time>
      </trkpt>
      <trkpt lat="42.95283" lon="0.1629">
        <ele>2205.8659155159</ele>
        <time>2015-03-29T12:50:11Z</time>
      </trkpt>
      <trkpt lat="42.95287" lon="0.16289">
        <ele>2205.8659155159</ele>
        <time>2015-03-29T12:50:17Z</time>
      </trkpt>
      <trkpt lat="42.95292" lon="0.1629">
        <ele>2209.2506158247</ele>
        <time>2015-03-29T12:50:31Z</time>
      </trkpt>
      <trkpt lat="42.95294" lon="0.16293">
        <ele>2209.2506158247</ele>
        <time>2015-03-29T12:50:37Z</time>
      </trkpt>
      <trkpt lat="42.95294" lon="0.16297">
        <ele>2209.2506158247</ele>
        <time>2015-03-29T12:50:42Z</time>
      </trkpt>
      <trkpt lat="42.95291" lon="0.16298">
        <ele>2209.2506158247</ele>
        <time>2015-03-29T12:50:47Z</time>
      </trkpt>
      <trkpt lat="42.95285" lon="0.16303">
        <ele>2212.7901369337</ele>
        <time>2015-03-29T12:51:02Z</time>
      </trkpt>
      <trkpt lat="42.95283" lon="0.16306">
        <ele>2212.7901369337</ele>
        <time>2015-03-29T12:51:06Z</time>
      </trkpt>
      <trkpt lat="42.95282" lon="0.16307">
        <ele>2212.7901369337</ele>
        <time>2015-03-29T12:51:11Z</time>
      </trkpt>
      <trkpt lat="42.95282" lon="0.16309">
        <ele>2212.7901369337</ele>
        <time>2015-03-29T12:51:15Z</time>
      </trkpt>
      <trkpt lat="42.95281" lon="0.16309">
        <ele>2212.7901369337</ele>
        <time>2015-03-29T12:51:21Z</time>
      </trkpt>
      <trkpt lat="42.95274" lon="0.16316">
        <ele>2216.3814805475</ele>
        <time>2015-03-29T12:52:02Z</time>
      </trkpt>
      <trkpt lat="42.95272" lon="0.1632">
        <ele>2216.3814805475</ele>
        <time>2015-03-29T12:52:06Z</time>
      </trkpt>
      <trkpt lat="42.95272" lon="0.16321">
        <ele>2216.3814805475</ele>
        <time>2015-03-29T12:52:11Z</time>
      </trkpt>
      <trkpt lat="42.95273" lon="0.16318">
        <ele>2216.3814805475</ele>
        <time>2015-03-29T12:58:57Z</time>
      </trkpt>
      <trkpt lat="42.95273" lon="0.16319">
        <ele>2216.3814805475</ele>
        <time>2015-03-29T12:59:02Z</time>
      </trkpt>
      <trkpt lat="42.95266" lon="0.16314">
        <ele>2220.1020481277</ele>
        <time>2015-03-29T13:01:07Z</time>
      </trkpt>
      <trkpt lat="42.95266" lon="0.16304">
        <ele>2220.1020481277</ele>
        <time>2015-03-29T13:01:11Z</time>
      </trkpt>
      <trkpt lat="42.95263" lon="0.16283">
        <ele>2223.3891608674</ele>
        <time>2015-03-29T13:01:18Z</time>
      </trkpt>
      <trkpt lat="42.95256" lon="0.16273">
        <ele>2226.255968442</ele>
        <time>2015-03-29T13:01:21Z</time>
      </trkpt>
      <trkpt lat="42.95249" lon="0.16266">
        <ele>2228.5573853333</ele>
        <time>2015-03-29T13:01:27Z</time>
      </trkpt>
      <trkpt lat="42.95243" lon="0.16266">
        <ele>2228.5573853333</ele>
        <time>2015-03-29T13:01:31Z</time>
      </trkpt>
      <trkpt lat="42.95235" lon="0.1626">
        <ele>2230.0597685554</ele>
        <time>2015-03-29T13:01:37Z</time>
      </trkpt>
      <trkpt lat="42.95236" lon="0.16259">
        <ele>2230.0597685554</ele>
        <time>2015-03-29T13:01:42Z</time>
      </trkpt>
      <trkpt lat="42.95233" lon="0.16268">
        <ele>2230.0597685554</ele>
        <time>2015-03-29T13:01:51Z</time>
      </trkpt>
      <trkpt lat="42.95223" lon="0.16251">
        <ele>2230.7795311064</ele>
        <time>2015-03-29T13:01:57Z</time>
      </trkpt>
      <trkpt lat="42.95215" lon="0.16233">
        <ele>2231.0511854509</ele>
        <time>2015-03-29T13:02:02Z</time>
      </trkpt>
      <trkpt lat="42.95197" lon="0.16214">
        <ele>2230.8977577241</ele>
        <time>2015-03-29T13:02:07Z</time>
      </trkpt>
      <trkpt lat="42.95193" lon="0.16206">
        <ele>2230.8977577241</ele>
        <time>2015-03-29T13:02:11Z</time>
      </trkpt>
      <trkpt lat="42.95181" lon="0.16203">
        <ele>2229.9815314421</ele>
        <time>2015-03-29T13:02:17Z</time>
      </trkpt>
      <trkpt lat="42.95176" lon="0.16201">
        <ele>2229.9815314421</ele>
        <time>2015-03-29T13:02:22Z</time>
      </trkpt>
      <trkpt lat="42.95169" lon="0.16212">
        <ele>2228.2655622579</ele>
        <time>2015-03-29T13:02:27Z</time>
      </trkpt>
      <trkpt lat="42.95156" lon="0.16206">
        <ele>2226.1934178786</ele>
        <time>2015-03-29T13:02:31Z</time>
      </trkpt>
      <trkpt lat="42.95142" lon="0.16229">
        <ele>2223.7879409109</ele>
        <time>2015-03-29T13:02:36Z</time>
      </trkpt>
      <trkpt lat="42.95126" lon="0.1625">
        <ele>2221.042339063</ele>
        <time>2015-03-29T13:02:43Z</time>
      </trkpt>
      <trkpt lat="42.95116" lon="0.16264">
        <ele>2218.1241061894</ele>
        <time>2015-03-29T13:02:47Z</time>
      </trkpt>
      <trkpt lat="42.95105" lon="0.16252">
        <ele>2214.9149742949</ele>
        <time>2015-03-29T13:02:51Z</time>
      </trkpt>
      <trkpt lat="42.95092" lon="0.1624">
        <ele>2211.4213071609</ele>
        <time>2015-03-29T13:02:57Z</time>
      </trkpt>
      <trkpt lat="42.9508" lon="0.16221">
        <ele>2207.4334413801</ele>
        <time>2015-03-29T13:03:01Z</time>
      </trkpt>
      <trkpt lat="42.95063" lon="0.16217">
        <ele>2203.046502898</ele>
        <time>2015-03-29T13:03:07Z</time>
      </trkpt>
      <trkpt lat="42.95058" lon="0.16196">
        <ele>2198.2630312858</ele>
        <time>2015-03-29T13:03:11Z</time>
      </trkpt>
      <trkpt lat="42.95047" lon="0.16195">
        <ele>2193.1582658282</ele>
        <time>2015-03-29T13:03:16Z</time>
      </trkpt>
      <trkpt lat="42.95039" lon="0.16191">
        <ele>2193.1582658282</ele>
        <time>2015-03-29T13:03:23Z</time>
      </trkpt>
      <trkpt lat="42.9504" lon="0.1619">
        <ele>2187.139595485</ele>
        <time>2015-03-29T13:03:26Z</time>
      </trkpt>
      <trkpt lat="42.95044" lon="0.16188">
        <ele>2187.139595485</ele>
        <time>2015-03-29T13:03:47Z</time>
      </trkpt>
      <trkpt lat="42.95043" lon="0.16187">
        <ele>2187.139595485</ele>
        <time>2015-03-29T13:03:51Z</time>
      </trkpt>
      <trkpt lat="42.95039" lon="0.16187">
        <ele>2177.8299436515</ele>
        <time>2015-03-29T13:04:23Z</time>
      </trkpt>
      <trkpt lat="42.95046" lon="0.16194">
        <ele>2167.7913606796</ele>
        <time>2015-03-29T13:07:57Z</time>
      </trkpt>
      <trkpt lat="42.95045" lon="0.16193">
        <ele>2167.7913606796</ele>
        <time>2015-03-29T13:08:02Z</time>
      </trkpt>
      <trkpt lat="42.9504" lon="0.1619">
        <ele>2167.7913606796</ele>
        <time>2015-03-29T13:08:07Z</time>
      </trkpt>
      <trkpt lat="42.95038" lon="0.16187">
        <ele>2158.5634517576</ele>
        <time>2015-03-29T13:08:11Z</time>
      </trkpt>
      <trkpt lat="42.95037" lon="0.16184">
        <ele>2158.5634517576</ele>
        <time>2015-03-29T13:08:17Z</time>
      </trkpt>
      <trkpt lat="42.95036" lon="0.16184">
        <ele>2158.5634517576</ele>
        <time>2015-03-29T13:08:22Z</time>
      </trkpt>
      <trkpt lat="42.95036" lon="0.16184">
        <ele>2158.5634517576</ele>
        <time>2015-03-29T13:08:26Z</time>
      </trkpt>
      <trkpt lat="42.95035" lon="0.16185">
        <ele>2158.5634517576</ele>
        <time>2015-03-29T13:08:32Z</time>
      </trkpt>
      <trkpt lat="42.95035" lon="0.16185">
        <ele>2158.5634517576</ele>
        <time>2015-03-29T13:08:36Z</time>
      </trkpt>
      <trkpt lat="42.95042" lon="0.16193">
        <ele>2149.9991507339</ele>
        <time>2015-03-29T13:10:42Z</time>
      </trkpt>
      <trkpt lat="42.95043" lon="0.16193">
        <ele>2149.9991507339</ele>
        <time>2015-03-29T13:10:47Z</time>
      </trkpt>
      <trkpt lat="42.95038" lon="0.16189">
        <ele>2149.9991507339</ele>
        <time>2015-03-29T13:12:56Z</time>
      </trkpt>
      <trkpt lat="42.95037" lon="0.16188">
        <ele>2149.9991507339</ele>
        <time>2015-03-29T13:13:02Z</time>
      </trkpt>
      <trkpt lat="42.95035" lon="0.16185">
        <ele>2141.9886228763</ele>
        <time>2015-03-29T13:13:12Z</time>
      </trkpt>
      <trkpt lat="42.95035" lon="0.16185">
        <ele>2141.9886228763</ele>
        <time>2015-03-29T13:13:16Z</time>
      </trkpt>
      <trkpt lat="42.95033" lon="0.1618">
        <ele>2141.9886228763</ele>
        <time>2015-03-29T13:13:27Z</time>
      </trkpt>
      <trkpt lat="42.95033" lon="0.16179">
        <ele>2141.9886228763</ele>
        <time>2015-03-29T13:13:32Z</time>
      </trkpt>
      <trkpt lat="42.95035" lon="0.16175">
        <ele>2141.9886228763</ele>
        <time>2015-03-29T13:14:42Z</time>
      </trkpt>
      <trkpt lat="42.95035" lon="0.16175">
        <ele>2141.9886228763</ele>
        <time>2015-03-29T13:14:47Z</time>
      </trkpt>
      <trkpt lat="42.95035" lon="0.16179">
        <ele>2134.3703341616</ele>
        <time>2015-03-29T13:14:51Z</time>
      </trkpt>
      <trkpt lat="42.95035" lon="0.1618">
        <ele>2134.3703341616</ele>
        <time>2015-03-29T13:14:57Z</time>
      </trkpt>
      <trkpt lat="42.95035" lon="0.1618">
        <ele>2134.3703341616</ele>
        <time>2015-03-29T13:15:08Z</time>
      </trkpt>
      <trkpt lat="42.95032" lon="0.16176">
        <ele>2134.3703341616</ele>
        <time>2015-03-29T13:15:16Z</time>
      </trkpt>
      <trkpt lat="42.95036" lon="0.16184">
        <ele>2127.2234968925</ele>
        <time>2015-03-29T13:18:02Z</time>
      </trkpt>
      <trkpt lat="42.95037" lon="0.16186">
        <ele>2127.2234968925</ele>
        <time>2015-03-29T13:18:07Z</time>
      </trkpt>
      <trkpt lat="42.95037" lon="0.1619">
        <ele>2127.2234968925</ele>
        <time>2015-03-29T13:18:11Z</time>
      </trkpt>
      <trkpt lat="42.9504" lon="0.16193">
        <ele>2127.2234968925</ele>
        <time>2015-03-29T13:19:32Z</time>
      </trkpt>
      <trkpt lat="42.95037" lon="0.16194">
        <ele>2120.8645545826</ele>
        <time>2015-03-29T13:19:36Z</time>
      </trkpt>
      <trkpt lat="42.95032" lon="0.16192">
        <ele>2120.8645545826</ele>
        <time>2015-03-29T13:19:41Z</time>
      </trkpt>
      <trkpt lat="42.95031" lon="0.16192">
        <ele>2120.8645545826</ele>
        <time>2015-03-29T13:19:47Z</time>
      </trkpt>
      <trkpt lat="42.95034" lon="0.16194">
        <ele>2115.1083005255</ele>
        <time>2015-03-29T13:19:52Z</time>
      </trkpt>
      <trkpt lat="42.95036" lon="0.16196">
        <ele>2115.1083005255</ele>
        <time>2015-03-29T13:21:07Z</time>
      </trkpt>
      <trkpt lat="42.95035" lon="0.16194">
        <ele>2115.1083005255</ele>
        <time>2015-03-29T13:21:12Z</time>
      </trkpt>
      <trkpt lat="42.95035" lon="0.16188">
        <ele>2115.1083005255</ele>
        <time>2015-03-29T13:21:16Z</time>
      </trkpt>
      <trkpt lat="42.95036" lon="0.16193">
        <ele>2109.9969786288</ele>
        <time>2015-03-29T13:21:22Z</time>
      </trkpt>
      <trkpt lat="42.95027" lon="0.1618">
        <ele>2105.7546390152</ele>
        <time>2015-03-29T13:22:22Z</time>
      </trkpt>
      <trkpt lat="42.95027" lon="0.16181">
        <ele>2105.7546390152</ele>
        <time>2015-03-29T13:22:26Z</time>
      </trkpt>
      <trkpt lat="42.95027" lon="0.16181">
        <ele>2105.7546390152</ele>
        <time>2015-03-29T13:22:32Z</time>
      </trkpt>
      <trkpt lat="42.95027" lon="0.16178">
        <ele>2105.7546390152</ele>
        <time>2015-03-29T13:24:16Z</time>
      </trkpt>
      <trkpt lat="42.95024" lon="0.16174">
        <ele>2105.7546390152</ele>
        <time>2015-03-29T13:24:21Z</time>
      </trkpt>
      <trkpt lat="42.95016" lon="0.16178">
        <ele>2102.5137667865</ele>
        <time>2015-03-29T13:24:32Z</time>
      </trkpt>
      <trkpt lat="42.95006" lon="0.16186">
        <ele>2099.7596228587</ele>
        <time>2015-03-29T13:24:36Z</time>
      </trkpt>
      <trkpt lat="42.94986" lon="0.1619">
        <ele>2097.431270265</ele>
        <time>2015-03-29T13:24:42Z</time>
      </trkpt>
      <trkpt lat="42.94974" lon="0.16176">
        <ele>2095.4561067415</ele>
        <time>2015-03-29T13:24:46Z</time>
      </trkpt>
      <trkpt lat="42.94962" lon="0.16163">
        <ele>2093.8086044611</ele>
        <time>2015-03-29T13:24:53Z</time>
      </trkpt>
      <trkpt lat="42.94948" lon="0.1616">
        <ele>2092.4493158413</ele>
        <time>2015-03-29T13:24:56Z</time>
      </trkpt>
      <trkpt lat="42.94935" lon="0.16149">
        <ele>2091.1386999826</ele>
        <time>2015-03-29T13:25:02Z</time>
      </trkpt>
      <trkpt lat="42.94931" lon="0.16149">
        <ele>2091.1386999826</ele>
        <time>2015-03-29T13:25:06Z</time>
      </trkpt>
      <trkpt lat="42.94925" lon="0.16118">
        <ele>2089.3948861288</ele>
        <time>2015-03-29T13:25:12Z</time>
      </trkpt>
      <trkpt lat="42.94918" lon="0.16119">
        <ele>2089.3948861288</ele>
        <time>2015-03-29T13:25:16Z</time>
      </trkpt>
      <trkpt lat="42.94911" lon="0.16132">
        <ele>2087.247829201</ele>
        <time>2015-03-29T13:25:21Z</time>
      </trkpt>
      <trkpt lat="42.94905" lon="0.16122">
        <ele>2085.0431377855</ele>
        <time>2015-03-29T13:25:27Z</time>
      </trkpt>
      <trkpt lat="42.94899" lon="0.161">
        <ele>2082.8126794134</ele>
        <time>2015-03-29T13:25:32Z</time>
      </trkpt>
      <trkpt lat="42.94893" lon="0.16087">
        <ele>2080.6866652672</ele>
        <time>2015-03-29T13:25:36Z</time>
      </trkpt>
      <trkpt lat="42.9489" lon="0.16077">
        <ele>2080.6866652672</ele>
        <time>2015-03-29T13:25:42Z</time>
      </trkpt>
      <trkpt lat="42.9489" lon="0.16078">
        <ele>2080.6866652672</ele>
        <time>2015-03-29T13:25:47Z</time>
      </trkpt>
      <trkpt lat="42.94888" lon="0.16082">
        <ele>2078.0070064663</ele>
        <time>2015-03-29T13:26:02Z</time>
      </trkpt>
      <trkpt lat="42.94888" lon="0.16087">
        <ele>2078.0070064663</ele>
        <time>2015-03-29T13:26:07Z</time>
      </trkpt>
      <trkpt lat="42.94885" lon="0.16092">
        <ele>2078.0070064663</ele>
        <time>2015-03-29T13:26:22Z</time>
      </trkpt>
      <trkpt lat="42.94885" lon="0.16076">
        <ele>2075.3470023541</ele>
        <time>2015-03-29T13:26:27Z</time>
      </trkpt>
      <trkpt lat="42.94884" lon="0.16078">
        <ele>2075.3470023541</ele>
        <time>2015-03-29T13:26:32Z</time>
      </trkpt>
      <trkpt lat="42.9488" lon="0.16077">
        <ele>2075.3470023541</ele>
        <time>2015-03-29T13:26:36Z</time>
      </trkpt>
      <trkpt lat="42.94876" lon="0.16068">
        <ele>2072.5602611604</ele>
        <time>2015-03-29T13:26:41Z</time>
      </trkpt>
      <trkpt lat="42.94864" lon="0.16056">
        <ele>2070.11658676</ele>
        <time>2015-03-29T13:26:47Z</time>
      </trkpt>
      <trkpt lat="42.94856" lon="0.16064">
        <ele>2067.974579373</ele>
        <time>2015-03-29T13:26:51Z</time>
      </trkpt>
      <trkpt lat="42.9485" lon="0.16061">
        <ele>2067.974579373</ele>
        <time>2015-03-29T13:26:56Z</time>
      </trkpt>
      <trkpt lat="42.94834" lon="0.16071">
        <ele>2065.7490221082</ele>
        <time>2015-03-29T13:27:01Z</time>
      </trkpt>
      <trkpt lat="42.9482" lon="0.16096">
        <ele>2063.544258532</ele>
        <time>2015-03-29T13:27:08Z</time>
      </trkpt>
      <trkpt lat="42.94812" lon="0.16082">
        <ele>2061.4423881987</ele>
        <time>2015-03-29T13:27:12Z</time>
      </trkpt>
      <trkpt lat="42.94798" lon="0.16082">
        <ele>2059.4038099702</ele>
        <time>2015-03-29T13:27:16Z</time>
      </trkpt>
      <trkpt lat="42.9477" lon="0.16096">
        <ele>2057.2042338997</ele>
        <time>2015-03-29T13:27:22Z</time>
      </trkpt>
      <trkpt lat="42.9475" lon="0.1611">
        <ele>2055.0829822766</ele>
        <time>2015-03-29T13:27:26Z</time>
      </trkpt>
      <trkpt lat="42.94732" lon="0.1612">
        <ele>2052.8724312698</ele>
        <time>2015-03-29T13:27:32Z</time>
      </trkpt>
      <trkpt lat="42.94726" lon="0.1612">
        <ele>2052.8724312698</ele>
        <time>2015-03-29T13:27:36Z</time>
      </trkpt>
      <trkpt lat="42.94713" lon="0.16122">
        <ele>2050.1436765194</ele>
        <time>2015-03-29T13:27:41Z</time>
      </trkpt>
      <trkpt lat="42.94699" lon="0.1613">
        <ele>2047.6248191503</ele>
        <time>2015-03-29T13:27:48Z</time>
      </trkpt>
      <trkpt lat="42.94692" lon="0.16132">
        <ele>2047.6248191503</ele>
        <time>2015-03-29T13:27:51Z</time>
      </trkpt>
      <trkpt lat="42.94682" lon="0.16135">
        <ele>2045.1828501474</ele>
        <time>2015-03-29T13:27:57Z</time>
      </trkpt>
      <trkpt lat="42.94673" lon="0.16126">
        <ele>2042.8095999007</ele>
        <time>2015-03-29T13:28:02Z</time>
      </trkpt>
      <trkpt lat="42.94667" lon="0.16128">
        <ele>2042.8095999007</ele>
        <time>2015-03-29T13:28:07Z</time>
      </trkpt>
      <trkpt lat="42.94662" lon="0.16128">
        <ele>2039.8199856556</ele>
        <time>2015-03-29T13:28:12Z</time>
      </trkpt>
      <trkpt lat="42.94659" lon="0.16126">
        <ele>2039.8199856556</ele>
        <time>2015-03-29T13:28:16Z</time>
      </trkpt>
      <trkpt lat="42.94658" lon="0.16124">
        <ele>2039.8199856556</ele>
        <time>2015-03-29T13:28:22Z</time>
      </trkpt>
      <trkpt lat="42.94656" lon="0.16122">
        <ele>2039.8199856556</ele>
        <time>2015-03-29T13:28:27Z</time>
      </trkpt>
      <trkpt lat="42.94648" lon="0.16131">
        <ele>2035.2639400307</ele>
        <time>2015-03-29T13:28:32Z</time>
      </trkpt>
      <trkpt lat="42.94646" lon="0.16131">
        <ele>2035.2639400307</ele>
        <time>2015-03-29T13:28:36Z</time>
      </trkpt>
      <trkpt lat="42.94635" lon="0.16131">
        <ele>2030.9892876739</ele>
        <time>2015-03-29T13:28:42Z</time>
      </trkpt>
      <trkpt lat="42.94624" lon="0.16128">
        <ele>2026.9347582503</ele>
        <time>2015-03-29T13:28:47Z</time>
      </trkpt>
      <trkpt lat="42.94618" lon="0.16109">
        <ele>2023.0717829824</ele>
        <time>2015-03-29T13:28:52Z</time>
      </trkpt>
      <trkpt lat="42.94612" lon="0.16092">
        <ele>2019.4165777232</ele>
        <time>2015-03-29T13:28:56Z</time>
      </trkpt>
      <trkpt lat="42.94608" lon="0.16078">
        <ele>2016.0844486698</ele>
        <time>2015-03-29T13:29:01Z</time>
      </trkpt>
      <trkpt lat="42.94606" lon="0.16078">
        <ele>2016.0844486698</ele>
        <time>2015-03-29T13:29:06Z</time>
      </trkpt>
      <trkpt lat="42.94597" lon="0.16092">
        <ele>2012.3742872022</ele>
        <time>2015-03-29T13:29:11Z</time>
      </trkpt>
      <trkpt lat="42.94593" lon="0.16089">
        <ele>2012.3742872022</ele>
        <time>2015-03-29T13:29:16Z</time>
      </trkpt>
      <trkpt lat="42.9459" lon="0.1608">
        <ele>2008.6318984017</ele>
        <time>2015-03-29T13:29:22Z</time>
      </trkpt>
      <trkpt lat="42.94581" lon="0.1609">
        <ele>2005.2209911953</ele>
        <time>2015-03-29T13:29:27Z</time>
      </trkpt>
      <trkpt lat="42.9457" lon="0.16102">
        <ele>2002.0020427144</ele>
        <time>2015-03-29T13:29:31Z</time>
      </trkpt>
      <trkpt lat="42.94557" lon="0.16104">
        <ele>1998.8452242502</ele>
        <time>2015-03-29T13:29:36Z</time>
      </trkpt>
      <trkpt lat="42.94552" lon="0.16086">
        <ele>1995.7885774824</ele>
        <time>2015-03-29T13:29:42Z</time>
      </trkpt>
      <trkpt lat="42.94535" lon="0.16094">
        <ele>1992.8814680579</ele>
        <time>2015-03-29T13:29:47Z</time>
      </trkpt>
      <trkpt lat="42.94525" lon="0.16102">
        <ele>1990.0971524785</ele>
        <time>2015-03-29T13:29:52Z</time>
      </trkpt>
      <trkpt lat="42.94516" lon="0.16111">
        <ele>1987.4825599241</ele>
        <time>2015-03-29T13:29:56Z</time>
      </trkpt>
      <trkpt lat="42.94502" lon="0.16106">
        <ele>1984.9077650029</ele>
        <time>2015-03-29T13:30:02Z</time>
      </trkpt>
      <trkpt lat="42.94489" lon="0.16108">
        <ele>1982.4108054525</ele>
        <time>2015-03-29T13:30:06Z</time>
      </trkpt>
      <trkpt lat="42.94477" lon="0.16094">
        <ele>1979.8393761541</ele>
        <time>2015-03-29T13:30:12Z</time>
      </trkpt>
      <trkpt lat="42.94471" lon="0.16104">
        <ele>1977.4561008402</ele>
        <time>2015-03-29T13:30:16Z</time>
      </trkpt>
      <trkpt lat="42.94459" lon="0.16098">
        <ele>1975.0570649836</ele>
        <time>2015-03-29T13:30:21Z</time>
      </trkpt>
      <trkpt lat="42.94426" lon="0.16105">
        <ele>1972.4822317359</ele>
        <time>2015-03-29T13:30:27Z</time>
      </trkpt>
      <trkpt lat="42.94394" lon="0.16123">
        <ele>1969.7135500477</ele>
        <time>2015-03-29T13:30:32Z</time>
      </trkpt>
      <trkpt lat="42.94378" lon="0.16126">
        <ele>1966.648411573</ele>
        <time>2015-03-29T13:30:37Z</time>
      </trkpt>
      <trkpt lat="42.94373" lon="0.16127">
        <ele>1966.648411573</ele>
        <time>2015-03-29T13:30:42Z</time>
      </trkpt>
      <trkpt lat="42.9437" lon="0.16132">
        <ele>1963.1637954584</ele>
        <time>2015-03-29T13:30:46Z</time>
      </trkpt>
      <trkpt lat="42.94367" lon="0.16134">
        <ele>1963.1637954584</ele>
        <time>2015-03-29T13:30:51Z</time>
      </trkpt>
      <trkpt lat="42.94364" lon="0.16136">
        <ele>1963.1637954584</ele>
        <time>2015-03-29T13:30:56Z</time>
      </trkpt>
      <trkpt lat="42.94358" lon="0.16132">
        <ele>1959.0604663558</ele>
        <time>2015-03-29T13:31:12Z</time>
      </trkpt>
      <trkpt lat="42.94353" lon="0.16138">
        <ele>1959.0604663558</ele>
        <time>2015-03-29T13:31:17Z</time>
      </trkpt>
      <trkpt lat="42.94348" lon="0.16146">
        <ele>1955.3805397359</ele>
        <time>2015-03-29T13:31:22Z</time>
      </trkpt>
      <trkpt lat="42.94336" lon="0.16163">
        <ele>1952.0940526265</ele>
        <time>2015-03-29T13:31:27Z</time>
      </trkpt>
      <trkpt lat="42.94325" lon="0.16179">
        <ele>1949.0568753981</ele>
        <time>2015-03-29T13:31:32Z</time>
      </trkpt>
      <trkpt lat="42.94318" lon="0.16193">
        <ele>1946.3365446107</ele>
        <time>2015-03-29T13:31:37Z</time>
      </trkpt>
      <trkpt lat="42.94309" lon="0.16209">
        <ele>1943.9371249108</ele>
        <time>2015-03-29T13:31:41Z</time>
      </trkpt>
      <trkpt lat="42.94293" lon="0.16232">
        <ele>1941.8326853343</ele>
        <time>2015-03-29T13:31:47Z</time>
      </trkpt>
      <trkpt lat="42.94278" lon="0.16239">
        <ele>1939.9839916659</ele>
        <time>2015-03-29T13:31:52Z</time>
      </trkpt>
      <trkpt lat="42.94268" lon="0.16239">
        <ele>1938.3396006893</ele>
        <time>2015-03-29T13:31:57Z</time>
      </trkpt>
      <trkpt lat="42.9426" lon="0.16237">
        <ele>1938.3396006893</ele>
        <time>2015-03-29T13:32:02Z</time>
      </trkpt>
      <trkpt lat="42.9425" lon="0.16238">
        <ele>1936.8224985903</ele>
        <time>2015-03-29T13:32:07Z</time>
      </trkpt>
      <trkpt lat="42.94241" lon="0.16243">
        <ele>1936.8224985903</ele>
        <time>2015-03-29T13:32:12Z</time>
      </trkpt>
      <trkpt lat="42.94227" lon="0.16246">
        <ele>1935.3466156606</ele>
        <time>2015-03-29T13:32:17Z</time>
      </trkpt>
      <trkpt lat="42.94213" lon="0.16255">
        <ele>1933.9618536622</ele>
        <time>2015-03-29T13:32:22Z</time>
      </trkpt>
      <trkpt lat="42.94199" lon="0.16267">
        <ele>1932.5557444088</ele>
        <time>2015-03-29T13:32:27Z</time>
      </trkpt>
      <trkpt lat="42.94193" lon="0.16259">
        <ele>1932.5557444088</ele>
        <time>2015-03-29T13:32:32Z</time>
      </trkpt>
      <trkpt lat="42.942" lon="0.16206">
        <ele>1929.9577992223</ele>
        <time>2015-03-29T13:32:37Z</time>
      </trkpt>
      <trkpt lat="42.94192" lon="0.16202">
        <ele>1929.9577992223</ele>
        <time>2015-03-29T13:32:42Z</time>
      </trkpt>
      <trkpt lat="42.94184" lon="0.16203">
        <ele>1927.335075388</ele>
        <time>2015-03-29T13:32:46Z</time>
      </trkpt>
      <trkpt lat="42.94175" lon="0.16189">
        <ele>1924.8323323827</ele>
        <time>2015-03-29T13:32:52Z</time>
      </trkpt>
      <trkpt lat="42.94158" lon="0.16195">
        <ele>1922.3816892319</ele>
        <time>2015-03-29T13:32:57Z</time>
      </trkpt>
      <trkpt lat="42.94142" lon="0.16195">
        <ele>1920.0354776881</ele>
        <time>2015-03-29T13:33:02Z</time>
      </trkpt>
      <trkpt lat="42.94122" lon="0.16196">
        <ele>1917.6690404166</ele>
        <time>2015-03-29T13:33:07Z</time>
      </trkpt>
      <trkpt lat="42.94103" lon="0.16197">
        <ele>1915.354358651</ele>
        <time>2015-03-29T13:33:12Z</time>
      </trkpt>
      <trkpt lat="42.94073" lon="0.16192">
        <ele>1912.9563037186</ele>
        <time>2015-03-29T13:33:17Z</time>
      </trkpt>
      <trkpt lat="42.94059" lon="0.16189">
        <ele>1910.6814403436</ele>
        <time>2015-03-29T13:33:22Z</time>
      </trkpt>
      <trkpt lat="42.94033" lon="0.16189">
        <ele>1908.0723887333</ele>
        <time>2015-03-29T13:33:27Z</time>
      </trkpt>
      <trkpt lat="42.94035" lon="0.16196">
        <ele>1908.0723887333</ele>
        <time>2015-03-29T13:33:32Z</time>
      </trkpt>
      <trkpt lat="42.94036" lon="0.16197">
        <ele>1908.0723887333</ele>
        <time>2015-03-29T13:33:37Z</time>
      </trkpt>
      <trkpt lat="42.94035" lon="0.16198">
        <ele>1908.0723887333</ele>
        <time>2015-03-29T13:33:41Z</time>
      </trkpt>
      <trkpt lat="42.94031" lon="0.16198">
        <ele>1904.6199104367</ele>
        <time>2015-03-29T13:33:47Z</time>
      </trkpt>
      <trkpt lat="42.94022" lon="0.16187">
        <ele>1901.3965976274</ele>
        <time>2015-03-29T13:33:52Z</time>
      </trkpt>
      <trkpt lat="42.94014" lon="0.16179">
        <ele>1898.4445343901</ele>
        <time>2015-03-29T13:33:57Z</time>
      </trkpt>
      <trkpt lat="42.94011" lon="0.16178">
        <ele>1898.4445343901</ele>
        <time>2015-03-29T13:34:03Z</time>
      </trkpt>
      <trkpt lat="42.94003" lon="0.162">
        <ele>1895.2543827794</ele>
        <time>2015-03-29T13:34:06Z</time>
      </trkpt>
      <trkpt lat="42.93984" lon="0.16218">
        <ele>1892.0322559678</ele>
        <time>2015-03-29T13:34:12Z</time>
      </trkpt>
      <trkpt lat="42.93975" lon="0.16231">
        <ele>1889.0413099464</ele>
        <time>2015-03-29T13:34:17Z</time>
      </trkpt>
      <trkpt lat="42.93958" lon="0.16254">
        <ele>1886.1356533282</ele>
        <time>2015-03-29T13:34:22Z</time>
      </trkpt>
      <trkpt lat="42.93943" lon="0.16264">
        <ele>1883.3240111287</ele>
        <time>2015-03-29T13:34:27Z</time>
      </trkpt>
      <trkpt lat="42.93936" lon="0.1624">
        <ele>1880.1530705827</ele>
        <time>2015-03-29T13:34:32Z</time>
      </trkpt>
      <trkpt lat="42.93924" lon="0.16243">
        <ele>1877.1261570072</ele>
        <time>2015-03-29T13:34:37Z</time>
      </trkpt>
      <trkpt lat="42.9391" lon="0.16229">
        <ele>1874.3201324959</ele>
        <time>2015-03-29T13:34:42Z</time>
      </trkpt>
      <trkpt lat="42.93898" lon="0.16231">
        <ele>1871.5462047358</ele>
        <time>2015-03-29T13:34:47Z</time>
      </trkpt>
      <trkpt lat="42.93886" lon="0.16236">
        <ele>1868.6870130263</ele>
        <time>2015-03-29T13:34:52Z</time>
      </trkpt>
      <trkpt lat="42.93883" lon="0.16233">
        <ele>1868.6870130263</ele>
        <time>2015-03-29T13:34:57Z</time>
      </trkpt>
      <trkpt lat="42.93881" lon="0.16234">
        <ele>1868.6870130263</ele>
        <time>2015-03-29T13:35:02Z</time>
      </trkpt>
      <trkpt lat="42.93875" lon="0.16236">
        <ele>1865.504362915</ele>
        <time>2015-03-29T13:35:07Z</time>
      </trkpt>
      <trkpt lat="42.93856" lon="0.16242">
        <ele>1862.3693238868</ele>
        <time>2015-03-29T13:35:12Z</time>
      </trkpt>
      <trkpt lat="42.93841" lon="0.1625">
        <ele>1859.3517621839</ele>
        <time>2015-03-29T13:35:17Z</time>
      </trkpt>
      <trkpt lat="42.93843" lon="0.16256">
        <ele>1859.3517621839</ele>
        <time>2015-03-29T13:35:22Z</time>
      </trkpt>
      <trkpt lat="42.93844" lon="0.16259">
        <ele>1859.3517621839</ele>
        <time>2015-03-29T13:35:27Z</time>
      </trkpt>
      <trkpt lat="42.93847" lon="0.16266">
        <ele>1854.5417528193</ele>
        <time>2015-03-29T13:35:56Z</time>
      </trkpt>
      <trkpt lat="42.93847" lon="0.16267">
        <ele>1854.5417528193</ele>
        <time>2015-03-29T13:36:02Z</time>
      </trkpt>
      <trkpt lat="42.93847" lon="0.16268">
        <ele>1854.5417528193</ele>
        <time>2015-03-29T13:36:07Z</time>
      </trkpt>
      <trkpt lat="42.93846" lon="0.1627">
        <ele>1854.5417528193</ele>
        <time>2015-03-29T13:36:17Z</time>
      </trkpt>
      <trkpt lat="42.93847" lon="0.1627">
        <ele>1854.5417528193</ele>
        <time>2015-03-29T13:36:27Z</time>
      </trkpt>
      <trkpt lat="42.93847" lon="0.16266">
        <ele>1854.5417528193</ele>
        <time>2015-03-29T13:36:37Z</time>
      </trkpt>
      <trkpt lat="42.93846" lon="0.16267">
        <ele>1854.5417528193</ele>
        <time>2015-03-29T13:36:42Z</time>
      </trkpt>
      <trkpt lat="42.93847" lon="0.16264">
        <ele>1854.5417528193</ele>
        <time>2015-03-29T13:36:47Z</time>
      </trkpt>
      <trkpt lat="42.93839" lon="0.16266">
        <ele>1848.5525185205</ele>
        <time>2015-03-29T13:36:57Z</time>
      </trkpt>
      <trkpt lat="42.93827" lon="0.16268">
        <ele>1843.0219350859</ele>
        <time>2015-03-29T13:37:02Z</time>
      </trkpt>
      <trkpt lat="42.93813" lon="0.16273">
        <ele>1837.8810035729</ele>
        <time>2015-03-29T13:37:07Z</time>
      </trkpt>
      <trkpt lat="42.93796" lon="0.16282">
        <ele>1833.0790453404</ele>
        <time>2015-03-29T13:37:12Z</time>
      </trkpt>
      <trkpt lat="42.93792" lon="0.16284">
        <ele>1833.0790453404</ele>
        <time>2015-03-29T13:37:17Z</time>
      </trkpt>
      <trkpt lat="42.93788" lon="0.16281">
        <ele>1833.0790453404</ele>
        <time>2015-03-29T13:37:22Z</time>
      </trkpt>
      <trkpt lat="42.93779" lon="0.16284">
        <ele>1828.265437528</ele>
        <time>2015-03-29T13:37:27Z</time>
      </trkpt>
      <trkpt lat="42.93767" lon="0.16298">
        <ele>1823.8502187255</ele>
        <time>2015-03-29T13:37:32Z</time>
      </trkpt>
      <trkpt lat="42.93751" lon="0.16314">
        <ele>1819.8085742512</ele>
        <time>2015-03-29T13:37:37Z</time>
      </trkpt>
      <trkpt lat="42.93739" lon="0.16326">
        <ele>1816.1595893616</ele>
        <time>2015-03-29T13:37:43Z</time>
      </trkpt>
      <trkpt lat="42.93716" lon="0.16345">
        <ele>1812.7468022136</ele>
        <time>2015-03-29T13:37:46Z</time>
      </trkpt>
      <trkpt lat="42.93689" lon="0.16358">
        <ele>1809.4244729331</ele>
        <time>2015-03-29T13:37:52Z</time>
      </trkpt>
      <trkpt lat="42.93671" lon="0.16367">
        <ele>1806.3021974585</ele>
        <time>2015-03-29T13:37:57Z</time>
      </trkpt>
      <trkpt lat="42.93647" lon="0.16392">
        <ele>1802.9332365753</ele>
        <time>2015-03-29T13:38:02Z</time>
      </trkpt>
      <trkpt lat="42.93634" lon="0.16404">
        <ele>1799.6536431027</ele>
        <time>2015-03-29T13:38:07Z</time>
      </trkpt>
      <trkpt lat="42.93623" lon="0.16412">
        <ele>1796.6159212052</ele>
        <time>2015-03-29T13:38:12Z</time>
      </trkpt>
      <trkpt lat="42.93609" lon="0.16424">
        <ele>1793.4706320254</ele>
        <time>2015-03-29T13:38:17Z</time>
      </trkpt>
      <trkpt lat="42.93609" lon="0.16421">
        <ele>1793.4706320254</ele>
        <time>2015-03-29T13:38:21Z</time>
      </trkpt>
      <trkpt lat="42.93612" lon="0.16423">
        <ele>1793.4706320254</ele>
        <time>2015-03-29T13:38:32Z</time>
      </trkpt>
      <trkpt lat="42.93611" lon="0.16423">
        <ele>1793.4706320254</ele>
        <time>2015-03-29T13:38:36Z</time>
      </trkpt>
      <trkpt lat="42.93612" lon="0.16424">
        <ele>1793.4706320254</ele>
        <time>2015-03-29T13:38:42Z</time>
      </trkpt>
      <trkpt lat="42.93613" lon="0.16422">
        <ele>1793.4706320254</ele>
        <time>2015-03-29T13:38:47Z</time>
      </trkpt>
      <trkpt lat="42.93614" lon="0.16423">
        <ele>1789.447483994</ele>
        <time>2015-03-29T13:38:52Z</time>
      </trkpt>
      <trkpt lat="42.93613" lon="0.16422">
        <ele>1789.447483994</ele>
        <time>2015-03-29T13:38:56Z</time>
      </trkpt>
      <trkpt lat="42.93613" lon="0.16425">
        <ele>1789.447483994</ele>
        <time>2015-03-29T13:39:01Z</time>
      </trkpt>
      <trkpt lat="42.93614" lon="0.16425">
        <ele>1789.447483994</ele>
        <time>2015-03-29T13:39:07Z</time>
      </trkpt>
      <trkpt lat="42.93608" lon="0.16421">
        <ele>1785.1033350048</ele>
        <time>2015-03-29T13:39:27Z</time>
      </trkpt>
      <trkpt lat="42.93602" lon="0.16429">
        <ele>1785.1033350048</ele>
        <time>2015-03-29T13:39:32Z</time>
      </trkpt>
      <trkpt lat="42.93592" lon="0.16444">
        <ele>1781.0126059878</ele>
        <time>2015-03-29T13:39:37Z</time>
      </trkpt>
      <trkpt lat="42.93584" lon="0.16457">
        <ele>1777.3464567401</ele>
        <time>2015-03-29T13:39:42Z</time>
      </trkpt>
      <trkpt lat="42.93572" lon="0.16472">
        <ele>1774.0028067828</ele>
        <time>2015-03-29T13:39:47Z</time>
      </trkpt>
      <trkpt lat="42.93561" lon="0.16482">
        <ele>1770.958151482</ele>
        <time>2015-03-29T13:39:52Z</time>
      </trkpt>
      <trkpt lat="42.93545" lon="0.16492">
        <ele>1768.1465716517</ele>
        <time>2015-03-29T13:39:57Z</time>
      </trkpt>
      <trkpt lat="42.93536" lon="0.165">
        <ele>1765.6359748764</ele>
        <time>2015-03-29T13:40:01Z</time>
      </trkpt>
      <trkpt lat="42.93525" lon="0.1651">
        <ele>1763.4019167097</ele>
        <time>2015-03-29T13:40:06Z</time>
      </trkpt>
      <trkpt lat="42.9351" lon="0.16528">
        <ele>1761.3200531185</ele>
        <time>2015-03-29T13:40:13Z</time>
      </trkpt>
      <trkpt lat="42.93502" lon="0.16532">
        <ele>1761.3200531185</ele>
        <time>2015-03-29T13:40:17Z</time>
      </trkpt>
      <trkpt lat="42.93494" lon="0.16539">
        <ele>1759.0441393309</ele>
        <time>2015-03-29T13:40:22Z</time>
      </trkpt>
      <trkpt lat="42.93492" lon="0.16542">
        <ele>1759.0441393309</ele>
        <time>2015-03-29T13:40:27Z</time>
      </trkpt>
      <trkpt lat="42.93491" lon="0.16541">
        <ele>1759.0441393309</ele>
        <time>2015-03-29T13:40:32Z</time>
      </trkpt>
      <trkpt lat="42.93488" lon="0.16541">
        <ele>1759.0441393309</ele>
        <time>2015-03-29T13:40:37Z</time>
      </trkpt>
      <trkpt lat="42.93485" lon="0.16543">
        <ele>1756.0521345794</ele>
        <time>2015-03-29T13:40:42Z</time>
      </trkpt>
      <trkpt lat="42.93484" lon="0.16544">
        <ele>1756.0521345794</ele>
        <time>2015-03-29T13:40:47Z</time>
      </trkpt>
      <trkpt lat="42.93484" lon="0.16543">
        <ele>1756.0521345794</ele>
        <time>2015-03-29T13:40:52Z</time>
      </trkpt>
      <trkpt lat="42.93477" lon="0.16544">
        <ele>1752.496433306</ele>
        <time>2015-03-29T13:40:57Z</time>
      </trkpt>
      <trkpt lat="42.9347" lon="0.16549">
        <ele>1752.496433306</ele>
        <time>2015-03-29T13:41:02Z</time>
      </trkpt>
      <trkpt lat="42.93458" lon="0.1656">
        <ele>1748.8224432483</ele>
        <time>2015-03-29T13:41:07Z</time>
      </trkpt>
      <trkpt lat="42.9345" lon="0.16572">
        <ele>1745.4575910909</ele>
        <time>2015-03-29T13:41:13Z</time>
      </trkpt>
      <trkpt lat="42.93442" lon="0.16585">
        <ele>1742.3214667168</ele>
        <time>2015-03-29T13:41:17Z</time>
      </trkpt>
      <trkpt lat="42.93436" lon="0.16596">
        <ele>1739.4542107465</ele>
        <time>2015-03-29T13:41:22Z</time>
      </trkpt>
      <trkpt lat="42.93426" lon="0.16611">
        <ele>1736.8634376856</ele>
        <time>2015-03-29T13:41:26Z</time>
      </trkpt>
      <trkpt lat="42.93422" lon="0.16617">
        <ele>1736.8634376856</ele>
        <time>2015-03-29T13:41:32Z</time>
      </trkpt>
      <trkpt lat="42.93422" lon="0.16623">
        <ele>1734.0798630805</ele>
        <time>2015-03-29T13:41:37Z</time>
      </trkpt>
      <trkpt lat="42.93422" lon="0.16624">
        <ele>1734.0798630805</ele>
        <time>2015-03-29T13:41:43Z</time>
      </trkpt>
      <trkpt lat="42.93422" lon="0.16622">
        <ele>1734.0798630805</ele>
        <time>2015-03-29T13:41:46Z</time>
      </trkpt>
      <trkpt lat="42.9342" lon="0.1662">
        <ele>1734.0798630805</ele>
        <time>2015-03-29T13:41:51Z</time>
      </trkpt>
      <trkpt lat="42.9342" lon="0.1662">
        <ele>1734.0798630805</ele>
        <time>2015-03-29T13:41:57Z</time>
      </trkpt>
      <trkpt lat="42.93418" lon="0.1662">
        <ele>1734.0798630805</ele>
        <time>2015-03-29T13:42:02Z</time>
      </trkpt>
      <trkpt lat="42.93417" lon="0.16617">
        <ele>1730.5683451269</ele>
        <time>2015-03-29T13:42:27Z</time>
      </trkpt>
      <trkpt lat="42.9341" lon="0.16622">
        <ele>1730.5683451269</ele>
        <time>2015-03-29T13:42:32Z</time>
      </trkpt>
      <trkpt lat="42.93402" lon="0.16631">
        <ele>1727.4347388086</ele>
        <time>2015-03-29T13:42:37Z</time>
      </trkpt>
      <trkpt lat="42.93392" lon="0.16647">
        <ele>1724.7370710037</ele>
        <time>2015-03-29T13:42:42Z</time>
      </trkpt>
      <trkpt lat="42.93386" lon="0.16656">
        <ele>1724.7370710037</ele>
        <time>2015-03-29T13:42:47Z</time>
      </trkpt>
      <trkpt lat="42.93385" lon="0.16659">
        <ele>1722.4126092496</ele>
        <time>2015-03-29T13:42:52Z</time>
      </trkpt>
      <trkpt lat="42.93382" lon="0.16665">
        <ele>1722.4126092496</ele>
        <time>2015-03-29T13:42:57Z</time>
      </trkpt>
      <trkpt lat="42.93381" lon="0.1667">
        <ele>1722.4126092496</ele>
        <time>2015-03-29T13:43:02Z</time>
      </trkpt>
      <trkpt lat="42.9338" lon="0.16669">
        <ele>1719.8113450337</ele>
        <time>2015-03-29T13:43:07Z</time>
      </trkpt>
      <trkpt lat="42.93381" lon="0.16672">
        <ele>1719.8113450337</ele>
        <time>2015-03-29T13:43:17Z</time>
      </trkpt>
      <trkpt lat="42.93381" lon="0.16672">
        <ele>1719.8113450337</ele>
        <time>2015-03-29T13:43:22Z</time>
      </trkpt>
      <trkpt lat="42.9338" lon="0.16676">
        <ele>1719.8113450337</ele>
        <time>2015-03-29T13:43:27Z</time>
      </trkpt>
      <trkpt lat="42.93372" lon="0.16686">
        <ele>1716.99472971</ele>
        <time>2015-03-29T13:43:32Z</time>
      </trkpt>
      <trkpt lat="42.93364" lon="0.167">
        <ele>1714.5967771395</ele>
        <time>2015-03-29T13:43:36Z</time>
      </trkpt>
      <trkpt lat="42.93355" lon="0.16715">
        <ele>1712.5841077275</ele>
        <time>2015-03-29T13:43:41Z</time>
      </trkpt>
      <trkpt lat="42.93346" lon="0.16731">
        <ele>1710.8815190781</ele>
        <time>2015-03-29T13:43:46Z</time>
      </trkpt>
      <trkpt lat="42.93344" lon="0.16741">
        <ele>1710.8815190781</ele>
        <time>2015-03-29T13:43:52Z</time>
      </trkpt>
      <trkpt lat="42.93341" lon="0.1675">
        <ele>1709.5049770446</ele>
        <time>2015-03-29T13:43:59Z</time>
      </trkpt>
      <trkpt lat="42.93338" lon="0.16757">
        <ele>1709.5049770446</ele>
        <time>2015-03-29T13:44:03Z</time>
      </trkpt>
      <trkpt lat="42.93335" lon="0.16763">
        <ele>1708.295483401</ele>
        <time>2015-03-29T13:44:06Z</time>
      </trkpt>
      <trkpt lat="42.93331" lon="0.16767">
        <ele>1708.295483401</ele>
        <time>2015-03-29T13:44:12Z</time>
      </trkpt>
      <trkpt lat="42.9333" lon="0.1677">
        <ele>1708.295483401</ele>
        <time>2015-03-29T13:44:16Z</time>
      </trkpt>
      <trkpt lat="42.9333" lon="0.16774">
        <ele>1706.8891517939</ele>
        <time>2015-03-29T13:44:22Z</time>
      </trkpt>
      <trkpt lat="42.93328" lon="0.16778">
        <ele>1706.8891517939</ele>
        <time>2015-03-29T13:44:27Z</time>
      </trkpt>
      <trkpt lat="42.93327" lon="0.16781">
        <ele>1706.8891517939</ele>
        <time>2015-03-29T13:44:31Z</time>
      </trkpt>
      <trkpt lat="42.93325" lon="0.16786">
        <ele>1705.3962013803</ele>
        <time>2015-03-29T13:44:37Z</time>
      </trkpt>
      <trkpt lat="42.93323" lon="0.16787">
        <ele>1705.3962013803</ele>
        <time>2015-03-29T13:44:42Z</time>
      </trkpt>
      <trkpt lat="42.93321" lon="0.16791">
        <ele>1705.3962013803</ele>
        <time>2015-03-29T13:44:47Z</time>
      </trkpt>
      <trkpt lat="42.93316" lon="0.16798">
        <ele>1703.5588067069</ele>
        <time>2015-03-29T13:44:52Z</time>
      </trkpt>
      <trkpt lat="42.93313" lon="0.16803">
        <ele>1703.5588067069</ele>
        <time>2015-03-29T13:44:56Z</time>
      </trkpt>
      <trkpt lat="42.93311" lon="0.16809">
        <ele>1701.7444095397</ele>
        <time>2015-03-29T13:45:02Z</time>
      </trkpt>
      <trkpt lat="42.9331" lon="0.16813">
        <ele>1701.7444095397</ele>
        <time>2015-03-29T13:45:07Z</time>
      </trkpt>
      <trkpt lat="42.93307" lon="0.16822">
        <ele>1699.7746943801</ele>
        <time>2015-03-29T13:45:12Z</time>
      </trkpt>
      <trkpt lat="42.93301" lon="0.16836">
        <ele>1697.7732056765</ele>
        <time>2015-03-29T13:45:17Z</time>
      </trkpt>
      <trkpt lat="42.93297" lon="0.16847">
        <ele>1697.7732056765</ele>
        <time>2015-03-29T13:45:21Z</time>
      </trkpt>
      <trkpt lat="42.9329" lon="0.16861">
        <ele>1695.7969621221</ele>
        <time>2015-03-29T13:45:27Z</time>
      </trkpt>
      <trkpt lat="42.93286" lon="0.16876">
        <ele>1694.0285298609</ele>
        <time>2015-03-29T13:45:32Z</time>
      </trkpt>
      <trkpt lat="42.93286" lon="0.1689">
        <ele>1692.4492447603</ele>
        <time>2015-03-29T13:45:37Z</time>
      </trkpt>
      <trkpt lat="42.93291" lon="0.16898">
        <ele>1692.4492447603</ele>
        <time>2015-03-29T13:45:42Z</time>
      </trkpt>
      <trkpt lat="42.93295" lon="0.16911">
        <ele>1690.9693380032</ele>
        <time>2015-03-29T13:45:47Z</time>
      </trkpt>
      <trkpt lat="42.93297" lon="0.16927">
        <ele>1689.7072253417</ele>
        <time>2015-03-29T13:45:52Z</time>
      </trkpt>
      <trkpt lat="42.93298" lon="0.16935">
        <ele>1689.7072253417</ele>
        <time>2015-03-29T13:45:57Z</time>
      </trkpt>
      <trkpt lat="42.93297" lon="0.16947">
        <ele>1688.5127296684</ele>
        <time>2015-03-29T13:46:01Z</time>
      </trkpt>
      <trkpt lat="42.93294" lon="0.16957">
        <ele>1688.5127296684</ele>
        <time>2015-03-29T13:46:07Z</time>
      </trkpt>
      <trkpt lat="42.93292" lon="0.16963">
        <ele>1687.3042814982</ele>
        <time>2015-03-29T13:46:12Z</time>
      </trkpt>
      <trkpt lat="42.93292" lon="0.16964">
        <ele>1687.3042814982</ele>
        <time>2015-03-29T13:46:17Z</time>
      </trkpt>
      <trkpt lat="42.93289" lon="0.16976">
        <ele>1685.7326555786</ele>
        <time>2015-03-29T13:46:37Z</time>
      </trkpt>
      <trkpt lat="42.93289" lon="0.16977">
        <ele>1685.7326555786</ele>
        <time>2015-03-29T13:46:42Z</time>
      </trkpt>
      <trkpt lat="42.93288" lon="0.16982">
        <ele>1685.7326555786</ele>
        <time>2015-03-29T13:46:47Z</time>
      </trkpt>
      <trkpt lat="42.93286" lon="0.16987">
        <ele>1685.7326555786</ele>
        <time>2015-03-29T13:46:52Z</time>
      </trkpt>
      <trkpt lat="42.93284" lon="0.16994">
        <ele>1684.1815709979</ele>
        <time>2015-03-29T13:46:56Z</time>
      </trkpt>
      <trkpt lat="42.93284" lon="0.17006">
        <ele>1684.1815709979</ele>
        <time>2015-03-29T13:47:02Z</time>
      </trkpt>
      <trkpt lat="42.93283" lon="0.17014">
        <ele>1682.7616410284</ele>
        <time>2015-03-29T13:47:07Z</time>
      </trkpt>
      <trkpt lat="42.93281" lon="0.17032">
        <ele>1681.5607038704</ele>
        <time>2015-03-29T13:47:12Z</time>
      </trkpt>
      <trkpt lat="42.93281" lon="0.17041">
        <ele>1681.5607038704</ele>
        <time>2015-03-29T13:47:17Z</time>
      </trkpt>
      <trkpt lat="42.93281" lon="0.17043">
        <ele>1681.5607038704</ele>
        <time>2015-03-29T13:47:22Z</time>
      </trkpt>
      <trkpt lat="42.93282" lon="0.17041">
        <ele>1680.3858498617</ele>
        <time>2015-03-29T13:47:27Z</time>
      </trkpt>
      <trkpt lat="42.93284" lon="0.17048">
        <ele>1680.3858498617</ele>
        <time>2015-03-29T13:47:32Z</time>
      </trkpt>
      <trkpt lat="42.93284" lon="0.17061">
        <ele>1679.4474990025</ele>
        <time>2015-03-29T13:47:38Z</time>
      </trkpt>
      <trkpt lat="42.93282" lon="0.17072">
        <ele>1679.4474990025</ele>
        <time>2015-03-29T13:47:41Z</time>
      </trkpt>
      <trkpt lat="42.93281" lon="0.17082">
        <ele>1678.5221616925</ele>
        <time>2015-03-29T13:47:47Z</time>
      </trkpt>
      <trkpt lat="42.93279" lon="0.17087">
        <ele>1678.5221616925</ele>
        <time>2015-03-29T13:47:52Z</time>
      </trkpt>
      <trkpt lat="42.93278" lon="0.17089">
        <ele>1678.5221616925</ele>
        <time>2015-03-29T13:47:57Z</time>
      </trkpt>
      <trkpt lat="42.93277" lon="0.17091">
        <ele>1678.5221616925</ele>
        <time>2015-03-29T13:48:02Z</time>
      </trkpt>
      <trkpt lat="42.93277" lon="0.17095">
        <ele>1677.3308089892</ele>
        <time>2015-03-29T13:48:07Z</time>
      </trkpt>
      <trkpt lat="42.93269" lon="0.17104">
        <ele>1676.1345924204</ele>
        <time>2015-03-29T13:48:12Z</time>
      </trkpt>
      <trkpt lat="42.93268" lon="0.17109">
        <ele>1676.1345924204</ele>
        <time>2015-03-29T13:48:17Z</time>
      </trkpt>
      <trkpt lat="42.93265" lon="0.17112">
        <ele>1676.1345924204</ele>
        <time>2015-03-29T13:48:22Z</time>
      </trkpt>
      <trkpt lat="42.93264" lon="0.17122">
        <ele>1674.7721189419</ele>
        <time>2015-03-29T13:48:27Z</time>
      </trkpt>
      <trkpt lat="42.93265" lon="0.17125">
        <ele>1674.7721189419</ele>
        <time>2015-03-29T13:48:32Z</time>
      </trkpt>
      <trkpt lat="42.93265" lon="0.17128">
        <ele>1674.7721189419</ele>
        <time>2015-03-29T13:48:37Z</time>
      </trkpt>
      <trkpt lat="42.93265" lon="0.17132">
        <ele>1674.7721189419</ele>
        <time>2015-03-29T13:48:41Z</time>
      </trkpt>
      <trkpt lat="42.93266" lon="0.17136">
        <ele>1672.8062306328</ele>
        <time>2015-03-29T13:48:47Z</time>
      </trkpt>
      <trkpt lat="42.93269" lon="0.17139">
        <ele>1672.8062306328</ele>
        <time>2015-03-29T13:48:52Z</time>
      </trkpt>
      <trkpt lat="42.93266" lon="0.1714">
        <ele>1672.8062306328</ele>
        <time>2015-03-29T13:48:57Z</time>
      </trkpt>
      <trkpt lat="42.93268" lon="0.17145">
        <ele>1670.3813288882</ele>
        <time>2015-03-29T13:49:07Z</time>
      </trkpt>
      <trkpt lat="42.93269" lon="0.17149">
        <ele>1670.3813288882</ele>
        <time>2015-03-29T13:49:12Z</time>
      </trkpt>
      <trkpt lat="42.93271" lon="0.17151">
        <ele>1670.3813288882</ele>
        <time>2015-03-29T13:49:17Z</time>
      </trkpt>
      <trkpt lat="42.9327" lon="0.17154">
        <ele>1670.3813288882</ele>
        <time>2015-03-29T13:49:22Z</time>
      </trkpt>
      <trkpt lat="42.93267" lon="0.17158">
        <ele>1667.7046743315</ele>
        <time>2015-03-29T13:49:27Z</time>
      </trkpt>
      <trkpt lat="42.93266" lon="0.1716">
        <ele>1667.7046743315</ele>
        <time>2015-03-29T13:49:32Z</time>
      </trkpt>
      <trkpt lat="42.93267" lon="0.17165">
        <ele>1667.7046743315</ele>
        <time>2015-03-29T13:49:36Z</time>
      </trkpt>
      <trkpt lat="42.93265" lon="0.17173">
        <ele>1665.0700004066</ele>
        <time>2015-03-29T13:49:43Z</time>
      </trkpt>
      <trkpt lat="42.93264" lon="0.17181">
        <ele>1665.0700004066</ele>
        <time>2015-03-29T13:49:47Z</time>
      </trkpt>
      <trkpt lat="42.93263" lon="0.17202">
        <ele>1662.6773927273</ele>
        <time>2015-03-29T13:49:52Z</time>
      </trkpt>
      <trkpt lat="42.93254" lon="0.17237">
        <ele>1660.4378405397</ele>
        <time>2015-03-29T13:49:57Z</time>
      </trkpt>
      <trkpt lat="42.93247" lon="0.17262">
        <ele>1658.3549915399</ele>
        <time>2015-03-29T13:50:02Z</time>
      </trkpt>
      <trkpt lat="42.93245" lon="0.17273">
        <ele>1658.3549915399</ele>
        <time>2015-03-29T13:50:07Z</time>
      </trkpt>
      <trkpt lat="42.93244" lon="0.17277">
        <ele>1656.2589267859</ele>
        <time>2015-03-29T13:50:12Z</time>
      </trkpt>
      <trkpt lat="42.93244" lon="0.17283">
        <ele>1656.2589267859</ele>
        <time>2015-03-29T13:50:17Z</time>
      </trkpt>
      <trkpt lat="42.93243" lon="0.17289">
        <ele>1654.1796586307</ele>
        <time>2015-03-29T13:50:22Z</time>
      </trkpt>
      <trkpt lat="42.93239" lon="0.17297">
        <ele>1654.1796586307</ele>
        <time>2015-03-29T13:50:27Z</time>
      </trkpt>
      <trkpt lat="42.93237" lon="0.17304">
        <ele>1652.2602984565</ele>
        <time>2015-03-29T13:50:32Z</time>
      </trkpt>
      <trkpt lat="42.93234" lon="0.17313">
        <ele>1652.2602984565</ele>
        <time>2015-03-29T13:50:37Z</time>
      </trkpt>
      <trkpt lat="42.93227" lon="0.1733">
        <ele>1649.9269076728</ele>
        <time>2015-03-29T13:50:42Z</time>
      </trkpt>
      <trkpt lat="42.93224" lon="0.17336">
        <ele>1649.9269076728</ele>
        <time>2015-03-29T13:50:47Z</time>
      </trkpt>
      <trkpt lat="42.93221" lon="0.17341">
        <ele>1647.6144657801</ele>
        <time>2015-03-29T13:50:52Z</time>
      </trkpt>
      <trkpt lat="42.9322" lon="0.17344">
        <ele>1647.6144657801</ele>
        <time>2015-03-29T13:50:56Z</time>
      </trkpt>
      <trkpt lat="42.93218" lon="0.17349">
        <ele>1647.6144657801</ele>
        <time>2015-03-29T13:51:02Z</time>
      </trkpt>
      <trkpt lat="42.93219" lon="0.17353">
        <ele>1645.3801183012</ele>
        <time>2015-03-29T13:51:06Z</time>
      </trkpt>
      <trkpt lat="42.93218" lon="0.17359">
        <ele>1645.3801183012</ele>
        <time>2015-03-29T13:51:12Z</time>
      </trkpt>
      <trkpt lat="42.93215" lon="0.17363">
        <ele>1643.5072113881</ele>
        <time>2015-03-29T13:51:17Z</time>
      </trkpt>
      <trkpt lat="42.9321" lon="0.1737">
        <ele>1643.5072113881</ele>
        <time>2015-03-29T13:51:21Z</time>
      </trkpt>
      <trkpt lat="42.93211" lon="0.17376">
        <ele>1641.7961422589</ele>
        <time>2015-03-29T13:51:27Z</time>
      </trkpt>
      <trkpt lat="42.93212" lon="0.17379">
        <ele>1641.7961422589</ele>
        <time>2015-03-29T13:51:32Z</time>
      </trkpt>
      <trkpt lat="42.93214" lon="0.17377">
        <ele>1641.7961422589</ele>
        <time>2015-03-29T13:51:37Z</time>
      </trkpt>
      <trkpt lat="42.93209" lon="0.17384">
        <ele>1639.8597928509</ele>
        <time>2015-03-29T13:51:57Z</time>
      </trkpt>
      <trkpt lat="42.93209" lon="0.17386">
        <ele>1639.8597928509</ele>
        <time>2015-03-29T13:52:03Z</time>
      </trkpt>
      <trkpt lat="42.93206" lon="0.17399">
        <ele>1638.0318774791</ele>
        <time>2015-03-29T13:52:13Z</time>
      </trkpt>
      <trkpt lat="42.93206" lon="0.17404">
        <ele>1638.0318774791</ele>
        <time>2015-03-29T13:52:17Z</time>
      </trkpt>
      <trkpt lat="42.93207" lon="0.17412">
        <ele>1636.4483864389</ele>
        <time>2015-03-29T13:52:22Z</time>
      </trkpt>
      <trkpt lat="42.93206" lon="0.17419">
        <ele>1636.4483864389</ele>
        <time>2015-03-29T13:52:27Z</time>
      </trkpt>
      <trkpt lat="42.93205" lon="0.17423">
        <ele>1636.4483864389</ele>
        <time>2015-03-29T13:52:32Z</time>
      </trkpt>
      <trkpt lat="42.932" lon="0.17431">
        <ele>1635.0761397157</ele>
        <time>2015-03-29T13:52:38Z</time>
      </trkpt>
      <trkpt lat="42.93197" lon="0.17441">
        <ele>1635.0761397157</ele>
        <time>2015-03-29T13:52:42Z</time>
      </trkpt>
      <trkpt lat="42.93196" lon="0.17453">
        <ele>1633.9991190015</ele>
        <time>2015-03-29T13:52:47Z</time>
      </trkpt>
      <trkpt lat="42.93195" lon="0.17469">
        <ele>1633.0637608234</ele>
        <time>2015-03-29T13:52:52Z</time>
      </trkpt>
      <trkpt lat="42.93194" lon="0.17477">
        <ele>1633.0637608234</ele>
        <time>2015-03-29T13:52:57Z</time>
      </trkpt>
      <trkpt lat="42.93185" lon="0.17492">
        <ele>1632.1706519999</ele>
        <time>2015-03-29T13:53:02Z</time>
      </trkpt>
      <trkpt lat="42.93183" lon="0.17498">
        <ele>1632.1706519999</ele>
        <time>2015-03-29T13:53:07Z</time>
      </trkpt>
      <trkpt lat="42.93183" lon="0.17503">
        <ele>1632.1706519999</ele>
        <time>2015-03-29T13:53:12Z</time>
      </trkpt>
      <trkpt lat="42.93184" lon="0.17506">
        <ele>1631.2420127541</ele>
        <time>2015-03-29T13:53:17Z</time>
      </trkpt>
      <trkpt lat="42.93185" lon="0.17509">
        <ele>1631.2420127541</ele>
        <time>2015-03-29T13:53:21Z</time>
      </trkpt>
      <trkpt lat="42.93182" lon="0.17517">
        <ele>1631.2420127541</ele>
        <time>2015-03-29T13:53:27Z</time>
      </trkpt>
      <trkpt lat="42.93179" lon="0.17526">
        <ele>1630.3644415785</ele>
        <time>2015-03-29T13:53:32Z</time>
      </trkpt>
      <trkpt lat="42.93173" lon="0.17535">
        <ele>1630.3644415785</ele>
        <time>2015-03-29T13:53:37Z</time>
      </trkpt>
      <trkpt lat="42.93168" lon="0.17539">
        <ele>1629.286623321</ele>
        <time>2015-03-29T13:53:42Z</time>
      </trkpt>
      <trkpt lat="42.93168" lon="0.17539">
        <ele>1629.286623321</ele>
        <time>2015-03-29T13:53:47Z</time>
      </trkpt>
      <trkpt lat="42.93167" lon="0.17543">
        <ele>1629.286623321</ele>
        <time>2015-03-29T13:53:52Z</time>
      </trkpt>
      <trkpt lat="42.93164" lon="0.17543">
        <ele>1629.286623321</ele>
        <time>2015-03-29T13:53:57Z</time>
      </trkpt>
      <trkpt lat="42.93163" lon="0.17543">
        <ele>1629.286623321</ele>
        <time>2015-03-29T13:54:02Z</time>
      </trkpt>
      <trkpt lat="42.9316" lon="0.17544">
        <ele>1628.1510052364</ele>
        <time>2015-03-29T13:54:07Z</time>
      </trkpt>
      <trkpt lat="42.93159" lon="0.17546">
        <ele>1628.1510052364</ele>
        <time>2015-03-29T13:54:12Z</time>
      </trkpt>
      <trkpt lat="42.93159" lon="0.17547">
        <ele>1628.1510052364</ele>
        <time>2015-03-29T13:54:16Z</time>
      </trkpt>
      <trkpt lat="42.93155" lon="0.17554">
        <ele>1628.1510052364</ele>
        <time>2015-03-29T13:54:22Z</time>
      </trkpt>
      <trkpt lat="42.93153" lon="0.17559">
        <ele>1627.060963177</ele>
        <time>2015-03-29T13:54:27Z</time>
      </trkpt>
      <trkpt lat="42.93151" lon="0.17566">
        <ele>1627.060963177</ele>
        <time>2015-03-29T13:54:32Z</time>
      </trkpt>
      <trkpt lat="42.93149" lon="0.1757">
        <ele>1627.060963177</ele>
        <time>2015-03-29T13:54:37Z</time>
      </trkpt>
      <trkpt lat="42.93144" lon="0.17577">
        <ele>1626.112206105</ele>
        <time>2015-03-29T13:54:42Z</time>
      </trkpt>
      <trkpt lat="42.9314" lon="0.17587">
        <ele>1626.112206105</ele>
        <time>2015-03-29T13:54:46Z</time>
      </trkpt>
      <trkpt lat="42.93136" lon="0.17602">
        <ele>1625.3210171821</ele>
        <time>2015-03-29T13:54:52Z</time>
      </trkpt>
      <trkpt lat="42.93129" lon="0.17615">
        <ele>1624.7021006982</ele>
        <time>2015-03-29T13:54:57Z</time>
      </trkpt>
      <trkpt lat="42.93122" lon="0.17628">
        <ele>1624.1966044023</ele>
        <time>2015-03-29T13:55:02Z</time>
      </trkpt>
      <trkpt lat="42.93118" lon="0.17638">
        <ele>1624.1966044023</ele>
        <time>2015-03-29T13:55:07Z</time>
      </trkpt>
      <trkpt lat="42.93117" lon="0.17647">
        <ele>1623.8506254609</ele>
        <time>2015-03-29T13:55:12Z</time>
      </trkpt>
      <trkpt lat="42.93113" lon="0.17656">
        <ele>1623.8506254609</ele>
        <time>2015-03-29T13:55:17Z</time>
      </trkpt>
      <trkpt lat="42.93104" lon="0.17667">
        <ele>1623.6200318377</ele>
        <time>2015-03-29T13:55:21Z</time>
      </trkpt>
      <trkpt lat="42.931" lon="0.17678">
        <ele>1623.4925084965</ele>
        <time>2015-03-29T13:55:27Z</time>
      </trkpt>
      <trkpt lat="42.93096" lon="0.17688">
        <ele>1623.4925084965</ele>
        <time>2015-03-29T13:55:32Z</time>
      </trkpt>
      <trkpt lat="42.93083" lon="0.17711">
        <ele>1623.4708492516</ele>
        <time>2015-03-29T13:55:37Z</time>
      </trkpt>
      <trkpt lat="42.93073" lon="0.17725">
        <ele>1623.5574339128</ele>
        <time>2015-03-29T13:55:42Z</time>
      </trkpt>
      <trkpt lat="42.9307" lon="0.17743">
        <ele>1623.7110247758</ele>
        <time>2015-03-29T13:55:46Z</time>
      </trkpt>
      <trkpt lat="42.93061" lon="0.17769">
        <ele>1623.9509704067</ele>
        <time>2015-03-29T13:55:52Z</time>
      </trkpt>
      <trkpt lat="42.93051" lon="0.17786">
        <ele>1624.251829027</ele>
        <time>2015-03-29T13:55:57Z</time>
      </trkpt>
      <trkpt lat="42.93042" lon="0.17803">
        <ele>1624.633202861</ele>
        <time>2015-03-29T13:56:02Z</time>
      </trkpt>
      <trkpt lat="42.93029" lon="0.17826">
        <ele>1625.084324479</ele>
        <time>2015-03-29T13:56:06Z</time>
      </trkpt>
      <trkpt lat="42.93017" lon="0.17853">
        <ele>1625.6095569371</ele>
        <time>2015-03-29T13:56:12Z</time>
      </trkpt>
      <trkpt lat="42.93008" lon="0.1788">
        <ele>1626.198453265</ele>
        <time>2015-03-29T13:56:17Z</time>
      </trkpt>
      <trkpt lat="42.92997" lon="0.17904">
        <ele>1626.8412900373</ele>
        <time>2015-03-29T13:56:22Z</time>
      </trkpt>
      <trkpt lat="42.92983" lon="0.17934">
        <ele>1627.5290464291</ele>
        <time>2015-03-29T13:56:27Z</time>
      </trkpt>
      <trkpt lat="42.92977" lon="0.17949">
        <ele>1628.2533825037</ele>
        <time>2015-03-29T13:56:32Z</time>
      </trkpt>
      <trkpt lat="42.92973" lon="0.1797">
        <ele>1628.9633833586</ele>
        <time>2015-03-29T13:56:37Z</time>
      </trkpt>
      <trkpt lat="42.92969" lon="0.17978">
        <ele>1628.9633833586</ele>
        <time>2015-03-29T13:56:42Z</time>
      </trkpt>
      <trkpt lat="42.92967" lon="0.1798">
        <ele>1629.6408885896</ele>
        <time>2015-03-29T13:56:47Z</time>
      </trkpt>
      <trkpt lat="42.92968" lon="0.17981">
        <ele>1629.6408885896</ele>
        <time>2015-03-29T13:56:52Z</time>
      </trkpt>
      <trkpt lat="42.92969" lon="0.1798">
        <ele>1629.6408885896</ele>
        <time>2015-03-29T13:56:56Z</time>
      </trkpt>
      <trkpt lat="42.92973" lon="0.17981">
        <ele>1629.6408885896</ele>
        <time>2015-03-29T13:57:02Z</time>
      </trkpt>
      <trkpt lat="42.92973" lon="0.17982">
        <ele>1629.6408885896</ele>
        <time>2015-03-29T13:57:06Z</time>
      </trkpt>
      <trkpt lat="42.92976" lon="0.1798">
        <ele>1629.707283115</ele>
        <time>2015-03-29T13:57:22Z</time>
      </trkpt>
      <trkpt lat="42.92972" lon="0.17985">
        <ele>1629.707283115</ele>
        <time>2015-03-29T13:57:28Z</time>
      </trkpt>
      <trkpt lat="42.92965" lon="0.17993">
        <ele>1629.6659251138</ele>
        <time>2015-03-29T13:57:31Z</time>
      </trkpt>
      <trkpt lat="42.92964" lon="0.17998">
        <ele>1629.6659251138</ele>
        <time>2015-03-29T13:57:37Z</time>
      </trkpt>
      <trkpt lat="42.92963" lon="0.18006">
        <ele>1629.6089615516</ele>
        <time>2015-03-29T13:57:42Z</time>
      </trkpt>
      <trkpt lat="42.92963" lon="0.18012">
        <ele>1629.6089615516</ele>
        <time>2015-03-29T13:57:47Z</time>
      </trkpt>
      <trkpt lat="42.92964" lon="0.18019">
        <ele>1629.4922622154</ele>
        <time>2015-03-29T13:57:51Z</time>
      </trkpt>
      <trkpt lat="42.92966" lon="0.18026">
        <ele>1629.4922622154</ele>
        <time>2015-03-29T13:57:57Z</time>
      </trkpt>
      <trkpt lat="42.92965" lon="0.18036">
        <ele>1629.3905382629</ele>
        <time>2015-03-29T13:58:02Z</time>
      </trkpt>
      <trkpt lat="42.92955" lon="0.18052">
        <ele>1628.9551853226</ele>
        <time>2015-03-29T13:58:07Z</time>
      </trkpt>
      <trkpt lat="42.9295" lon="0.1806">
        <ele>1628.9551853226</ele>
        <time>2015-03-29T13:58:12Z</time>
      </trkpt>
      <trkpt lat="42.92944" lon="0.1807">
        <ele>1628.2245512316</ele>
        <time>2015-03-29T13:58:17Z</time>
      </trkpt>
      <trkpt lat="42.9294" lon="0.18077">
        <ele>1628.2245512316</ele>
        <time>2015-03-29T13:58:22Z</time>
      </trkpt>
      <trkpt lat="42.92934" lon="0.1809">
        <ele>1627.3792282254</ele>
        <time>2015-03-29T13:58:27Z</time>
      </trkpt>
      <trkpt lat="42.92929" lon="0.18099">
        <ele>1627.3792282254</ele>
        <time>2015-03-29T13:58:32Z</time>
      </trkpt>
      <trkpt lat="42.92908" lon="0.1812">
        <ele>1624.6702948608</ele>
        <time>2015-03-29T13:58:39Z</time>
      </trkpt>
      <trkpt lat="42.92899" lon="0.18128">
        <ele>1621.4945485404</ele>
        <time>2015-03-29T13:58:41Z</time>
      </trkpt>
      <trkpt lat="42.92892" lon="0.18132">
        <ele>1621.4945485404</ele>
        <time>2015-03-29T13:58:46Z</time>
      </trkpt>
      <trkpt lat="42.92884" lon="0.18141">
        <ele>1617.5479250971</ele>
        <time>2015-03-29T13:58:52Z</time>
      </trkpt>
      <trkpt lat="42.92879" lon="0.18146">
        <ele>1617.5479250971</ele>
        <time>2015-03-29T13:58:57Z</time>
      </trkpt>
      <trkpt lat="42.92876" lon="0.18154">
        <ele>1613.1849920306</ele>
        <time>2015-03-29T13:59:02Z</time>
      </trkpt>
      <trkpt lat="42.92875" lon="0.18152">
        <ele>1613.1849920306</ele>
        <time>2015-03-29T13:59:07Z</time>
      </trkpt>
      <trkpt lat="42.92873" lon="0.18153">
        <ele>1613.1849920306</ele>
        <time>2015-03-29T13:59:12Z</time>
      </trkpt>
      <trkpt lat="42.92872" lon="0.18154">
        <ele>1613.1849920306</ele>
        <time>2015-03-29T13:59:17Z</time>
      </trkpt>
      <trkpt lat="42.92872" lon="0.18154">
        <ele>1613.1849920306</ele>
        <time>2015-03-29T13:59:22Z</time>
      </trkpt>
      <trkpt lat="42.92882" lon="0.18148">
        <ele>1607.7554934297</ele>
        <time>2015-03-29T13:59:37Z</time>
      </trkpt>
      <trkpt lat="42.92882" lon="0.18147">
        <ele>1607.7554934297</ele>
        <time>2015-03-29T13:59:42Z</time>
      </trkpt>
      <trkpt lat="42.92874" lon="0.18154">
        <ele>1601.5966304636</ele>
        <time>2015-03-29T14:01:12Z</time>
      </trkpt>
      <trkpt lat="42.92872" lon="0.18154">
        <ele>1601.5966304636</ele>
        <time>2015-03-29T14:01:17Z</time>
      </trkpt>
      <trkpt lat="42.92868" lon="0.18163">
        <ele>1595.8010176096</ele>
        <time>2015-03-29T14:01:27Z</time>
      </trkpt>
      <trkpt lat="42.92864" lon="0.18164">
        <ele>1595.8010176096</ele>
        <time>2015-03-29T14:01:32Z</time>
      </trkpt>
      <trkpt lat="42.92863" lon="0.18162">
        <ele>1595.8010176096</ele>
        <time>2015-03-29T14:01:37Z</time>
      </trkpt>
      <trkpt lat="42.9286" lon="0.18164">
        <ele>1590.3999316057</ele>
        <time>2015-03-29T14:01:47Z</time>
      </trkpt>
      <trkpt lat="42.92858" lon="0.18166">
        <ele>1590.3999316057</ele>
        <time>2015-03-29T14:01:52Z</time>
      </trkpt>
      <trkpt lat="42.92854" lon="0.1817">
        <ele>1590.3999316057</ele>
        <time>2015-03-29T14:01:57Z</time>
      </trkpt>
      <trkpt lat="42.92849" lon="0.18174">
        <ele>1585.4643430916</ele>
        <time>2015-03-29T14:02:02Z</time>
      </trkpt>
      <trkpt lat="42.92847" lon="0.18176">
        <ele>1585.4643430916</ele>
        <time>2015-03-29T14:02:07Z</time>
      </trkpt>
      <trkpt lat="42.92844" lon="0.18181">
        <ele>1585.4643430916</ele>
        <time>2015-03-29T14:02:11Z</time>
      </trkpt>
      <trkpt lat="42.9284" lon="0.18188">
        <ele>1580.9864825972</ele>
        <time>2015-03-29T14:02:17Z</time>
      </trkpt>
      <trkpt lat="42.92839" lon="0.1819">
        <ele>1580.9864825972</ele>
        <time>2015-03-29T14:02:22Z</time>
      </trkpt>
      <trkpt lat="42.92839" lon="0.18192">
        <ele>1580.9864825972</ele>
        <time>2015-03-29T14:02:27Z</time>
      </trkpt>
      <trkpt lat="42.92838" lon="0.18196">
        <ele>1580.9864825972</ele>
        <time>2015-03-29T14:02:32Z</time>
      </trkpt>
      <trkpt lat="42.9284" lon="0.18198">
        <ele>1576.9144450331</ele>
        <time>2015-03-29T14:02:37Z</time>
      </trkpt>
      <trkpt lat="42.92839" lon="0.18202">
        <ele>1576.9144450331</ele>
        <time>2015-03-29T14:02:42Z</time>
      </trkpt>
      <trkpt lat="42.92838" lon="0.18206">
        <ele>1576.9144450331</ele>
        <time>2015-03-29T14:02:47Z</time>
      </trkpt>
      <trkpt lat="42.92837" lon="0.18208">
        <ele>1576.9144450331</ele>
        <time>2015-03-29T14:02:52Z</time>
      </trkpt>
      <trkpt lat="42.92835" lon="0.18212">
        <ele>1573.2420264617</ele>
        <time>2015-03-29T14:02:57Z</time>
      </trkpt>
      <trkpt lat="42.92834" lon="0.18216">
        <ele>1573.2420264617</ele>
        <time>2015-03-29T14:03:02Z</time>
      </trkpt>
      <trkpt lat="42.92834" lon="0.1822">
        <ele>1573.2420264617</ele>
        <time>2015-03-29T14:03:07Z</time>
      </trkpt>
      <trkpt lat="42.92834" lon="0.18222">
        <ele>1573.2420264617</ele>
        <time>2015-03-29T14:03:12Z</time>
      </trkpt>
      <trkpt lat="42.9283" lon="0.18228">
        <ele>1569.8756719807</ele>
        <time>2015-03-29T14:03:17Z</time>
      </trkpt>
      <trkpt lat="42.92828" lon="0.18234">
        <ele>1569.8756719807</ele>
        <time>2015-03-29T14:03:22Z</time>
      </trkpt>
      <trkpt lat="42.92827" lon="0.18236">
        <ele>1569.8756719807</ele>
        <time>2015-03-29T14:03:27Z</time>
      </trkpt>
      <trkpt lat="42.92826" lon="0.18245">
        <ele>1566.8717253929</ele>
        <time>2015-03-29T14:03:32Z</time>
      </trkpt>
      <trkpt lat="42.92826" lon="0.18246">
        <ele>1566.8717253929</ele>
        <time>2015-03-29T14:03:37Z</time>
      </trkpt>
      <trkpt lat="42.92825" lon="0.18249">
        <ele>1566.8717253929</ele>
        <time>2015-03-29T14:03:42Z</time>
      </trkpt>
      <trkpt lat="42.92823" lon="0.18254">
        <ele>1566.8717253929</ele>
        <time>2015-03-29T14:03:47Z</time>
      </trkpt>
      <trkpt lat="42.92821" lon="0.18257">
        <ele>1563.920866999</ele>
        <time>2015-03-29T14:03:52Z</time>
      </trkpt>
      <trkpt lat="42.92816" lon="0.18259">
        <ele>1563.920866999</ele>
        <time>2015-03-29T14:03:56Z</time>
      </trkpt>
      <trkpt lat="42.92811" lon="0.18266">
        <ele>1561.3413875662</ele>
        <time>2015-03-29T14:04:02Z</time>
      </trkpt>
      <trkpt lat="42.92807" lon="0.18272">
        <ele>1561.3413875662</ele>
        <time>2015-03-29T14:04:07Z</time>
      </trkpt>
      <trkpt lat="42.92804" lon="0.18279">
        <ele>1559.1675276737</ele>
        <time>2015-03-29T14:04:12Z</time>
      </trkpt>
      <trkpt lat="42.92801" lon="0.18285">
        <ele>1559.1675276737</ele>
        <time>2015-03-29T14:04:17Z</time>
      </trkpt>
      <trkpt lat="42.92798" lon="0.18289">
        <ele>1559.1675276737</ele>
        <time>2015-03-29T14:04:22Z</time>
      </trkpt>
      <trkpt lat="42.92796" lon="0.18292">
        <ele>1557.3575984609</ele>
        <time>2015-03-29T14:04:27Z</time>
      </trkpt>
      <trkpt lat="42.92795" lon="0.18292">
        <ele>1557.3575984609</ele>
        <time>2015-03-29T14:04:32Z</time>
      </trkpt>
      <trkpt lat="42.92795" lon="0.18293">
        <ele>1557.3575984609</ele>
        <time>2015-03-29T14:04:37Z</time>
      </trkpt>
      <trkpt lat="42.928" lon="0.18298">
        <ele>1557.3575984609</ele>
        <time>2015-03-29T14:05:37Z</time>
      </trkpt>
      <trkpt lat="42.92799" lon="0.18302">
        <ele>1555.7132183589</ele>
        <time>2015-03-29T14:05:42Z</time>
      </trkpt>
      <trkpt lat="42.928" lon="0.18307">
        <ele>1555.7132183589</ele>
        <time>2015-03-29T14:05:46Z</time>
      </trkpt>
      <trkpt lat="42.92801" lon="0.18318">
        <ele>1554.3093139732</ele>
        <time>2015-03-29T14:05:52Z</time>
      </trkpt>
      <trkpt lat="42.92801" lon="0.18323">
        <ele>1554.3093139732</ele>
        <time>2015-03-29T14:05:57Z</time>
      </trkpt>
      <trkpt lat="42.92799" lon="0.18332">
        <ele>1553.113568381</ele>
        <time>2015-03-29T14:06:02Z</time>
      </trkpt>
      <trkpt lat="42.92797" lon="0.18348">
        <ele>1552.1385159879</ele>
        <time>2015-03-29T14:06:07Z</time>
      </trkpt>
      <trkpt lat="42.92796" lon="0.18359">
        <ele>1552.1385159879</ele>
        <time>2015-03-29T14:06:12Z</time>
      </trkpt>
      <trkpt lat="42.92793" lon="0.18373">
        <ele>1551.3661731735</ele>
        <time>2015-03-29T14:06:17Z</time>
      </trkpt>
      <trkpt lat="42.92786" lon="0.18394">
        <ele>1550.7647588428</ele>
        <time>2015-03-29T14:06:22Z</time>
      </trkpt>
      <trkpt lat="42.92781" lon="0.18406">
        <ele>1550.2465815613</ele>
        <time>2015-03-29T14:06:27Z</time>
      </trkpt>
      <trkpt lat="42.92779" lon="0.18407">
        <ele>1550.2465815613</ele>
        <time>2015-03-29T14:06:32Z</time>
      </trkpt>
      <trkpt lat="42.9278" lon="0.18406">
        <ele>1550.2465815613</ele>
        <time>2015-03-29T14:06:36Z</time>
      </trkpt>
      <trkpt lat="42.92777" lon="0.18411">
        <ele>1549.5859437019</ele>
        <time>2015-03-29T14:06:48Z</time>
      </trkpt>
      <trkpt lat="42.9277" lon="0.1842">
        <ele>1549.006374518</ele>
        <time>2015-03-29T14:06:51Z</time>
      </trkpt>
      <trkpt lat="42.92762" lon="0.1843">
        <ele>1548.4985195625</ele>
        <time>2015-03-29T14:06:57Z</time>
      </trkpt>
      <trkpt lat="42.92756" lon="0.18439">
        <ele>1548.0966904199</ele>
        <time>2015-03-29T14:07:02Z</time>
      </trkpt>
      <trkpt lat="42.92747" lon="0.18443">
        <ele>1547.7891093328</ele>
        <time>2015-03-29T14:07:07Z</time>
      </trkpt>
      <trkpt lat="42.92737" lon="0.1845">
        <ele>1547.6078096685</ele>
        <time>2015-03-29T14:07:12Z</time>
      </trkpt>
      <trkpt lat="42.92725" lon="0.18461">
        <ele>1547.5532869797</ele>
        <time>2015-03-29T14:07:17Z</time>
      </trkpt>
      <trkpt lat="42.92718" lon="0.18466">
        <ele>1547.5532869797</ele>
        <time>2015-03-29T14:07:22Z</time>
      </trkpt>
      <trkpt lat="42.92711" lon="0.18471">
        <ele>1547.5247733263</ele>
        <time>2015-03-29T14:07:27Z</time>
      </trkpt>
      <trkpt lat="42.92708" lon="0.18473">
        <ele>1547.5247733263</ele>
        <time>2015-03-29T14:07:31Z</time>
      </trkpt>
      <trkpt lat="42.92703" lon="0.18478">
        <ele>1547.5441396422</ele>
        <time>2015-03-29T14:07:37Z</time>
      </trkpt>
      <trkpt lat="42.92697" lon="0.18488">
        <ele>1547.5441396422</ele>
        <time>2015-03-29T14:07:42Z</time>
      </trkpt>
      <trkpt lat="42.92693" lon="0.18497">
        <ele>1547.6027278781</ele>
        <time>2015-03-29T14:07:47Z</time>
      </trkpt>
      <trkpt lat="42.92687" lon="0.1851">
        <ele>1547.6780419511</ele>
        <time>2015-03-29T14:07:52Z</time>
      </trkpt>
      <trkpt lat="42.92681" lon="0.18521">
        <ele>1547.835717358</ele>
        <time>2015-03-29T14:07:56Z</time>
      </trkpt>
      <trkpt lat="42.92675" lon="0.18531">
        <ele>1548.0499409892</ele>
        <time>2015-03-29T14:08:01Z</time>
      </trkpt>
      <trkpt lat="42.9267" lon="0.18539">
        <ele>1548.0499409892</ele>
        <time>2015-03-29T14:08:10Z</time>
      </trkpt>
      <trkpt lat="42.92654" lon="0.18571">
        <ele>1548.2102518897</ele>
        <time>2015-03-29T14:08:17Z</time>
      </trkpt>
      <trkpt lat="42.92646" lon="0.18589">
        <ele>1548.3874792098</ele>
        <time>2015-03-29T14:08:21Z</time>
      </trkpt>
      <trkpt lat="42.92639" lon="0.18607">
        <ele>1548.6040682705</ele>
        <time>2015-03-29T14:08:26Z</time>
      </trkpt>
      <trkpt lat="42.92634" lon="0.18615">
        <ele>1548.6040682705</ele>
        <time>2015-03-29T14:08:32Z</time>
      </trkpt>
      <trkpt lat="42.92633" lon="0.18619">
        <ele>1548.837579921</ele>
        <time>2015-03-29T14:08:37Z</time>
      </trkpt>
      <trkpt lat="42.92631" lon="0.18623">
        <ele>1548.837579921</ele>
        <time>2015-03-29T14:08:42Z</time>
      </trkpt>
      <trkpt lat="42.92633" lon="0.18624">
        <ele>1548.837579921</ele>
        <time>2015-03-29T14:08:47Z</time>
      </trkpt>
      <trkpt lat="42.92637" lon="0.18626">
        <ele>1548.9231797972</ele>
        <time>2015-03-29T14:08:52Z</time>
      </trkpt>
      <trkpt lat="42.92634" lon="0.1864">
        <ele>1548.9536670533</ele>
        <time>2015-03-29T14:08:57Z</time>
      </trkpt>
      <trkpt lat="42.9263" lon="0.18646">
        <ele>1548.9536670533</ele>
        <time>2015-03-29T14:09:01Z</time>
      </trkpt>
      <trkpt lat="42.92629" lon="0.18649">
        <ele>1548.9720708688</ele>
        <time>2015-03-29T14:09:07Z</time>
      </trkpt>
      <trkpt lat="42.92626" lon="0.18652">
        <ele>1548.9720708688</ele>
        <time>2015-03-29T14:09:12Z</time>
      </trkpt>
      <trkpt lat="42.92619" lon="0.18659">
        <ele>1548.9031337069</ele>
        <time>2015-03-29T14:09:17Z</time>
      </trkpt>
      <trkpt lat="42.92613" lon="0.18666">
        <ele>1548.9031337069</ele>
        <time>2015-03-29T14:09:22Z</time>
      </trkpt>
      <trkpt lat="42.9261" lon="0.18668">
        <ele>1548.7495584449</ele>
        <time>2015-03-29T14:09:27Z</time>
      </trkpt>
      <trkpt lat="42.9261" lon="0.18674">
        <ele>1548.7495584449</ele>
        <time>2015-03-29T14:09:32Z</time>
      </trkpt>
      <trkpt lat="42.92611" lon="0.1868">
        <ele>1548.7495584449</ele>
        <time>2015-03-29T14:09:37Z</time>
      </trkpt>
      <trkpt lat="42.92612" lon="0.18683">
        <ele>1548.5142194023</ele>
        <time>2015-03-29T14:09:42Z</time>
      </trkpt>
      <trkpt lat="42.92613" lon="0.18683">
        <ele>1548.5142194023</ele>
        <time>2015-03-29T14:09:47Z</time>
      </trkpt>
      <trkpt lat="42.92614" lon="0.18687">
        <ele>1548.5142194023</ele>
        <time>2015-03-29T14:09:52Z</time>
      </trkpt>
      <trkpt lat="42.92615" lon="0.18691">
        <ele>1548.5142194023</ele>
        <time>2015-03-29T14:09:57Z</time>
      </trkpt>
      <trkpt lat="42.92613" lon="0.18698">
        <ele>1548.3586642653</ele>
        <time>2015-03-29T14:10:02Z</time>
      </trkpt>
      <trkpt lat="42.92612" lon="0.18704">
        <ele>1548.3586642653</ele>
        <time>2015-03-29T14:10:07Z</time>
      </trkpt>
      <trkpt lat="42.92608" lon="0.18714">
        <ele>1548.1874930763</ele>
        <time>2015-03-29T14:10:12Z</time>
      </trkpt>
      <trkpt lat="42.92609" lon="0.18722">
        <ele>1548.1874930763</ele>
        <time>2015-03-29T14:10:17Z</time>
      </trkpt>
      <trkpt lat="42.92611" lon="0.18724">
        <ele>1548.1874930763</ele>
        <time>2015-03-29T14:10:21Z</time>
      </trkpt>
      <trkpt lat="42.92607" lon="0.18736">
        <ele>1548.0998337273</ele>
        <time>2015-03-29T14:10:27Z</time>
      </trkpt>
      <trkpt lat="42.92602" lon="0.18746">
        <ele>1548.0998337273</ele>
        <time>2015-03-29T14:10:32Z</time>
      </trkpt>
      <trkpt lat="42.92606" lon="0.18748">
        <ele>1548.0865507129</ele>
        <time>2015-03-29T14:10:37Z</time>
      </trkpt>
      <trkpt lat="42.92606" lon="0.18752">
        <ele>1548.0865507129</ele>
        <time>2015-03-29T14:10:42Z</time>
      </trkpt>
      <trkpt lat="42.9261" lon="0.18758">
        <ele>1548.0865507129</ele>
        <time>2015-03-29T14:10:46Z</time>
      </trkpt>
      <trkpt lat="42.92615" lon="0.18768">
        <ele>1547.994989332</ele>
        <time>2015-03-29T14:10:52Z</time>
      </trkpt>
      <trkpt lat="42.92614" lon="0.18769">
        <ele>1547.994989332</ele>
        <time>2015-03-29T14:10:57Z</time>
      </trkpt>
      <trkpt lat="42.92614" lon="0.18776">
        <ele>1547.994989332</ele>
        <time>2015-03-29T14:11:02Z</time>
      </trkpt>
      <trkpt lat="42.92613" lon="0.18775">
        <ele>1547.994989332</ele>
        <time>2015-03-29T14:11:07Z</time>
      </trkpt>
      <trkpt lat="42.92601" lon="0.18789">
        <ele>1547.2373109967</ele>
        <time>2015-03-29T14:11:17Z</time>
      </trkpt>
      <trkpt lat="42.92603" lon="0.18789">
        <ele>1547.2373109967</ele>
        <time>2015-03-29T14:11:22Z</time>
      </trkpt>
      <trkpt lat="42.92603" lon="0.18791">
        <ele>1547.2373109967</ele>
        <time>2015-03-29T14:11:26Z</time>
      </trkpt>
      <trkpt lat="42.92604" lon="0.18791">
        <ele>1547.2373109967</ele>
        <time>2015-03-29T14:11:32Z</time>
      </trkpt>
      <trkpt lat="42.92602" lon="0.18794">
        <ele>1547.2373109967</ele>
        <time>2015-03-29T14:11:37Z</time>
      </trkpt>
      <trkpt lat="42.926" lon="0.18794">
        <ele>1547.2373109967</ele>
        <time>2015-03-29T14:11:42Z</time>
      </trkpt>
      <trkpt lat="42.92602" lon="0.18804">
        <ele>1545.8905289332</ele>
        <time>2015-03-29T14:11:47Z</time>
      </trkpt>
      <trkpt lat="42.92601" lon="0.18803">
        <ele>1545.8905289332</ele>
        <time>2015-03-29T14:11:52Z</time>
      </trkpt>
      <trkpt lat="42.92595" lon="0.1881">
        <ele>1544.1142338505</ele>
        <time>2015-03-29T14:12:07Z</time>
      </trkpt>
      <trkpt lat="42.92595" lon="0.18815">
        <ele>1544.1142338505</ele>
        <time>2015-03-29T14:12:12Z</time>
      </trkpt>
      <trkpt lat="42.92602" lon="0.18819">
        <ele>1542.0576026013</ele>
        <time>2015-03-29T14:12:17Z</time>
      </trkpt>
      <trkpt lat="42.92606" lon="0.18827">
        <ele>1542.0576026013</ele>
        <time>2015-03-29T14:12:22Z</time>
      </trkpt>
      <trkpt lat="42.92612" lon="0.18839">
        <ele>1539.7732639223</ele>
        <time>2015-03-29T14:12:27Z</time>
      </trkpt>
      <trkpt lat="42.92618" lon="0.1885">
        <ele>1537.4836274425</ele>
        <time>2015-03-29T14:12:31Z</time>
      </trkpt>
      <trkpt lat="42.92626" lon="0.18866">
        <ele>1535.2651379704</ele>
        <time>2015-03-29T14:12:37Z</time>
      </trkpt>
      <trkpt lat="42.92633" lon="0.18887">
        <ele>1533.1308232477</ele>
        <time>2015-03-29T14:12:42Z</time>
      </trkpt>
      <trkpt lat="42.92634" lon="0.18899">
        <ele>1533.1308232477</ele>
        <time>2015-03-29T14:12:47Z</time>
      </trkpt>
      <trkpt lat="42.92634" lon="0.18917">
        <ele>1531.049312343</ele>
        <time>2015-03-29T14:12:52Z</time>
      </trkpt>
      <trkpt lat="42.92635" lon="0.18929">
        <ele>1531.049312343</ele>
        <time>2015-03-29T14:12:57Z</time>
      </trkpt>
      <trkpt lat="42.92631" lon="0.18944">
        <ele>1528.8617049354</ele>
        <time>2015-03-29T14:13:02Z</time>
      </trkpt>
      <trkpt lat="42.92629" lon="0.18957">
        <ele>1526.7092954523</ele>
        <time>2015-03-29T14:13:08Z</time>
      </trkpt>
      <trkpt lat="42.92628" lon="0.18967">
        <ele>1526.7092954523</ele>
        <time>2015-03-29T14:13:11Z</time>
      </trkpt>
      <trkpt lat="42.9262" lon="0.18985">
        <ele>1524.2761458633</ele>
        <time>2015-03-29T14:13:18Z</time>
      </trkpt>
      <trkpt lat="42.92613" lon="0.18995">
        <ele>1521.9332048738</ele>
        <time>2015-03-29T14:13:22Z</time>
      </trkpt>
      <trkpt lat="42.92604" lon="0.19009">
        <ele>1519.649197977</ele>
        <time>2015-03-29T14:13:27Z</time>
      </trkpt>
      <trkpt lat="42.92602" lon="0.19024">
        <ele>1517.3949413788</ele>
        <time>2015-03-29T14:13:32Z</time>
      </trkpt>
      <trkpt lat="42.92602" lon="0.19036">
        <ele>1517.3949413788</ele>
        <time>2015-03-29T14:13:36Z</time>
      </trkpt>
      <trkpt lat="42.92604" lon="0.19047">
        <ele>1514.8118049489</ele>
        <time>2015-03-29T14:13:42Z</time>
      </trkpt>
      <trkpt lat="42.92602" lon="0.19055">
        <ele>1514.8118049489</ele>
        <time>2015-03-29T14:13:47Z</time>
      </trkpt>
      <trkpt lat="42.92602" lon="0.19055">
        <ele>1514.8118049489</ele>
        <time>2015-03-29T14:13:51Z</time>
      </trkpt>
      <trkpt lat="42.92602" lon="0.19066">
        <ele>1511.8998211097</ele>
        <time>2015-03-29T14:13:57Z</time>
      </trkpt>
      <trkpt lat="42.92602" lon="0.19071">
        <ele>1511.8998211097</ele>
        <time>2015-03-29T14:14:02Z</time>
      </trkpt>
      <trkpt lat="42.92601" lon="0.19076">
        <ele>1511.8998211097</ele>
        <time>2015-03-29T14:14:07Z</time>
      </trkpt>
      <trkpt lat="42.92599" lon="0.19081">
        <ele>1508.5013492463</ele>
        <time>2015-03-29T14:14:12Z</time>
      </trkpt>
      <trkpt lat="42.92597" lon="0.19083">
        <ele>1508.5013492463</ele>
        <time>2015-03-29T14:14:17Z</time>
      </trkpt>
      <trkpt lat="42.92596" lon="0.19084">
        <ele>1508.5013492463</ele>
        <time>2015-03-29T14:14:22Z</time>
      </trkpt>
      <trkpt lat="42.92589" lon="0.19096">
        <ele>1504.2698543746</ele>
        <time>2015-03-29T14:14:32Z</time>
      </trkpt>
      <trkpt lat="42.92588" lon="0.19095">
        <ele>1504.2698543746</ele>
        <time>2015-03-29T14:14:37Z</time>
      </trkpt>
      <trkpt lat="42.92588" lon="0.19096">
        <ele>1504.2698543746</ele>
        <time>2015-03-29T14:14:53Z</time>
      </trkpt>
      <trkpt lat="42.92582" lon="0.19087">
        <ele>1498.1515259752</ele>
        <time>2015-03-29T14:15:02Z</time>
      </trkpt>
      <trkpt lat="42.92582" lon="0.19087">
        <ele>1498.1515259752</ele>
        <time>2015-03-29T14:15:07Z</time>
      </trkpt>
      <trkpt lat="42.92585" lon="0.1908">
        <ele>1498.1515259752</ele>
        <time>2015-03-29T14:15:52Z</time>
      </trkpt>
      <trkpt lat="42.92585" lon="0.1908">
        <ele>1498.1515259752</ele>
        <time>2015-03-29T14:16:12Z</time>
      </trkpt>
      <trkpt lat="42.92585" lon="0.19082">
        <ele>1498.1515259752</ele>
        <time>2015-03-29T14:16:22Z</time>
      </trkpt>
      <trkpt lat="42.92587" lon="0.19087">
        <ele>1489.910098465</ele>
        <time>2015-03-29T14:16:37Z</time>
      </trkpt>
      <trkpt lat="42.92588" lon="0.19091">
        <ele>1489.910098465</ele>
        <time>2015-03-29T14:16:42Z</time>
      </trkpt>
      <trkpt lat="42.92587" lon="0.19094">
        <ele>1489.910098465</ele>
        <time>2015-03-29T14:16:47Z</time>
      </trkpt>
      <trkpt lat="42.92586" lon="0.19096">
        <ele>1489.910098465</ele>
        <time>2015-03-29T14:16:52Z</time>
      </trkpt>
      <trkpt lat="42.92587" lon="0.19097">
        <ele>1489.910098465</ele>
        <time>2015-03-29T14:16:57Z</time>
      </trkpt>
      <trkpt lat="42.92586" lon="0.19095">
        <ele>1482.0993933927</ele>
        <time>2015-03-29T14:17:02Z</time>
      </trkpt>
      <trkpt lat="42.92584" lon="0.19099">
        <ele>1482.0993933927</ele>
        <time>2015-03-29T14:17:07Z</time>
      </trkpt>
      <trkpt lat="42.9258" lon="0.19111">
        <ele>1475.1387259265</ele>
        <time>2015-03-29T14:17:12Z</time>
      </trkpt>
      <trkpt lat="42.9258" lon="0.19108">
        <ele>1475.1387259265</ele>
        <time>2015-03-29T14:17:17Z</time>
      </trkpt>
      <trkpt lat="42.92577" lon="0.19107">
        <ele>1475.1387259265</ele>
        <time>2015-03-29T14:17:22Z</time>
      </trkpt>
      <trkpt lat="42.92577" lon="0.19109">
        <ele>1475.1387259265</ele>
        <time>2015-03-29T14:17:27Z</time>
      </trkpt>
      <trkpt lat="42.92578" lon="0.19111">
        <ele>1475.1387259265</ele>
        <time>2015-03-29T14:17:32Z</time>
      </trkpt>
      <trkpt lat="42.9258" lon="0.19115">
        <ele>1468.8519590859</ele>
        <time>2015-03-29T14:17:37Z</time>
      </trkpt>
      <trkpt lat="42.92579" lon="0.19119">
        <ele>1468.8519590859</ele>
        <time>2015-03-29T14:17:42Z</time>
      </trkpt>
      <trkpt lat="42.92579" lon="0.19121">
        <ele>1468.8519590859</ele>
        <time>2015-03-29T14:17:47Z</time>
      </trkpt>
      <trkpt lat="42.92575" lon="0.19127">
        <ele>1463.0593305603</ele>
        <time>2015-03-29T14:17:52Z</time>
      </trkpt>
      <trkpt lat="42.92574" lon="0.19134">
        <ele>1463.0593305603</ele>
        <time>2015-03-29T14:17:57Z</time>
      </trkpt>
      <trkpt lat="42.92573" lon="0.1914">
        <ele>1457.8520117567</ele>
        <time>2015-03-29T14:18:01Z</time>
      </trkpt>
      <trkpt lat="42.92569" lon="0.19149">
        <ele>1457.8520117567</ele>
        <time>2015-03-29T14:18:07Z</time>
      </trkpt>
      <trkpt lat="42.92565" lon="0.19159">
        <ele>1453.2548900318</ele>
        <time>2015-03-29T14:18:12Z</time>
      </trkpt>
      <trkpt lat="42.92562" lon="0.19162">
        <ele>1453.2548900318</ele>
        <time>2015-03-29T14:18:17Z</time>
      </trkpt>
      <trkpt lat="42.92558" lon="0.19168">
        <ele>1449.101659938</ele>
        <time>2015-03-29T14:18:22Z</time>
      </trkpt>
      <trkpt lat="42.92555" lon="0.19175">
        <ele>1449.101659938</ele>
        <time>2015-03-29T14:18:27Z</time>
      </trkpt>
      <trkpt lat="42.92555" lon="0.19184">
        <ele>1445.3231437002</ele>
        <time>2015-03-29T14:18:32Z</time>
      </trkpt>
      <trkpt lat="42.92555" lon="0.19195">
        <ele>1445.3231437002</ele>
        <time>2015-03-29T14:18:37Z</time>
      </trkpt>
      <trkpt lat="42.92555" lon="0.192">
        <ele>1441.8106530985</ele>
        <time>2015-03-29T14:18:42Z</time>
      </trkpt>
      <trkpt lat="42.92555" lon="0.19205">
        <ele>1441.8106530985</ele>
        <time>2015-03-29T14:18:47Z</time>
      </trkpt>
      <trkpt lat="42.92555" lon="0.19205">
        <ele>1441.8106530985</ele>
        <time>2015-03-29T14:18:52Z</time>
      </trkpt>
      <trkpt lat="42.92556" lon="0.19212">
        <ele>1441.8106530985</ele>
        <time>2015-03-29T14:18:57Z</time>
      </trkpt>
      <trkpt lat="42.92556" lon="0.19214">
        <ele>1438.4480256475</ele>
        <time>2015-03-29T14:19:04Z</time>
      </trkpt>
      <trkpt lat="42.92559" lon="0.19217">
        <ele>1438.4480256475</ele>
        <time>2015-03-29T14:19:06Z</time>
      </trkpt>
      <trkpt lat="42.92558" lon="0.19222">
        <ele>1438.4480256475</ele>
        <time>2015-03-29T14:19:12Z</time>
      </trkpt>
      <trkpt lat="42.92556" lon="0.19228">
        <ele>1435.3863203928</ele>
        <time>2015-03-29T14:19:17Z</time>
      </trkpt>
      <trkpt lat="42.92556" lon="0.19233">
        <ele>1435.3863203928</ele>
        <time>2015-03-29T14:19:22Z</time>
      </trkpt>
      <trkpt lat="42.92554" lon="0.19243">
        <ele>1432.6779095779</ele>
        <time>2015-03-29T14:19:27Z</time>
      </trkpt>
      <trkpt lat="42.92553" lon="0.1925">
        <ele>1432.6779095779</ele>
        <time>2015-03-29T14:19:32Z</time>
      </trkpt>
      <trkpt lat="42.92553" lon="0.19251">
        <ele>1432.6779095779</ele>
        <time>2015-03-29T14:19:37Z</time>
      </trkpt>
      <trkpt lat="42.92549" lon="0.1925">
        <ele>1430.2259510146</ele>
        <time>2015-03-29T14:19:42Z</time>
      </trkpt>
      <trkpt lat="42.92543" lon="0.19251">
        <ele>1430.2259510146</ele>
        <time>2015-03-29T14:19:47Z</time>
      </trkpt>
      <trkpt lat="42.92537" lon="0.19251">
        <ele>1428.1703265515</ele>
        <time>2015-03-29T14:19:52Z</time>
      </trkpt>
      <trkpt lat="42.92534" lon="0.19243">
        <ele>1428.1703265515</ele>
        <time>2015-03-29T14:19:57Z</time>
      </trkpt>
      <trkpt lat="42.92532" lon="0.19238">
        <ele>1426.4663676206</ele>
        <time>2015-03-29T14:20:02Z</time>
      </trkpt>
      <trkpt lat="42.92529" lon="0.19235">
        <ele>1426.4663676206</ele>
        <time>2015-03-29T14:20:07Z</time>
      </trkpt>
      <trkpt lat="42.92526" lon="0.19232">
        <ele>1426.4663676206</ele>
        <time>2015-03-29T14:20:12Z</time>
      </trkpt>
      <trkpt lat="42.92524" lon="0.1923">
        <ele>1425.0138472507</ele>
        <time>2015-03-29T14:20:17Z</time>
      </trkpt>
      <trkpt lat="42.92521" lon="0.19229">
        <ele>1425.0138472507</ele>
        <time>2015-03-29T14:20:22Z</time>
      </trkpt>
      <trkpt lat="42.92518" lon="0.1923">
        <ele>1425.0138472507</ele>
        <time>2015-03-29T14:20:27Z</time>
      </trkpt>
      <trkpt lat="42.92514" lon="0.19228">
        <ele>1423.6901870287</ele>
        <time>2015-03-29T14:20:32Z</time>
      </trkpt>
      <trkpt lat="42.92508" lon="0.19232">
        <ele>1423.6901870287</ele>
        <time>2015-03-29T14:20:37Z</time>
      </trkpt>
      <trkpt lat="42.92507" lon="0.19234">
        <ele>1423.6901870287</ele>
        <time>2015-03-29T14:20:42Z</time>
      </trkpt>
      <trkpt lat="42.92506" lon="0.19237">
        <ele>1422.2515879456</ele>
        <time>2015-03-29T14:20:46Z</time>
      </trkpt>
      <trkpt lat="42.92504" lon="0.19246">
        <ele>1422.2515879456</ele>
        <time>2015-03-29T14:20:53Z</time>
      </trkpt>
      <trkpt lat="42.925" lon="0.19255">
        <ele>1421.00555353</ele>
        <time>2015-03-29T14:20:56Z</time>
      </trkpt>
      <trkpt lat="42.925" lon="0.19262">
        <ele>1421.00555353</ele>
        <time>2015-03-29T14:21:02Z</time>
      </trkpt>
      <trkpt lat="42.92499" lon="0.19264">
        <ele>1421.00555353</ele>
        <time>2015-03-29T14:21:07Z</time>
      </trkpt>
      <trkpt lat="42.92498" lon="0.19273">
        <ele>1419.8760621536</ele>
        <time>2015-03-29T14:21:12Z</time>
      </trkpt>
      <trkpt lat="42.92495" lon="0.19284">
        <ele>1419.8760621536</ele>
        <time>2015-03-29T14:21:17Z</time>
      </trkpt>
      <trkpt lat="42.92497" lon="0.19289">
        <ele>1418.9651871972</ele>
        <time>2015-03-29T14:21:22Z</time>
      </trkpt>
      <trkpt lat="42.92497" lon="0.19296">
        <ele>1418.9651871972</ele>
        <time>2015-03-29T14:21:27Z</time>
      </trkpt>
      <trkpt lat="42.92498" lon="0.193">
        <ele>1418.9651871972</ele>
        <time>2015-03-29T14:21:32Z</time>
      </trkpt>
      <trkpt lat="42.92497" lon="0.193">
        <ele>1418.1506493911</ele>
        <time>2015-03-29T14:21:37Z</time>
      </trkpt>
      <trkpt lat="42.925" lon="0.193">
        <ele>1418.1506493911</ele>
        <time>2015-03-29T14:21:42Z</time>
      </trkpt>
      <trkpt lat="42.92501" lon="0.19301">
        <ele>1418.1506493911</ele>
        <time>2015-03-29T14:21:47Z</time>
      </trkpt>
      <trkpt lat="42.92505" lon="0.19305">
        <ele>1417.4052954706</ele>
        <time>2015-03-29T14:21:51Z</time>
      </trkpt>
      <trkpt lat="42.92511" lon="0.19308">
        <ele>1417.4052954706</ele>
        <time>2015-03-29T14:21:57Z</time>
      </trkpt>
      <trkpt lat="42.92511" lon="0.19313">
        <ele>1416.7902074541</ele>
        <time>2015-03-29T14:22:02Z</time>
      </trkpt>
      <trkpt lat="42.92511" lon="0.19322">
        <ele>1416.7902074541</ele>
        <time>2015-03-29T14:22:07Z</time>
      </trkpt>
      <trkpt lat="42.92509" lon="0.19332">
        <ele>1416.3183700843</ele>
        <time>2015-03-29T14:22:12Z</time>
      </trkpt>
      <trkpt lat="42.9251" lon="0.19337">
        <ele>1416.3183700843</ele>
        <time>2015-03-29T14:22:17Z</time>
      </trkpt>
      <trkpt lat="42.92512" lon="0.19344">
        <ele>1415.9149541208</ele>
        <time>2015-03-29T14:22:22Z</time>
      </trkpt>
      <trkpt lat="42.92514" lon="0.19351">
        <ele>1415.9149541208</ele>
        <time>2015-03-29T14:22:27Z</time>
      </trkpt>
      <trkpt lat="42.92516" lon="0.19357">
        <ele>1415.539285073</ele>
        <time>2015-03-29T14:22:32Z</time>
      </trkpt>
      <trkpt lat="42.92516" lon="0.19363">
        <ele>1415.539285073</ele>
        <time>2015-03-29T14:22:37Z</time>
      </trkpt>
      <trkpt lat="42.92518" lon="0.19368">
        <ele>1415.539285073</ele>
        <time>2015-03-29T14:22:41Z</time>
      </trkpt>
      <trkpt lat="42.92521" lon="0.19375">
        <ele>1415.2256999929</ele>
        <time>2015-03-29T14:22:47Z</time>
      </trkpt>
      <trkpt lat="42.92519" lon="0.19386">
        <ele>1415.2256999929</ele>
        <time>2015-03-29T14:22:52Z</time>
      </trkpt>
      <trkpt lat="42.9252" lon="0.19397">
        <ele>1415.0635472527</ele>
        <time>2015-03-29T14:22:57Z</time>
      </trkpt>
      <trkpt lat="42.92519" lon="0.19407">
        <ele>1415.0635472527</ele>
        <time>2015-03-29T14:23:04Z</time>
      </trkpt>
      <trkpt lat="42.92519" lon="0.19411">
        <ele>1415.0343892204</ele>
        <time>2015-03-29T14:23:06Z</time>
      </trkpt>
      <trkpt lat="42.92514" lon="0.19429">
        <ele>1414.9911654633</ele>
        <time>2015-03-29T14:23:13Z</time>
      </trkpt>
      <trkpt lat="42.92508" lon="0.19441">
        <ele>1415.0571691524</ele>
        <time>2015-03-29T14:23:17Z</time>
      </trkpt>
      <trkpt lat="42.9251" lon="0.19438">
        <ele>1415.0571691524</ele>
        <time>2015-03-29T14:23:22Z</time>
      </trkpt>
      <trkpt lat="42.92507" lon="0.19442">
        <ele>1415.0571691524</ele>
        <time>2015-03-29T14:23:27Z</time>
      </trkpt>
      <trkpt lat="42.92502" lon="0.19447">
        <ele>1415.3464557087</ele>
        <time>2015-03-29T14:23:32Z</time>
      </trkpt>
      <trkpt lat="42.92502" lon="0.19447">
        <ele>1415.3464557087</ele>
        <time>2015-03-29T14:23:37Z</time>
      </trkpt>
      <trkpt lat="42.92498" lon="0.19464">
        <ele>1415.7336375645</ele>
        <time>2015-03-29T14:23:42Z</time>
      </trkpt>
      <trkpt lat="42.92496" lon="0.19467">
        <ele>1415.7336375645</ele>
        <time>2015-03-29T14:23:47Z</time>
      </trkpt>
      <trkpt lat="42.92498" lon="0.19472">
        <ele>1415.7336375645</ele>
        <time>2015-03-29T14:23:52Z</time>
      </trkpt>
      <trkpt lat="42.92498" lon="0.19473">
        <ele>1415.7336375645</ele>
        <time>2015-03-29T14:23:57Z</time>
      </trkpt>
      <trkpt lat="42.92495" lon="0.19483">
        <ele>1415.8718381086</ele>
        <time>2015-03-29T14:24:02Z</time>
      </trkpt>
      <trkpt lat="42.92494" lon="0.19494">
        <ele>1415.8718381086</ele>
        <time>2015-03-29T14:24:07Z</time>
      </trkpt>
      <trkpt lat="42.92492" lon="0.19499">
        <ele>1415.9737362247</ele>
        <time>2015-03-29T14:24:16Z</time>
      </trkpt>
      <trkpt lat="42.92494" lon="0.195">
        <ele>1415.9737362247</ele>
        <time>2015-03-29T14:24:22Z</time>
      </trkpt>
      <trkpt lat="42.92495" lon="0.195">
        <ele>1415.9737362247</ele>
        <time>2015-03-29T14:24:27Z</time>
      </trkpt>
      <trkpt lat="42.92493" lon="0.19502">
        <ele>1415.9737362247</ele>
        <time>2015-03-29T14:24:32Z</time>
      </trkpt>
      <trkpt lat="42.92485" lon="0.19509">
        <ele>1415.6602186923</ele>
        <time>2015-03-29T14:24:46Z</time>
      </trkpt>
      <trkpt lat="42.92485" lon="0.19509">
        <ele>1415.6602186923</ele>
        <time>2015-03-29T14:24:51Z</time>
      </trkpt>
      <trkpt lat="42.92485" lon="0.19511">
        <ele>1415.6602186923</ele>
        <time>2015-03-29T14:24:58Z</time>
      </trkpt>
      <trkpt lat="42.92486" lon="0.19512">
        <ele>1415.6602186923</ele>
        <time>2015-03-29T14:25:02Z</time>
      </trkpt>
      <trkpt lat="42.92484" lon="0.19517">
        <ele>1415.6602186923</ele>
        <time>2015-03-29T14:25:12Z</time>
      </trkpt>
      <trkpt lat="42.92481" lon="0.1952">
        <ele>1414.7110673934</ele>
        <time>2015-03-29T14:25:17Z</time>
      </trkpt>
      <trkpt lat="42.92478" lon="0.1952">
        <ele>1414.7110673934</ele>
        <time>2015-03-29T14:25:22Z</time>
      </trkpt>
      <trkpt lat="42.92477" lon="0.19522">
        <ele>1414.7110673934</ele>
        <time>2015-03-29T14:25:27Z</time>
      </trkpt>
      <trkpt lat="42.92479" lon="0.19524">
        <ele>1414.7110673934</ele>
        <time>2015-03-29T14:25:32Z</time>
      </trkpt>
      <trkpt lat="42.9248" lon="0.19522">
        <ele>1414.7110673934</ele>
        <time>2015-03-29T14:25:37Z</time>
      </trkpt>
      <trkpt lat="42.92485" lon="0.19518">
        <ele>1413.6159411693</ele>
        <time>2015-03-29T14:25:42Z</time>
      </trkpt>
      <trkpt lat="42.92487" lon="0.19518">
        <ele>1413.6159411693</ele>
        <time>2015-03-29T14:25:47Z</time>
      </trkpt>
      <trkpt lat="42.92488" lon="0.19524">
        <ele>1413.6159411693</ele>
        <time>2015-03-29T14:25:52Z</time>
      </trkpt>
      <trkpt lat="42.92487" lon="0.19527">
        <ele>1413.6159411693</ele>
        <time>2015-03-29T14:25:57Z</time>
      </trkpt>
      <trkpt lat="42.92484" lon="0.19534">
        <ele>1412.3535540162</ele>
        <time>2015-03-29T14:26:02Z</time>
      </trkpt>
      <trkpt lat="42.92476" lon="0.19543">
        <ele>1411.0921764365</ele>
        <time>2015-03-29T14:26:12Z</time>
      </trkpt>
      <trkpt lat="42.92476" lon="0.19548">
        <ele>1411.0921764365</ele>
        <time>2015-03-29T14:26:17Z</time>
      </trkpt>
      <trkpt lat="42.92479" lon="0.19556">
        <ele>1409.7861332397</ele>
        <time>2015-03-29T14:26:22Z</time>
      </trkpt>
      <trkpt lat="42.92475" lon="0.19559">
        <ele>1409.7861332397</ele>
        <time>2015-03-29T14:26:27Z</time>
      </trkpt>
      <trkpt lat="42.92469" lon="0.19562">
        <ele>1408.5230977539</ele>
        <time>2015-03-29T14:26:32Z</time>
      </trkpt>
      <trkpt lat="42.9247" lon="0.19564">
        <ele>1408.5230977539</ele>
        <time>2015-03-29T14:26:37Z</time>
      </trkpt>
      <trkpt lat="42.92472" lon="0.19574">
        <ele>1407.3987552363</ele>
        <time>2015-03-29T14:26:42Z</time>
      </trkpt>
      <trkpt lat="42.92477" lon="0.19582">
        <ele>1407.3987552363</ele>
        <time>2015-03-29T14:26:58Z</time>
      </trkpt>
      <trkpt lat="42.92478" lon="0.19582">
        <ele>1407.3987552363</ele>
        <time>2015-03-29T14:27:02Z</time>
      </trkpt>
      <trkpt lat="42.92484" lon="0.19585">
        <ele>1405.8386168078</ele>
        <time>2015-03-29T14:27:07Z</time>
      </trkpt>
      <trkpt lat="42.92485" lon="0.19585">
        <ele>1405.8386168078</ele>
        <time>2015-03-29T14:27:12Z</time>
      </trkpt>
      <trkpt lat="42.92493" lon="0.19592">
        <ele>1404.3061332779</ele>
        <time>2015-03-29T14:27:17Z</time>
      </trkpt>
      <trkpt lat="42.9249" lon="0.19594">
        <ele>1404.3061332779</ele>
        <time>2015-03-29T14:27:21Z</time>
      </trkpt>
      <trkpt lat="42.92491" lon="0.19593">
        <ele>1404.3061332779</ele>
        <time>2015-03-29T14:27:32Z</time>
      </trkpt>
      <trkpt lat="42.9249" lon="0.19597">
        <ele>1404.3061332779</ele>
        <time>2015-03-29T14:27:37Z</time>
      </trkpt>
      <trkpt lat="42.92492" lon="0.19603">
        <ele>1402.2796397292</ele>
        <time>2015-03-29T14:27:42Z</time>
      </trkpt>
      <trkpt lat="42.92494" lon="0.19603">
        <ele>1402.2796397292</ele>
        <time>2015-03-29T14:27:47Z</time>
      </trkpt>
      <trkpt lat="42.92494" lon="0.19606">
        <ele>1402.2796397292</ele>
        <time>2015-03-29T14:27:51Z</time>
      </trkpt>
      <trkpt lat="42.92494" lon="0.19611">
        <ele>1402.2796397292</ele>
        <time>2015-03-29T14:27:56Z</time>
      </trkpt>
      <trkpt lat="42.92492" lon="0.19615">
        <ele>1399.9978648454</ele>
        <time>2015-03-29T14:28:02Z</time>
      </trkpt>
      <trkpt lat="42.92491" lon="0.1962">
        <ele>1399.9978648454</ele>
        <time>2015-03-29T14:28:10Z</time>
      </trkpt>
      <trkpt lat="42.92492" lon="0.19623">
        <ele>1399.9978648454</ele>
        <time>2015-03-29T14:28:17Z</time>
      </trkpt>
      <trkpt lat="42.92488" lon="0.19625">
        <ele>1397.4810800615</ele>
        <time>2015-03-29T14:28:22Z</time>
      </trkpt>
      <trkpt lat="42.92487" lon="0.19627">
        <ele>1397.4810800615</ele>
        <time>2015-03-29T14:28:27Z</time>
      </trkpt>
      <trkpt lat="42.92486" lon="0.19628">
        <ele>1397.4810800615</ele>
        <time>2015-03-29T14:28:32Z</time>
      </trkpt>
      <trkpt lat="42.92487" lon="0.19631">
        <ele>1397.4810800615</ele>
        <time>2015-03-29T14:28:37Z</time>
      </trkpt>
      <trkpt lat="42.92489" lon="0.19635">
        <ele>1395.0802890798</ele>
        <time>2015-03-29T14:28:42Z</time>
      </trkpt>
      <trkpt lat="42.92489" lon="0.19635">
        <ele>1395.0802890798</ele>
        <time>2015-03-29T14:28:46Z</time>
      </trkpt>
      <trkpt lat="42.92495" lon="0.19631">
        <ele>1395.0802890798</ele>
        <time>2015-03-29T14:28:53Z</time>
      </trkpt>
      <trkpt lat="42.92492" lon="0.1964">
        <ele>1392.5872671056</ele>
        <time>2015-03-29T14:28:56Z</time>
      </trkpt>
      <trkpt lat="42.92488" lon="0.19648">
        <ele>1392.5872671056</ele>
        <time>2015-03-29T14:29:02Z</time>
      </trkpt>
      <trkpt lat="42.9249" lon="0.19656">
        <ele>1390.1408790223</ele>
        <time>2015-03-29T14:29:08Z</time>
      </trkpt>
      <trkpt lat="42.92488" lon="0.19665">
        <ele>1390.1408790223</ele>
        <time>2015-03-29T14:29:11Z</time>
      </trkpt>
      <trkpt lat="42.92484" lon="0.19676">
        <ele>1387.8264910522</ele>
        <time>2015-03-29T14:29:17Z</time>
      </trkpt>
      <trkpt lat="42.92481" lon="0.1968">
        <ele>1387.8264910522</ele>
        <time>2015-03-29T14:29:28Z</time>
      </trkpt>
      <trkpt lat="42.92485" lon="0.19679">
        <ele>1387.8264910522</ele>
        <time>2015-03-29T14:29:32Z</time>
      </trkpt>
      <trkpt lat="42.92494" lon="0.19681">
        <ele>1385.1032041552</ele>
        <time>2015-03-29T14:29:37Z</time>
      </trkpt>
      <trkpt lat="42.92508" lon="0.1969">
        <ele>1382.6527545808</ele>
        <time>2015-03-29T14:29:42Z</time>
      </trkpt>
      <trkpt lat="42.92512" lon="0.19692">
        <ele>1382.6527545808</ele>
        <time>2015-03-29T14:29:47Z</time>
      </trkpt>
      <trkpt lat="42.92516" lon="0.19691">
        <ele>1382.6527545808</ele>
        <time>2015-03-29T14:29:52Z</time>
      </trkpt>
      <trkpt lat="42.92518" lon="0.19695">
        <ele>1379.8955305399</ele>
        <time>2015-03-29T14:29:57Z</time>
      </trkpt>
      <trkpt lat="42.92513" lon="0.1971">
        <ele>1377.2609237682</ele>
        <time>2015-03-29T14:30:02Z</time>
      </trkpt>
      <trkpt lat="42.92511" lon="0.19711">
        <ele>1377.2609237682</ele>
        <time>2015-03-29T14:30:07Z</time>
      </trkpt>
      <trkpt lat="42.92518" lon="0.19714">
        <ele>1373.9503248505</ele>
        <time>2015-03-29T14:30:22Z</time>
      </trkpt>
      <trkpt lat="42.92524" lon="0.1971">
        <ele>1373.9503248505</ele>
        <time>2015-03-29T14:30:27Z</time>
      </trkpt>
      <trkpt lat="42.92523" lon="0.19717">
        <ele>1370.364160395</ele>
        <time>2015-03-29T14:30:32Z</time>
      </trkpt>
      <trkpt lat="42.92518" lon="0.1973">
        <ele>1366.989487039</ele>
        <time>2015-03-29T14:30:37Z</time>
      </trkpt>
      <trkpt lat="42.9252" lon="0.1974">
        <ele>1366.989487039</ele>
        <time>2015-03-29T14:30:41Z</time>
      </trkpt>
      <trkpt lat="42.92531" lon="0.1974">
        <ele>1363.7293368085</ele>
        <time>2015-03-29T14:30:47Z</time>
      </trkpt>
      <trkpt lat="42.92545" lon="0.19741">
        <ele>1360.4358562241</ele>
        <time>2015-03-29T14:30:52Z</time>
      </trkpt>
      <trkpt lat="42.92551" lon="0.19742">
        <ele>1360.4358562241</ele>
        <time>2015-03-29T14:30:57Z</time>
      </trkpt>
      <trkpt lat="42.92555" lon="0.19735">
        <ele>1356.5109350982</ele>
        <time>2015-03-29T14:31:02Z</time>
      </trkpt>
      <trkpt lat="42.92555" lon="0.19734">
        <ele>1356.5109350982</ele>
        <time>2015-03-29T14:31:07Z</time>
      </trkpt>
      <trkpt lat="42.9255" lon="0.19736">
        <ele>1356.5109350982</ele>
        <time>2015-03-29T14:31:27Z</time>
      </trkpt>
      <trkpt lat="42.92549" lon="0.19731">
        <ele>1351.358868264</ele>
        <time>2015-03-29T14:31:31Z</time>
      </trkpt>
      <trkpt lat="42.9255" lon="0.19729">
        <ele>1351.358868264</ele>
        <time>2015-03-29T14:31:36Z</time>
      </trkpt>
      <trkpt lat="42.92548" lon="0.19741">
        <ele>1346.073934759</ele>
        <time>2015-03-29T14:31:47Z</time>
      </trkpt>
      <trkpt lat="42.92549" lon="0.19741">
        <ele>1346.073934759</ele>
        <time>2015-03-29T14:31:52Z</time>
      </trkpt>
      <trkpt lat="42.92549" lon="0.19744">
        <ele>1346.073934759</ele>
        <time>2015-03-29T14:32:17Z</time>
      </trkpt>
      <trkpt lat="42.92546" lon="0.19746">
        <ele>1346.073934759</ele>
        <time>2015-03-29T14:32:22Z</time>
      </trkpt>
      <trkpt lat="42.92545" lon="0.19747">
        <ele>1346.073934759</ele>
        <time>2015-03-29T14:32:28Z</time>
      </trkpt>
      <trkpt lat="42.92546" lon="0.19747">
        <ele>1346.073934759</ele>
        <time>2015-03-29T14:32:32Z</time>
      </trkpt>
      <trkpt lat="42.92549" lon="0.19734">
        <ele>1338.716014532</ele>
        <time>2015-03-29T14:32:52Z</time>
      </trkpt>
      <trkpt lat="42.9255" lon="0.19733">
        <ele>1338.716014532</ele>
        <time>2015-03-29T14:32:58Z</time>
      </trkpt>
      <trkpt lat="42.92553" lon="0.19744">
        <ele>1331.8597579476</ele>
        <time>2015-03-29T14:33:31Z</time>
      </trkpt>
      <trkpt lat="42.92553" lon="0.19743">
        <ele>1331.8597579476</ele>
        <time>2015-03-29T14:33:37Z</time>
      </trkpt>
      <trkpt lat="42.92546" lon="0.19736">
        <ele>1325.6986251737</ele>
        <time>2015-03-29T14:33:57Z</time>
      </trkpt>
      <trkpt lat="42.92546" lon="0.19736">
        <ele>1325.6986251737</ele>
        <time>2015-03-29T14:34:02Z</time>
      </trkpt>
      <trkpt lat="42.9255" lon="0.19747">
        <ele>1319.5018263556</ele>
        <time>2015-03-29T14:35:22Z</time>
      </trkpt>
      <trkpt lat="42.92551" lon="0.19747">
        <ele>1319.5018263556</ele>
        <time>2015-03-29T14:35:27Z</time>
      </trkpt>
      <trkpt lat="42.92547" lon="0.19736">
        <ele>1313.2118196555</ele>
        <time>2015-03-29T14:39:32Z</time>
      </trkpt>
      <trkpt lat="42.92547" lon="0.19737">
        <ele>1313.2118196555</ele>
        <time>2015-03-29T14:39:37Z</time>
      </trkpt>
      <trkpt lat="42.92543" lon="0.19746">
        <ele>1313.2118196555</ele>
        <time>2015-03-29T14:41:32Z</time>
      </trkpt>
      <trkpt lat="42.92543" lon="0.19746">
        <ele>1313.2118196555</ele>
        <time>2015-03-29T14:41:37Z</time>
      </trkpt>
      <trkpt lat="42.92544" lon="0.19748">
        <ele>1307.4094074065</ele>
        <time>2015-03-29T14:41:42Z</time>
      </trkpt>
      <trkpt lat="42.92542" lon="0.19748">
        <ele>1307.4094074065</ele>
        <time>2015-03-29T14:41:47Z</time>
      </trkpt>
      <trkpt lat="42.92542" lon="0.19745">
        <ele>1307.4094074065</ele>
        <time>2015-03-29T14:41:51Z</time>
      </trkpt>
      <trkpt lat="42.92542" lon="0.19743">
        <ele>1307.4094074065</ele>
        <time>2015-03-29T14:41:57Z</time>
      </trkpt>
    </trkseg>
  </trk>
</gpx>